<?xml version="1.0" encoding="UTF-8"?>
<gpx xmlns="http://www.topografix.com/GPX/1/1" creator="GPSies http://www.gpsies.com - BattertLauf2008Baden-baden" version="1.1" xmlns:xsi="http://www.w3.org/2001/XMLSchema-instance" xsi:schemaLocation="http://www.topografix.com/GPX/1/1 http://www.topografix.com/GPX/1/1/gpx.xsd">
  <metadata>
    <name>BattertLauf2008Baden-baden</name>
    <copyright author="GPSies.com" />
    <link href="http://www.gpsies.com/">
      <text>BattertLauf2008Baden-baden on GPSies.com</text>
    </link>
    <time>2008-10-27T20:43:18Z</time>
  </metadata>
  <trk>
    <name>Battert Lauf 2008 Baden-Baden</name>
    <link href="http://www.gpsies.com/map.do?fileId=sefasdhfinwllhtn" />
    <trkseg>
      <trkpt lat="48.75978000" lon="8.238659000">
        <ele>161.00000</ele>
        <time>2008-10-19T12:11:44Z</time>
      </trkpt>
      <trkpt lat="48.75978000" lon="8.238660000">
        <ele>161.00000</ele>
        <time>2008-10-19T12:11:44Z</time>
      </trkpt>
      <trkpt lat="48.75979000" lon="8.238656000">
        <ele>161.00000</ele>
        <time>2008-10-19T12:11:44Z</time>
      </trkpt>
      <trkpt lat="48.75980000" lon="8.238652000">
        <ele>161.00000</ele>
        <time>2008-10-19T12:11:44Z</time>
      </trkpt>
      <trkpt lat="48.75981000" lon="8.238653000">
        <ele>161.00000</ele>
        <time>2008-10-19T12:11:44Z</time>
      </trkpt>
      <trkpt lat="48.75982000" lon="8.238651000">
        <ele>161.00000</ele>
        <time>2008-10-19T12:11:44Z</time>
      </trkpt>
      <trkpt lat="48.75983000" lon="8.238639000">
        <ele>161.00000</ele>
        <time>2008-10-19T12:11:44Z</time>
      </trkpt>
      <trkpt lat="48.75985000" lon="8.238624000">
        <ele>161.00000</ele>
        <time>2008-10-19T12:11:44Z</time>
      </trkpt>
      <trkpt lat="48.75986000" lon="8.238605000">
        <ele>161.00000</ele>
        <time>2008-10-19T12:11:44Z</time>
      </trkpt>
      <trkpt lat="48.75988000" lon="8.238582000">
        <ele>161.00000</ele>
        <time>2008-10-19T12:11:44Z</time>
      </trkpt>
      <trkpt lat="48.75991000" lon="8.238572000">
        <ele>161.00000</ele>
        <time>2008-10-19T12:11:44Z</time>
      </trkpt>
      <trkpt lat="48.75994000" lon="8.238561000">
        <ele>161.00000</ele>
        <time>2008-10-19T12:11:44Z</time>
      </trkpt>
      <trkpt lat="48.75997000" lon="8.238542000">
        <ele>161.00000</ele>
        <time>2008-10-19T12:11:44Z</time>
      </trkpt>
      <trkpt lat="48.75999000" lon="8.238518000">
        <ele>161.00000</ele>
        <time>2008-10-19T12:11:44Z</time>
      </trkpt>
      <trkpt lat="48.76003000" lon="8.238515000">
        <ele>161.00000</ele>
        <time>2008-10-19T12:11:44Z</time>
      </trkpt>
      <trkpt lat="48.76007000" lon="8.238523000">
        <ele>161.00000</ele>
        <time>2008-10-19T12:11:44Z</time>
      </trkpt>
      <trkpt lat="48.76009000" lon="8.238527000">
        <ele>161.00000</ele>
        <time>2008-10-19T12:11:44Z</time>
      </trkpt>
      <trkpt lat="48.76011000" lon="8.238532000">
        <ele>161.00000</ele>
        <time>2008-10-19T12:11:44Z</time>
      </trkpt>
      <trkpt lat="48.76013000" lon="8.238535000">
        <ele>161.00000</ele>
        <time>2008-10-19T12:11:44Z</time>
      </trkpt>
      <trkpt lat="48.76016000" lon="8.238543000">
        <ele>161.00000</ele>
        <time>2008-10-19T12:11:44Z</time>
      </trkpt>
      <trkpt lat="48.76019000" lon="8.238561000">
        <ele>161.00000</ele>
        <time>2008-10-19T12:11:44Z</time>
      </trkpt>
      <trkpt lat="48.76021000" lon="8.238589000">
        <ele>161.00000</ele>
        <time>2008-10-19T12:11:44Z</time>
      </trkpt>
      <trkpt lat="48.76022000" lon="8.238624000">
        <ele>161.00000</ele>
        <time>2008-10-19T12:11:44Z</time>
      </trkpt>
      <trkpt lat="48.76024000" lon="8.238657000">
        <ele>161.00000</ele>
        <time>2008-10-19T12:11:44Z</time>
      </trkpt>
      <trkpt lat="48.76025000" lon="8.238695000">
        <ele>161.00000</ele>
        <time>2008-10-19T12:11:44Z</time>
      </trkpt>
      <trkpt lat="48.76027000" lon="8.238738000">
        <ele>161.00000</ele>
        <time>2008-10-19T12:11:44Z</time>
      </trkpt>
      <trkpt lat="48.76028000" lon="8.238777000">
        <ele>164.00000</ele>
        <time>2008-10-19T12:11:44Z</time>
      </trkpt>
      <trkpt lat="48.76029000" lon="8.238810000">
        <ele>164.00000</ele>
        <time>2008-10-19T12:11:44Z</time>
      </trkpt>
      <trkpt lat="48.76030000" lon="8.238846000">
        <ele>164.00000</ele>
        <time>2008-10-19T12:11:44Z</time>
      </trkpt>
      <trkpt lat="48.76031000" lon="8.238880000">
        <ele>164.00000</ele>
        <time>2008-10-19T12:11:44Z</time>
      </trkpt>
      <trkpt lat="48.76032000" lon="8.238909000">
        <ele>164.00000</ele>
        <time>2008-10-19T12:11:44Z</time>
      </trkpt>
      <trkpt lat="48.76032000" lon="8.238938000">
        <ele>164.00000</ele>
        <time>2008-10-19T12:11:44Z</time>
      </trkpt>
      <trkpt lat="48.76033000" lon="8.238976000">
        <ele>164.00000</ele>
        <time>2008-10-19T12:11:44Z</time>
      </trkpt>
      <trkpt lat="48.76034000" lon="8.239011000">
        <ele>164.00000</ele>
        <time>2008-10-19T12:11:44Z</time>
      </trkpt>
      <trkpt lat="48.76035000" lon="8.239048000">
        <ele>164.00000</ele>
        <time>2008-10-19T12:11:44Z</time>
      </trkpt>
      <trkpt lat="48.76036000" lon="8.239080000">
        <ele>164.00000</ele>
        <time>2008-10-19T12:11:44Z</time>
      </trkpt>
      <trkpt lat="48.76037000" lon="8.239108000">
        <ele>164.00000</ele>
        <time>2008-10-19T12:11:44Z</time>
      </trkpt>
      <trkpt lat="48.76040000" lon="8.239140000">
        <ele>164.00000</ele>
        <time>2008-10-19T12:11:44Z</time>
      </trkpt>
      <trkpt lat="48.76041000" lon="8.239174000">
        <ele>164.00000</ele>
        <time>2008-10-19T12:11:44Z</time>
      </trkpt>
      <trkpt lat="48.76044000" lon="8.239199000">
        <ele>165.00000</ele>
        <time>2008-10-19T12:11:44Z</time>
      </trkpt>
      <trkpt lat="48.76046000" lon="8.239223000">
        <ele>165.00000</ele>
        <time>2008-10-19T12:11:44Z</time>
      </trkpt>
      <trkpt lat="48.76049000" lon="8.239249000">
        <ele>165.00000</ele>
        <time>2008-10-19T12:11:44Z</time>
      </trkpt>
      <trkpt lat="48.76051000" lon="8.239268000">
        <ele>165.00000</ele>
        <time>2008-10-19T12:11:44Z</time>
      </trkpt>
      <trkpt lat="48.76052000" lon="8.239282000">
        <ele>165.00000</ele>
        <time>2008-10-19T12:11:44Z</time>
      </trkpt>
      <trkpt lat="48.76054000" lon="8.239300000">
        <ele>165.00000</ele>
        <time>2008-10-19T12:11:44Z</time>
      </trkpt>
      <trkpt lat="48.76056000" lon="8.239318000">
        <ele>165.00000</ele>
        <time>2008-10-19T12:11:44Z</time>
      </trkpt>
      <trkpt lat="48.76057000" lon="8.239337000">
        <ele>165.00000</ele>
        <time>2008-10-19T12:11:44Z</time>
      </trkpt>
      <trkpt lat="48.76059000" lon="8.239353000">
        <ele>165.00000</ele>
        <time>2008-10-19T12:11:44Z</time>
      </trkpt>
      <trkpt lat="48.76062000" lon="8.239361000">
        <ele>165.00000</ele>
        <time>2008-10-19T12:11:44Z</time>
      </trkpt>
      <trkpt lat="48.76064000" lon="8.239373000">
        <ele>165.00000</ele>
        <time>2008-10-19T12:11:44Z</time>
      </trkpt>
      <trkpt lat="48.76066000" lon="8.239385000">
        <ele>165.00000</ele>
        <time>2008-10-19T12:11:44Z</time>
      </trkpt>
      <trkpt lat="48.76069000" lon="8.239392000">
        <ele>165.00000</ele>
        <time>2008-10-19T12:11:44Z</time>
      </trkpt>
      <trkpt lat="48.76072000" lon="8.239399000">
        <ele>165.00000</ele>
        <time>2008-10-19T12:11:44Z</time>
      </trkpt>
      <trkpt lat="48.76075000" lon="8.239409000">
        <ele>165.00000</ele>
        <time>2008-10-19T12:11:44Z</time>
      </trkpt>
      <trkpt lat="48.76076000" lon="8.239421000">
        <ele>165.00000</ele>
        <time>2008-10-19T12:11:44Z</time>
      </trkpt>
      <trkpt lat="48.76077000" lon="8.239444000">
        <ele>165.00000</ele>
        <time>2008-10-19T12:11:44Z</time>
      </trkpt>
      <trkpt lat="48.76077000" lon="8.239480000">
        <ele>165.00000</ele>
        <time>2008-10-19T12:11:44Z</time>
      </trkpt>
      <trkpt lat="48.76078000" lon="8.239516000">
        <ele>165.00000</ele>
        <time>2008-10-19T12:11:44Z</time>
      </trkpt>
      <trkpt lat="48.76080000" lon="8.239537000">
        <ele>165.00000</ele>
        <time>2008-10-19T12:11:44Z</time>
      </trkpt>
      <trkpt lat="48.76080000" lon="8.239564000">
        <ele>165.00000</ele>
        <time>2008-10-19T12:11:44Z</time>
      </trkpt>
      <trkpt lat="48.76081000" lon="8.239595000">
        <ele>169.00000</ele>
        <time>2008-10-19T12:11:44Z</time>
      </trkpt>
      <trkpt lat="48.76082000" lon="8.239615000">
        <ele>169.00000</ele>
        <time>2008-10-19T12:11:44Z</time>
      </trkpt>
      <trkpt lat="48.76083000" lon="8.239636000">
        <ele>169.00000</ele>
        <time>2008-10-19T12:11:44Z</time>
      </trkpt>
      <trkpt lat="48.76085000" lon="8.239662000">
        <ele>169.00000</ele>
        <time>2008-10-19T12:11:44Z</time>
      </trkpt>
      <trkpt lat="48.76086000" lon="8.239692000">
        <ele>169.00000</ele>
        <time>2008-10-19T12:11:44Z</time>
      </trkpt>
      <trkpt lat="48.76087000" lon="8.239711000">
        <ele>169.00000</ele>
        <time>2008-10-19T12:11:44Z</time>
      </trkpt>
      <trkpt lat="48.76088000" lon="8.239725000">
        <ele>169.00000</ele>
        <time>2008-10-19T12:11:44Z</time>
      </trkpt>
      <trkpt lat="48.76089000" lon="8.239742000">
        <ele>169.00000</ele>
        <time>2008-10-19T12:11:44Z</time>
      </trkpt>
      <trkpt lat="48.76090000" lon="8.239760000">
        <ele>169.00000</ele>
        <time>2008-10-19T12:11:44Z</time>
      </trkpt>
      <trkpt lat="48.76091000" lon="8.239779000">
        <ele>169.00000</ele>
        <time>2008-10-19T12:11:44Z</time>
      </trkpt>
      <trkpt lat="48.76093000" lon="8.239795000">
        <ele>169.00000</ele>
        <time>2008-10-19T12:11:44Z</time>
      </trkpt>
      <trkpt lat="48.76094000" lon="8.239814000">
        <ele>169.00000</ele>
        <time>2008-10-19T12:11:44Z</time>
      </trkpt>
      <trkpt lat="48.76096000" lon="8.239836000">
        <ele>169.00000</ele>
        <time>2008-10-19T12:11:44Z</time>
      </trkpt>
      <trkpt lat="48.76098000" lon="8.239867000">
        <ele>169.00000</ele>
        <time>2008-10-19T12:11:44Z</time>
      </trkpt>
      <trkpt lat="48.76100000" lon="8.239896000">
        <ele>169.00000</ele>
        <time>2008-10-19T12:11:44Z</time>
      </trkpt>
      <trkpt lat="48.76101000" lon="8.239923000">
        <ele>169.00000</ele>
        <time>2008-10-19T12:11:44Z</time>
      </trkpt>
      <trkpt lat="48.76102000" lon="8.239952000">
        <ele>169.00000</ele>
        <time>2008-10-19T12:11:44Z</time>
      </trkpt>
      <trkpt lat="48.76104000" lon="8.239981000">
        <ele>169.00000</ele>
        <time>2008-10-19T12:11:44Z</time>
      </trkpt>
      <trkpt lat="48.76105000" lon="8.240006000">
        <ele>169.00000</ele>
        <time>2008-10-19T12:11:44Z</time>
      </trkpt>
      <trkpt lat="48.76106000" lon="8.240042000">
        <ele>169.00000</ele>
        <time>2008-10-19T12:11:44Z</time>
      </trkpt>
      <trkpt lat="48.76107000" lon="8.240081000">
        <ele>169.00000</ele>
        <time>2008-10-19T12:11:44Z</time>
      </trkpt>
      <trkpt lat="48.76108000" lon="8.240114000">
        <ele>169.00000</ele>
        <time>2008-10-19T12:11:44Z</time>
      </trkpt>
      <trkpt lat="48.76109000" lon="8.240145000">
        <ele>169.00000</ele>
        <time>2008-10-19T12:11:44Z</time>
      </trkpt>
      <trkpt lat="48.76110000" lon="8.240173000">
        <ele>169.00000</ele>
        <time>2008-10-19T12:11:44Z</time>
      </trkpt>
      <trkpt lat="48.76112000" lon="8.240209000">
        <ele>169.00000</ele>
        <time>2008-10-19T12:11:44Z</time>
      </trkpt>
      <trkpt lat="48.76113000" lon="8.240243000">
        <ele>169.00000</ele>
        <time>2008-10-19T12:11:44Z</time>
      </trkpt>
      <trkpt lat="48.76114000" lon="8.240276000">
        <ele>169.00000</ele>
        <time>2008-10-19T12:11:44Z</time>
      </trkpt>
      <trkpt lat="48.76115000" lon="8.240300000">
        <ele>169.00000</ele>
        <time>2008-10-19T12:11:44Z</time>
      </trkpt>
      <trkpt lat="48.76114000" lon="8.240314000">
        <ele>169.00000</ele>
        <time>2008-10-19T12:11:44Z</time>
      </trkpt>
      <trkpt lat="48.76114000" lon="8.240335000">
        <ele>169.00000</ele>
        <time>2008-10-19T12:11:44Z</time>
      </trkpt>
      <trkpt lat="48.76114000" lon="8.240360000">
        <ele>169.00000</ele>
        <time>2008-10-19T12:11:44Z</time>
      </trkpt>
      <trkpt lat="48.76115000" lon="8.240385000">
        <ele>169.00000</ele>
        <time>2008-10-19T12:11:44Z</time>
      </trkpt>
      <trkpt lat="48.76115000" lon="8.240405000">
        <ele>169.00000</ele>
        <time>2008-10-19T12:11:44Z</time>
      </trkpt>
      <trkpt lat="48.76116000" lon="8.240446000">
        <ele>173.00000</ele>
        <time>2008-10-19T12:11:44Z</time>
      </trkpt>
      <trkpt lat="48.76118000" lon="8.240499000">
        <ele>173.00000</ele>
        <time>2008-10-19T12:11:44Z</time>
      </trkpt>
      <trkpt lat="48.76122000" lon="8.240539000">
        <ele>173.00000</ele>
        <time>2008-10-19T12:11:44Z</time>
      </trkpt>
      <trkpt lat="48.76124000" lon="8.240569000">
        <ele>173.00000</ele>
        <time>2008-10-19T12:11:44Z</time>
      </trkpt>
      <trkpt lat="48.76125000" lon="8.240601000">
        <ele>173.00000</ele>
        <time>2008-10-19T12:11:44Z</time>
      </trkpt>
      <trkpt lat="48.76126000" lon="8.240628000">
        <ele>173.00000</ele>
        <time>2008-10-19T12:11:44Z</time>
      </trkpt>
      <trkpt lat="48.76127000" lon="8.240643000">
        <ele>173.00000</ele>
        <time>2008-10-19T12:11:44Z</time>
      </trkpt>
      <trkpt lat="48.76129000" lon="8.240664000">
        <ele>173.00000</ele>
        <time>2008-10-19T12:11:44Z</time>
      </trkpt>
      <trkpt lat="48.76131000" lon="8.240685000">
        <ele>173.00000</ele>
        <time>2008-10-19T12:11:44Z</time>
      </trkpt>
      <trkpt lat="48.76131000" lon="8.240718000">
        <ele>173.00000</ele>
        <time>2008-10-19T12:11:44Z</time>
      </trkpt>
      <trkpt lat="48.76131000" lon="8.240745000">
        <ele>173.00000</ele>
        <time>2008-10-19T12:11:44Z</time>
      </trkpt>
      <trkpt lat="48.76131000" lon="8.240784000">
        <ele>173.00000</ele>
        <time>2008-10-19T12:11:44Z</time>
      </trkpt>
      <trkpt lat="48.76130000" lon="8.240826000">
        <ele>173.00000</ele>
        <time>2008-10-19T12:11:44Z</time>
      </trkpt>
      <trkpt lat="48.76130000" lon="8.240865000">
        <ele>173.00000</ele>
        <time>2008-10-19T12:11:44Z</time>
      </trkpt>
      <trkpt lat="48.76129000" lon="8.240895000">
        <ele>173.00000</ele>
        <time>2008-10-19T12:11:44Z</time>
      </trkpt>
      <trkpt lat="48.76128000" lon="8.240935000">
        <ele>173.00000</ele>
        <time>2008-10-19T12:11:44Z</time>
      </trkpt>
      <trkpt lat="48.76127000" lon="8.240973000">
        <ele>173.00000</ele>
        <time>2008-10-19T12:11:44Z</time>
      </trkpt>
      <trkpt lat="48.76128000" lon="8.241000000">
        <ele>173.00000</ele>
        <time>2008-10-19T12:11:44Z</time>
      </trkpt>
      <trkpt lat="48.76128000" lon="8.241040000">
        <ele>173.00000</ele>
        <time>2008-10-19T12:11:44Z</time>
      </trkpt>
      <trkpt lat="48.76126000" lon="8.241083000">
        <ele>173.00000</ele>
        <time>2008-10-19T12:11:44Z</time>
      </trkpt>
      <trkpt lat="48.76127000" lon="8.241123000">
        <ele>173.00000</ele>
        <time>2008-10-19T12:11:44Z</time>
      </trkpt>
      <trkpt lat="48.76128000" lon="8.241156000">
        <ele>173.00000</ele>
        <time>2008-10-19T12:11:44Z</time>
      </trkpt>
      <trkpt lat="48.76131000" lon="8.241186000">
        <ele>173.00000</ele>
        <time>2008-10-19T12:11:44Z</time>
      </trkpt>
      <trkpt lat="48.76132000" lon="8.241214000">
        <ele>173.00000</ele>
        <time>2008-10-19T12:11:44Z</time>
      </trkpt>
      <trkpt lat="48.76132000" lon="8.241244000">
        <ele>173.00000</ele>
        <time>2008-10-19T12:11:44Z</time>
      </trkpt>
      <trkpt lat="48.76133000" lon="8.241273000">
        <ele>175.00000</ele>
        <time>2008-10-19T12:11:44Z</time>
      </trkpt>
      <trkpt lat="48.76132000" lon="8.241296000">
        <ele>175.00000</ele>
        <time>2008-10-19T12:11:44Z</time>
      </trkpt>
      <trkpt lat="48.76133000" lon="8.241313000">
        <ele>175.00000</ele>
        <time>2008-10-19T12:11:44Z</time>
      </trkpt>
      <trkpt lat="48.76133000" lon="8.241335000">
        <ele>175.00000</ele>
        <time>2008-10-19T12:11:44Z</time>
      </trkpt>
      <trkpt lat="48.76134000" lon="8.241363000">
        <ele>175.00000</ele>
        <time>2008-10-19T12:11:44Z</time>
      </trkpt>
      <trkpt lat="48.76137000" lon="8.241388000">
        <ele>175.00000</ele>
        <time>2008-10-19T12:11:44Z</time>
      </trkpt>
      <trkpt lat="48.76138000" lon="8.241416000">
        <ele>175.00000</ele>
        <time>2008-10-19T12:11:44Z</time>
      </trkpt>
      <trkpt lat="48.76141000" lon="8.241433000">
        <ele>175.00000</ele>
        <time>2008-10-19T12:11:44Z</time>
      </trkpt>
      <trkpt lat="48.76144000" lon="8.241450000">
        <ele>175.00000</ele>
        <time>2008-10-19T12:11:44Z</time>
      </trkpt>
      <trkpt lat="48.76145000" lon="8.241475000">
        <ele>175.00000</ele>
        <time>2008-10-19T12:11:44Z</time>
      </trkpt>
      <trkpt lat="48.76146000" lon="8.241510000">
        <ele>175.00000</ele>
        <time>2008-10-19T12:11:44Z</time>
      </trkpt>
      <trkpt lat="48.76146000" lon="8.241548000">
        <ele>175.00000</ele>
        <time>2008-10-19T12:11:44Z</time>
      </trkpt>
      <trkpt lat="48.76146000" lon="8.241582000">
        <ele>175.00000</ele>
        <time>2008-10-19T12:11:44Z</time>
      </trkpt>
      <trkpt lat="48.76147000" lon="8.241617000">
        <ele>175.00000</ele>
        <time>2008-10-19T12:11:44Z</time>
      </trkpt>
      <trkpt lat="48.76149000" lon="8.241645000">
        <ele>175.00000</ele>
        <time>2008-10-19T12:11:44Z</time>
      </trkpt>
      <trkpt lat="48.76151000" lon="8.241673000">
        <ele>175.00000</ele>
        <time>2008-10-19T12:11:44Z</time>
      </trkpt>
      <trkpt lat="48.76153000" lon="8.241704000">
        <ele>175.00000</ele>
        <time>2008-10-19T12:11:44Z</time>
      </trkpt>
      <trkpt lat="48.76154000" lon="8.241738000">
        <ele>175.00000</ele>
        <time>2008-10-19T12:11:44Z</time>
      </trkpt>
      <trkpt lat="48.76156000" lon="8.241771000">
        <ele>175.00000</ele>
        <time>2008-10-19T12:11:44Z</time>
      </trkpt>
      <trkpt lat="48.76157000" lon="8.241811000">
        <ele>175.00000</ele>
        <time>2008-10-19T12:11:44Z</time>
      </trkpt>
      <trkpt lat="48.76159000" lon="8.241850000">
        <ele>175.00000</ele>
        <time>2008-10-19T12:11:44Z</time>
      </trkpt>
      <trkpt lat="48.76160000" lon="8.241890000">
        <ele>175.00000</ele>
        <time>2008-10-19T12:11:44Z</time>
      </trkpt>
      <trkpt lat="48.76160000" lon="8.241927000">
        <ele>175.00000</ele>
        <time>2008-10-19T12:11:44Z</time>
      </trkpt>
      <trkpt lat="48.76162000" lon="8.241961000">
        <ele>175.00000</ele>
        <time>2008-10-19T12:11:44Z</time>
      </trkpt>
      <trkpt lat="48.76163000" lon="8.241985000">
        <ele>175.00000</ele>
        <time>2008-10-19T12:11:44Z</time>
      </trkpt>
      <trkpt lat="48.76163000" lon="8.242013000">
        <ele>175.00000</ele>
        <time>2008-10-19T12:11:44Z</time>
      </trkpt>
      <trkpt lat="48.76164000" lon="8.242041000">
        <ele>175.00000</ele>
        <time>2008-10-19T12:11:44Z</time>
      </trkpt>
      <trkpt lat="48.76166000" lon="8.242070000">
        <ele>175.00000</ele>
        <time>2008-10-19T12:11:44Z</time>
      </trkpt>
      <trkpt lat="48.76168000" lon="8.242097000">
        <ele>176.00000</ele>
        <time>2008-10-19T12:11:44Z</time>
      </trkpt>
      <trkpt lat="48.76170000" lon="8.242126000">
        <ele>176.00000</ele>
        <time>2008-10-19T12:11:44Z</time>
      </trkpt>
      <trkpt lat="48.76172000" lon="8.242156000">
        <ele>176.00000</ele>
        <time>2008-10-19T12:11:44Z</time>
      </trkpt>
      <trkpt lat="48.76173000" lon="8.242190000">
        <ele>176.00000</ele>
        <time>2008-10-19T12:11:44Z</time>
      </trkpt>
      <trkpt lat="48.76175000" lon="8.242218000">
        <ele>176.00000</ele>
        <time>2008-10-19T12:11:44Z</time>
      </trkpt>
      <trkpt lat="48.76176000" lon="8.242244000">
        <ele>176.00000</ele>
        <time>2008-10-19T12:11:44Z</time>
      </trkpt>
      <trkpt lat="48.76177000" lon="8.242261000">
        <ele>176.00000</ele>
        <time>2008-10-19T12:11:44Z</time>
      </trkpt>
      <trkpt lat="48.76177000" lon="8.242294000">
        <ele>176.00000</ele>
        <time>2008-10-19T12:11:44Z</time>
      </trkpt>
      <trkpt lat="48.76176000" lon="8.242321000">
        <ele>176.00000</ele>
        <time>2008-10-19T12:11:44Z</time>
      </trkpt>
      <trkpt lat="48.76177000" lon="8.242345000">
        <ele>176.00000</ele>
        <time>2008-10-19T12:11:44Z</time>
      </trkpt>
      <trkpt lat="48.76178000" lon="8.242376000">
        <ele>176.00000</ele>
        <time>2008-10-19T12:11:44Z</time>
      </trkpt>
      <trkpt lat="48.76178000" lon="8.242413000">
        <ele>176.00000</ele>
        <time>2008-10-19T12:11:44Z</time>
      </trkpt>
      <trkpt lat="48.76179000" lon="8.242446000">
        <ele>176.00000</ele>
        <time>2008-10-19T12:11:44Z</time>
      </trkpt>
      <trkpt lat="48.76180000" lon="8.242484000">
        <ele>176.00000</ele>
        <time>2008-10-19T12:11:44Z</time>
      </trkpt>
      <trkpt lat="48.76181000" lon="8.242517000">
        <ele>176.00000</ele>
        <time>2008-10-19T12:11:44Z</time>
      </trkpt>
      <trkpt lat="48.76182000" lon="8.242549000">
        <ele>176.00000</ele>
        <time>2008-10-19T12:11:44Z</time>
      </trkpt>
      <trkpt lat="48.76183000" lon="8.242579000">
        <ele>176.00000</ele>
        <time>2008-10-19T12:11:44Z</time>
      </trkpt>
      <trkpt lat="48.76186000" lon="8.242603000">
        <ele>176.00000</ele>
        <time>2008-10-19T12:11:44Z</time>
      </trkpt>
      <trkpt lat="48.76188000" lon="8.242624000">
        <ele>176.00000</ele>
        <time>2008-10-19T12:11:44Z</time>
      </trkpt>
      <trkpt lat="48.76191000" lon="8.242641000">
        <ele>176.00000</ele>
        <time>2008-10-19T12:11:44Z</time>
      </trkpt>
      <trkpt lat="48.76193000" lon="8.242661000">
        <ele>176.00000</ele>
        <time>2008-10-19T12:11:44Z</time>
      </trkpt>
      <trkpt lat="48.76194000" lon="8.242683000">
        <ele>176.00000</ele>
        <time>2008-10-19T12:11:44Z</time>
      </trkpt>
      <trkpt lat="48.76195000" lon="8.242705000">
        <ele>176.00000</ele>
        <time>2008-10-19T12:11:44Z</time>
      </trkpt>
      <trkpt lat="48.76194000" lon="8.242727000">
        <ele>176.00000</ele>
        <time>2008-10-19T12:11:44Z</time>
      </trkpt>
      <trkpt lat="48.76195000" lon="8.242752000">
        <ele>176.00000</ele>
        <time>2008-10-19T12:11:44Z</time>
      </trkpt>
      <trkpt lat="48.76196000" lon="8.242777000">
        <ele>176.00000</ele>
        <time>2008-10-19T12:11:44Z</time>
      </trkpt>
      <trkpt lat="48.76197000" lon="8.242808000">
        <ele>176.00000</ele>
        <time>2008-10-19T12:11:44Z</time>
      </trkpt>
      <trkpt lat="48.76199000" lon="8.242834000">
        <ele>176.00000</ele>
        <time>2008-10-19T12:11:44Z</time>
      </trkpt>
      <trkpt lat="48.76200000" lon="8.242860000">
        <ele>176.00000</ele>
        <time>2008-10-19T12:11:44Z</time>
      </trkpt>
      <trkpt lat="48.76201000" lon="8.242887000">
        <ele>176.00000</ele>
        <time>2008-10-19T12:11:44Z</time>
      </trkpt>
      <trkpt lat="48.76201000" lon="8.242909000">
        <ele>176.00000</ele>
        <time>2008-10-19T12:11:44Z</time>
      </trkpt>
      <trkpt lat="48.76202000" lon="8.242938000">
        <ele>179.00000</ele>
        <time>2008-10-19T12:11:44Z</time>
      </trkpt>
      <trkpt lat="48.76202000" lon="8.242965000">
        <ele>179.00000</ele>
        <time>2008-10-19T12:11:44Z</time>
      </trkpt>
      <trkpt lat="48.76202000" lon="8.242996000">
        <ele>179.00000</ele>
        <time>2008-10-19T12:11:44Z</time>
      </trkpt>
      <trkpt lat="48.76203000" lon="8.243030000">
        <ele>179.00000</ele>
        <time>2008-10-19T12:11:44Z</time>
      </trkpt>
      <trkpt lat="48.76205000" lon="8.243064000">
        <ele>179.00000</ele>
        <time>2008-10-19T12:11:44Z</time>
      </trkpt>
      <trkpt lat="48.76206000" lon="8.243097000">
        <ele>179.00000</ele>
        <time>2008-10-19T12:11:44Z</time>
      </trkpt>
      <trkpt lat="48.76208000" lon="8.243137000">
        <ele>179.00000</ele>
        <time>2008-10-19T12:11:44Z</time>
      </trkpt>
      <trkpt lat="48.76209000" lon="8.243174000">
        <ele>175.00000</ele>
        <time>2008-10-19T12:11:44Z</time>
      </trkpt>
      <trkpt lat="48.76210000" lon="8.243203000">
        <ele>175.00000</ele>
        <time>2008-10-19T12:11:44Z</time>
      </trkpt>
      <trkpt lat="48.76211000" lon="8.243229000">
        <ele>175.00000</ele>
        <time>2008-10-19T12:11:44Z</time>
      </trkpt>
      <trkpt lat="48.76212000" lon="8.243263000">
        <ele>175.00000</ele>
        <time>2008-10-19T12:11:44Z</time>
      </trkpt>
      <trkpt lat="48.76212000" lon="8.243299000">
        <ele>175.00000</ele>
        <time>2008-10-19T12:11:44Z</time>
      </trkpt>
      <trkpt lat="48.76212000" lon="8.243317000">
        <ele>175.00000</ele>
        <time>2008-10-19T12:11:44Z</time>
      </trkpt>
      <trkpt lat="48.76212000" lon="8.243335000">
        <ele>175.00000</ele>
        <time>2008-10-19T12:11:44Z</time>
      </trkpt>
      <trkpt lat="48.76212000" lon="8.243352000">
        <ele>175.00000</ele>
        <time>2008-10-19T12:11:44Z</time>
      </trkpt>
      <trkpt lat="48.76212000" lon="8.243373000">
        <ele>175.00000</ele>
        <time>2008-10-19T12:11:44Z</time>
      </trkpt>
      <trkpt lat="48.76213000" lon="8.243393000">
        <ele>175.00000</ele>
        <time>2008-10-19T12:11:44Z</time>
      </trkpt>
      <trkpt lat="48.76213000" lon="8.243413000">
        <ele>175.00000</ele>
        <time>2008-10-19T12:11:44Z</time>
      </trkpt>
      <trkpt lat="48.76213000" lon="8.243438000">
        <ele>175.00000</ele>
        <time>2008-10-19T12:11:44Z</time>
      </trkpt>
      <trkpt lat="48.76214000" lon="8.243465000">
        <ele>175.00000</ele>
        <time>2008-10-19T12:11:44Z</time>
      </trkpt>
      <trkpt lat="48.76215000" lon="8.243493000">
        <ele>175.00000</ele>
        <time>2008-10-19T12:11:44Z</time>
      </trkpt>
      <trkpt lat="48.76216000" lon="8.243524000">
        <ele>175.00000</ele>
        <time>2008-10-19T12:11:44Z</time>
      </trkpt>
      <trkpt lat="48.76218000" lon="8.243559000">
        <ele>175.00000</ele>
        <time>2008-10-19T12:11:44Z</time>
      </trkpt>
      <trkpt lat="48.76220000" lon="8.243595000">
        <ele>175.00000</ele>
        <time>2008-10-19T12:11:44Z</time>
      </trkpt>
      <trkpt lat="48.76222000" lon="8.243630000">
        <ele>175.00000</ele>
        <time>2008-10-19T12:11:44Z</time>
      </trkpt>
      <trkpt lat="48.76224000" lon="8.243668000">
        <ele>175.00000</ele>
        <time>2008-10-19T12:11:44Z</time>
      </trkpt>
      <trkpt lat="48.76226000" lon="8.243702000">
        <ele>175.00000</ele>
        <time>2008-10-19T12:11:44Z</time>
      </trkpt>
      <trkpt lat="48.76228000" lon="8.243726000">
        <ele>175.00000</ele>
        <time>2008-10-19T12:11:44Z</time>
      </trkpt>
      <trkpt lat="48.76230000" lon="8.243754000">
        <ele>181.00000</ele>
        <time>2008-10-19T12:11:44Z</time>
      </trkpt>
      <trkpt lat="48.76233000" lon="8.243779000">
        <ele>181.00000</ele>
        <time>2008-10-19T12:11:44Z</time>
      </trkpt>
      <trkpt lat="48.76236000" lon="8.243804000">
        <ele>181.00000</ele>
        <time>2008-10-19T12:11:44Z</time>
      </trkpt>
      <trkpt lat="48.76238000" lon="8.243823000">
        <ele>181.00000</ele>
        <time>2008-10-19T12:11:44Z</time>
      </trkpt>
      <trkpt lat="48.76241000" lon="8.243840000">
        <ele>181.00000</ele>
        <time>2008-10-19T12:11:44Z</time>
      </trkpt>
      <trkpt lat="48.76244000" lon="8.243862000">
        <ele>181.00000</ele>
        <time>2008-10-19T12:11:44Z</time>
      </trkpt>
      <trkpt lat="48.76248000" lon="8.243883000">
        <ele>181.00000</ele>
        <time>2008-10-19T12:11:44Z</time>
      </trkpt>
      <trkpt lat="48.76253000" lon="8.243905000">
        <ele>181.00000</ele>
        <time>2008-10-19T12:11:44Z</time>
      </trkpt>
      <trkpt lat="48.76257000" lon="8.243927000">
        <ele>181.00000</ele>
        <time>2008-10-19T12:11:44Z</time>
      </trkpt>
      <trkpt lat="48.76263000" lon="8.243945000">
        <ele>181.00000</ele>
        <time>2008-10-19T12:11:44Z</time>
      </trkpt>
      <trkpt lat="48.76268000" lon="8.243963000">
        <ele>181.00000</ele>
        <time>2008-10-19T12:11:44Z</time>
      </trkpt>
      <trkpt lat="48.76273000" lon="8.243971000">
        <ele>181.00000</ele>
        <time>2008-10-19T12:11:44Z</time>
      </trkpt>
      <trkpt lat="48.76276000" lon="8.243972000">
        <ele>181.00000</ele>
        <time>2008-10-19T12:11:44Z</time>
      </trkpt>
      <trkpt lat="48.76281000" lon="8.243968000">
        <ele>181.00000</ele>
        <time>2008-10-19T12:11:44Z</time>
      </trkpt>
      <trkpt lat="48.76284000" lon="8.243978000">
        <ele>181.00000</ele>
        <time>2008-10-19T12:11:44Z</time>
      </trkpt>
      <trkpt lat="48.76288000" lon="8.243977000">
        <ele>181.00000</ele>
        <time>2008-10-19T12:11:44Z</time>
      </trkpt>
      <trkpt lat="48.76291000" lon="8.243966000">
        <ele>181.00000</ele>
        <time>2008-10-19T12:11:44Z</time>
      </trkpt>
      <trkpt lat="48.76294000" lon="8.243943000">
        <ele>176.00000</ele>
        <time>2008-10-19T12:11:44Z</time>
      </trkpt>
      <trkpt lat="48.76297000" lon="8.243937000">
        <ele>176.00000</ele>
        <time>2008-10-19T12:11:44Z</time>
      </trkpt>
      <trkpt lat="48.76300000" lon="8.243936000">
        <ele>176.00000</ele>
        <time>2008-10-19T12:11:44Z</time>
      </trkpt>
      <trkpt lat="48.76302000" lon="8.243937000">
        <ele>176.00000</ele>
        <time>2008-10-19T12:11:44Z</time>
      </trkpt>
      <trkpt lat="48.76304000" lon="8.243923000">
        <ele>176.00000</ele>
        <time>2008-10-19T12:11:44Z</time>
      </trkpt>
      <trkpt lat="48.76307000" lon="8.243909000">
        <ele>176.00000</ele>
        <time>2008-10-19T12:11:44Z</time>
      </trkpt>
      <trkpt lat="48.76310000" lon="8.243913000">
        <ele>176.00000</ele>
        <time>2008-10-19T12:11:44Z</time>
      </trkpt>
      <trkpt lat="48.76312000" lon="8.243918000">
        <ele>176.00000</ele>
        <time>2008-10-19T12:11:44Z</time>
      </trkpt>
      <trkpt lat="48.76314000" lon="8.243937000">
        <ele>176.00000</ele>
        <time>2008-10-19T12:11:44Z</time>
      </trkpt>
      <trkpt lat="48.76315000" lon="8.243952000">
        <ele>176.00000</ele>
        <time>2008-10-19T12:11:44Z</time>
      </trkpt>
      <trkpt lat="48.76316000" lon="8.243959000">
        <ele>176.00000</ele>
        <time>2008-10-19T12:11:44Z</time>
      </trkpt>
      <trkpt lat="48.76317000" lon="8.243971000">
        <ele>176.00000</ele>
        <time>2008-10-19T12:11:44Z</time>
      </trkpt>
      <trkpt lat="48.76319000" lon="8.243980000">
        <ele>176.00000</ele>
        <time>2008-10-19T12:11:44Z</time>
      </trkpt>
      <trkpt lat="48.76319000" lon="8.243985000">
        <ele>176.00000</ele>
        <time>2008-10-19T12:11:44Z</time>
      </trkpt>
      <trkpt lat="48.76318000" lon="8.243987000">
        <ele>176.00000</ele>
        <time>2008-10-19T12:11:44Z</time>
      </trkpt>
      <trkpt lat="48.76318000" lon="8.244001000">
        <ele>176.00000</ele>
        <time>2008-10-19T12:11:44Z</time>
      </trkpt>
      <trkpt lat="48.76317000" lon="8.244023000">
        <ele>176.00000</ele>
        <time>2008-10-19T12:11:44Z</time>
      </trkpt>
      <trkpt lat="48.76318000" lon="8.244061000">
        <ele>176.00000</ele>
        <time>2008-10-19T12:11:44Z</time>
      </trkpt>
      <trkpt lat="48.76319000" lon="8.244093000">
        <ele>176.00000</ele>
        <time>2008-10-19T12:11:44Z</time>
      </trkpt>
      <trkpt lat="48.76320000" lon="8.244128000">
        <ele>176.00000</ele>
        <time>2008-10-19T12:11:44Z</time>
      </trkpt>
      <trkpt lat="48.76322000" lon="8.244169000">
        <ele>176.00000</ele>
        <time>2008-10-19T12:11:44Z</time>
      </trkpt>
      <trkpt lat="48.76323000" lon="8.244205000">
        <ele>176.00000</ele>
        <time>2008-10-19T12:11:44Z</time>
      </trkpt>
      <trkpt lat="48.76323000" lon="8.244242000">
        <ele>176.00000</ele>
        <time>2008-10-19T12:11:44Z</time>
      </trkpt>
      <trkpt lat="48.76323000" lon="8.244276000">
        <ele>176.00000</ele>
        <time>2008-10-19T12:11:44Z</time>
      </trkpt>
      <trkpt lat="48.76324000" lon="8.244308000">
        <ele>176.00000</ele>
        <time>2008-10-19T12:11:44Z</time>
      </trkpt>
      <trkpt lat="48.76324000" lon="8.244341000">
        <ele>176.00000</ele>
        <time>2008-10-19T12:11:44Z</time>
      </trkpt>
      <trkpt lat="48.76325000" lon="8.244373000">
        <ele>176.00000</ele>
        <time>2008-10-19T12:11:44Z</time>
      </trkpt>
      <trkpt lat="48.76324000" lon="8.244406000">
        <ele>176.00000</ele>
        <time>2008-10-19T12:11:44Z</time>
      </trkpt>
      <trkpt lat="48.76324000" lon="8.244431000">
        <ele>176.00000</ele>
        <time>2008-10-19T12:11:44Z</time>
      </trkpt>
      <trkpt lat="48.76322000" lon="8.244459000">
        <ele>176.00000</ele>
        <time>2008-10-19T12:11:44Z</time>
      </trkpt>
      <trkpt lat="48.76321000" lon="8.244475000">
        <ele>176.00000</ele>
        <time>2008-10-19T12:11:44Z</time>
      </trkpt>
      <trkpt lat="48.76320000" lon="8.244498000">
        <ele>176.00000</ele>
        <time>2008-10-19T12:11:44Z</time>
      </trkpt>
      <trkpt lat="48.76320000" lon="8.244527000">
        <ele>176.00000</ele>
        <time>2008-10-19T12:11:44Z</time>
      </trkpt>
      <trkpt lat="48.76319000" lon="8.244557000">
        <ele>176.00000</ele>
        <time>2008-10-19T12:11:44Z</time>
      </trkpt>
      <trkpt lat="48.76319000" lon="8.244587000">
        <ele>177.00000</ele>
        <time>2008-10-19T12:11:44Z</time>
      </trkpt>
      <trkpt lat="48.76320000" lon="8.244619000">
        <ele>177.00000</ele>
        <time>2008-10-19T12:11:44Z</time>
      </trkpt>
      <trkpt lat="48.76320000" lon="8.244651000">
        <ele>177.00000</ele>
        <time>2008-10-19T12:11:44Z</time>
      </trkpt>
      <trkpt lat="48.76321000" lon="8.244673000">
        <ele>177.00000</ele>
        <time>2008-10-19T12:11:44Z</time>
      </trkpt>
      <trkpt lat="48.76321000" lon="8.244701000">
        <ele>177.00000</ele>
        <time>2008-10-19T12:11:44Z</time>
      </trkpt>
      <trkpt lat="48.76321000" lon="8.244734000">
        <ele>177.00000</ele>
        <time>2008-10-19T12:11:44Z</time>
      </trkpt>
      <trkpt lat="48.76321000" lon="8.244767000">
        <ele>177.00000</ele>
        <time>2008-10-19T12:11:44Z</time>
      </trkpt>
      <trkpt lat="48.76321000" lon="8.244795000">
        <ele>177.00000</ele>
        <time>2008-10-19T12:11:44Z</time>
      </trkpt>
      <trkpt lat="48.76320000" lon="8.244826000">
        <ele>177.00000</ele>
        <time>2008-10-19T12:11:44Z</time>
      </trkpt>
      <trkpt lat="48.76321000" lon="8.244863000">
        <ele>177.00000</ele>
        <time>2008-10-19T12:11:44Z</time>
      </trkpt>
      <trkpt lat="48.76321000" lon="8.244897000">
        <ele>177.00000</ele>
        <time>2008-10-19T12:11:44Z</time>
      </trkpt>
      <trkpt lat="48.76322000" lon="8.244938000">
        <ele>177.00000</ele>
        <time>2008-10-19T12:11:44Z</time>
      </trkpt>
      <trkpt lat="48.76323000" lon="8.244979000">
        <ele>177.00000</ele>
        <time>2008-10-19T12:11:44Z</time>
      </trkpt>
      <trkpt lat="48.76324000" lon="8.245014000">
        <ele>177.00000</ele>
        <time>2008-10-19T12:11:44Z</time>
      </trkpt>
      <trkpt lat="48.76324000" lon="8.245049000">
        <ele>177.00000</ele>
        <time>2008-10-19T12:11:44Z</time>
      </trkpt>
      <trkpt lat="48.76324000" lon="8.245080000">
        <ele>177.00000</ele>
        <time>2008-10-19T12:11:44Z</time>
      </trkpt>
      <trkpt lat="48.76324000" lon="8.245111000">
        <ele>177.00000</ele>
        <time>2008-10-19T12:11:44Z</time>
      </trkpt>
      <trkpt lat="48.76324000" lon="8.245141000">
        <ele>177.00000</ele>
        <time>2008-10-19T12:11:44Z</time>
      </trkpt>
      <trkpt lat="48.76324000" lon="8.245172000">
        <ele>177.00000</ele>
        <time>2008-10-19T12:11:44Z</time>
      </trkpt>
      <trkpt lat="48.76324000" lon="8.245207000">
        <ele>177.00000</ele>
        <time>2008-10-19T12:11:44Z</time>
      </trkpt>
      <trkpt lat="48.76325000" lon="8.245243000">
        <ele>177.00000</ele>
        <time>2008-10-19T12:11:44Z</time>
      </trkpt>
      <trkpt lat="48.76325000" lon="8.245275000">
        <ele>177.00000</ele>
        <time>2008-10-19T12:11:44Z</time>
      </trkpt>
      <trkpt lat="48.76326000" lon="8.245305000">
        <ele>177.00000</ele>
        <time>2008-10-19T12:11:44Z</time>
      </trkpt>
      <trkpt lat="48.76326000" lon="8.245337000">
        <ele>177.00000</ele>
        <time>2008-10-19T12:11:44Z</time>
      </trkpt>
      <trkpt lat="48.76325000" lon="8.245372000">
        <ele>177.00000</ele>
        <time>2008-10-19T12:11:44Z</time>
      </trkpt>
      <trkpt lat="48.76325000" lon="8.245406000">
        <ele>177.00000</ele>
        <time>2008-10-19T12:11:44Z</time>
      </trkpt>
      <trkpt lat="48.76326000" lon="8.245439000">
        <ele>181.00000</ele>
        <time>2008-10-19T12:11:44Z</time>
      </trkpt>
      <trkpt lat="48.76326000" lon="8.245474000">
        <ele>181.00000</ele>
        <time>2008-10-19T12:11:44Z</time>
      </trkpt>
      <trkpt lat="48.76327000" lon="8.245503000">
        <ele>181.00000</ele>
        <time>2008-10-19T12:11:44Z</time>
      </trkpt>
      <trkpt lat="48.76328000" lon="8.245534000">
        <ele>181.00000</ele>
        <time>2008-10-19T12:11:44Z</time>
      </trkpt>
      <trkpt lat="48.76328000" lon="8.245567000">
        <ele>181.00000</ele>
        <time>2008-10-19T12:11:44Z</time>
      </trkpt>
      <trkpt lat="48.76328000" lon="8.245600000">
        <ele>181.00000</ele>
        <time>2008-10-19T12:11:44Z</time>
      </trkpt>
      <trkpt lat="48.76328000" lon="8.245625000">
        <ele>181.00000</ele>
        <time>2008-10-19T12:11:44Z</time>
      </trkpt>
      <trkpt lat="48.76328000" lon="8.245650000">
        <ele>181.00000</ele>
        <time>2008-10-19T12:11:44Z</time>
      </trkpt>
      <trkpt lat="48.76328000" lon="8.245672000">
        <ele>181.00000</ele>
        <time>2008-10-19T12:11:44Z</time>
      </trkpt>
      <trkpt lat="48.76328000" lon="8.245691000">
        <ele>181.00000</ele>
        <time>2008-10-19T12:11:44Z</time>
      </trkpt>
      <trkpt lat="48.76329000" lon="8.245713000">
        <ele>181.00000</ele>
        <time>2008-10-19T12:11:44Z</time>
      </trkpt>
      <trkpt lat="48.76330000" lon="8.245741000">
        <ele>181.00000</ele>
        <time>2008-10-19T12:11:44Z</time>
      </trkpt>
      <trkpt lat="48.76331000" lon="8.245769000">
        <ele>181.00000</ele>
        <time>2008-10-19T12:11:44Z</time>
      </trkpt>
      <trkpt lat="48.76331000" lon="8.245787000">
        <ele>181.00000</ele>
        <time>2008-10-19T12:11:44Z</time>
      </trkpt>
      <trkpt lat="48.76331000" lon="8.245805000">
        <ele>181.00000</ele>
        <time>2008-10-19T12:11:44Z</time>
      </trkpt>
      <trkpt lat="48.76332000" lon="8.245828000">
        <ele>181.00000</ele>
        <time>2008-10-19T12:11:44Z</time>
      </trkpt>
      <trkpt lat="48.76334000" lon="8.245854000">
        <ele>181.00000</ele>
        <time>2008-10-19T12:11:44Z</time>
      </trkpt>
      <trkpt lat="48.76336000" lon="8.245879000">
        <ele>181.00000</ele>
        <time>2008-10-19T12:11:44Z</time>
      </trkpt>
      <trkpt lat="48.76337000" lon="8.245901000">
        <ele>181.00000</ele>
        <time>2008-10-19T12:11:44Z</time>
      </trkpt>
      <trkpt lat="48.76339000" lon="8.245925000">
        <ele>181.00000</ele>
        <time>2008-10-19T12:11:44Z</time>
      </trkpt>
      <trkpt lat="48.76340000" lon="8.245957000">
        <ele>181.00000</ele>
        <time>2008-10-19T12:11:44Z</time>
      </trkpt>
      <trkpt lat="48.76342000" lon="8.245986000">
        <ele>181.00000</ele>
        <time>2008-10-19T12:11:44Z</time>
      </trkpt>
      <trkpt lat="48.76343000" lon="8.246010000">
        <ele>181.00000</ele>
        <time>2008-10-19T12:11:44Z</time>
      </trkpt>
      <trkpt lat="48.76344000" lon="8.246039000">
        <ele>181.00000</ele>
        <time>2008-10-19T12:11:44Z</time>
      </trkpt>
      <trkpt lat="48.76346000" lon="8.246075000">
        <ele>181.00000</ele>
        <time>2008-10-19T12:11:44Z</time>
      </trkpt>
      <trkpt lat="48.76348000" lon="8.246107000">
        <ele>181.00000</ele>
        <time>2008-10-19T12:11:44Z</time>
      </trkpt>
      <trkpt lat="48.76349000" lon="8.246135000">
        <ele>181.00000</ele>
        <time>2008-10-19T12:11:44Z</time>
      </trkpt>
      <trkpt lat="48.76350000" lon="8.246168000">
        <ele>181.00000</ele>
        <time>2008-10-19T12:11:44Z</time>
      </trkpt>
      <trkpt lat="48.76352000" lon="8.246199000">
        <ele>181.00000</ele>
        <time>2008-10-19T12:11:44Z</time>
      </trkpt>
      <trkpt lat="48.76353000" lon="8.246232000">
        <ele>181.00000</ele>
        <time>2008-10-19T12:11:44Z</time>
      </trkpt>
      <trkpt lat="48.76354000" lon="8.246264000">
        <ele>186.00000</ele>
        <time>2008-10-19T12:11:44Z</time>
      </trkpt>
      <trkpt lat="48.76355000" lon="8.246293000">
        <ele>186.00000</ele>
        <time>2008-10-19T12:11:44Z</time>
      </trkpt>
      <trkpt lat="48.76357000" lon="8.246318000">
        <ele>186.00000</ele>
        <time>2008-10-19T12:11:44Z</time>
      </trkpt>
      <trkpt lat="48.76357000" lon="8.246335000">
        <ele>186.00000</ele>
        <time>2008-10-19T12:11:44Z</time>
      </trkpt>
      <trkpt lat="48.76358000" lon="8.246349000">
        <ele>186.00000</ele>
        <time>2008-10-19T12:11:44Z</time>
      </trkpt>
      <trkpt lat="48.76359000" lon="8.246371000">
        <ele>186.00000</ele>
        <time>2008-10-19T12:11:44Z</time>
      </trkpt>
      <trkpt lat="48.76359000" lon="8.246396000">
        <ele>186.00000</ele>
        <time>2008-10-19T12:11:44Z</time>
      </trkpt>
      <trkpt lat="48.76361000" lon="8.246428000">
        <ele>186.00000</ele>
        <time>2008-10-19T12:11:44Z</time>
      </trkpt>
      <trkpt lat="48.76362000" lon="8.246457000">
        <ele>186.00000</ele>
        <time>2008-10-19T12:11:44Z</time>
      </trkpt>
      <trkpt lat="48.76364000" lon="8.246490000">
        <ele>186.00000</ele>
        <time>2008-10-19T12:11:44Z</time>
      </trkpt>
      <trkpt lat="48.76366000" lon="8.246523000">
        <ele>186.00000</ele>
        <time>2008-10-19T12:11:44Z</time>
      </trkpt>
      <trkpt lat="48.76368000" lon="8.246557000">
        <ele>186.00000</ele>
        <time>2008-10-19T12:11:44Z</time>
      </trkpt>
      <trkpt lat="48.76370000" lon="8.246592000">
        <ele>186.00000</ele>
        <time>2008-10-19T12:11:44Z</time>
      </trkpt>
      <trkpt lat="48.76372000" lon="8.246633000">
        <ele>186.00000</ele>
        <time>2008-10-19T12:11:44Z</time>
      </trkpt>
      <trkpt lat="48.76374000" lon="8.246666000">
        <ele>186.00000</ele>
        <time>2008-10-19T12:11:44Z</time>
      </trkpt>
      <trkpt lat="48.76375000" lon="8.246692000">
        <ele>186.00000</ele>
        <time>2008-10-19T12:11:44Z</time>
      </trkpt>
      <trkpt lat="48.76376000" lon="8.246719000">
        <ele>187.00000</ele>
        <time>2008-10-19T12:11:44Z</time>
      </trkpt>
      <trkpt lat="48.76378000" lon="8.246753000">
        <ele>187.00000</ele>
        <time>2008-10-19T12:11:44Z</time>
      </trkpt>
      <trkpt lat="48.76379000" lon="8.246782000">
        <ele>187.00000</ele>
        <time>2008-10-19T12:11:44Z</time>
      </trkpt>
      <trkpt lat="48.76379000" lon="8.246816000">
        <ele>187.00000</ele>
        <time>2008-10-19T12:11:44Z</time>
      </trkpt>
      <trkpt lat="48.76380000" lon="8.246847000">
        <ele>187.00000</ele>
        <time>2008-10-19T12:11:44Z</time>
      </trkpt>
      <trkpt lat="48.76381000" lon="8.246874000">
        <ele>187.00000</ele>
        <time>2008-10-19T12:11:44Z</time>
      </trkpt>
      <trkpt lat="48.76382000" lon="8.246900000">
        <ele>187.00000</ele>
        <time>2008-10-19T12:11:44Z</time>
      </trkpt>
      <trkpt lat="48.76384000" lon="8.246927000">
        <ele>187.00000</ele>
        <time>2008-10-19T12:11:44Z</time>
      </trkpt>
      <trkpt lat="48.76385000" lon="8.246953000">
        <ele>187.00000</ele>
        <time>2008-10-19T12:11:44Z</time>
      </trkpt>
      <trkpt lat="48.76387000" lon="8.246985000">
        <ele>187.00000</ele>
        <time>2008-10-19T12:11:44Z</time>
      </trkpt>
      <trkpt lat="48.76389000" lon="8.247020000">
        <ele>187.00000</ele>
        <time>2008-10-19T12:11:44Z</time>
      </trkpt>
      <trkpt lat="48.76390000" lon="8.247050000">
        <ele>187.00000</ele>
        <time>2008-10-19T12:11:44Z</time>
      </trkpt>
      <trkpt lat="48.76392000" lon="8.247087000">
        <ele>187.00000</ele>
        <time>2008-10-19T12:11:44Z</time>
      </trkpt>
      <trkpt lat="48.76394000" lon="8.247120000">
        <ele>187.00000</ele>
        <time>2008-10-19T12:11:44Z</time>
      </trkpt>
      <trkpt lat="48.76395000" lon="8.247149000">
        <ele>187.00000</ele>
        <time>2008-10-19T12:11:44Z</time>
      </trkpt>
      <trkpt lat="48.76397000" lon="8.247182000">
        <ele>187.00000</ele>
        <time>2008-10-19T12:11:44Z</time>
      </trkpt>
      <trkpt lat="48.76398000" lon="8.247216000">
        <ele>187.00000</ele>
        <time>2008-10-19T12:11:44Z</time>
      </trkpt>
      <trkpt lat="48.76398000" lon="8.247248000">
        <ele>187.00000</ele>
        <time>2008-10-19T12:11:44Z</time>
      </trkpt>
      <trkpt lat="48.76399000" lon="8.247282000">
        <ele>187.00000</ele>
        <time>2008-10-19T12:11:44Z</time>
      </trkpt>
      <trkpt lat="48.76400000" lon="8.247322000">
        <ele>187.00000</ele>
        <time>2008-10-19T12:11:44Z</time>
      </trkpt>
      <trkpt lat="48.76400000" lon="8.247338000">
        <ele>187.00000</ele>
        <time>2008-10-19T12:11:44Z</time>
      </trkpt>
      <trkpt lat="48.76401000" lon="8.247355000">
        <ele>187.00000</ele>
        <time>2008-10-19T12:11:44Z</time>
      </trkpt>
      <trkpt lat="48.76402000" lon="8.247377000">
        <ele>187.00000</ele>
        <time>2008-10-19T12:11:44Z</time>
      </trkpt>
      <trkpt lat="48.76403000" lon="8.247405000">
        <ele>187.00000</ele>
        <time>2008-10-19T12:11:44Z</time>
      </trkpt>
      <trkpt lat="48.76405000" lon="8.247432000">
        <ele>187.00000</ele>
        <time>2008-10-19T12:11:44Z</time>
      </trkpt>
      <trkpt lat="48.76406000" lon="8.247455000">
        <ele>187.00000</ele>
        <time>2008-10-19T12:11:44Z</time>
      </trkpt>
      <trkpt lat="48.76406000" lon="8.247481000">
        <ele>187.00000</ele>
        <time>2008-10-19T12:11:44Z</time>
      </trkpt>
      <trkpt lat="48.76408000" lon="8.247503000">
        <ele>187.00000</ele>
        <time>2008-10-19T12:11:44Z</time>
      </trkpt>
      <trkpt lat="48.76409000" lon="8.247537000">
        <ele>187.00000</ele>
        <time>2008-10-19T12:11:44Z</time>
      </trkpt>
      <trkpt lat="48.76410000" lon="8.247569000">
        <ele>187.00000</ele>
        <time>2008-10-19T12:11:44Z</time>
      </trkpt>
      <trkpt lat="48.76411000" lon="8.247593000">
        <ele>187.00000</ele>
        <time>2008-10-19T12:11:44Z</time>
      </trkpt>
      <trkpt lat="48.76412000" lon="8.247614000">
        <ele>187.00000</ele>
        <time>2008-10-19T12:11:44Z</time>
      </trkpt>
      <trkpt lat="48.76413000" lon="8.247635000">
        <ele>187.00000</ele>
        <time>2008-10-19T12:11:44Z</time>
      </trkpt>
      <trkpt lat="48.76413000" lon="8.247651000">
        <ele>187.00000</ele>
        <time>2008-10-19T12:11:44Z</time>
      </trkpt>
      <trkpt lat="48.76414000" lon="8.247669000">
        <ele>187.00000</ele>
        <time>2008-10-19T12:11:44Z</time>
      </trkpt>
      <trkpt lat="48.76414000" lon="8.247686000">
        <ele>187.00000</ele>
        <time>2008-10-19T12:11:44Z</time>
      </trkpt>
      <trkpt lat="48.76415000" lon="8.247712000">
        <ele>187.00000</ele>
        <time>2008-10-19T12:11:44Z</time>
      </trkpt>
      <trkpt lat="48.76415000" lon="8.247738000">
        <ele>187.00000</ele>
        <time>2008-10-19T12:11:44Z</time>
      </trkpt>
      <trkpt lat="48.76416000" lon="8.247758000">
        <ele>187.00000</ele>
        <time>2008-10-19T12:11:44Z</time>
      </trkpt>
      <trkpt lat="48.76418000" lon="8.247782000">
        <ele>187.00000</ele>
        <time>2008-10-19T12:11:44Z</time>
      </trkpt>
      <trkpt lat="48.76419000" lon="8.247812000">
        <ele>187.00000</ele>
        <time>2008-10-19T12:11:44Z</time>
      </trkpt>
      <trkpt lat="48.76420000" lon="8.247837000">
        <ele>187.00000</ele>
        <time>2008-10-19T12:11:44Z</time>
      </trkpt>
      <trkpt lat="48.76421000" lon="8.247856000">
        <ele>187.00000</ele>
        <time>2008-10-19T12:11:44Z</time>
      </trkpt>
      <trkpt lat="48.76423000" lon="8.247872000">
        <ele>187.00000</ele>
        <time>2008-10-19T12:11:44Z</time>
      </trkpt>
      <trkpt lat="48.76424000" lon="8.247891000">
        <ele>187.00000</ele>
        <time>2008-10-19T12:11:44Z</time>
      </trkpt>
      <trkpt lat="48.76426000" lon="8.247912000">
        <ele>187.00000</ele>
        <time>2008-10-19T12:11:44Z</time>
      </trkpt>
      <trkpt lat="48.76427000" lon="8.247932000">
        <ele>190.00000</ele>
        <time>2008-10-19T12:11:44Z</time>
      </trkpt>
      <trkpt lat="48.76428000" lon="8.247960000">
        <ele>190.00000</ele>
        <time>2008-10-19T12:11:44Z</time>
      </trkpt>
      <trkpt lat="48.76428000" lon="8.247987000">
        <ele>190.00000</ele>
        <time>2008-10-19T12:11:44Z</time>
      </trkpt>
      <trkpt lat="48.76429000" lon="8.248019000">
        <ele>190.00000</ele>
        <time>2008-10-19T12:11:44Z</time>
      </trkpt>
      <trkpt lat="48.76430000" lon="8.248049000">
        <ele>190.00000</ele>
        <time>2008-10-19T12:11:44Z</time>
      </trkpt>
      <trkpt lat="48.76432000" lon="8.248076000">
        <ele>190.00000</ele>
        <time>2008-10-19T12:11:44Z</time>
      </trkpt>
      <trkpt lat="48.76432000" lon="8.248108000">
        <ele>190.00000</ele>
        <time>2008-10-19T12:11:44Z</time>
      </trkpt>
      <trkpt lat="48.76434000" lon="8.248137000">
        <ele>190.00000</ele>
        <time>2008-10-19T12:11:44Z</time>
      </trkpt>
      <trkpt lat="48.76435000" lon="8.248167000">
        <ele>190.00000</ele>
        <time>2008-10-19T12:11:44Z</time>
      </trkpt>
      <trkpt lat="48.76437000" lon="8.248196000">
        <ele>190.00000</ele>
        <time>2008-10-19T12:11:44Z</time>
      </trkpt>
      <trkpt lat="48.76438000" lon="8.248224000">
        <ele>190.00000</ele>
        <time>2008-10-19T12:11:44Z</time>
      </trkpt>
      <trkpt lat="48.76440000" lon="8.248251000">
        <ele>190.00000</ele>
        <time>2008-10-19T12:11:44Z</time>
      </trkpt>
      <trkpt lat="48.76440000" lon="8.248273000">
        <ele>190.00000</ele>
        <time>2008-10-19T12:11:44Z</time>
      </trkpt>
      <trkpt lat="48.76441000" lon="8.248288000">
        <ele>190.00000</ele>
        <time>2008-10-19T12:11:44Z</time>
      </trkpt>
      <trkpt lat="48.76443000" lon="8.248298000">
        <ele>190.00000</ele>
        <time>2008-10-19T12:11:44Z</time>
      </trkpt>
      <trkpt lat="48.76444000" lon="8.248311000">
        <ele>190.00000</ele>
        <time>2008-10-19T12:11:44Z</time>
      </trkpt>
      <trkpt lat="48.76445000" lon="8.248333000">
        <ele>190.00000</ele>
        <time>2008-10-19T12:11:44Z</time>
      </trkpt>
      <trkpt lat="48.76447000" lon="8.248360000">
        <ele>190.00000</ele>
        <time>2008-10-19T12:11:44Z</time>
      </trkpt>
      <trkpt lat="48.76448000" lon="8.248383000">
        <ele>190.00000</ele>
        <time>2008-10-19T12:11:44Z</time>
      </trkpt>
      <trkpt lat="48.76448000" lon="8.248407000">
        <ele>190.00000</ele>
        <time>2008-10-19T12:11:44Z</time>
      </trkpt>
      <trkpt lat="48.76450000" lon="8.248432000">
        <ele>190.00000</ele>
        <time>2008-10-19T12:11:44Z</time>
      </trkpt>
      <trkpt lat="48.76452000" lon="8.248464000">
        <ele>190.00000</ele>
        <time>2008-10-19T12:11:44Z</time>
      </trkpt>
      <trkpt lat="48.76453000" lon="8.248494000">
        <ele>190.00000</ele>
        <time>2008-10-19T12:11:44Z</time>
      </trkpt>
      <trkpt lat="48.76454000" lon="8.248528000">
        <ele>190.00000</ele>
        <time>2008-10-19T12:11:44Z</time>
      </trkpt>
      <trkpt lat="48.76455000" lon="8.248562000">
        <ele>190.00000</ele>
        <time>2008-10-19T12:11:44Z</time>
      </trkpt>
      <trkpt lat="48.76456000" lon="8.248592000">
        <ele>190.00000</ele>
        <time>2008-10-19T12:11:44Z</time>
      </trkpt>
      <trkpt lat="48.76458000" lon="8.248621000">
        <ele>190.00000</ele>
        <time>2008-10-19T12:11:44Z</time>
      </trkpt>
      <trkpt lat="48.76460000" lon="8.248652000">
        <ele>187.00000</ele>
        <time>2008-10-19T12:11:44Z</time>
      </trkpt>
      <trkpt lat="48.76460000" lon="8.248685000">
        <ele>187.00000</ele>
        <time>2008-10-19T12:11:44Z</time>
      </trkpt>
      <trkpt lat="48.76461000" lon="8.248715000">
        <ele>187.00000</ele>
        <time>2008-10-19T12:11:44Z</time>
      </trkpt>
      <trkpt lat="48.76463000" lon="8.248753000">
        <ele>185.00000</ele>
        <time>2008-10-19T12:11:44Z</time>
      </trkpt>
      <trkpt lat="48.76463000" lon="8.248787000">
        <ele>185.00000</ele>
        <time>2008-10-19T12:11:44Z</time>
      </trkpt>
      <trkpt lat="48.76463000" lon="8.248821000">
        <ele>185.00000</ele>
        <time>2008-10-19T12:11:44Z</time>
      </trkpt>
      <trkpt lat="48.76464000" lon="8.248855000">
        <ele>185.00000</ele>
        <time>2008-10-19T12:11:44Z</time>
      </trkpt>
      <trkpt lat="48.76464000" lon="8.248885000">
        <ele>185.00000</ele>
        <time>2008-10-19T12:11:44Z</time>
      </trkpt>
      <trkpt lat="48.76466000" lon="8.248914000">
        <ele>185.00000</ele>
        <time>2008-10-19T12:11:44Z</time>
      </trkpt>
      <trkpt lat="48.76466000" lon="8.248940000">
        <ele>185.00000</ele>
        <time>2008-10-19T12:11:44Z</time>
      </trkpt>
      <trkpt lat="48.76468000" lon="8.248967000">
        <ele>185.00000</ele>
        <time>2008-10-19T12:11:44Z</time>
      </trkpt>
      <trkpt lat="48.76469000" lon="8.248995000">
        <ele>185.00000</ele>
        <time>2008-10-19T12:11:44Z</time>
      </trkpt>
      <trkpt lat="48.76470000" lon="8.249025000">
        <ele>185.00000</ele>
        <time>2008-10-19T12:11:44Z</time>
      </trkpt>
      <trkpt lat="48.76470000" lon="8.249050000">
        <ele>185.00000</ele>
        <time>2008-10-19T12:11:44Z</time>
      </trkpt>
      <trkpt lat="48.76471000" lon="8.249082000">
        <ele>185.00000</ele>
        <time>2008-10-19T12:11:44Z</time>
      </trkpt>
      <trkpt lat="48.76473000" lon="8.249111000">
        <ele>185.00000</ele>
        <time>2008-10-19T12:11:44Z</time>
      </trkpt>
      <trkpt lat="48.76474000" lon="8.249135000">
        <ele>185.00000</ele>
        <time>2008-10-19T12:11:44Z</time>
      </trkpt>
      <trkpt lat="48.76475000" lon="8.249162000">
        <ele>185.00000</ele>
        <time>2008-10-19T12:11:44Z</time>
      </trkpt>
      <trkpt lat="48.76475000" lon="8.249187000">
        <ele>185.00000</ele>
        <time>2008-10-19T12:11:44Z</time>
      </trkpt>
      <trkpt lat="48.76476000" lon="8.249216000">
        <ele>185.00000</ele>
        <time>2008-10-19T12:11:44Z</time>
      </trkpt>
      <trkpt lat="48.76477000" lon="8.249249000">
        <ele>185.00000</ele>
        <time>2008-10-19T12:11:44Z</time>
      </trkpt>
      <trkpt lat="48.76479000" lon="8.249277000">
        <ele>185.00000</ele>
        <time>2008-10-19T12:11:44Z</time>
      </trkpt>
      <trkpt lat="48.76480000" lon="8.249302000">
        <ele>185.00000</ele>
        <time>2008-10-19T12:11:44Z</time>
      </trkpt>
      <trkpt lat="48.76482000" lon="8.249328000">
        <ele>185.00000</ele>
        <time>2008-10-19T12:11:44Z</time>
      </trkpt>
      <trkpt lat="48.76483000" lon="8.249348000">
        <ele>185.00000</ele>
        <time>2008-10-19T12:11:44Z</time>
      </trkpt>
      <trkpt lat="48.76484000" lon="8.249378000">
        <ele>185.00000</ele>
        <time>2008-10-19T12:11:44Z</time>
      </trkpt>
      <trkpt lat="48.76485000" lon="8.249413000">
        <ele>185.00000</ele>
        <time>2008-10-19T12:11:44Z</time>
      </trkpt>
      <trkpt lat="48.76487000" lon="8.249437000">
        <ele>185.00000</ele>
        <time>2008-10-19T12:11:44Z</time>
      </trkpt>
      <trkpt lat="48.76487000" lon="8.249463000">
        <ele>185.00000</ele>
        <time>2008-10-19T12:11:44Z</time>
      </trkpt>
      <trkpt lat="48.76488000" lon="8.249489000">
        <ele>185.00000</ele>
        <time>2008-10-19T12:11:44Z</time>
      </trkpt>
      <trkpt lat="48.76489000" lon="8.249516000">
        <ele>185.00000</ele>
        <time>2008-10-19T12:11:44Z</time>
      </trkpt>
      <trkpt lat="48.76491000" lon="8.249544000">
        <ele>185.00000</ele>
        <time>2008-10-19T12:11:44Z</time>
      </trkpt>
      <trkpt lat="48.76492000" lon="8.249568000">
        <ele>185.00000</ele>
        <time>2008-10-19T12:11:44Z</time>
      </trkpt>
      <trkpt lat="48.76494000" lon="8.249591000">
        <ele>190.00000</ele>
        <time>2008-10-19T12:11:44Z</time>
      </trkpt>
      <trkpt lat="48.76495000" lon="8.249611000">
        <ele>190.00000</ele>
        <time>2008-10-19T12:11:44Z</time>
      </trkpt>
      <trkpt lat="48.76497000" lon="8.249633000">
        <ele>190.00000</ele>
        <time>2008-10-19T12:11:44Z</time>
      </trkpt>
      <trkpt lat="48.76498000" lon="8.249659000">
        <ele>190.00000</ele>
        <time>2008-10-19T12:11:44Z</time>
      </trkpt>
      <trkpt lat="48.76500000" lon="8.249680000">
        <ele>190.00000</ele>
        <time>2008-10-19T12:11:44Z</time>
      </trkpt>
      <trkpt lat="48.76501000" lon="8.249704000">
        <ele>190.00000</ele>
        <time>2008-10-19T12:11:44Z</time>
      </trkpt>
      <trkpt lat="48.76501000" lon="8.249728000">
        <ele>190.00000</ele>
        <time>2008-10-19T12:11:44Z</time>
      </trkpt>
      <trkpt lat="48.76503000" lon="8.249748000">
        <ele>190.00000</ele>
        <time>2008-10-19T12:11:44Z</time>
      </trkpt>
      <trkpt lat="48.76503000" lon="8.249772000">
        <ele>190.00000</ele>
        <time>2008-10-19T12:11:44Z</time>
      </trkpt>
      <trkpt lat="48.76504000" lon="8.249798000">
        <ele>190.00000</ele>
        <time>2008-10-19T12:11:44Z</time>
      </trkpt>
      <trkpt lat="48.76504000" lon="8.249821000">
        <ele>190.00000</ele>
        <time>2008-10-19T12:11:44Z</time>
      </trkpt>
      <trkpt lat="48.76505000" lon="8.249840000">
        <ele>190.00000</ele>
        <time>2008-10-19T12:11:44Z</time>
      </trkpt>
      <trkpt lat="48.76505000" lon="8.249862000">
        <ele>190.00000</ele>
        <time>2008-10-19T12:11:44Z</time>
      </trkpt>
      <trkpt lat="48.76506000" lon="8.249885000">
        <ele>190.00000</ele>
        <time>2008-10-19T12:11:44Z</time>
      </trkpt>
      <trkpt lat="48.76508000" lon="8.249907000">
        <ele>190.00000</ele>
        <time>2008-10-19T12:11:44Z</time>
      </trkpt>
      <trkpt lat="48.76509000" lon="8.249931000">
        <ele>190.00000</ele>
        <time>2008-10-19T12:11:44Z</time>
      </trkpt>
      <trkpt lat="48.76509000" lon="8.249949000">
        <ele>190.00000</ele>
        <time>2008-10-19T12:11:44Z</time>
      </trkpt>
      <trkpt lat="48.76511000" lon="8.249962000">
        <ele>190.00000</ele>
        <time>2008-10-19T12:11:44Z</time>
      </trkpt>
      <trkpt lat="48.76511000" lon="8.249975000">
        <ele>190.00000</ele>
        <time>2008-10-19T12:11:44Z</time>
      </trkpt>
      <trkpt lat="48.76512000" lon="8.249993000">
        <ele>190.00000</ele>
        <time>2008-10-19T12:11:44Z</time>
      </trkpt>
      <trkpt lat="48.76513000" lon="8.250014000">
        <ele>190.00000</ele>
        <time>2008-10-19T12:11:44Z</time>
      </trkpt>
      <trkpt lat="48.76513000" lon="8.250041000">
        <ele>190.00000</ele>
        <time>2008-10-19T12:11:44Z</time>
      </trkpt>
      <trkpt lat="48.76514000" lon="8.250063000">
        <ele>190.00000</ele>
        <time>2008-10-19T12:11:44Z</time>
      </trkpt>
      <trkpt lat="48.76515000" lon="8.250078000">
        <ele>190.00000</ele>
        <time>2008-10-19T12:11:44Z</time>
      </trkpt>
      <trkpt lat="48.76516000" lon="8.250097000">
        <ele>190.00000</ele>
        <time>2008-10-19T12:11:44Z</time>
      </trkpt>
      <trkpt lat="48.76516000" lon="8.250120000">
        <ele>190.00000</ele>
        <time>2008-10-19T12:11:44Z</time>
      </trkpt>
      <trkpt lat="48.76517000" lon="8.250145000">
        <ele>190.00000</ele>
        <time>2008-10-19T12:11:44Z</time>
      </trkpt>
      <trkpt lat="48.76519000" lon="8.250167000">
        <ele>190.00000</ele>
        <time>2008-10-19T12:11:44Z</time>
      </trkpt>
      <trkpt lat="48.76520000" lon="8.250200000">
        <ele>190.00000</ele>
        <time>2008-10-19T12:11:44Z</time>
      </trkpt>
      <trkpt lat="48.76521000" lon="8.250234000">
        <ele>190.00000</ele>
        <time>2008-10-19T12:11:44Z</time>
      </trkpt>
      <trkpt lat="48.76522000" lon="8.250256000">
        <ele>190.00000</ele>
        <time>2008-10-19T12:11:44Z</time>
      </trkpt>
      <trkpt lat="48.76523000" lon="8.250286000">
        <ele>190.00000</ele>
        <time>2008-10-19T12:11:44Z</time>
      </trkpt>
      <trkpt lat="48.76524000" lon="8.250313000">
        <ele>190.00000</ele>
        <time>2008-10-19T12:11:44Z</time>
      </trkpt>
      <trkpt lat="48.76524000" lon="8.250335000">
        <ele>190.00000</ele>
        <time>2008-10-19T12:11:44Z</time>
      </trkpt>
      <trkpt lat="48.76525000" lon="8.250362000">
        <ele>190.00000</ele>
        <time>2008-10-19T12:11:44Z</time>
      </trkpt>
      <trkpt lat="48.76526000" lon="8.250393000">
        <ele>190.00000</ele>
        <time>2008-10-19T12:11:44Z</time>
      </trkpt>
      <trkpt lat="48.76527000" lon="8.250420000">
        <ele>202.00000</ele>
        <time>2008-10-19T12:11:44Z</time>
      </trkpt>
      <trkpt lat="48.76527000" lon="8.250449000">
        <ele>202.00000</ele>
        <time>2008-10-19T12:11:44Z</time>
      </trkpt>
      <trkpt lat="48.76529000" lon="8.250479000">
        <ele>202.00000</ele>
        <time>2008-10-19T12:11:44Z</time>
      </trkpt>
      <trkpt lat="48.76530000" lon="8.250511000">
        <ele>202.00000</ele>
        <time>2008-10-19T12:11:44Z</time>
      </trkpt>
      <trkpt lat="48.76531000" lon="8.250540000">
        <ele>202.00000</ele>
        <time>2008-10-19T12:11:44Z</time>
      </trkpt>
      <trkpt lat="48.76533000" lon="8.250567000">
        <ele>202.00000</ele>
        <time>2008-10-19T12:11:44Z</time>
      </trkpt>
      <trkpt lat="48.76535000" lon="8.250606000">
        <ele>202.00000</ele>
        <time>2008-10-19T12:11:44Z</time>
      </trkpt>
      <trkpt lat="48.76537000" lon="8.250643000">
        <ele>202.00000</ele>
        <time>2008-10-19T12:11:44Z</time>
      </trkpt>
      <trkpt lat="48.76538000" lon="8.250663000">
        <ele>202.00000</ele>
        <time>2008-10-19T12:11:44Z</time>
      </trkpt>
      <trkpt lat="48.76539000" lon="8.250681000">
        <ele>202.00000</ele>
        <time>2008-10-19T12:11:44Z</time>
      </trkpt>
      <trkpt lat="48.76541000" lon="8.250698000">
        <ele>202.00000</ele>
        <time>2008-10-19T12:11:44Z</time>
      </trkpt>
      <trkpt lat="48.76543000" lon="8.250715000">
        <ele>197.00000</ele>
        <time>2008-10-19T12:11:44Z</time>
      </trkpt>
      <trkpt lat="48.76545000" lon="8.250714000">
        <ele>197.00000</ele>
        <time>2008-10-19T12:11:44Z</time>
      </trkpt>
      <trkpt lat="48.76546000" lon="8.250722000">
        <ele>197.00000</ele>
        <time>2008-10-19T12:11:44Z</time>
      </trkpt>
      <trkpt lat="48.76547000" lon="8.250738000">
        <ele>197.00000</ele>
        <time>2008-10-19T12:11:44Z</time>
      </trkpt>
      <trkpt lat="48.76548000" lon="8.250756000">
        <ele>197.00000</ele>
        <time>2008-10-19T12:11:44Z</time>
      </trkpt>
      <trkpt lat="48.76550000" lon="8.250772000">
        <ele>197.00000</ele>
        <time>2008-10-19T12:11:44Z</time>
      </trkpt>
      <trkpt lat="48.76552000" lon="8.250787000">
        <ele>197.00000</ele>
        <time>2008-10-19T12:11:44Z</time>
      </trkpt>
      <trkpt lat="48.76553000" lon="8.250802000">
        <ele>197.00000</ele>
        <time>2008-10-19T12:11:44Z</time>
      </trkpt>
      <trkpt lat="48.76555000" lon="8.250811000">
        <ele>197.00000</ele>
        <time>2008-10-19T12:11:44Z</time>
      </trkpt>
      <trkpt lat="48.76557000" lon="8.250824000">
        <ele>197.00000</ele>
        <time>2008-10-19T12:11:44Z</time>
      </trkpt>
      <trkpt lat="48.76558000" lon="8.250834000">
        <ele>197.00000</ele>
        <time>2008-10-19T12:11:44Z</time>
      </trkpt>
      <trkpt lat="48.76560000" lon="8.250845000">
        <ele>197.00000</ele>
        <time>2008-10-19T12:11:44Z</time>
      </trkpt>
      <trkpt lat="48.76562000" lon="8.250859000">
        <ele>197.00000</ele>
        <time>2008-10-19T12:11:44Z</time>
      </trkpt>
      <trkpt lat="48.76564000" lon="8.250875000">
        <ele>197.00000</ele>
        <time>2008-10-19T12:11:44Z</time>
      </trkpt>
      <trkpt lat="48.76566000" lon="8.250885000">
        <ele>197.00000</ele>
        <time>2008-10-19T12:11:44Z</time>
      </trkpt>
      <trkpt lat="48.76567000" lon="8.250889000">
        <ele>197.00000</ele>
        <time>2008-10-19T12:11:44Z</time>
      </trkpt>
      <trkpt lat="48.76569000" lon="8.250893000">
        <ele>197.00000</ele>
        <time>2008-10-19T12:11:44Z</time>
      </trkpt>
      <trkpt lat="48.76571000" lon="8.250891000">
        <ele>197.00000</ele>
        <time>2008-10-19T12:11:44Z</time>
      </trkpt>
      <trkpt lat="48.76573000" lon="8.250886000">
        <ele>197.00000</ele>
        <time>2008-10-19T12:11:44Z</time>
      </trkpt>
      <trkpt lat="48.76575000" lon="8.250876000">
        <ele>197.00000</ele>
        <time>2008-10-19T12:11:44Z</time>
      </trkpt>
      <trkpt lat="48.76577000" lon="8.250869000">
        <ele>197.00000</ele>
        <time>2008-10-19T12:11:44Z</time>
      </trkpt>
      <trkpt lat="48.76579000" lon="8.250854000">
        <ele>197.00000</ele>
        <time>2008-10-19T12:11:44Z</time>
      </trkpt>
      <trkpt lat="48.76581000" lon="8.250834000">
        <ele>197.00000</ele>
        <time>2008-10-19T12:11:44Z</time>
      </trkpt>
      <trkpt lat="48.76583000" lon="8.250815000">
        <ele>197.00000</ele>
        <time>2008-10-19T12:11:44Z</time>
      </trkpt>
      <trkpt lat="48.76585000" lon="8.250803000">
        <ele>197.00000</ele>
        <time>2008-10-19T12:11:44Z</time>
      </trkpt>
      <trkpt lat="48.76586000" lon="8.250786000">
        <ele>197.00000</ele>
        <time>2008-10-19T12:11:44Z</time>
      </trkpt>
      <trkpt lat="48.76587000" lon="8.250764000">
        <ele>197.00000</ele>
        <time>2008-10-19T12:11:44Z</time>
      </trkpt>
      <trkpt lat="48.76588000" lon="8.250746000">
        <ele>197.00000</ele>
        <time>2008-10-19T12:11:44Z</time>
      </trkpt>
      <trkpt lat="48.76590000" lon="8.250721000">
        <ele>197.00000</ele>
        <time>2008-10-19T12:11:44Z</time>
      </trkpt>
      <trkpt lat="48.76591000" lon="8.250692000">
        <ele>197.00000</ele>
        <time>2008-10-19T12:11:44Z</time>
      </trkpt>
      <trkpt lat="48.76591000" lon="8.250660000">
        <ele>197.00000</ele>
        <time>2008-10-19T12:11:44Z</time>
      </trkpt>
      <trkpt lat="48.76592000" lon="8.250628000">
        <ele>197.00000</ele>
        <time>2008-10-19T12:11:44Z</time>
      </trkpt>
      <trkpt lat="48.76593000" lon="8.250601000">
        <ele>197.00000</ele>
        <time>2008-10-19T12:11:44Z</time>
      </trkpt>
      <trkpt lat="48.76594000" lon="8.250572000">
        <ele>197.00000</ele>
        <time>2008-10-19T12:11:44Z</time>
      </trkpt>
      <trkpt lat="48.76595000" lon="8.250542000">
        <ele>197.00000</ele>
        <time>2008-10-19T12:11:44Z</time>
      </trkpt>
      <trkpt lat="48.76595000" lon="8.250514000">
        <ele>197.00000</ele>
        <time>2008-10-19T12:11:44Z</time>
      </trkpt>
      <trkpt lat="48.76596000" lon="8.250489000">
        <ele>197.00000</ele>
        <time>2008-10-19T12:11:44Z</time>
      </trkpt>
      <trkpt lat="48.76596000" lon="8.250461000">
        <ele>197.00000</ele>
        <time>2008-10-19T12:11:44Z</time>
      </trkpt>
      <trkpt lat="48.76597000" lon="8.250432000">
        <ele>197.00000</ele>
        <time>2008-10-19T12:11:44Z</time>
      </trkpt>
      <trkpt lat="48.76598000" lon="8.250404000">
        <ele>194.00000</ele>
        <time>2008-10-19T12:11:44Z</time>
      </trkpt>
      <trkpt lat="48.76598000" lon="8.250374000">
        <ele>194.00000</ele>
        <time>2008-10-19T12:11:44Z</time>
      </trkpt>
      <trkpt lat="48.76599000" lon="8.250345000">
        <ele>194.00000</ele>
        <time>2008-10-19T12:11:44Z</time>
      </trkpt>
      <trkpt lat="48.76600000" lon="8.250317000">
        <ele>194.00000</ele>
        <time>2008-10-19T12:11:44Z</time>
      </trkpt>
      <trkpt lat="48.76600000" lon="8.250285000">
        <ele>194.00000</ele>
        <time>2008-10-19T12:11:44Z</time>
      </trkpt>
      <trkpt lat="48.76600000" lon="8.250254000">
        <ele>194.00000</ele>
        <time>2008-10-19T12:11:44Z</time>
      </trkpt>
      <trkpt lat="48.76601000" lon="8.250225000">
        <ele>194.00000</ele>
        <time>2008-10-19T12:11:44Z</time>
      </trkpt>
      <trkpt lat="48.76601000" lon="8.250196000">
        <ele>194.00000</ele>
        <time>2008-10-19T12:11:44Z</time>
      </trkpt>
      <trkpt lat="48.76602000" lon="8.250170000">
        <ele>194.00000</ele>
        <time>2008-10-19T12:11:44Z</time>
      </trkpt>
      <trkpt lat="48.76602000" lon="8.250144000">
        <ele>194.00000</ele>
        <time>2008-10-19T12:11:44Z</time>
      </trkpt>
      <trkpt lat="48.76603000" lon="8.250113000">
        <ele>194.00000</ele>
        <time>2008-10-19T12:11:44Z</time>
      </trkpt>
      <trkpt lat="48.76603000" lon="8.250079000">
        <ele>194.00000</ele>
        <time>2008-10-19T12:11:44Z</time>
      </trkpt>
      <trkpt lat="48.76603000" lon="8.250046000">
        <ele>194.00000</ele>
        <time>2008-10-19T12:11:44Z</time>
      </trkpt>
      <trkpt lat="48.76603000" lon="8.250011000">
        <ele>194.00000</ele>
        <time>2008-10-19T12:11:44Z</time>
      </trkpt>
      <trkpt lat="48.76603000" lon="8.249976000">
        <ele>194.00000</ele>
        <time>2008-10-19T12:11:44Z</time>
      </trkpt>
      <trkpt lat="48.76603000" lon="8.249944000">
        <ele>194.00000</ele>
        <time>2008-10-19T12:11:44Z</time>
      </trkpt>
      <trkpt lat="48.76603000" lon="8.249913000">
        <ele>194.00000</ele>
        <time>2008-10-19T12:11:44Z</time>
      </trkpt>
      <trkpt lat="48.76603000" lon="8.249875000">
        <ele>194.00000</ele>
        <time>2008-10-19T12:11:44Z</time>
      </trkpt>
      <trkpt lat="48.76603000" lon="8.249846000">
        <ele>194.00000</ele>
        <time>2008-10-19T12:11:44Z</time>
      </trkpt>
      <trkpt lat="48.76603000" lon="8.249814000">
        <ele>194.00000</ele>
        <time>2008-10-19T12:11:44Z</time>
      </trkpt>
      <trkpt lat="48.76603000" lon="8.249775000">
        <ele>194.00000</ele>
        <time>2008-10-19T12:11:44Z</time>
      </trkpt>
      <trkpt lat="48.76603000" lon="8.249740000">
        <ele>194.00000</ele>
        <time>2008-10-19T12:11:44Z</time>
      </trkpt>
      <trkpt lat="48.76602000" lon="8.249707000">
        <ele>194.00000</ele>
        <time>2008-10-19T12:11:44Z</time>
      </trkpt>
      <trkpt lat="48.76602000" lon="8.249672000">
        <ele>194.00000</ele>
        <time>2008-10-19T12:11:44Z</time>
      </trkpt>
      <trkpt lat="48.76601000" lon="8.249634000">
        <ele>194.00000</ele>
        <time>2008-10-19T12:11:44Z</time>
      </trkpt>
      <trkpt lat="48.76601000" lon="8.249598000">
        <ele>194.00000</ele>
        <time>2008-10-19T12:11:44Z</time>
      </trkpt>
      <trkpt lat="48.76601000" lon="8.249563000">
        <ele>199.00000</ele>
        <time>2008-10-19T12:11:44Z</time>
      </trkpt>
      <trkpt lat="48.76601000" lon="8.249534000">
        <ele>199.00000</ele>
        <time>2008-10-19T12:11:44Z</time>
      </trkpt>
      <trkpt lat="48.76600000" lon="8.249503000">
        <ele>199.00000</ele>
        <time>2008-10-19T12:11:44Z</time>
      </trkpt>
      <trkpt lat="48.76600000" lon="8.249466000">
        <ele>199.00000</ele>
        <time>2008-10-19T12:11:44Z</time>
      </trkpt>
      <trkpt lat="48.76599000" lon="8.249431000">
        <ele>199.00000</ele>
        <time>2008-10-19T12:11:44Z</time>
      </trkpt>
      <trkpt lat="48.76598000" lon="8.249394000">
        <ele>199.00000</ele>
        <time>2008-10-19T12:11:44Z</time>
      </trkpt>
      <trkpt lat="48.76598000" lon="8.249357000">
        <ele>199.00000</ele>
        <time>2008-10-19T12:11:44Z</time>
      </trkpt>
      <trkpt lat="48.76597000" lon="8.249322000">
        <ele>199.00000</ele>
        <time>2008-10-19T12:11:44Z</time>
      </trkpt>
      <trkpt lat="48.76596000" lon="8.249289000">
        <ele>199.00000</ele>
        <time>2008-10-19T12:11:44Z</time>
      </trkpt>
      <trkpt lat="48.76595000" lon="8.249254000">
        <ele>199.00000</ele>
        <time>2008-10-19T12:11:44Z</time>
      </trkpt>
      <trkpt lat="48.76594000" lon="8.249216000">
        <ele>199.00000</ele>
        <time>2008-10-19T12:11:44Z</time>
      </trkpt>
      <trkpt lat="48.76593000" lon="8.249181000">
        <ele>199.00000</ele>
        <time>2008-10-19T12:11:44Z</time>
      </trkpt>
      <trkpt lat="48.76593000" lon="8.249147000">
        <ele>199.00000</ele>
        <time>2008-10-19T12:11:44Z</time>
      </trkpt>
      <trkpt lat="48.76592000" lon="8.249118000">
        <ele>199.00000</ele>
        <time>2008-10-19T12:11:44Z</time>
      </trkpt>
      <trkpt lat="48.76591000" lon="8.249090000">
        <ele>199.00000</ele>
        <time>2008-10-19T12:11:44Z</time>
      </trkpt>
      <trkpt lat="48.76590000" lon="8.249061000">
        <ele>199.00000</ele>
        <time>2008-10-19T12:11:44Z</time>
      </trkpt>
      <trkpt lat="48.76589000" lon="8.249027000">
        <ele>199.00000</ele>
        <time>2008-10-19T12:11:44Z</time>
      </trkpt>
      <trkpt lat="48.76588000" lon="8.248991000">
        <ele>199.00000</ele>
        <time>2008-10-19T12:11:44Z</time>
      </trkpt>
      <trkpt lat="48.76587000" lon="8.248960000">
        <ele>199.00000</ele>
        <time>2008-10-19T12:11:44Z</time>
      </trkpt>
      <trkpt lat="48.76586000" lon="8.248928000">
        <ele>199.00000</ele>
        <time>2008-10-19T12:11:44Z</time>
      </trkpt>
      <trkpt lat="48.76585000" lon="8.248899000">
        <ele>199.00000</ele>
        <time>2008-10-19T12:11:44Z</time>
      </trkpt>
      <trkpt lat="48.76584000" lon="8.248874000">
        <ele>199.00000</ele>
        <time>2008-10-19T12:11:44Z</time>
      </trkpt>
      <trkpt lat="48.76583000" lon="8.248841000">
        <ele>199.00000</ele>
        <time>2008-10-19T12:11:44Z</time>
      </trkpt>
      <trkpt lat="48.76583000" lon="8.248808000">
        <ele>199.00000</ele>
        <time>2008-10-19T12:11:44Z</time>
      </trkpt>
      <trkpt lat="48.76582000" lon="8.248777000">
        <ele>199.00000</ele>
        <time>2008-10-19T12:11:44Z</time>
      </trkpt>
      <trkpt lat="48.76580000" lon="8.248745000">
        <ele>208.00000</ele>
        <time>2008-10-19T12:11:44Z</time>
      </trkpt>
      <trkpt lat="48.76579000" lon="8.248710000">
        <ele>208.00000</ele>
        <time>2008-10-19T12:11:44Z</time>
      </trkpt>
      <trkpt lat="48.76578000" lon="8.248679000">
        <ele>208.00000</ele>
        <time>2008-10-19T12:11:44Z</time>
      </trkpt>
      <trkpt lat="48.76577000" lon="8.248648000">
        <ele>208.00000</ele>
        <time>2008-10-19T12:11:44Z</time>
      </trkpt>
      <trkpt lat="48.76576000" lon="8.248614000">
        <ele>208.00000</ele>
        <time>2008-10-19T12:11:44Z</time>
      </trkpt>
      <trkpt lat="48.76575000" lon="8.248583000">
        <ele>208.00000</ele>
        <time>2008-10-19T12:11:44Z</time>
      </trkpt>
      <trkpt lat="48.76574000" lon="8.248552000">
        <ele>208.00000</ele>
        <time>2008-10-19T12:11:44Z</time>
      </trkpt>
      <trkpt lat="48.76573000" lon="8.248522000">
        <ele>208.00000</ele>
        <time>2008-10-19T12:11:44Z</time>
      </trkpt>
      <trkpt lat="48.76573000" lon="8.248494000">
        <ele>208.00000</ele>
        <time>2008-10-19T12:11:44Z</time>
      </trkpt>
      <trkpt lat="48.76572000" lon="8.248463000">
        <ele>208.00000</ele>
        <time>2008-10-19T12:11:44Z</time>
      </trkpt>
      <trkpt lat="48.76571000" lon="8.248427000">
        <ele>208.00000</ele>
        <time>2008-10-19T12:11:44Z</time>
      </trkpt>
      <trkpt lat="48.76570000" lon="8.248397000">
        <ele>208.00000</ele>
        <time>2008-10-19T12:11:44Z</time>
      </trkpt>
      <trkpt lat="48.76569000" lon="8.248365000">
        <ele>208.00000</ele>
        <time>2008-10-19T12:11:44Z</time>
      </trkpt>
      <trkpt lat="48.76568000" lon="8.248331000">
        <ele>208.00000</ele>
        <time>2008-10-19T12:11:44Z</time>
      </trkpt>
      <trkpt lat="48.76567000" lon="8.248296000">
        <ele>208.00000</ele>
        <time>2008-10-19T12:11:44Z</time>
      </trkpt>
      <trkpt lat="48.76565000" lon="8.248260000">
        <ele>208.00000</ele>
        <time>2008-10-19T12:11:44Z</time>
      </trkpt>
      <trkpt lat="48.76564000" lon="8.248226000">
        <ele>208.00000</ele>
        <time>2008-10-19T12:11:44Z</time>
      </trkpt>
      <trkpt lat="48.76563000" lon="8.248196000">
        <ele>208.00000</ele>
        <time>2008-10-19T12:11:44Z</time>
      </trkpt>
      <trkpt lat="48.76562000" lon="8.248166000">
        <ele>208.00000</ele>
        <time>2008-10-19T12:11:44Z</time>
      </trkpt>
      <trkpt lat="48.76561000" lon="8.248136000">
        <ele>208.00000</ele>
        <time>2008-10-19T12:11:44Z</time>
      </trkpt>
      <trkpt lat="48.76559000" lon="8.248102000">
        <ele>208.00000</ele>
        <time>2008-10-19T12:11:44Z</time>
      </trkpt>
      <trkpt lat="48.76558000" lon="8.248073000">
        <ele>208.00000</ele>
        <time>2008-10-19T12:11:44Z</time>
      </trkpt>
      <trkpt lat="48.76557000" lon="8.248041000">
        <ele>208.00000</ele>
        <time>2008-10-19T12:11:44Z</time>
      </trkpt>
      <trkpt lat="48.76556000" lon="8.248009000">
        <ele>208.00000</ele>
        <time>2008-10-19T12:11:44Z</time>
      </trkpt>
      <trkpt lat="48.76555000" lon="8.247975000">
        <ele>208.00000</ele>
        <time>2008-10-19T12:11:44Z</time>
      </trkpt>
      <trkpt lat="48.76555000" lon="8.247941000">
        <ele>208.00000</ele>
        <time>2008-10-19T12:11:44Z</time>
      </trkpt>
      <trkpt lat="48.76554000" lon="8.247914000">
        <ele>216.00000</ele>
        <time>2008-10-19T12:11:44Z</time>
      </trkpt>
      <trkpt lat="48.76553000" lon="8.247893000">
        <ele>216.00000</ele>
        <time>2008-10-19T12:11:44Z</time>
      </trkpt>
      <trkpt lat="48.76553000" lon="8.247864000">
        <ele>216.00000</ele>
        <time>2008-10-19T12:11:44Z</time>
      </trkpt>
      <trkpt lat="48.76553000" lon="8.247835000">
        <ele>216.00000</ele>
        <time>2008-10-19T12:11:44Z</time>
      </trkpt>
      <trkpt lat="48.76552000" lon="8.247810000">
        <ele>216.00000</ele>
        <time>2008-10-19T12:11:44Z</time>
      </trkpt>
      <trkpt lat="48.76553000" lon="8.247787000">
        <ele>216.00000</ele>
        <time>2008-10-19T12:11:44Z</time>
      </trkpt>
      <trkpt lat="48.76553000" lon="8.247769000">
        <ele>216.00000</ele>
        <time>2008-10-19T12:11:44Z</time>
      </trkpt>
      <trkpt lat="48.76554000" lon="8.247779000">
        <ele>216.00000</ele>
        <time>2008-10-19T12:11:44Z</time>
      </trkpt>
      <trkpt lat="48.76554000" lon="8.247798000">
        <ele>216.00000</ele>
        <time>2008-10-19T12:11:44Z</time>
      </trkpt>
      <trkpt lat="48.76555000" lon="8.247817000">
        <ele>216.00000</ele>
        <time>2008-10-19T12:11:44Z</time>
      </trkpt>
      <trkpt lat="48.76557000" lon="8.247841000">
        <ele>216.00000</ele>
        <time>2008-10-19T12:11:44Z</time>
      </trkpt>
      <trkpt lat="48.76558000" lon="8.247861000">
        <ele>216.00000</ele>
        <time>2008-10-19T12:11:44Z</time>
      </trkpt>
      <trkpt lat="48.76559000" lon="8.247881000">
        <ele>216.00000</ele>
        <time>2008-10-19T12:11:44Z</time>
      </trkpt>
      <trkpt lat="48.76561000" lon="8.247901000">
        <ele>216.00000</ele>
        <time>2008-10-19T12:11:44Z</time>
      </trkpt>
      <trkpt lat="48.76563000" lon="8.247917000">
        <ele>208.00000</ele>
        <time>2008-10-19T12:11:44Z</time>
      </trkpt>
      <trkpt lat="48.76564000" lon="8.247937000">
        <ele>208.00000</ele>
        <time>2008-10-19T12:11:44Z</time>
      </trkpt>
      <trkpt lat="48.76565000" lon="8.247954000">
        <ele>208.00000</ele>
        <time>2008-10-19T12:11:44Z</time>
      </trkpt>
      <trkpt lat="48.76566000" lon="8.247976000">
        <ele>208.00000</ele>
        <time>2008-10-19T12:11:44Z</time>
      </trkpt>
      <trkpt lat="48.76566000" lon="8.248000000">
        <ele>208.00000</ele>
        <time>2008-10-19T12:11:44Z</time>
      </trkpt>
      <trkpt lat="48.76566000" lon="8.248018000">
        <ele>208.00000</ele>
        <time>2008-10-19T12:11:44Z</time>
      </trkpt>
      <trkpt lat="48.76567000" lon="8.248043000">
        <ele>208.00000</ele>
        <time>2008-10-19T12:11:44Z</time>
      </trkpt>
      <trkpt lat="48.76568000" lon="8.248070000">
        <ele>208.00000</ele>
        <time>2008-10-19T12:11:44Z</time>
      </trkpt>
      <trkpt lat="48.76569000" lon="8.248096000">
        <ele>208.00000</ele>
        <time>2008-10-19T12:11:44Z</time>
      </trkpt>
      <trkpt lat="48.76569000" lon="8.248118000">
        <ele>208.00000</ele>
        <time>2008-10-19T12:11:44Z</time>
      </trkpt>
      <trkpt lat="48.76571000" lon="8.248148000">
        <ele>208.00000</ele>
        <time>2008-10-19T12:11:44Z</time>
      </trkpt>
      <trkpt lat="48.76572000" lon="8.248178000">
        <ele>208.00000</ele>
        <time>2008-10-19T12:11:44Z</time>
      </trkpt>
      <trkpt lat="48.76572000" lon="8.248208000">
        <ele>208.00000</ele>
        <time>2008-10-19T12:11:44Z</time>
      </trkpt>
      <trkpt lat="48.76572000" lon="8.248245000">
        <ele>208.00000</ele>
        <time>2008-10-19T12:11:44Z</time>
      </trkpt>
      <trkpt lat="48.76573000" lon="8.248265000">
        <ele>208.00000</ele>
        <time>2008-10-19T12:11:44Z</time>
      </trkpt>
      <trkpt lat="48.76575000" lon="8.248289000">
        <ele>208.00000</ele>
        <time>2008-10-19T12:11:44Z</time>
      </trkpt>
      <trkpt lat="48.76576000" lon="8.248314000">
        <ele>208.00000</ele>
        <time>2008-10-19T12:11:44Z</time>
      </trkpt>
      <trkpt lat="48.76577000" lon="8.248343000">
        <ele>208.00000</ele>
        <time>2008-10-19T12:11:44Z</time>
      </trkpt>
      <trkpt lat="48.76578000" lon="8.248367000">
        <ele>208.00000</ele>
        <time>2008-10-19T12:11:44Z</time>
      </trkpt>
      <trkpt lat="48.76579000" lon="8.248392000">
        <ele>208.00000</ele>
        <time>2008-10-19T12:11:44Z</time>
      </trkpt>
      <trkpt lat="48.76580000" lon="8.248419000">
        <ele>208.00000</ele>
        <time>2008-10-19T12:11:44Z</time>
      </trkpt>
      <trkpt lat="48.76581000" lon="8.248443000">
        <ele>208.00000</ele>
        <time>2008-10-19T12:11:44Z</time>
      </trkpt>
      <trkpt lat="48.76582000" lon="8.248466000">
        <ele>208.00000</ele>
        <time>2008-10-19T12:11:44Z</time>
      </trkpt>
      <trkpt lat="48.76583000" lon="8.248487000">
        <ele>208.00000</ele>
        <time>2008-10-19T12:11:44Z</time>
      </trkpt>
      <trkpt lat="48.76585000" lon="8.248508000">
        <ele>208.00000</ele>
        <time>2008-10-19T12:11:44Z</time>
      </trkpt>
      <trkpt lat="48.76587000" lon="8.248534000">
        <ele>208.00000</ele>
        <time>2008-10-19T12:11:44Z</time>
      </trkpt>
      <trkpt lat="48.76588000" lon="8.248564000">
        <ele>208.00000</ele>
        <time>2008-10-19T12:11:44Z</time>
      </trkpt>
      <trkpt lat="48.76588000" lon="8.248595000">
        <ele>208.00000</ele>
        <time>2008-10-19T12:11:44Z</time>
      </trkpt>
      <trkpt lat="48.76590000" lon="8.248630000">
        <ele>208.00000</ele>
        <time>2008-10-19T12:11:44Z</time>
      </trkpt>
      <trkpt lat="48.76591000" lon="8.248658000">
        <ele>208.00000</ele>
        <time>2008-10-19T12:11:44Z</time>
      </trkpt>
      <trkpt lat="48.76591000" lon="8.248684000">
        <ele>208.00000</ele>
        <time>2008-10-19T12:11:44Z</time>
      </trkpt>
      <trkpt lat="48.76592000" lon="8.248711000">
        <ele>208.00000</ele>
        <time>2008-10-19T12:11:44Z</time>
      </trkpt>
      <trkpt lat="48.76593000" lon="8.248739000">
        <ele>208.00000</ele>
        <time>2008-10-19T12:11:44Z</time>
      </trkpt>
      <trkpt lat="48.76594000" lon="8.248762000">
        <ele>199.00000</ele>
        <time>2008-10-19T12:11:44Z</time>
      </trkpt>
      <trkpt lat="48.76595000" lon="8.248770000">
        <ele>199.00000</ele>
        <time>2008-10-19T12:11:44Z</time>
      </trkpt>
      <trkpt lat="48.76596000" lon="8.248767000">
        <ele>199.00000</ele>
        <time>2008-10-19T12:11:44Z</time>
      </trkpt>
      <trkpt lat="48.76598000" lon="8.248753000">
        <ele>199.00000</ele>
        <time>2008-10-19T12:11:44Z</time>
      </trkpt>
      <trkpt lat="48.76599000" lon="8.248733000">
        <ele>208.00000</ele>
        <time>2008-10-19T12:11:44Z</time>
      </trkpt>
      <trkpt lat="48.76600000" lon="8.248712000">
        <ele>208.00000</ele>
        <time>2008-10-19T12:11:44Z</time>
      </trkpt>
      <trkpt lat="48.76600000" lon="8.248691000">
        <ele>208.00000</ele>
        <time>2008-10-19T12:11:44Z</time>
      </trkpt>
      <trkpt lat="48.76599000" lon="8.248669000">
        <ele>208.00000</ele>
        <time>2008-10-19T12:11:44Z</time>
      </trkpt>
      <trkpt lat="48.76599000" lon="8.248648000">
        <ele>208.00000</ele>
        <time>2008-10-19T12:11:44Z</time>
      </trkpt>
      <trkpt lat="48.76599000" lon="8.248627000">
        <ele>208.00000</ele>
        <time>2008-10-19T12:11:44Z</time>
      </trkpt>
      <trkpt lat="48.76598000" lon="8.248602000">
        <ele>208.00000</ele>
        <time>2008-10-19T12:11:44Z</time>
      </trkpt>
      <trkpt lat="48.76598000" lon="8.248576000">
        <ele>208.00000</ele>
        <time>2008-10-19T12:11:44Z</time>
      </trkpt>
      <trkpt lat="48.76597000" lon="8.248555000">
        <ele>208.00000</ele>
        <time>2008-10-19T12:11:44Z</time>
      </trkpt>
      <trkpt lat="48.76596000" lon="8.248538000">
        <ele>208.00000</ele>
        <time>2008-10-19T12:11:44Z</time>
      </trkpt>
      <trkpt lat="48.76595000" lon="8.248516000">
        <ele>208.00000</ele>
        <time>2008-10-19T12:11:44Z</time>
      </trkpt>
      <trkpt lat="48.76595000" lon="8.248494000">
        <ele>208.00000</ele>
        <time>2008-10-19T12:11:44Z</time>
      </trkpt>
      <trkpt lat="48.76594000" lon="8.248472000">
        <ele>208.00000</ele>
        <time>2008-10-19T12:11:44Z</time>
      </trkpt>
      <trkpt lat="48.76593000" lon="8.248446000">
        <ele>208.00000</ele>
        <time>2008-10-19T12:11:44Z</time>
      </trkpt>
      <trkpt lat="48.76592000" lon="8.248416000">
        <ele>208.00000</ele>
        <time>2008-10-19T12:11:44Z</time>
      </trkpt>
      <trkpt lat="48.76591000" lon="8.248381000">
        <ele>208.00000</ele>
        <time>2008-10-19T12:11:44Z</time>
      </trkpt>
      <trkpt lat="48.76591000" lon="8.248354000">
        <ele>208.00000</ele>
        <time>2008-10-19T12:11:44Z</time>
      </trkpt>
      <trkpt lat="48.76590000" lon="8.248327000">
        <ele>208.00000</ele>
        <time>2008-10-19T12:11:44Z</time>
      </trkpt>
      <trkpt lat="48.76589000" lon="8.248300000">
        <ele>208.00000</ele>
        <time>2008-10-19T12:11:44Z</time>
      </trkpt>
      <trkpt lat="48.76587000" lon="8.248277000">
        <ele>208.00000</ele>
        <time>2008-10-19T12:11:44Z</time>
      </trkpt>
      <trkpt lat="48.76587000" lon="8.248254000">
        <ele>208.00000</ele>
        <time>2008-10-19T12:11:44Z</time>
      </trkpt>
      <trkpt lat="48.76587000" lon="8.248224000">
        <ele>208.00000</ele>
        <time>2008-10-19T12:11:44Z</time>
      </trkpt>
      <trkpt lat="48.76587000" lon="8.248199000">
        <ele>208.00000</ele>
        <time>2008-10-19T12:11:44Z</time>
      </trkpt>
      <trkpt lat="48.76587000" lon="8.248173000">
        <ele>208.00000</ele>
        <time>2008-10-19T12:11:44Z</time>
      </trkpt>
      <trkpt lat="48.76587000" lon="8.248145000">
        <ele>208.00000</ele>
        <time>2008-10-19T12:11:44Z</time>
      </trkpt>
      <trkpt lat="48.76586000" lon="8.248119000">
        <ele>208.00000</ele>
        <time>2008-10-19T12:11:44Z</time>
      </trkpt>
      <trkpt lat="48.76586000" lon="8.248095000">
        <ele>208.00000</ele>
        <time>2008-10-19T12:11:44Z</time>
      </trkpt>
      <trkpt lat="48.76585000" lon="8.248070000">
        <ele>208.00000</ele>
        <time>2008-10-19T12:11:44Z</time>
      </trkpt>
      <trkpt lat="48.76585000" lon="8.248045000">
        <ele>208.00000</ele>
        <time>2008-10-19T12:11:44Z</time>
      </trkpt>
      <trkpt lat="48.76585000" lon="8.248021000">
        <ele>208.00000</ele>
        <time>2008-10-19T12:11:44Z</time>
      </trkpt>
      <trkpt lat="48.76584000" lon="8.247998000">
        <ele>208.00000</ele>
        <time>2008-10-19T12:11:44Z</time>
      </trkpt>
      <trkpt lat="48.76583000" lon="8.247972000">
        <ele>208.00000</ele>
        <time>2008-10-19T12:11:44Z</time>
      </trkpt>
      <trkpt lat="48.76582000" lon="8.247940000">
        <ele>208.00000</ele>
        <time>2008-10-19T12:11:44Z</time>
      </trkpt>
      <trkpt lat="48.76582000" lon="8.247914000">
        <ele>216.00000</ele>
        <time>2008-10-19T12:11:44Z</time>
      </trkpt>
      <trkpt lat="48.76582000" lon="8.247887000">
        <ele>216.00000</ele>
        <time>2008-10-19T12:11:44Z</time>
      </trkpt>
      <trkpt lat="48.76582000" lon="8.247859000">
        <ele>216.00000</ele>
        <time>2008-10-19T12:11:44Z</time>
      </trkpt>
      <trkpt lat="48.76580000" lon="8.247826000">
        <ele>216.00000</ele>
        <time>2008-10-19T12:11:44Z</time>
      </trkpt>
      <trkpt lat="48.76580000" lon="8.247798000">
        <ele>216.00000</ele>
        <time>2008-10-19T12:11:44Z</time>
      </trkpt>
      <trkpt lat="48.76578000" lon="8.247765000">
        <ele>216.00000</ele>
        <time>2008-10-19T12:11:44Z</time>
      </trkpt>
      <trkpt lat="48.76577000" lon="8.247728000">
        <ele>216.00000</ele>
        <time>2008-10-19T12:11:44Z</time>
      </trkpt>
      <trkpt lat="48.76575000" lon="8.247690000">
        <ele>216.00000</ele>
        <time>2008-10-19T12:11:44Z</time>
      </trkpt>
      <trkpt lat="48.76574000" lon="8.247656000">
        <ele>216.00000</ele>
        <time>2008-10-19T12:11:44Z</time>
      </trkpt>
      <trkpt lat="48.76573000" lon="8.247622000">
        <ele>216.00000</ele>
        <time>2008-10-19T12:11:44Z</time>
      </trkpt>
      <trkpt lat="48.76571000" lon="8.247587000">
        <ele>216.00000</ele>
        <time>2008-10-19T12:11:44Z</time>
      </trkpt>
      <trkpt lat="48.76571000" lon="8.247557000">
        <ele>216.00000</ele>
        <time>2008-10-19T12:11:44Z</time>
      </trkpt>
      <trkpt lat="48.76571000" lon="8.247532000">
        <ele>216.00000</ele>
        <time>2008-10-19T12:11:44Z</time>
      </trkpt>
      <trkpt lat="48.76571000" lon="8.247506000">
        <ele>216.00000</ele>
        <time>2008-10-19T12:11:44Z</time>
      </trkpt>
      <trkpt lat="48.76570000" lon="8.247477000">
        <ele>216.00000</ele>
        <time>2008-10-19T12:11:44Z</time>
      </trkpt>
      <trkpt lat="48.76570000" lon="8.247444000">
        <ele>216.00000</ele>
        <time>2008-10-19T12:11:44Z</time>
      </trkpt>
      <trkpt lat="48.76569000" lon="8.247416000">
        <ele>216.00000</ele>
        <time>2008-10-19T12:11:44Z</time>
      </trkpt>
      <trkpt lat="48.76569000" lon="8.247393000">
        <ele>216.00000</ele>
        <time>2008-10-19T12:11:44Z</time>
      </trkpt>
      <trkpt lat="48.76569000" lon="8.247370000">
        <ele>216.00000</ele>
        <time>2008-10-19T12:11:44Z</time>
      </trkpt>
      <trkpt lat="48.76569000" lon="8.247342000">
        <ele>216.00000</ele>
        <time>2008-10-19T12:11:44Z</time>
      </trkpt>
      <trkpt lat="48.76567000" lon="8.247308000">
        <ele>216.00000</ele>
        <time>2008-10-19T12:11:44Z</time>
      </trkpt>
      <trkpt lat="48.76567000" lon="8.247277000">
        <ele>216.00000</ele>
        <time>2008-10-19T12:11:44Z</time>
      </trkpt>
      <trkpt lat="48.76566000" lon="8.247247000">
        <ele>216.00000</ele>
        <time>2008-10-19T12:11:44Z</time>
      </trkpt>
      <trkpt lat="48.76566000" lon="8.247212000">
        <ele>216.00000</ele>
        <time>2008-10-19T12:11:44Z</time>
      </trkpt>
      <trkpt lat="48.76566000" lon="8.247178000">
        <ele>216.00000</ele>
        <time>2008-10-19T12:11:44Z</time>
      </trkpt>
      <trkpt lat="48.76565000" lon="8.247148000">
        <ele>216.00000</ele>
        <time>2008-10-19T12:11:44Z</time>
      </trkpt>
      <trkpt lat="48.76564000" lon="8.247114000">
        <ele>216.00000</ele>
        <time>2008-10-19T12:11:44Z</time>
      </trkpt>
      <trkpt lat="48.76563000" lon="8.247078000">
        <ele>222.00000</ele>
        <time>2008-10-19T12:11:44Z</time>
      </trkpt>
      <trkpt lat="48.76561000" lon="8.247041000">
        <ele>222.00000</ele>
        <time>2008-10-19T12:11:44Z</time>
      </trkpt>
      <trkpt lat="48.76562000" lon="8.247010000">
        <ele>222.00000</ele>
        <time>2008-10-19T12:11:44Z</time>
      </trkpt>
      <trkpt lat="48.76562000" lon="8.246984000">
        <ele>222.00000</ele>
        <time>2008-10-19T12:11:44Z</time>
      </trkpt>
      <trkpt lat="48.76561000" lon="8.246947000">
        <ele>222.00000</ele>
        <time>2008-10-19T12:11:44Z</time>
      </trkpt>
      <trkpt lat="48.76560000" lon="8.246911000">
        <ele>222.00000</ele>
        <time>2008-10-19T12:11:44Z</time>
      </trkpt>
      <trkpt lat="48.76561000" lon="8.246881000">
        <ele>222.00000</ele>
        <time>2008-10-19T12:11:44Z</time>
      </trkpt>
      <trkpt lat="48.76561000" lon="8.246848000">
        <ele>222.00000</ele>
        <time>2008-10-19T12:11:44Z</time>
      </trkpt>
      <trkpt lat="48.76561000" lon="8.246822000">
        <ele>222.00000</ele>
        <time>2008-10-19T12:11:44Z</time>
      </trkpt>
      <trkpt lat="48.76561000" lon="8.246796000">
        <ele>222.00000</ele>
        <time>2008-10-19T12:11:44Z</time>
      </trkpt>
      <trkpt lat="48.76561000" lon="8.246769000">
        <ele>222.00000</ele>
        <time>2008-10-19T12:11:44Z</time>
      </trkpt>
      <trkpt lat="48.76562000" lon="8.246745000">
        <ele>222.00000</ele>
        <time>2008-10-19T12:11:44Z</time>
      </trkpt>
      <trkpt lat="48.76562000" lon="8.246723000">
        <ele>222.00000</ele>
        <time>2008-10-19T12:11:44Z</time>
      </trkpt>
      <trkpt lat="48.76562000" lon="8.246700000">
        <ele>222.00000</ele>
        <time>2008-10-19T12:11:44Z</time>
      </trkpt>
      <trkpt lat="48.76563000" lon="8.246675000">
        <ele>222.00000</ele>
        <time>2008-10-19T12:11:44Z</time>
      </trkpt>
      <trkpt lat="48.76563000" lon="8.246648000">
        <ele>222.00000</ele>
        <time>2008-10-19T12:11:44Z</time>
      </trkpt>
      <trkpt lat="48.76564000" lon="8.246621000">
        <ele>222.00000</ele>
        <time>2008-10-19T12:11:44Z</time>
      </trkpt>
      <trkpt lat="48.76563000" lon="8.246584000">
        <ele>222.00000</ele>
        <time>2008-10-19T12:11:44Z</time>
      </trkpt>
      <trkpt lat="48.76563000" lon="8.246559000">
        <ele>222.00000</ele>
        <time>2008-10-19T12:11:44Z</time>
      </trkpt>
      <trkpt lat="48.76563000" lon="8.246531000">
        <ele>222.00000</ele>
        <time>2008-10-19T12:11:44Z</time>
      </trkpt>
      <trkpt lat="48.76563000" lon="8.246503000">
        <ele>222.00000</ele>
        <time>2008-10-19T12:11:44Z</time>
      </trkpt>
      <trkpt lat="48.76563000" lon="8.246474000">
        <ele>222.00000</ele>
        <time>2008-10-19T12:11:44Z</time>
      </trkpt>
      <trkpt lat="48.76563000" lon="8.246447000">
        <ele>222.00000</ele>
        <time>2008-10-19T12:11:44Z</time>
      </trkpt>
      <trkpt lat="48.76563000" lon="8.246420000">
        <ele>222.00000</ele>
        <time>2008-10-19T12:11:44Z</time>
      </trkpt>
      <trkpt lat="48.76563000" lon="8.246391000">
        <ele>222.00000</ele>
        <time>2008-10-19T12:11:44Z</time>
      </trkpt>
      <trkpt lat="48.76562000" lon="8.246363000">
        <ele>222.00000</ele>
        <time>2008-10-19T12:11:44Z</time>
      </trkpt>
      <trkpt lat="48.76561000" lon="8.246333000">
        <ele>222.00000</ele>
        <time>2008-10-19T12:11:44Z</time>
      </trkpt>
      <trkpt lat="48.76559000" lon="8.246304000">
        <ele>222.00000</ele>
        <time>2008-10-19T12:11:44Z</time>
      </trkpt>
      <trkpt lat="48.76559000" lon="8.246278000">
        <ele>222.00000</ele>
        <time>2008-10-19T12:11:44Z</time>
      </trkpt>
      <trkpt lat="48.76559000" lon="8.246254000">
        <ele>222.00000</ele>
        <time>2008-10-19T12:11:44Z</time>
      </trkpt>
      <trkpt lat="48.76558000" lon="8.246224000">
        <ele>226.00000</ele>
        <time>2008-10-19T12:11:44Z</time>
      </trkpt>
      <trkpt lat="48.76556000" lon="8.246201000">
        <ele>226.00000</ele>
        <time>2008-10-19T12:11:44Z</time>
      </trkpt>
      <trkpt lat="48.76555000" lon="8.246172000">
        <ele>226.00000</ele>
        <time>2008-10-19T12:11:44Z</time>
      </trkpt>
      <trkpt lat="48.76555000" lon="8.246143000">
        <ele>226.00000</ele>
        <time>2008-10-19T12:11:44Z</time>
      </trkpt>
      <trkpt lat="48.76554000" lon="8.246110000">
        <ele>226.00000</ele>
        <time>2008-10-19T12:11:44Z</time>
      </trkpt>
      <trkpt lat="48.76553000" lon="8.246074000">
        <ele>226.00000</ele>
        <time>2008-10-19T12:11:44Z</time>
      </trkpt>
      <trkpt lat="48.76553000" lon="8.246044000">
        <ele>226.00000</ele>
        <time>2008-10-19T12:11:44Z</time>
      </trkpt>
      <trkpt lat="48.76553000" lon="8.246016000">
        <ele>226.00000</ele>
        <time>2008-10-19T12:11:44Z</time>
      </trkpt>
      <trkpt lat="48.76554000" lon="8.245986000">
        <ele>226.00000</ele>
        <time>2008-10-19T12:11:44Z</time>
      </trkpt>
      <trkpt lat="48.76553000" lon="8.245948000">
        <ele>226.00000</ele>
        <time>2008-10-19T12:11:44Z</time>
      </trkpt>
      <trkpt lat="48.76554000" lon="8.245921000">
        <ele>226.00000</ele>
        <time>2008-10-19T12:11:44Z</time>
      </trkpt>
      <trkpt lat="48.76555000" lon="8.245896000">
        <ele>226.00000</ele>
        <time>2008-10-19T12:11:44Z</time>
      </trkpt>
      <trkpt lat="48.76556000" lon="8.245869000">
        <ele>226.00000</ele>
        <time>2008-10-19T12:11:44Z</time>
      </trkpt>
      <trkpt lat="48.76555000" lon="8.245838000">
        <ele>226.00000</ele>
        <time>2008-10-19T12:11:44Z</time>
      </trkpt>
      <trkpt lat="48.76556000" lon="8.245811000">
        <ele>226.00000</ele>
        <time>2008-10-19T12:11:44Z</time>
      </trkpt>
      <trkpt lat="48.76556000" lon="8.245784000">
        <ele>226.00000</ele>
        <time>2008-10-19T12:11:44Z</time>
      </trkpt>
      <trkpt lat="48.76556000" lon="8.245760000">
        <ele>226.00000</ele>
        <time>2008-10-19T12:11:44Z</time>
      </trkpt>
      <trkpt lat="48.76557000" lon="8.245737000">
        <ele>226.00000</ele>
        <time>2008-10-19T12:11:44Z</time>
      </trkpt>
      <trkpt lat="48.76557000" lon="8.245715000">
        <ele>226.00000</ele>
        <time>2008-10-19T12:11:44Z</time>
      </trkpt>
      <trkpt lat="48.76557000" lon="8.245697000">
        <ele>226.00000</ele>
        <time>2008-10-19T12:11:44Z</time>
      </trkpt>
      <trkpt lat="48.76558000" lon="8.245684000">
        <ele>226.00000</ele>
        <time>2008-10-19T12:11:44Z</time>
      </trkpt>
      <trkpt lat="48.76558000" lon="8.245669000">
        <ele>226.00000</ele>
        <time>2008-10-19T12:11:44Z</time>
      </trkpt>
      <trkpt lat="48.76559000" lon="8.245656000">
        <ele>226.00000</ele>
        <time>2008-10-19T12:11:44Z</time>
      </trkpt>
      <trkpt lat="48.76559000" lon="8.245646000">
        <ele>226.00000</ele>
        <time>2008-10-19T12:11:44Z</time>
      </trkpt>
      <trkpt lat="48.76560000" lon="8.245635000">
        <ele>226.00000</ele>
        <time>2008-10-19T12:11:44Z</time>
      </trkpt>
      <trkpt lat="48.76560000" lon="8.245617000">
        <ele>226.00000</ele>
        <time>2008-10-19T12:11:44Z</time>
      </trkpt>
      <trkpt lat="48.76560000" lon="8.245596000">
        <ele>226.00000</ele>
        <time>2008-10-19T12:11:44Z</time>
      </trkpt>
      <trkpt lat="48.76561000" lon="8.245574000">
        <ele>226.00000</ele>
        <time>2008-10-19T12:11:44Z</time>
      </trkpt>
      <trkpt lat="48.76563000" lon="8.245554000">
        <ele>226.00000</ele>
        <time>2008-10-19T12:11:44Z</time>
      </trkpt>
      <trkpt lat="48.76564000" lon="8.245539000">
        <ele>226.00000</ele>
        <time>2008-10-19T12:11:44Z</time>
      </trkpt>
      <trkpt lat="48.76566000" lon="8.245538000">
        <ele>226.00000</ele>
        <time>2008-10-19T12:11:44Z</time>
      </trkpt>
      <trkpt lat="48.76568000" lon="8.245542000">
        <ele>226.00000</ele>
        <time>2008-10-19T12:11:44Z</time>
      </trkpt>
      <trkpt lat="48.76569000" lon="8.245540000">
        <ele>226.00000</ele>
        <time>2008-10-19T12:11:44Z</time>
      </trkpt>
      <trkpt lat="48.76571000" lon="8.245544000">
        <ele>226.00000</ele>
        <time>2008-10-19T12:11:44Z</time>
      </trkpt>
      <trkpt lat="48.76573000" lon="8.245550000">
        <ele>226.00000</ele>
        <time>2008-10-19T12:11:44Z</time>
      </trkpt>
      <trkpt lat="48.76575000" lon="8.245556000">
        <ele>226.00000</ele>
        <time>2008-10-19T12:11:44Z</time>
      </trkpt>
      <trkpt lat="48.76576000" lon="8.245558000">
        <ele>226.00000</ele>
        <time>2008-10-19T12:11:44Z</time>
      </trkpt>
      <trkpt lat="48.76578000" lon="8.245560000">
        <ele>226.00000</ele>
        <time>2008-10-19T12:11:44Z</time>
      </trkpt>
      <trkpt lat="48.76580000" lon="8.245561000">
        <ele>226.00000</ele>
        <time>2008-10-19T12:11:44Z</time>
      </trkpt>
      <trkpt lat="48.76581000" lon="8.245555000">
        <ele>226.00000</ele>
        <time>2008-10-19T12:11:44Z</time>
      </trkpt>
      <trkpt lat="48.76583000" lon="8.245546000">
        <ele>226.00000</ele>
        <time>2008-10-19T12:11:44Z</time>
      </trkpt>
      <trkpt lat="48.76585000" lon="8.245531000">
        <ele>226.00000</ele>
        <time>2008-10-19T12:11:44Z</time>
      </trkpt>
      <trkpt lat="48.76586000" lon="8.245517000">
        <ele>226.00000</ele>
        <time>2008-10-19T12:11:44Z</time>
      </trkpt>
      <trkpt lat="48.76588000" lon="8.245502000">
        <ele>226.00000</ele>
        <time>2008-10-19T12:11:44Z</time>
      </trkpt>
      <trkpt lat="48.76590000" lon="8.245488000">
        <ele>226.00000</ele>
        <time>2008-10-19T12:11:44Z</time>
      </trkpt>
      <trkpt lat="48.76591000" lon="8.245470000">
        <ele>226.00000</ele>
        <time>2008-10-19T12:11:44Z</time>
      </trkpt>
      <trkpt lat="48.76593000" lon="8.245457000">
        <ele>226.00000</ele>
        <time>2008-10-19T12:11:44Z</time>
      </trkpt>
      <trkpt lat="48.76595000" lon="8.245447000">
        <ele>226.00000</ele>
        <time>2008-10-19T12:11:44Z</time>
      </trkpt>
      <trkpt lat="48.76597000" lon="8.245448000">
        <ele>226.00000</ele>
        <time>2008-10-19T12:11:44Z</time>
      </trkpt>
      <trkpt lat="48.76598000" lon="8.245456000">
        <ele>226.00000</ele>
        <time>2008-10-19T12:11:44Z</time>
      </trkpt>
      <trkpt lat="48.76599000" lon="8.245458000">
        <ele>226.00000</ele>
        <time>2008-10-19T12:11:44Z</time>
      </trkpt>
      <trkpt lat="48.76600000" lon="8.245465000">
        <ele>226.00000</ele>
        <time>2008-10-19T12:11:44Z</time>
      </trkpt>
      <trkpt lat="48.76601000" lon="8.245482000">
        <ele>226.00000</ele>
        <time>2008-10-19T12:11:44Z</time>
      </trkpt>
      <trkpt lat="48.76603000" lon="8.245498000">
        <ele>226.00000</ele>
        <time>2008-10-19T12:11:44Z</time>
      </trkpt>
      <trkpt lat="48.76604000" lon="8.245509000">
        <ele>226.00000</ele>
        <time>2008-10-19T12:11:44Z</time>
      </trkpt>
      <trkpt lat="48.76605000" lon="8.245517000">
        <ele>226.00000</ele>
        <time>2008-10-19T12:11:44Z</time>
      </trkpt>
      <trkpt lat="48.76606000" lon="8.245528000">
        <ele>226.00000</ele>
        <time>2008-10-19T12:11:44Z</time>
      </trkpt>
      <trkpt lat="48.76608000" lon="8.245540000">
        <ele>226.00000</ele>
        <time>2008-10-19T12:11:44Z</time>
      </trkpt>
      <trkpt lat="48.76609000" lon="8.245543000">
        <ele>226.00000</ele>
        <time>2008-10-19T12:11:44Z</time>
      </trkpt>
      <trkpt lat="48.76610000" lon="8.245547000">
        <ele>226.00000</ele>
        <time>2008-10-19T12:11:44Z</time>
      </trkpt>
      <trkpt lat="48.76611000" lon="8.245552000">
        <ele>226.00000</ele>
        <time>2008-10-19T12:11:44Z</time>
      </trkpt>
      <trkpt lat="48.76613000" lon="8.245559000">
        <ele>226.00000</ele>
        <time>2008-10-19T12:11:44Z</time>
      </trkpt>
      <trkpt lat="48.76614000" lon="8.245567000">
        <ele>226.00000</ele>
        <time>2008-10-19T12:11:44Z</time>
      </trkpt>
      <trkpt lat="48.76615000" lon="8.245569000">
        <ele>226.00000</ele>
        <time>2008-10-19T12:11:44Z</time>
      </trkpt>
      <trkpt lat="48.76616000" lon="8.245571000">
        <ele>226.00000</ele>
        <time>2008-10-19T12:11:44Z</time>
      </trkpt>
      <trkpt lat="48.76617000" lon="8.245574000">
        <ele>226.00000</ele>
        <time>2008-10-19T12:11:44Z</time>
      </trkpt>
      <trkpt lat="48.76619000" lon="8.245573000">
        <ele>226.00000</ele>
        <time>2008-10-19T12:11:44Z</time>
      </trkpt>
      <trkpt lat="48.76620000" lon="8.245564000">
        <ele>226.00000</ele>
        <time>2008-10-19T12:11:44Z</time>
      </trkpt>
      <trkpt lat="48.76622000" lon="8.245563000">
        <ele>226.00000</ele>
        <time>2008-10-19T12:11:44Z</time>
      </trkpt>
      <trkpt lat="48.76623000" lon="8.245559000">
        <ele>226.00000</ele>
        <time>2008-10-19T12:11:44Z</time>
      </trkpt>
      <trkpt lat="48.76624000" lon="8.245556000">
        <ele>226.00000</ele>
        <time>2008-10-19T12:11:44Z</time>
      </trkpt>
      <trkpt lat="48.76625000" lon="8.245548000">
        <ele>240.00000</ele>
        <time>2008-10-19T12:11:44Z</time>
      </trkpt>
      <trkpt lat="48.76627000" lon="8.245544000">
        <ele>240.00000</ele>
        <time>2008-10-19T12:11:44Z</time>
      </trkpt>
      <trkpt lat="48.76628000" lon="8.245541000">
        <ele>240.00000</ele>
        <time>2008-10-19T12:11:44Z</time>
      </trkpt>
      <trkpt lat="48.76631000" lon="8.245536000">
        <ele>240.00000</ele>
        <time>2008-10-19T12:11:44Z</time>
      </trkpt>
      <trkpt lat="48.76632000" lon="8.245532000">
        <ele>240.00000</ele>
        <time>2008-10-19T12:11:44Z</time>
      </trkpt>
      <trkpt lat="48.76635000" lon="8.245523000">
        <ele>240.00000</ele>
        <time>2008-10-19T12:11:44Z</time>
      </trkpt>
      <trkpt lat="48.76637000" lon="8.245508000">
        <ele>240.00000</ele>
        <time>2008-10-19T12:11:44Z</time>
      </trkpt>
      <trkpt lat="48.76638000" lon="8.245498000">
        <ele>240.00000</ele>
        <time>2008-10-19T12:11:44Z</time>
      </trkpt>
      <trkpt lat="48.76640000" lon="8.245489000">
        <ele>240.00000</ele>
        <time>2008-10-19T12:11:44Z</time>
      </trkpt>
      <trkpt lat="48.76642000" lon="8.245485000">
        <ele>240.00000</ele>
        <time>2008-10-19T12:11:44Z</time>
      </trkpt>
      <trkpt lat="48.76643000" lon="8.245485000">
        <ele>240.00000</ele>
        <time>2008-10-19T12:11:44Z</time>
      </trkpt>
      <trkpt lat="48.76645000" lon="8.245483000">
        <ele>240.00000</ele>
        <time>2008-10-19T12:11:44Z</time>
      </trkpt>
      <trkpt lat="48.76647000" lon="8.245473000">
        <ele>240.00000</ele>
        <time>2008-10-19T12:11:44Z</time>
      </trkpt>
      <trkpt lat="48.76648000" lon="8.245467000">
        <ele>240.00000</ele>
        <time>2008-10-19T12:11:44Z</time>
      </trkpt>
      <trkpt lat="48.76649000" lon="8.245461000">
        <ele>240.00000</ele>
        <time>2008-10-19T12:11:44Z</time>
      </trkpt>
      <trkpt lat="48.76651000" lon="8.245455000">
        <ele>240.00000</ele>
        <time>2008-10-19T12:11:44Z</time>
      </trkpt>
      <trkpt lat="48.76653000" lon="8.245452000">
        <ele>240.00000</ele>
        <time>2008-10-19T12:11:44Z</time>
      </trkpt>
      <trkpt lat="48.76654000" lon="8.245446000">
        <ele>240.00000</ele>
        <time>2008-10-19T12:11:44Z</time>
      </trkpt>
      <trkpt lat="48.76656000" lon="8.245442000">
        <ele>240.00000</ele>
        <time>2008-10-19T12:11:44Z</time>
      </trkpt>
      <trkpt lat="48.76658000" lon="8.245435000">
        <ele>240.00000</ele>
        <time>2008-10-19T12:11:44Z</time>
      </trkpt>
      <trkpt lat="48.76660000" lon="8.245427000">
        <ele>240.00000</ele>
        <time>2008-10-19T12:11:44Z</time>
      </trkpt>
      <trkpt lat="48.76661000" lon="8.245420000">
        <ele>240.00000</ele>
        <time>2008-10-19T12:11:44Z</time>
      </trkpt>
      <trkpt lat="48.76663000" lon="8.245409000">
        <ele>234.00000</ele>
        <time>2008-10-19T12:11:44Z</time>
      </trkpt>
      <trkpt lat="48.76665000" lon="8.245399000">
        <ele>234.00000</ele>
        <time>2008-10-19T12:11:44Z</time>
      </trkpt>
      <trkpt lat="48.76667000" lon="8.245391000">
        <ele>234.00000</ele>
        <time>2008-10-19T12:11:44Z</time>
      </trkpt>
      <trkpt lat="48.76669000" lon="8.245383000">
        <ele>234.00000</ele>
        <time>2008-10-19T12:11:44Z</time>
      </trkpt>
      <trkpt lat="48.76670000" lon="8.245374000">
        <ele>234.00000</ele>
        <time>2008-10-19T12:11:44Z</time>
      </trkpt>
      <trkpt lat="48.76672000" lon="8.245353000">
        <ele>234.00000</ele>
        <time>2008-10-19T12:11:44Z</time>
      </trkpt>
      <trkpt lat="48.76674000" lon="8.245344000">
        <ele>234.00000</ele>
        <time>2008-10-19T12:11:44Z</time>
      </trkpt>
      <trkpt lat="48.76675000" lon="8.245335000">
        <ele>234.00000</ele>
        <time>2008-10-19T12:11:44Z</time>
      </trkpt>
      <trkpt lat="48.76677000" lon="8.245326000">
        <ele>234.00000</ele>
        <time>2008-10-19T12:11:44Z</time>
      </trkpt>
      <trkpt lat="48.76679000" lon="8.245317000">
        <ele>234.00000</ele>
        <time>2008-10-19T12:11:44Z</time>
      </trkpt>
      <trkpt lat="48.76680000" lon="8.245308000">
        <ele>234.00000</ele>
        <time>2008-10-19T12:11:44Z</time>
      </trkpt>
      <trkpt lat="48.76682000" lon="8.245299000">
        <ele>234.00000</ele>
        <time>2008-10-19T12:11:44Z</time>
      </trkpt>
      <trkpt lat="48.76683000" lon="8.245288000">
        <ele>234.00000</ele>
        <time>2008-10-19T12:11:44Z</time>
      </trkpt>
      <trkpt lat="48.76685000" lon="8.245276000">
        <ele>234.00000</ele>
        <time>2008-10-19T12:11:44Z</time>
      </trkpt>
      <trkpt lat="48.76686000" lon="8.245265000">
        <ele>234.00000</ele>
        <time>2008-10-19T12:11:44Z</time>
      </trkpt>
      <trkpt lat="48.76687000" lon="8.245255000">
        <ele>234.00000</ele>
        <time>2008-10-19T12:11:44Z</time>
      </trkpt>
      <trkpt lat="48.76689000" lon="8.245241000">
        <ele>234.00000</ele>
        <time>2008-10-19T12:11:44Z</time>
      </trkpt>
      <trkpt lat="48.76691000" lon="8.245229000">
        <ele>234.00000</ele>
        <time>2008-10-19T12:11:44Z</time>
      </trkpt>
      <trkpt lat="48.76693000" lon="8.245219000">
        <ele>234.00000</ele>
        <time>2008-10-19T12:11:44Z</time>
      </trkpt>
      <trkpt lat="48.76694000" lon="8.245206000">
        <ele>234.00000</ele>
        <time>2008-10-19T12:11:44Z</time>
      </trkpt>
      <trkpt lat="48.76695000" lon="8.245197000">
        <ele>234.00000</ele>
        <time>2008-10-19T12:11:44Z</time>
      </trkpt>
      <trkpt lat="48.76697000" lon="8.245183000">
        <ele>234.00000</ele>
        <time>2008-10-19T12:11:44Z</time>
      </trkpt>
      <trkpt lat="48.76699000" lon="8.245176000">
        <ele>234.00000</ele>
        <time>2008-10-19T12:11:44Z</time>
      </trkpt>
      <trkpt lat="48.76700000" lon="8.245164000">
        <ele>234.00000</ele>
        <time>2008-10-19T12:11:44Z</time>
      </trkpt>
      <trkpt lat="48.76702000" lon="8.245152000">
        <ele>234.00000</ele>
        <time>2008-10-19T12:11:44Z</time>
      </trkpt>
      <trkpt lat="48.76704000" lon="8.245141000">
        <ele>234.00000</ele>
        <time>2008-10-19T12:11:44Z</time>
      </trkpt>
      <trkpt lat="48.76705000" lon="8.245127000">
        <ele>234.00000</ele>
        <time>2008-10-19T12:11:44Z</time>
      </trkpt>
      <trkpt lat="48.76706000" lon="8.245110000">
        <ele>234.00000</ele>
        <time>2008-10-19T12:11:44Z</time>
      </trkpt>
      <trkpt lat="48.76707000" lon="8.245094000">
        <ele>234.00000</ele>
        <time>2008-10-19T12:11:44Z</time>
      </trkpt>
      <trkpt lat="48.76708000" lon="8.245074000">
        <ele>234.00000</ele>
        <time>2008-10-19T12:11:44Z</time>
      </trkpt>
      <trkpt lat="48.76709000" lon="8.245056000">
        <ele>248.00000</ele>
        <time>2008-10-19T12:11:44Z</time>
      </trkpt>
      <trkpt lat="48.76711000" lon="8.245040000">
        <ele>248.00000</ele>
        <time>2008-10-19T12:11:44Z</time>
      </trkpt>
      <trkpt lat="48.76712000" lon="8.245027000">
        <ele>248.00000</ele>
        <time>2008-10-19T12:11:44Z</time>
      </trkpt>
      <trkpt lat="48.76713000" lon="8.245009000">
        <ele>248.00000</ele>
        <time>2008-10-19T12:11:44Z</time>
      </trkpt>
      <trkpt lat="48.76715000" lon="8.244994000">
        <ele>248.00000</ele>
        <time>2008-10-19T12:11:44Z</time>
      </trkpt>
      <trkpt lat="48.76716000" lon="8.244979000">
        <ele>248.00000</ele>
        <time>2008-10-19T12:11:44Z</time>
      </trkpt>
      <trkpt lat="48.76717000" lon="8.244965000">
        <ele>248.00000</ele>
        <time>2008-10-19T12:11:44Z</time>
      </trkpt>
      <trkpt lat="48.76719000" lon="8.244949000">
        <ele>248.00000</ele>
        <time>2008-10-19T12:11:44Z</time>
      </trkpt>
      <trkpt lat="48.76720000" lon="8.244936000">
        <ele>248.00000</ele>
        <time>2008-10-19T12:11:44Z</time>
      </trkpt>
      <trkpt lat="48.76722000" lon="8.244921000">
        <ele>248.00000</ele>
        <time>2008-10-19T12:11:44Z</time>
      </trkpt>
      <trkpt lat="48.76723000" lon="8.244905000">
        <ele>248.00000</ele>
        <time>2008-10-19T12:11:44Z</time>
      </trkpt>
      <trkpt lat="48.76725000" lon="8.244889000">
        <ele>248.00000</ele>
        <time>2008-10-19T12:11:44Z</time>
      </trkpt>
      <trkpt lat="48.76726000" lon="8.244872000">
        <ele>248.00000</ele>
        <time>2008-10-19T12:11:44Z</time>
      </trkpt>
      <trkpt lat="48.76727000" lon="8.244857000">
        <ele>248.00000</ele>
        <time>2008-10-19T12:11:44Z</time>
      </trkpt>
      <trkpt lat="48.76729000" lon="8.244841000">
        <ele>248.00000</ele>
        <time>2008-10-19T12:11:44Z</time>
      </trkpt>
      <trkpt lat="48.76730000" lon="8.244823000">
        <ele>248.00000</ele>
        <time>2008-10-19T12:11:44Z</time>
      </trkpt>
      <trkpt lat="48.76732000" lon="8.244806000">
        <ele>248.00000</ele>
        <time>2008-10-19T12:11:44Z</time>
      </trkpt>
      <trkpt lat="48.76733000" lon="8.244788000">
        <ele>248.00000</ele>
        <time>2008-10-19T12:11:44Z</time>
      </trkpt>
      <trkpt lat="48.76735000" lon="8.244774000">
        <ele>248.00000</ele>
        <time>2008-10-19T12:11:44Z</time>
      </trkpt>
      <trkpt lat="48.76736000" lon="8.244759000">
        <ele>248.00000</ele>
        <time>2008-10-19T12:11:44Z</time>
      </trkpt>
      <trkpt lat="48.76738000" lon="8.244741000">
        <ele>248.00000</ele>
        <time>2008-10-19T12:11:44Z</time>
      </trkpt>
      <trkpt lat="48.76740000" lon="8.244723000">
        <ele>248.00000</ele>
        <time>2008-10-19T12:11:44Z</time>
      </trkpt>
      <trkpt lat="48.76740000" lon="8.244707000">
        <ele>248.00000</ele>
        <time>2008-10-19T12:11:44Z</time>
      </trkpt>
      <trkpt lat="48.76742000" lon="8.244687000">
        <ele>248.00000</ele>
        <time>2008-10-19T12:11:44Z</time>
      </trkpt>
      <trkpt lat="48.76743000" lon="8.244668000">
        <ele>248.00000</ele>
        <time>2008-10-19T12:11:44Z</time>
      </trkpt>
      <trkpt lat="48.76744000" lon="8.244649000">
        <ele>248.00000</ele>
        <time>2008-10-19T12:11:44Z</time>
      </trkpt>
      <trkpt lat="48.76746000" lon="8.244631000">
        <ele>248.00000</ele>
        <time>2008-10-19T12:11:44Z</time>
      </trkpt>
      <trkpt lat="48.76747000" lon="8.244614000">
        <ele>248.00000</ele>
        <time>2008-10-19T12:11:44Z</time>
      </trkpt>
      <trkpt lat="48.76749000" lon="8.244594000">
        <ele>248.00000</ele>
        <time>2008-10-19T12:11:44Z</time>
      </trkpt>
      <trkpt lat="48.76750000" lon="8.244579000">
        <ele>244.00000</ele>
        <time>2008-10-19T12:11:44Z</time>
      </trkpt>
      <trkpt lat="48.76752000" lon="8.244562000">
        <ele>244.00000</ele>
        <time>2008-10-19T12:11:44Z</time>
      </trkpt>
      <trkpt lat="48.76753000" lon="8.244540000">
        <ele>244.00000</ele>
        <time>2008-10-19T12:11:44Z</time>
      </trkpt>
      <trkpt lat="48.76754000" lon="8.244520000">
        <ele>244.00000</ele>
        <time>2008-10-19T12:11:44Z</time>
      </trkpt>
      <trkpt lat="48.76755000" lon="8.244501000">
        <ele>244.00000</ele>
        <time>2008-10-19T12:11:44Z</time>
      </trkpt>
      <trkpt lat="48.76756000" lon="8.244481000">
        <ele>244.00000</ele>
        <time>2008-10-19T12:11:44Z</time>
      </trkpt>
      <trkpt lat="48.76758000" lon="8.244460000">
        <ele>244.00000</ele>
        <time>2008-10-19T12:11:44Z</time>
      </trkpt>
      <trkpt lat="48.76759000" lon="8.244437000">
        <ele>244.00000</ele>
        <time>2008-10-19T12:11:44Z</time>
      </trkpt>
      <trkpt lat="48.76761000" lon="8.244415000">
        <ele>244.00000</ele>
        <time>2008-10-19T12:11:44Z</time>
      </trkpt>
      <trkpt lat="48.76762000" lon="8.244397000">
        <ele>244.00000</ele>
        <time>2008-10-19T12:11:44Z</time>
      </trkpt>
      <trkpt lat="48.76764000" lon="8.244378000">
        <ele>244.00000</ele>
        <time>2008-10-19T12:11:44Z</time>
      </trkpt>
      <trkpt lat="48.76766000" lon="8.244358000">
        <ele>244.00000</ele>
        <time>2008-10-19T12:11:44Z</time>
      </trkpt>
      <trkpt lat="48.76769000" lon="8.244330000">
        <ele>244.00000</ele>
        <time>2008-10-19T12:11:44Z</time>
      </trkpt>
      <trkpt lat="48.76771000" lon="8.244330000">
        <ele>244.00000</ele>
        <time>2008-10-19T12:11:44Z</time>
      </trkpt>
      <trkpt lat="48.76772000" lon="8.244325000">
        <ele>244.00000</ele>
        <time>2008-10-19T12:11:44Z</time>
      </trkpt>
      <trkpt lat="48.76773000" lon="8.244330000">
        <ele>244.00000</ele>
        <time>2008-10-19T12:11:44Z</time>
      </trkpt>
      <trkpt lat="48.76775000" lon="8.244352000">
        <ele>244.00000</ele>
        <time>2008-10-19T12:11:44Z</time>
      </trkpt>
      <trkpt lat="48.76776000" lon="8.244374000">
        <ele>244.00000</ele>
        <time>2008-10-19T12:11:44Z</time>
      </trkpt>
      <trkpt lat="48.76776000" lon="8.244393000">
        <ele>244.00000</ele>
        <time>2008-10-19T12:11:44Z</time>
      </trkpt>
      <trkpt lat="48.76776000" lon="8.244417000">
        <ele>244.00000</ele>
        <time>2008-10-19T12:11:44Z</time>
      </trkpt>
      <trkpt lat="48.76776000" lon="8.244443000">
        <ele>244.00000</ele>
        <time>2008-10-19T12:11:44Z</time>
      </trkpt>
      <trkpt lat="48.76776000" lon="8.244469000">
        <ele>244.00000</ele>
        <time>2008-10-19T12:11:44Z</time>
      </trkpt>
      <trkpt lat="48.76775000" lon="8.244493000">
        <ele>244.00000</ele>
        <time>2008-10-19T12:11:44Z</time>
      </trkpt>
      <trkpt lat="48.76775000" lon="8.244522000">
        <ele>244.00000</ele>
        <time>2008-10-19T12:11:44Z</time>
      </trkpt>
      <trkpt lat="48.76773000" lon="8.244547000">
        <ele>244.00000</ele>
        <time>2008-10-19T12:11:44Z</time>
      </trkpt>
      <trkpt lat="48.76773000" lon="8.244569000">
        <ele>244.00000</ele>
        <time>2008-10-19T12:11:44Z</time>
      </trkpt>
      <trkpt lat="48.76772000" lon="8.244591000">
        <ele>248.00000</ele>
        <time>2008-10-19T12:11:44Z</time>
      </trkpt>
      <trkpt lat="48.76770000" lon="8.244617000">
        <ele>248.00000</ele>
        <time>2008-10-19T12:11:44Z</time>
      </trkpt>
      <trkpt lat="48.76770000" lon="8.244639000">
        <ele>248.00000</ele>
        <time>2008-10-19T12:11:44Z</time>
      </trkpt>
      <trkpt lat="48.76769000" lon="8.244660000">
        <ele>248.00000</ele>
        <time>2008-10-19T12:11:44Z</time>
      </trkpt>
      <trkpt lat="48.76767000" lon="8.244678000">
        <ele>248.00000</ele>
        <time>2008-10-19T12:11:44Z</time>
      </trkpt>
      <trkpt lat="48.76766000" lon="8.244699000">
        <ele>248.00000</ele>
        <time>2008-10-19T12:11:44Z</time>
      </trkpt>
      <trkpt lat="48.76765000" lon="8.244725000">
        <ele>248.00000</ele>
        <time>2008-10-19T12:11:44Z</time>
      </trkpt>
      <trkpt lat="48.76765000" lon="8.244750000">
        <ele>248.00000</ele>
        <time>2008-10-19T12:11:44Z</time>
      </trkpt>
      <trkpt lat="48.76764000" lon="8.244779000">
        <ele>248.00000</ele>
        <time>2008-10-19T12:11:44Z</time>
      </trkpt>
      <trkpt lat="48.76764000" lon="8.244807000">
        <ele>248.00000</ele>
        <time>2008-10-19T12:11:44Z</time>
      </trkpt>
      <trkpt lat="48.76763000" lon="8.244833000">
        <ele>248.00000</ele>
        <time>2008-10-19T12:11:44Z</time>
      </trkpt>
      <trkpt lat="48.76762000" lon="8.244859000">
        <ele>248.00000</ele>
        <time>2008-10-19T12:11:44Z</time>
      </trkpt>
      <trkpt lat="48.76762000" lon="8.244885000">
        <ele>248.00000</ele>
        <time>2008-10-19T12:11:44Z</time>
      </trkpt>
      <trkpt lat="48.76762000" lon="8.244912000">
        <ele>248.00000</ele>
        <time>2008-10-19T12:11:44Z</time>
      </trkpt>
      <trkpt lat="48.76762000" lon="8.244943000">
        <ele>248.00000</ele>
        <time>2008-10-19T12:11:44Z</time>
      </trkpt>
      <trkpt lat="48.76762000" lon="8.244975000">
        <ele>248.00000</ele>
        <time>2008-10-19T12:11:44Z</time>
      </trkpt>
      <trkpt lat="48.76761000" lon="8.245008000">
        <ele>248.00000</ele>
        <time>2008-10-19T12:11:44Z</time>
      </trkpt>
      <trkpt lat="48.76761000" lon="8.245034000">
        <ele>248.00000</ele>
        <time>2008-10-19T12:11:44Z</time>
      </trkpt>
      <trkpt lat="48.76761000" lon="8.245054000">
        <ele>248.00000</ele>
        <time>2008-10-19T12:11:44Z</time>
      </trkpt>
      <trkpt lat="48.76761000" lon="8.245084000">
        <ele>248.00000</ele>
        <time>2008-10-19T12:11:44Z</time>
      </trkpt>
      <trkpt lat="48.76761000" lon="8.245116000">
        <ele>248.00000</ele>
        <time>2008-10-19T12:11:44Z</time>
      </trkpt>
      <trkpt lat="48.76762000" lon="8.245144000">
        <ele>248.00000</ele>
        <time>2008-10-19T12:11:44Z</time>
      </trkpt>
      <trkpt lat="48.76762000" lon="8.245171000">
        <ele>248.00000</ele>
        <time>2008-10-19T12:11:44Z</time>
      </trkpt>
      <trkpt lat="48.76762000" lon="8.245197000">
        <ele>248.00000</ele>
        <time>2008-10-19T12:11:44Z</time>
      </trkpt>
      <trkpt lat="48.76761000" lon="8.245228000">
        <ele>248.00000</ele>
        <time>2008-10-19T12:11:44Z</time>
      </trkpt>
      <trkpt lat="48.76761000" lon="8.245257000">
        <ele>248.00000</ele>
        <time>2008-10-19T12:11:44Z</time>
      </trkpt>
      <trkpt lat="48.76761000" lon="8.245286000">
        <ele>248.00000</ele>
        <time>2008-10-19T12:11:44Z</time>
      </trkpt>
      <trkpt lat="48.76761000" lon="8.245314000">
        <ele>248.00000</ele>
        <time>2008-10-19T12:11:44Z</time>
      </trkpt>
      <trkpt lat="48.76761000" lon="8.245341000">
        <ele>248.00000</ele>
        <time>2008-10-19T12:11:44Z</time>
      </trkpt>
      <trkpt lat="48.76761000" lon="8.245370000">
        <ele>248.00000</ele>
        <time>2008-10-19T12:11:44Z</time>
      </trkpt>
      <trkpt lat="48.76760000" lon="8.245397000">
        <ele>248.00000</ele>
        <time>2008-10-19T12:11:44Z</time>
      </trkpt>
      <trkpt lat="48.76760000" lon="8.245423000">
        <ele>255.00000</ele>
        <time>2008-10-19T12:11:44Z</time>
      </trkpt>
      <trkpt lat="48.76760000" lon="8.245448000">
        <ele>255.00000</ele>
        <time>2008-10-19T12:11:44Z</time>
      </trkpt>
      <trkpt lat="48.76760000" lon="8.245478000">
        <ele>255.00000</ele>
        <time>2008-10-19T12:11:44Z</time>
      </trkpt>
      <trkpt lat="48.76760000" lon="8.245509000">
        <ele>255.00000</ele>
        <time>2008-10-19T12:11:44Z</time>
      </trkpt>
      <trkpt lat="48.76760000" lon="8.245539000">
        <ele>255.00000</ele>
        <time>2008-10-19T12:11:44Z</time>
      </trkpt>
      <trkpt lat="48.76760000" lon="8.245564000">
        <ele>255.00000</ele>
        <time>2008-10-19T12:11:44Z</time>
      </trkpt>
      <trkpt lat="48.76761000" lon="8.245595000">
        <ele>255.00000</ele>
        <time>2008-10-19T12:11:44Z</time>
      </trkpt>
      <trkpt lat="48.76761000" lon="8.245621000">
        <ele>255.00000</ele>
        <time>2008-10-19T12:11:44Z</time>
      </trkpt>
      <trkpt lat="48.76762000" lon="8.245645000">
        <ele>255.00000</ele>
        <time>2008-10-19T12:11:44Z</time>
      </trkpt>
      <trkpt lat="48.76762000" lon="8.245670000">
        <ele>255.00000</ele>
        <time>2008-10-19T12:11:44Z</time>
      </trkpt>
      <trkpt lat="48.76762000" lon="8.245695000">
        <ele>255.00000</ele>
        <time>2008-10-19T12:11:44Z</time>
      </trkpt>
      <trkpt lat="48.76762000" lon="8.245728000">
        <ele>255.00000</ele>
        <time>2008-10-19T12:11:44Z</time>
      </trkpt>
      <trkpt lat="48.76764000" lon="8.245761000">
        <ele>255.00000</ele>
        <time>2008-10-19T12:11:44Z</time>
      </trkpt>
      <trkpt lat="48.76764000" lon="8.245792000">
        <ele>255.00000</ele>
        <time>2008-10-19T12:11:44Z</time>
      </trkpt>
      <trkpt lat="48.76765000" lon="8.245824000">
        <ele>255.00000</ele>
        <time>2008-10-19T12:11:44Z</time>
      </trkpt>
      <trkpt lat="48.76765000" lon="8.245858000">
        <ele>255.00000</ele>
        <time>2008-10-19T12:11:44Z</time>
      </trkpt>
      <trkpt lat="48.76766000" lon="8.245890000">
        <ele>255.00000</ele>
        <time>2008-10-19T12:11:44Z</time>
      </trkpt>
      <trkpt lat="48.76767000" lon="8.245914000">
        <ele>255.00000</ele>
        <time>2008-10-19T12:11:44Z</time>
      </trkpt>
      <trkpt lat="48.76767000" lon="8.245946000">
        <ele>255.00000</ele>
        <time>2008-10-19T12:11:44Z</time>
      </trkpt>
      <trkpt lat="48.76767000" lon="8.245977000">
        <ele>255.00000</ele>
        <time>2008-10-19T12:11:44Z</time>
      </trkpt>
      <trkpt lat="48.76766000" lon="8.246004000">
        <ele>255.00000</ele>
        <time>2008-10-19T12:11:44Z</time>
      </trkpt>
      <trkpt lat="48.76766000" lon="8.246029000">
        <ele>255.00000</ele>
        <time>2008-10-19T12:11:44Z</time>
      </trkpt>
      <trkpt lat="48.76765000" lon="8.246053000">
        <ele>255.00000</ele>
        <time>2008-10-19T12:11:44Z</time>
      </trkpt>
      <trkpt lat="48.76765000" lon="8.246074000">
        <ele>255.00000</ele>
        <time>2008-10-19T12:11:44Z</time>
      </trkpt>
      <trkpt lat="48.76765000" lon="8.246097000">
        <ele>255.00000</ele>
        <time>2008-10-19T12:11:44Z</time>
      </trkpt>
      <trkpt lat="48.76766000" lon="8.246115000">
        <ele>255.00000</ele>
        <time>2008-10-19T12:11:44Z</time>
      </trkpt>
      <trkpt lat="48.76766000" lon="8.246139000">
        <ele>255.00000</ele>
        <time>2008-10-19T12:11:44Z</time>
      </trkpt>
      <trkpt lat="48.76767000" lon="8.246162000">
        <ele>255.00000</ele>
        <time>2008-10-19T12:11:44Z</time>
      </trkpt>
      <trkpt lat="48.76768000" lon="8.246187000">
        <ele>255.00000</ele>
        <time>2008-10-19T12:11:44Z</time>
      </trkpt>
      <trkpt lat="48.76768000" lon="8.246211000">
        <ele>255.00000</ele>
        <time>2008-10-19T12:11:44Z</time>
      </trkpt>
      <trkpt lat="48.76769000" lon="8.246236000">
        <ele>255.00000</ele>
        <time>2008-10-19T12:11:44Z</time>
      </trkpt>
      <trkpt lat="48.76769000" lon="8.246262000">
        <ele>259.00000</ele>
        <time>2008-10-19T12:11:44Z</time>
      </trkpt>
      <trkpt lat="48.76769000" lon="8.246290000">
        <ele>259.00000</ele>
        <time>2008-10-19T12:11:44Z</time>
      </trkpt>
      <trkpt lat="48.76769000" lon="8.246319000">
        <ele>259.00000</ele>
        <time>2008-10-19T12:11:44Z</time>
      </trkpt>
      <trkpt lat="48.76769000" lon="8.246343000">
        <ele>259.00000</ele>
        <time>2008-10-19T12:11:44Z</time>
      </trkpt>
      <trkpt lat="48.76769000" lon="8.246369000">
        <ele>259.00000</ele>
        <time>2008-10-19T12:11:44Z</time>
      </trkpt>
      <trkpt lat="48.76769000" lon="8.246392000">
        <ele>259.00000</ele>
        <time>2008-10-19T12:11:44Z</time>
      </trkpt>
      <trkpt lat="48.76768000" lon="8.246414000">
        <ele>259.00000</ele>
        <time>2008-10-19T12:11:44Z</time>
      </trkpt>
      <trkpt lat="48.76769000" lon="8.246435000">
        <ele>259.00000</ele>
        <time>2008-10-19T12:11:44Z</time>
      </trkpt>
      <trkpt lat="48.76768000" lon="8.246452000">
        <ele>259.00000</ele>
        <time>2008-10-19T12:11:44Z</time>
      </trkpt>
      <trkpt lat="48.76767000" lon="8.246476000">
        <ele>259.00000</ele>
        <time>2008-10-19T12:11:44Z</time>
      </trkpt>
      <trkpt lat="48.76767000" lon="8.246499000">
        <ele>259.00000</ele>
        <time>2008-10-19T12:11:44Z</time>
      </trkpt>
      <trkpt lat="48.76767000" lon="8.246516000">
        <ele>259.00000</ele>
        <time>2008-10-19T12:11:44Z</time>
      </trkpt>
      <trkpt lat="48.76767000" lon="8.246540000">
        <ele>259.00000</ele>
        <time>2008-10-19T12:11:44Z</time>
      </trkpt>
      <trkpt lat="48.76768000" lon="8.246567000">
        <ele>259.00000</ele>
        <time>2008-10-19T12:11:44Z</time>
      </trkpt>
      <trkpt lat="48.76769000" lon="8.246590000">
        <ele>259.00000</ele>
        <time>2008-10-19T12:11:44Z</time>
      </trkpt>
      <trkpt lat="48.76771000" lon="8.246614000">
        <ele>259.00000</ele>
        <time>2008-10-19T12:11:44Z</time>
      </trkpt>
      <trkpt lat="48.76772000" lon="8.246642000">
        <ele>259.00000</ele>
        <time>2008-10-19T12:11:44Z</time>
      </trkpt>
      <trkpt lat="48.76774000" lon="8.246666000">
        <ele>259.00000</ele>
        <time>2008-10-19T12:11:44Z</time>
      </trkpt>
      <trkpt lat="48.76775000" lon="8.246689000">
        <ele>259.00000</ele>
        <time>2008-10-19T12:11:44Z</time>
      </trkpt>
      <trkpt lat="48.76776000" lon="8.246717000">
        <ele>259.00000</ele>
        <time>2008-10-19T12:11:44Z</time>
      </trkpt>
      <trkpt lat="48.76776000" lon="8.246743000">
        <ele>259.00000</ele>
        <time>2008-10-19T12:11:44Z</time>
      </trkpt>
      <trkpt lat="48.76776000" lon="8.246769000">
        <ele>259.00000</ele>
        <time>2008-10-19T12:11:44Z</time>
      </trkpt>
      <trkpt lat="48.76775000" lon="8.246799000">
        <ele>259.00000</ele>
        <time>2008-10-19T12:11:44Z</time>
      </trkpt>
      <trkpt lat="48.76775000" lon="8.246823000">
        <ele>259.00000</ele>
        <time>2008-10-19T12:11:44Z</time>
      </trkpt>
      <trkpt lat="48.76775000" lon="8.246845000">
        <ele>259.00000</ele>
        <time>2008-10-19T12:11:44Z</time>
      </trkpt>
      <trkpt lat="48.76776000" lon="8.246874000">
        <ele>259.00000</ele>
        <time>2008-10-19T12:11:44Z</time>
      </trkpt>
      <trkpt lat="48.76777000" lon="8.246897000">
        <ele>259.00000</ele>
        <time>2008-10-19T12:11:44Z</time>
      </trkpt>
      <trkpt lat="48.76778000" lon="8.246907000">
        <ele>259.00000</ele>
        <time>2008-10-19T12:11:44Z</time>
      </trkpt>
      <trkpt lat="48.76779000" lon="8.246914000">
        <ele>259.00000</ele>
        <time>2008-10-19T12:11:44Z</time>
      </trkpt>
      <trkpt lat="48.76780000" lon="8.246920000">
        <ele>259.00000</ele>
        <time>2008-10-19T12:11:44Z</time>
      </trkpt>
      <trkpt lat="48.76781000" lon="8.246929000">
        <ele>259.00000</ele>
        <time>2008-10-19T12:11:44Z</time>
      </trkpt>
      <trkpt lat="48.76781000" lon="8.246949000">
        <ele>259.00000</ele>
        <time>2008-10-19T12:11:44Z</time>
      </trkpt>
      <trkpt lat="48.76783000" lon="8.246975000">
        <ele>259.00000</ele>
        <time>2008-10-19T12:11:44Z</time>
      </trkpt>
      <trkpt lat="48.76784000" lon="8.247001000">
        <ele>259.00000</ele>
        <time>2008-10-19T12:11:44Z</time>
      </trkpt>
      <trkpt lat="48.76786000" lon="8.247023000">
        <ele>259.00000</ele>
        <time>2008-10-19T12:11:44Z</time>
      </trkpt>
      <trkpt lat="48.76789000" lon="8.247040000">
        <ele>259.00000</ele>
        <time>2008-10-19T12:11:44Z</time>
      </trkpt>
      <trkpt lat="48.76791000" lon="8.247057000">
        <ele>259.00000</ele>
        <time>2008-10-19T12:11:44Z</time>
      </trkpt>
      <trkpt lat="48.76793000" lon="8.247074000">
        <ele>286.00000</ele>
        <time>2008-10-19T12:11:44Z</time>
      </trkpt>
      <trkpt lat="48.76794000" lon="8.247093000">
        <ele>280.00000</ele>
        <time>2008-10-19T12:11:44Z</time>
      </trkpt>
      <trkpt lat="48.76796000" lon="8.247111000">
        <ele>280.00000</ele>
        <time>2008-10-19T12:11:44Z</time>
      </trkpt>
      <trkpt lat="48.76799000" lon="8.247126000">
        <ele>280.00000</ele>
        <time>2008-10-19T12:11:44Z</time>
      </trkpt>
      <trkpt lat="48.76801000" lon="8.247141000">
        <ele>280.00000</ele>
        <time>2008-10-19T12:11:44Z</time>
      </trkpt>
      <trkpt lat="48.76803000" lon="8.247160000">
        <ele>280.00000</ele>
        <time>2008-10-19T12:11:44Z</time>
      </trkpt>
      <trkpt lat="48.76805000" lon="8.247182000">
        <ele>280.00000</ele>
        <time>2008-10-19T12:11:44Z</time>
      </trkpt>
      <trkpt lat="48.76807000" lon="8.247203000">
        <ele>280.00000</ele>
        <time>2008-10-19T12:11:44Z</time>
      </trkpt>
      <trkpt lat="48.76808000" lon="8.247225000">
        <ele>280.00000</ele>
        <time>2008-10-19T12:11:44Z</time>
      </trkpt>
      <trkpt lat="48.76809000" lon="8.247243000">
        <ele>280.00000</ele>
        <time>2008-10-19T12:11:44Z</time>
      </trkpt>
      <trkpt lat="48.76810000" lon="8.247259000">
        <ele>280.00000</ele>
        <time>2008-10-19T12:11:44Z</time>
      </trkpt>
      <trkpt lat="48.76812000" lon="8.247270000">
        <ele>280.00000</ele>
        <time>2008-10-19T12:11:44Z</time>
      </trkpt>
      <trkpt lat="48.76812000" lon="8.247280000">
        <ele>280.00000</ele>
        <time>2008-10-19T12:11:44Z</time>
      </trkpt>
      <trkpt lat="48.76812000" lon="8.247290000">
        <ele>280.00000</ele>
        <time>2008-10-19T12:11:44Z</time>
      </trkpt>
      <trkpt lat="48.76813000" lon="8.247300000">
        <ele>280.00000</ele>
        <time>2008-10-19T12:11:44Z</time>
      </trkpt>
      <trkpt lat="48.76813000" lon="8.247308000">
        <ele>280.00000</ele>
        <time>2008-10-19T12:11:44Z</time>
      </trkpt>
      <trkpt lat="48.76814000" lon="8.247318000">
        <ele>280.00000</ele>
        <time>2008-10-19T12:11:44Z</time>
      </trkpt>
      <trkpt lat="48.76815000" lon="8.247333000">
        <ele>280.00000</ele>
        <time>2008-10-19T12:11:44Z</time>
      </trkpt>
      <trkpt lat="48.76816000" lon="8.247345000">
        <ele>280.00000</ele>
        <time>2008-10-19T12:11:44Z</time>
      </trkpt>
      <trkpt lat="48.76818000" lon="8.247360000">
        <ele>280.00000</ele>
        <time>2008-10-19T12:11:44Z</time>
      </trkpt>
      <trkpt lat="48.76820000" lon="8.247376000">
        <ele>280.00000</ele>
        <time>2008-10-19T12:11:44Z</time>
      </trkpt>
      <trkpt lat="48.76820000" lon="8.247393000">
        <ele>280.00000</ele>
        <time>2008-10-19T12:11:44Z</time>
      </trkpt>
      <trkpt lat="48.76821000" lon="8.247415000">
        <ele>280.00000</ele>
        <time>2008-10-19T12:11:44Z</time>
      </trkpt>
      <trkpt lat="48.76823000" lon="8.247438000">
        <ele>280.00000</ele>
        <time>2008-10-19T12:11:44Z</time>
      </trkpt>
      <trkpt lat="48.76825000" lon="8.247451000">
        <ele>280.00000</ele>
        <time>2008-10-19T12:11:44Z</time>
      </trkpt>
      <trkpt lat="48.76826000" lon="8.247461000">
        <ele>280.00000</ele>
        <time>2008-10-19T12:11:44Z</time>
      </trkpt>
      <trkpt lat="48.76828000" lon="8.247478000">
        <ele>280.00000</ele>
        <time>2008-10-19T12:11:44Z</time>
      </trkpt>
      <trkpt lat="48.76829000" lon="8.247500000">
        <ele>280.00000</ele>
        <time>2008-10-19T12:11:44Z</time>
      </trkpt>
      <trkpt lat="48.76831000" lon="8.247522000">
        <ele>280.00000</ele>
        <time>2008-10-19T12:11:44Z</time>
      </trkpt>
      <trkpt lat="48.76833000" lon="8.247544000">
        <ele>280.00000</ele>
        <time>2008-10-19T12:11:44Z</time>
      </trkpt>
      <trkpt lat="48.76834000" lon="8.247569000">
        <ele>280.00000</ele>
        <time>2008-10-19T12:11:44Z</time>
      </trkpt>
      <trkpt lat="48.76836000" lon="8.247595000">
        <ele>280.00000</ele>
        <time>2008-10-19T12:11:44Z</time>
      </trkpt>
      <trkpt lat="48.76838000" lon="8.247620000">
        <ele>280.00000</ele>
        <time>2008-10-19T12:11:44Z</time>
      </trkpt>
      <trkpt lat="48.76840000" lon="8.247646000">
        <ele>280.00000</ele>
        <time>2008-10-19T12:11:44Z</time>
      </trkpt>
      <trkpt lat="48.76841000" lon="8.247666000">
        <ele>280.00000</ele>
        <time>2008-10-19T12:11:44Z</time>
      </trkpt>
      <trkpt lat="48.76842000" lon="8.247685000">
        <ele>280.00000</ele>
        <time>2008-10-19T12:11:44Z</time>
      </trkpt>
      <trkpt lat="48.76843000" lon="8.247705000">
        <ele>280.00000</ele>
        <time>2008-10-19T12:11:44Z</time>
      </trkpt>
      <trkpt lat="48.76844000" lon="8.247732000">
        <ele>280.00000</ele>
        <time>2008-10-19T12:11:44Z</time>
      </trkpt>
      <trkpt lat="48.76845000" lon="8.247755000">
        <ele>280.00000</ele>
        <time>2008-10-19T12:11:44Z</time>
      </trkpt>
      <trkpt lat="48.76845000" lon="8.247779000">
        <ele>280.00000</ele>
        <time>2008-10-19T12:11:44Z</time>
      </trkpt>
      <trkpt lat="48.76846000" lon="8.247806000">
        <ele>280.00000</ele>
        <time>2008-10-19T12:11:44Z</time>
      </trkpt>
      <trkpt lat="48.76848000" lon="8.247828000">
        <ele>280.00000</ele>
        <time>2008-10-19T12:11:44Z</time>
      </trkpt>
      <trkpt lat="48.76850000" lon="8.247850000">
        <ele>280.00000</ele>
        <time>2008-10-19T12:11:44Z</time>
      </trkpt>
      <trkpt lat="48.76851000" lon="8.247872000">
        <ele>280.00000</ele>
        <time>2008-10-19T12:11:44Z</time>
      </trkpt>
      <trkpt lat="48.76852000" lon="8.247890000">
        <ele>280.00000</ele>
        <time>2008-10-19T12:11:44Z</time>
      </trkpt>
      <trkpt lat="48.76853000" lon="8.247906000">
        <ele>280.00000</ele>
        <time>2008-10-19T12:11:44Z</time>
      </trkpt>
      <trkpt lat="48.76854000" lon="8.247920000">
        <ele>272.00000</ele>
        <time>2008-10-19T12:11:44Z</time>
      </trkpt>
      <trkpt lat="48.76854000" lon="8.247936000">
        <ele>272.00000</ele>
        <time>2008-10-19T12:11:44Z</time>
      </trkpt>
      <trkpt lat="48.76855000" lon="8.247949000">
        <ele>272.00000</ele>
        <time>2008-10-19T12:11:44Z</time>
      </trkpt>
      <trkpt lat="48.76856000" lon="8.247967000">
        <ele>272.00000</ele>
        <time>2008-10-19T12:11:44Z</time>
      </trkpt>
      <trkpt lat="48.76856000" lon="8.247983000">
        <ele>272.00000</ele>
        <time>2008-10-19T12:11:44Z</time>
      </trkpt>
      <trkpt lat="48.76857000" lon="8.248008000">
        <ele>272.00000</ele>
        <time>2008-10-19T12:11:44Z</time>
      </trkpt>
      <trkpt lat="48.76858000" lon="8.248033000">
        <ele>272.00000</ele>
        <time>2008-10-19T12:11:44Z</time>
      </trkpt>
      <trkpt lat="48.76859000" lon="8.248057000">
        <ele>272.00000</ele>
        <time>2008-10-19T12:11:44Z</time>
      </trkpt>
      <trkpt lat="48.76859000" lon="8.248081000">
        <ele>272.00000</ele>
        <time>2008-10-19T12:11:44Z</time>
      </trkpt>
      <trkpt lat="48.76860000" lon="8.248109000">
        <ele>272.00000</ele>
        <time>2008-10-19T12:11:44Z</time>
      </trkpt>
      <trkpt lat="48.76860000" lon="8.248135000">
        <ele>272.00000</ele>
        <time>2008-10-19T12:11:44Z</time>
      </trkpt>
      <trkpt lat="48.76861000" lon="8.248161000">
        <ele>272.00000</ele>
        <time>2008-10-19T12:11:44Z</time>
      </trkpt>
      <trkpt lat="48.76862000" lon="8.248188000">
        <ele>272.00000</ele>
        <time>2008-10-19T12:11:44Z</time>
      </trkpt>
      <trkpt lat="48.76863000" lon="8.248215000">
        <ele>272.00000</ele>
        <time>2008-10-19T12:11:44Z</time>
      </trkpt>
      <trkpt lat="48.76864000" lon="8.248240000">
        <ele>272.00000</ele>
        <time>2008-10-19T12:11:44Z</time>
      </trkpt>
      <trkpt lat="48.76865000" lon="8.248263000">
        <ele>272.00000</ele>
        <time>2008-10-19T12:11:44Z</time>
      </trkpt>
      <trkpt lat="48.76867000" lon="8.248295000">
        <ele>272.00000</ele>
        <time>2008-10-19T12:11:44Z</time>
      </trkpt>
      <trkpt lat="48.76868000" lon="8.248322000">
        <ele>272.00000</ele>
        <time>2008-10-19T12:11:44Z</time>
      </trkpt>
      <trkpt lat="48.76870000" lon="8.248352000">
        <ele>272.00000</ele>
        <time>2008-10-19T12:11:44Z</time>
      </trkpt>
      <trkpt lat="48.76872000" lon="8.248379000">
        <ele>272.00000</ele>
        <time>2008-10-19T12:11:44Z</time>
      </trkpt>
      <trkpt lat="48.76874000" lon="8.248405000">
        <ele>272.00000</ele>
        <time>2008-10-19T12:11:44Z</time>
      </trkpt>
      <trkpt lat="48.76876000" lon="8.248428000">
        <ele>304.00000</ele>
        <time>2008-10-19T12:11:44Z</time>
      </trkpt>
      <trkpt lat="48.76877000" lon="8.248450000">
        <ele>304.00000</ele>
        <time>2008-10-19T12:11:44Z</time>
      </trkpt>
      <trkpt lat="48.76878000" lon="8.248476000">
        <ele>304.00000</ele>
        <time>2008-10-19T12:11:44Z</time>
      </trkpt>
      <trkpt lat="48.76879000" lon="8.248504000">
        <ele>304.00000</ele>
        <time>2008-10-19T12:11:44Z</time>
      </trkpt>
      <trkpt lat="48.76880000" lon="8.248532000">
        <ele>304.00000</ele>
        <time>2008-10-19T12:11:44Z</time>
      </trkpt>
      <trkpt lat="48.76881000" lon="8.248561000">
        <ele>304.00000</ele>
        <time>2008-10-19T12:11:44Z</time>
      </trkpt>
      <trkpt lat="48.76883000" lon="8.248589000">
        <ele>304.00000</ele>
        <time>2008-10-19T12:11:44Z</time>
      </trkpt>
      <trkpt lat="48.76884000" lon="8.248625000">
        <ele>304.00000</ele>
        <time>2008-10-19T12:11:44Z</time>
      </trkpt>
      <trkpt lat="48.76885000" lon="8.248661000">
        <ele>304.00000</ele>
        <time>2008-10-19T12:11:44Z</time>
      </trkpt>
      <trkpt lat="48.76886000" lon="8.248696000">
        <ele>304.00000</ele>
        <time>2008-10-19T12:11:44Z</time>
      </trkpt>
      <trkpt lat="48.76888000" lon="8.248734000">
        <ele>304.00000</ele>
        <time>2008-10-19T12:11:44Z</time>
      </trkpt>
      <trkpt lat="48.76889000" lon="8.248778000">
        <ele>294.00000</ele>
        <time>2008-10-19T12:11:44Z</time>
      </trkpt>
      <trkpt lat="48.76890000" lon="8.248824000">
        <ele>294.00000</ele>
        <time>2008-10-19T12:11:44Z</time>
      </trkpt>
      <trkpt lat="48.76891000" lon="8.248866000">
        <ele>294.00000</ele>
        <time>2008-10-19T12:11:44Z</time>
      </trkpt>
      <trkpt lat="48.76892000" lon="8.248911000">
        <ele>294.00000</ele>
        <time>2008-10-19T12:11:44Z</time>
      </trkpt>
      <trkpt lat="48.76892000" lon="8.248950000">
        <ele>294.00000</ele>
        <time>2008-10-19T12:11:44Z</time>
      </trkpt>
      <trkpt lat="48.76894000" lon="8.248984000">
        <ele>294.00000</ele>
        <time>2008-10-19T12:11:44Z</time>
      </trkpt>
      <trkpt lat="48.76895000" lon="8.249026000">
        <ele>294.00000</ele>
        <time>2008-10-19T12:11:44Z</time>
      </trkpt>
      <trkpt lat="48.76896000" lon="8.249068000">
        <ele>294.00000</ele>
        <time>2008-10-19T12:11:44Z</time>
      </trkpt>
      <trkpt lat="48.76897000" lon="8.249113000">
        <ele>294.00000</ele>
        <time>2008-10-19T12:11:44Z</time>
      </trkpt>
      <trkpt lat="48.76897000" lon="8.249149000">
        <ele>294.00000</ele>
        <time>2008-10-19T12:11:44Z</time>
      </trkpt>
      <trkpt lat="48.76896000" lon="8.249178000">
        <ele>294.00000</ele>
        <time>2008-10-19T12:11:44Z</time>
      </trkpt>
      <trkpt lat="48.76896000" lon="8.249211000">
        <ele>294.00000</ele>
        <time>2008-10-19T12:11:44Z</time>
      </trkpt>
      <trkpt lat="48.76897000" lon="8.249243000">
        <ele>294.00000</ele>
        <time>2008-10-19T12:11:44Z</time>
      </trkpt>
      <trkpt lat="48.76897000" lon="8.249271000">
        <ele>294.00000</ele>
        <time>2008-10-19T12:11:44Z</time>
      </trkpt>
      <trkpt lat="48.76899000" lon="8.249294000">
        <ele>294.00000</ele>
        <time>2008-10-19T12:11:44Z</time>
      </trkpt>
      <trkpt lat="48.76900000" lon="8.249320000">
        <ele>294.00000</ele>
        <time>2008-10-19T12:11:44Z</time>
      </trkpt>
      <trkpt lat="48.76902000" lon="8.249349000">
        <ele>294.00000</ele>
        <time>2008-10-19T12:11:44Z</time>
      </trkpt>
      <trkpt lat="48.76902000" lon="8.249374000">
        <ele>294.00000</ele>
        <time>2008-10-19T12:11:44Z</time>
      </trkpt>
      <trkpt lat="48.76903000" lon="8.249411000">
        <ele>294.00000</ele>
        <time>2008-10-19T12:11:44Z</time>
      </trkpt>
      <trkpt lat="48.76904000" lon="8.249433000">
        <ele>294.00000</ele>
        <time>2008-10-19T12:11:44Z</time>
      </trkpt>
      <trkpt lat="48.76905000" lon="8.249461000">
        <ele>294.00000</ele>
        <time>2008-10-19T12:11:44Z</time>
      </trkpt>
      <trkpt lat="48.76907000" lon="8.249488000">
        <ele>294.00000</ele>
        <time>2008-10-19T12:11:44Z</time>
      </trkpt>
      <trkpt lat="48.76908000" lon="8.249510000">
        <ele>294.00000</ele>
        <time>2008-10-19T12:11:44Z</time>
      </trkpt>
      <trkpt lat="48.76910000" lon="8.249531000">
        <ele>294.00000</ele>
        <time>2008-10-19T12:11:44Z</time>
      </trkpt>
      <trkpt lat="48.76912000" lon="8.249555000">
        <ele>294.00000</ele>
        <time>2008-10-19T12:11:44Z</time>
      </trkpt>
      <trkpt lat="48.76914000" lon="8.249576000">
        <ele>294.00000</ele>
        <time>2008-10-19T12:11:44Z</time>
      </trkpt>
      <trkpt lat="48.76916000" lon="8.249594000">
        <ele>286.00000</ele>
        <time>2008-10-19T12:11:44Z</time>
      </trkpt>
      <trkpt lat="48.76917000" lon="8.249609000">
        <ele>286.00000</ele>
        <time>2008-10-19T12:11:44Z</time>
      </trkpt>
      <trkpt lat="48.76919000" lon="8.249624000">
        <ele>286.00000</ele>
        <time>2008-10-19T12:11:44Z</time>
      </trkpt>
      <trkpt lat="48.76920000" lon="8.249641000">
        <ele>286.00000</ele>
        <time>2008-10-19T12:11:44Z</time>
      </trkpt>
      <trkpt lat="48.76920000" lon="8.249655000">
        <ele>286.00000</ele>
        <time>2008-10-19T12:11:44Z</time>
      </trkpt>
      <trkpt lat="48.76923000" lon="8.249664000">
        <ele>286.00000</ele>
        <time>2008-10-19T12:11:44Z</time>
      </trkpt>
      <trkpt lat="48.76925000" lon="8.249677000">
        <ele>286.00000</ele>
        <time>2008-10-19T12:11:44Z</time>
      </trkpt>
      <trkpt lat="48.76928000" lon="8.249689000">
        <ele>286.00000</ele>
        <time>2008-10-19T12:11:44Z</time>
      </trkpt>
      <trkpt lat="48.76930000" lon="8.249708000">
        <ele>286.00000</ele>
        <time>2008-10-19T12:11:44Z</time>
      </trkpt>
      <trkpt lat="48.76932000" lon="8.249744000">
        <ele>286.00000</ele>
        <time>2008-10-19T12:11:44Z</time>
      </trkpt>
      <trkpt lat="48.76934000" lon="8.249769000">
        <ele>286.00000</ele>
        <time>2008-10-19T12:11:44Z</time>
      </trkpt>
      <trkpt lat="48.76937000" lon="8.249793000">
        <ele>286.00000</ele>
        <time>2008-10-19T12:11:44Z</time>
      </trkpt>
      <trkpt lat="48.76940000" lon="8.249820000">
        <ele>286.00000</ele>
        <time>2008-10-19T12:11:44Z</time>
      </trkpt>
      <trkpt lat="48.76942000" lon="8.249848000">
        <ele>286.00000</ele>
        <time>2008-10-19T12:11:45Z</time>
      </trkpt>
      <trkpt lat="48.76944000" lon="8.249872000">
        <ele>286.00000</ele>
        <time>2008-10-19T12:11:45Z</time>
      </trkpt>
      <trkpt lat="48.76944000" lon="8.249898000">
        <ele>286.00000</ele>
        <time>2008-10-19T12:11:45Z</time>
      </trkpt>
      <trkpt lat="48.76945000" lon="8.249929000">
        <ele>286.00000</ele>
        <time>2008-10-19T12:11:45Z</time>
      </trkpt>
      <trkpt lat="48.76947000" lon="8.249962000">
        <ele>286.00000</ele>
        <time>2008-10-19T12:11:45Z</time>
      </trkpt>
      <trkpt lat="48.76949000" lon="8.249986000">
        <ele>286.00000</ele>
        <time>2008-10-19T12:11:45Z</time>
      </trkpt>
      <trkpt lat="48.76950000" lon="8.250006000">
        <ele>286.00000</ele>
        <time>2008-10-19T12:11:45Z</time>
      </trkpt>
      <trkpt lat="48.76950000" lon="8.250035000">
        <ele>286.00000</ele>
        <time>2008-10-19T12:11:45Z</time>
      </trkpt>
      <trkpt lat="48.76949000" lon="8.250060000">
        <ele>286.00000</ele>
        <time>2008-10-19T12:11:45Z</time>
      </trkpt>
      <trkpt lat="48.76950000" lon="8.250087000">
        <ele>286.00000</ele>
        <time>2008-10-19T12:11:45Z</time>
      </trkpt>
      <trkpt lat="48.76950000" lon="8.250116000">
        <ele>286.00000</ele>
        <time>2008-10-19T12:11:45Z</time>
      </trkpt>
      <trkpt lat="48.76950000" lon="8.250144000">
        <ele>286.00000</ele>
        <time>2008-10-19T12:11:45Z</time>
      </trkpt>
      <trkpt lat="48.76950000" lon="8.250174000">
        <ele>286.00000</ele>
        <time>2008-10-19T12:11:45Z</time>
      </trkpt>
      <trkpt lat="48.76950000" lon="8.250205000">
        <ele>286.00000</ele>
        <time>2008-10-19T12:11:45Z</time>
      </trkpt>
      <trkpt lat="48.76950000" lon="8.250238000">
        <ele>286.00000</ele>
        <time>2008-10-19T12:11:45Z</time>
      </trkpt>
      <trkpt lat="48.76951000" lon="8.250277000">
        <ele>286.00000</ele>
        <time>2008-10-19T12:11:45Z</time>
      </trkpt>
      <trkpt lat="48.76951000" lon="8.250306000">
        <ele>286.00000</ele>
        <time>2008-10-19T12:11:45Z</time>
      </trkpt>
      <trkpt lat="48.76951000" lon="8.250340000">
        <ele>286.00000</ele>
        <time>2008-10-19T12:11:45Z</time>
      </trkpt>
      <trkpt lat="48.76952000" lon="8.250379000">
        <ele>286.00000</ele>
        <time>2008-10-19T12:11:45Z</time>
      </trkpt>
      <trkpt lat="48.76952000" lon="8.250416000">
        <ele>286.00000</ele>
        <time>2008-10-19T12:11:45Z</time>
      </trkpt>
      <trkpt lat="48.76953000" lon="8.250446000">
        <ele>282.00000</ele>
        <time>2008-10-19T12:11:45Z</time>
      </trkpt>
      <trkpt lat="48.76954000" lon="8.250475000">
        <ele>282.00000</ele>
        <time>2008-10-19T12:11:45Z</time>
      </trkpt>
      <trkpt lat="48.76955000" lon="8.250508000">
        <ele>282.00000</ele>
        <time>2008-10-19T12:11:45Z</time>
      </trkpt>
      <trkpt lat="48.76955000" lon="8.250546000">
        <ele>282.00000</ele>
        <time>2008-10-19T12:11:45Z</time>
      </trkpt>
      <trkpt lat="48.76956000" lon="8.250585000">
        <ele>282.00000</ele>
        <time>2008-10-19T12:11:45Z</time>
      </trkpt>
      <trkpt lat="48.76956000" lon="8.250620000">
        <ele>282.00000</ele>
        <time>2008-10-19T12:11:45Z</time>
      </trkpt>
      <trkpt lat="48.76956000" lon="8.250655000">
        <ele>282.00000</ele>
        <time>2008-10-19T12:11:45Z</time>
      </trkpt>
      <trkpt lat="48.76956000" lon="8.250694000">
        <ele>282.00000</ele>
        <time>2008-10-19T12:11:45Z</time>
      </trkpt>
      <trkpt lat="48.76956000" lon="8.250729000">
        <ele>282.00000</ele>
        <time>2008-10-19T12:11:45Z</time>
      </trkpt>
      <trkpt lat="48.76955000" lon="8.250761000">
        <ele>282.00000</ele>
        <time>2008-10-19T12:11:45Z</time>
      </trkpt>
      <trkpt lat="48.76955000" lon="8.250792000">
        <ele>282.00000</ele>
        <time>2008-10-19T12:11:45Z</time>
      </trkpt>
      <trkpt lat="48.76955000" lon="8.250826000">
        <ele>282.00000</ele>
        <time>2008-10-19T12:11:45Z</time>
      </trkpt>
      <trkpt lat="48.76955000" lon="8.250861000">
        <ele>282.00000</ele>
        <time>2008-10-19T12:11:45Z</time>
      </trkpt>
      <trkpt lat="48.76955000" lon="8.250899000">
        <ele>282.00000</ele>
        <time>2008-10-19T12:11:45Z</time>
      </trkpt>
      <trkpt lat="48.76955000" lon="8.250932000">
        <ele>282.00000</ele>
        <time>2008-10-19T12:11:45Z</time>
      </trkpt>
      <trkpt lat="48.76955000" lon="8.250960000">
        <ele>282.00000</ele>
        <time>2008-10-19T12:11:45Z</time>
      </trkpt>
      <trkpt lat="48.76954000" lon="8.250993000">
        <ele>282.00000</ele>
        <time>2008-10-19T12:11:45Z</time>
      </trkpt>
      <trkpt lat="48.76953000" lon="8.251025000">
        <ele>282.00000</ele>
        <time>2008-10-19T12:11:45Z</time>
      </trkpt>
      <trkpt lat="48.76953000" lon="8.251058000">
        <ele>282.00000</ele>
        <time>2008-10-19T12:11:45Z</time>
      </trkpt>
      <trkpt lat="48.76952000" lon="8.251082000">
        <ele>282.00000</ele>
        <time>2008-10-19T12:11:45Z</time>
      </trkpt>
      <trkpt lat="48.76952000" lon="8.251110000">
        <ele>282.00000</ele>
        <time>2008-10-19T12:11:45Z</time>
      </trkpt>
      <trkpt lat="48.76951000" lon="8.251141000">
        <ele>282.00000</ele>
        <time>2008-10-19T12:11:45Z</time>
      </trkpt>
      <trkpt lat="48.76950000" lon="8.251168000">
        <ele>282.00000</ele>
        <time>2008-10-19T12:11:45Z</time>
      </trkpt>
      <trkpt lat="48.76950000" lon="8.251199000">
        <ele>282.00000</ele>
        <time>2008-10-19T12:11:45Z</time>
      </trkpt>
      <trkpt lat="48.76950000" lon="8.251230000">
        <ele>282.00000</ele>
        <time>2008-10-19T12:11:45Z</time>
      </trkpt>
      <trkpt lat="48.76949000" lon="8.251261000">
        <ele>283.00000</ele>
        <time>2008-10-19T12:11:45Z</time>
      </trkpt>
      <trkpt lat="48.76948000" lon="8.251291000">
        <ele>283.00000</ele>
        <time>2008-10-19T12:11:45Z</time>
      </trkpt>
      <trkpt lat="48.76948000" lon="8.251321000">
        <ele>283.00000</ele>
        <time>2008-10-19T12:11:45Z</time>
      </trkpt>
      <trkpt lat="48.76948000" lon="8.251350000">
        <ele>283.00000</ele>
        <time>2008-10-19T12:11:45Z</time>
      </trkpt>
      <trkpt lat="48.76947000" lon="8.251381000">
        <ele>283.00000</ele>
        <time>2008-10-19T12:11:45Z</time>
      </trkpt>
      <trkpt lat="48.76946000" lon="8.251411000">
        <ele>283.00000</ele>
        <time>2008-10-19T12:11:45Z</time>
      </trkpt>
      <trkpt lat="48.76945000" lon="8.251444000">
        <ele>283.00000</ele>
        <time>2008-10-19T12:11:45Z</time>
      </trkpt>
      <trkpt lat="48.76944000" lon="8.251469000">
        <ele>283.00000</ele>
        <time>2008-10-19T12:11:45Z</time>
      </trkpt>
      <trkpt lat="48.76943000" lon="8.251492000">
        <ele>283.00000</ele>
        <time>2008-10-19T12:11:45Z</time>
      </trkpt>
      <trkpt lat="48.76942000" lon="8.251517000">
        <ele>283.00000</ele>
        <time>2008-10-19T12:11:45Z</time>
      </trkpt>
      <trkpt lat="48.76942000" lon="8.251547000">
        <ele>283.00000</ele>
        <time>2008-10-19T12:11:45Z</time>
      </trkpt>
      <trkpt lat="48.76942000" lon="8.251577000">
        <ele>283.00000</ele>
        <time>2008-10-19T12:11:45Z</time>
      </trkpt>
      <trkpt lat="48.76944000" lon="8.251614000">
        <ele>283.00000</ele>
        <time>2008-10-19T12:11:45Z</time>
      </trkpt>
      <trkpt lat="48.76944000" lon="8.251649000">
        <ele>283.00000</ele>
        <time>2008-10-19T12:11:45Z</time>
      </trkpt>
      <trkpt lat="48.76944000" lon="8.251681000">
        <ele>283.00000</ele>
        <time>2008-10-19T12:11:45Z</time>
      </trkpt>
      <trkpt lat="48.76945000" lon="8.251714000">
        <ele>283.00000</ele>
        <time>2008-10-19T12:11:45Z</time>
      </trkpt>
      <trkpt lat="48.76946000" lon="8.251748000">
        <ele>283.00000</ele>
        <time>2008-10-19T12:11:45Z</time>
      </trkpt>
      <trkpt lat="48.76947000" lon="8.251777000">
        <ele>283.00000</ele>
        <time>2008-10-19T12:11:45Z</time>
      </trkpt>
      <trkpt lat="48.76949000" lon="8.251808000">
        <ele>283.00000</ele>
        <time>2008-10-19T12:11:45Z</time>
      </trkpt>
      <trkpt lat="48.76951000" lon="8.251841000">
        <ele>283.00000</ele>
        <time>2008-10-19T12:11:45Z</time>
      </trkpt>
      <trkpt lat="48.76952000" lon="8.251866000">
        <ele>283.00000</ele>
        <time>2008-10-19T12:11:45Z</time>
      </trkpt>
      <trkpt lat="48.76953000" lon="8.251887000">
        <ele>283.00000</ele>
        <time>2008-10-19T12:11:45Z</time>
      </trkpt>
      <trkpt lat="48.76955000" lon="8.251908000">
        <ele>283.00000</ele>
        <time>2008-10-19T12:11:45Z</time>
      </trkpt>
      <trkpt lat="48.76957000" lon="8.251925000">
        <ele>283.00000</ele>
        <time>2008-10-19T12:11:45Z</time>
      </trkpt>
      <trkpt lat="48.76958000" lon="8.251941000">
        <ele>283.00000</ele>
        <time>2008-10-19T12:11:45Z</time>
      </trkpt>
      <trkpt lat="48.76960000" lon="8.251953000">
        <ele>296.00000</ele>
        <time>2008-10-19T12:11:45Z</time>
      </trkpt>
      <trkpt lat="48.76961000" lon="8.251962000">
        <ele>296.00000</ele>
        <time>2008-10-19T12:11:45Z</time>
      </trkpt>
      <trkpt lat="48.76962000" lon="8.251969000">
        <ele>296.00000</ele>
        <time>2008-10-19T12:11:45Z</time>
      </trkpt>
      <trkpt lat="48.76964000" lon="8.251981000">
        <ele>296.00000</ele>
        <time>2008-10-19T12:11:45Z</time>
      </trkpt>
      <trkpt lat="48.76966000" lon="8.251988000">
        <ele>296.00000</ele>
        <time>2008-10-19T12:11:45Z</time>
      </trkpt>
      <trkpt lat="48.76968000" lon="8.251992000">
        <ele>296.00000</ele>
        <time>2008-10-19T12:11:45Z</time>
      </trkpt>
      <trkpt lat="48.76970000" lon="8.251996000">
        <ele>296.00000</ele>
        <time>2008-10-19T12:11:45Z</time>
      </trkpt>
      <trkpt lat="48.76971000" lon="8.252004000">
        <ele>296.00000</ele>
        <time>2008-10-19T12:11:45Z</time>
      </trkpt>
      <trkpt lat="48.76973000" lon="8.252011000">
        <ele>296.00000</ele>
        <time>2008-10-19T12:11:45Z</time>
      </trkpt>
      <trkpt lat="48.76975000" lon="8.252026000">
        <ele>296.00000</ele>
        <time>2008-10-19T12:11:45Z</time>
      </trkpt>
      <trkpt lat="48.76976000" lon="8.252035000">
        <ele>296.00000</ele>
        <time>2008-10-19T12:11:45Z</time>
      </trkpt>
      <trkpt lat="48.76978000" lon="8.252040000">
        <ele>296.00000</ele>
        <time>2008-10-19T12:11:45Z</time>
      </trkpt>
      <trkpt lat="48.76979000" lon="8.252047000">
        <ele>296.00000</ele>
        <time>2008-10-19T12:11:45Z</time>
      </trkpt>
      <trkpt lat="48.76980000" lon="8.252052000">
        <ele>296.00000</ele>
        <time>2008-10-19T12:11:45Z</time>
      </trkpt>
      <trkpt lat="48.76982000" lon="8.252063000">
        <ele>296.00000</ele>
        <time>2008-10-19T12:11:45Z</time>
      </trkpt>
      <trkpt lat="48.76984000" lon="8.252078000">
        <ele>296.00000</ele>
        <time>2008-10-19T12:11:45Z</time>
      </trkpt>
      <trkpt lat="48.76986000" lon="8.252095000">
        <ele>297.00000</ele>
        <time>2008-10-19T12:11:45Z</time>
      </trkpt>
      <trkpt lat="48.76987000" lon="8.252111000">
        <ele>297.00000</ele>
        <time>2008-10-19T12:11:45Z</time>
      </trkpt>
      <trkpt lat="48.76989000" lon="8.252122000">
        <ele>297.00000</ele>
        <time>2008-10-19T12:11:45Z</time>
      </trkpt>
      <trkpt lat="48.76991000" lon="8.252127000">
        <ele>297.00000</ele>
        <time>2008-10-19T12:11:45Z</time>
      </trkpt>
      <trkpt lat="48.76993000" lon="8.252137000">
        <ele>297.00000</ele>
        <time>2008-10-19T12:11:45Z</time>
      </trkpt>
      <trkpt lat="48.76995000" lon="8.252152000">
        <ele>297.00000</ele>
        <time>2008-10-19T12:11:45Z</time>
      </trkpt>
      <trkpt lat="48.76997000" lon="8.252170000">
        <ele>297.00000</ele>
        <time>2008-10-19T12:11:45Z</time>
      </trkpt>
      <trkpt lat="48.76999000" lon="8.252187000">
        <ele>297.00000</ele>
        <time>2008-10-19T12:11:45Z</time>
      </trkpt>
      <trkpt lat="48.77000000" lon="8.252200000">
        <ele>297.00000</ele>
        <time>2008-10-19T12:11:45Z</time>
      </trkpt>
      <trkpt lat="48.77002000" lon="8.252211000">
        <ele>297.00000</ele>
        <time>2008-10-19T12:11:45Z</time>
      </trkpt>
      <trkpt lat="48.77004000" lon="8.252221000">
        <ele>297.00000</ele>
        <time>2008-10-19T12:11:45Z</time>
      </trkpt>
      <trkpt lat="48.77005000" lon="8.252232000">
        <ele>297.00000</ele>
        <time>2008-10-19T12:11:45Z</time>
      </trkpt>
      <trkpt lat="48.77007000" lon="8.252244000">
        <ele>297.00000</ele>
        <time>2008-10-19T12:11:45Z</time>
      </trkpt>
      <trkpt lat="48.77009000" lon="8.252257000">
        <ele>297.00000</ele>
        <time>2008-10-19T12:11:45Z</time>
      </trkpt>
      <trkpt lat="48.77011000" lon="8.252268000">
        <ele>297.00000</ele>
        <time>2008-10-19T12:11:45Z</time>
      </trkpt>
      <trkpt lat="48.77013000" lon="8.252282000">
        <ele>297.00000</ele>
        <time>2008-10-19T12:11:45Z</time>
      </trkpt>
      <trkpt lat="48.77015000" lon="8.252298000">
        <ele>297.00000</ele>
        <time>2008-10-19T12:11:45Z</time>
      </trkpt>
      <trkpt lat="48.77017000" lon="8.252314000">
        <ele>297.00000</ele>
        <time>2008-10-19T12:11:45Z</time>
      </trkpt>
      <trkpt lat="48.77019000" lon="8.252331000">
        <ele>297.00000</ele>
        <time>2008-10-19T12:11:45Z</time>
      </trkpt>
      <trkpt lat="48.77020000" lon="8.252349000">
        <ele>297.00000</ele>
        <time>2008-10-19T12:11:45Z</time>
      </trkpt>
      <trkpt lat="48.77021000" lon="8.252378000">
        <ele>297.00000</ele>
        <time>2008-10-19T12:11:45Z</time>
      </trkpt>
      <trkpt lat="48.77021000" lon="8.252395000">
        <ele>297.00000</ele>
        <time>2008-10-19T12:11:45Z</time>
      </trkpt>
      <trkpt lat="48.77022000" lon="8.252407000">
        <ele>297.00000</ele>
        <time>2008-10-19T12:11:45Z</time>
      </trkpt>
      <trkpt lat="48.77023000" lon="8.252423000">
        <ele>297.00000</ele>
        <time>2008-10-19T12:11:45Z</time>
      </trkpt>
      <trkpt lat="48.77026000" lon="8.252442000">
        <ele>297.00000</ele>
        <time>2008-10-19T12:11:45Z</time>
      </trkpt>
      <trkpt lat="48.77028000" lon="8.252464000">
        <ele>297.00000</ele>
        <time>2008-10-19T12:11:45Z</time>
      </trkpt>
      <trkpt lat="48.77029000" lon="8.252477000">
        <ele>297.00000</ele>
        <time>2008-10-19T12:11:45Z</time>
      </trkpt>
      <trkpt lat="48.77031000" lon="8.252490000">
        <ele>297.00000</ele>
        <time>2008-10-19T12:11:45Z</time>
      </trkpt>
      <trkpt lat="48.77034000" lon="8.252502000">
        <ele>297.00000</ele>
        <time>2008-10-19T12:11:45Z</time>
      </trkpt>
      <trkpt lat="48.77036000" lon="8.252518000">
        <ele>297.00000</ele>
        <time>2008-10-19T12:11:45Z</time>
      </trkpt>
      <trkpt lat="48.77038000" lon="8.252536000">
        <ele>297.00000</ele>
        <time>2008-10-19T12:11:45Z</time>
      </trkpt>
      <trkpt lat="48.77039000" lon="8.252556000">
        <ele>297.00000</ele>
        <time>2008-10-19T12:11:45Z</time>
      </trkpt>
      <trkpt lat="48.77041000" lon="8.252577000">
        <ele>297.00000</ele>
        <time>2008-10-19T12:11:45Z</time>
      </trkpt>
      <trkpt lat="48.77042000" lon="8.252595000">
        <ele>310.00000</ele>
        <time>2008-10-19T12:11:45Z</time>
      </trkpt>
      <trkpt lat="48.77045000" lon="8.252622000">
        <ele>310.00000</ele>
        <time>2008-10-19T12:11:45Z</time>
      </trkpt>
      <trkpt lat="48.77046000" lon="8.252646000">
        <ele>310.00000</ele>
        <time>2008-10-19T12:11:45Z</time>
      </trkpt>
      <trkpt lat="48.77047000" lon="8.252668000">
        <ele>310.00000</ele>
        <time>2008-10-19T12:11:45Z</time>
      </trkpt>
      <trkpt lat="48.77048000" lon="8.252689000">
        <ele>310.00000</ele>
        <time>2008-10-19T12:11:45Z</time>
      </trkpt>
      <trkpt lat="48.77048000" lon="8.252709000">
        <ele>310.00000</ele>
        <time>2008-10-19T12:11:45Z</time>
      </trkpt>
      <trkpt lat="48.77050000" lon="8.252733000">
        <ele>310.00000</ele>
        <time>2008-10-19T12:11:45Z</time>
      </trkpt>
      <trkpt lat="48.77052000" lon="8.252758000">
        <ele>310.00000</ele>
        <time>2008-10-19T12:11:45Z</time>
      </trkpt>
      <trkpt lat="48.77054000" lon="8.252787000">
        <ele>310.00000</ele>
        <time>2008-10-19T12:11:45Z</time>
      </trkpt>
      <trkpt lat="48.77056000" lon="8.252816000">
        <ele>310.00000</ele>
        <time>2008-10-19T12:11:45Z</time>
      </trkpt>
      <trkpt lat="48.77058000" lon="8.252831000">
        <ele>310.00000</ele>
        <time>2008-10-19T12:11:45Z</time>
      </trkpt>
      <trkpt lat="48.77059000" lon="8.252854000">
        <ele>310.00000</ele>
        <time>2008-10-19T12:11:45Z</time>
      </trkpt>
      <trkpt lat="48.77061000" lon="8.252884000">
        <ele>310.00000</ele>
        <time>2008-10-19T12:11:45Z</time>
      </trkpt>
      <trkpt lat="48.77062000" lon="8.252905000">
        <ele>310.00000</ele>
        <time>2008-10-19T12:11:45Z</time>
      </trkpt>
      <trkpt lat="48.77063000" lon="8.252928000">
        <ele>307.00000</ele>
        <time>2008-10-19T12:11:45Z</time>
      </trkpt>
      <trkpt lat="48.77065000" lon="8.252952000">
        <ele>307.00000</ele>
        <time>2008-10-19T12:11:45Z</time>
      </trkpt>
      <trkpt lat="48.77065000" lon="8.252978000">
        <ele>307.00000</ele>
        <time>2008-10-19T12:11:45Z</time>
      </trkpt>
      <trkpt lat="48.77066000" lon="8.253000000">
        <ele>307.00000</ele>
        <time>2008-10-19T12:11:45Z</time>
      </trkpt>
      <trkpt lat="48.77067000" lon="8.253022000">
        <ele>307.00000</ele>
        <time>2008-10-19T12:11:45Z</time>
      </trkpt>
      <trkpt lat="48.77068000" lon="8.253043000">
        <ele>307.00000</ele>
        <time>2008-10-19T12:11:45Z</time>
      </trkpt>
      <trkpt lat="48.77069000" lon="8.253066000">
        <ele>307.00000</ele>
        <time>2008-10-19T12:11:45Z</time>
      </trkpt>
      <trkpt lat="48.77070000" lon="8.253095000">
        <ele>307.00000</ele>
        <time>2008-10-19T12:11:45Z</time>
      </trkpt>
      <trkpt lat="48.77072000" lon="8.253124000">
        <ele>307.00000</ele>
        <time>2008-10-19T12:11:45Z</time>
      </trkpt>
      <trkpt lat="48.77073000" lon="8.253148000">
        <ele>307.00000</ele>
        <time>2008-10-19T12:11:45Z</time>
      </trkpt>
      <trkpt lat="48.77076000" lon="8.253175000">
        <ele>307.00000</ele>
        <time>2008-10-19T12:11:45Z</time>
      </trkpt>
      <trkpt lat="48.77076000" lon="8.253204000">
        <ele>307.00000</ele>
        <time>2008-10-19T12:11:45Z</time>
      </trkpt>
      <trkpt lat="48.77077000" lon="8.253228000">
        <ele>307.00000</ele>
        <time>2008-10-19T12:11:45Z</time>
      </trkpt>
      <trkpt lat="48.77077000" lon="8.253253000">
        <ele>307.00000</ele>
        <time>2008-10-19T12:11:45Z</time>
      </trkpt>
      <trkpt lat="48.77078000" lon="8.253280000">
        <ele>307.00000</ele>
        <time>2008-10-19T12:11:45Z</time>
      </trkpt>
      <trkpt lat="48.77079000" lon="8.253304000">
        <ele>307.00000</ele>
        <time>2008-10-19T12:11:45Z</time>
      </trkpt>
      <trkpt lat="48.77079000" lon="8.253323000">
        <ele>307.00000</ele>
        <time>2008-10-19T12:11:45Z</time>
      </trkpt>
      <trkpt lat="48.77079000" lon="8.253341000">
        <ele>307.00000</ele>
        <time>2008-10-19T12:11:45Z</time>
      </trkpt>
      <trkpt lat="48.77079000" lon="8.253364000">
        <ele>307.00000</ele>
        <time>2008-10-19T12:11:45Z</time>
      </trkpt>
      <trkpt lat="48.77080000" lon="8.253396000">
        <ele>307.00000</ele>
        <time>2008-10-19T12:11:45Z</time>
      </trkpt>
      <trkpt lat="48.77082000" lon="8.253431000">
        <ele>307.00000</ele>
        <time>2008-10-19T12:11:45Z</time>
      </trkpt>
      <trkpt lat="48.77083000" lon="8.253464000">
        <ele>307.00000</ele>
        <time>2008-10-19T12:11:45Z</time>
      </trkpt>
      <trkpt lat="48.77085000" lon="8.253494000">
        <ele>307.00000</ele>
        <time>2008-10-19T12:11:45Z</time>
      </trkpt>
      <trkpt lat="48.77087000" lon="8.253512000">
        <ele>307.00000</ele>
        <time>2008-10-19T12:11:45Z</time>
      </trkpt>
      <trkpt lat="48.77089000" lon="8.253532000">
        <ele>307.00000</ele>
        <time>2008-10-19T12:11:45Z</time>
      </trkpt>
      <trkpt lat="48.77090000" lon="8.253553000">
        <ele>307.00000</ele>
        <time>2008-10-19T12:11:45Z</time>
      </trkpt>
      <trkpt lat="48.77091000" lon="8.253583000">
        <ele>307.00000</ele>
        <time>2008-10-19T12:11:45Z</time>
      </trkpt>
      <trkpt lat="48.77093000" lon="8.253620000">
        <ele>307.00000</ele>
        <time>2008-10-19T12:11:45Z</time>
      </trkpt>
      <trkpt lat="48.77095000" lon="8.253659000">
        <ele>307.00000</ele>
        <time>2008-10-19T12:11:45Z</time>
      </trkpt>
      <trkpt lat="48.77096000" lon="8.253689000">
        <ele>307.00000</ele>
        <time>2008-10-19T12:11:45Z</time>
      </trkpt>
      <trkpt lat="48.77098000" lon="8.253717000">
        <ele>307.00000</ele>
        <time>2008-10-19T12:11:45Z</time>
      </trkpt>
      <trkpt lat="48.77098000" lon="8.253746000">
        <ele>307.00000</ele>
        <time>2008-10-19T12:11:45Z</time>
      </trkpt>
      <trkpt lat="48.77098000" lon="8.253774000">
        <ele>303.00000</ele>
        <time>2008-10-19T12:11:45Z</time>
      </trkpt>
      <trkpt lat="48.77099000" lon="8.253806000">
        <ele>303.00000</ele>
        <time>2008-10-19T12:11:45Z</time>
      </trkpt>
      <trkpt lat="48.77098000" lon="8.253824000">
        <ele>303.00000</ele>
        <time>2008-10-19T12:11:45Z</time>
      </trkpt>
      <trkpt lat="48.77099000" lon="8.253844000">
        <ele>303.00000</ele>
        <time>2008-10-19T12:11:45Z</time>
      </trkpt>
      <trkpt lat="48.77100000" lon="8.253871000">
        <ele>303.00000</ele>
        <time>2008-10-19T12:11:45Z</time>
      </trkpt>
      <trkpt lat="48.77100000" lon="8.253901000">
        <ele>303.00000</ele>
        <time>2008-10-19T12:11:45Z</time>
      </trkpt>
      <trkpt lat="48.77102000" lon="8.253931000">
        <ele>303.00000</ele>
        <time>2008-10-19T12:11:45Z</time>
      </trkpt>
      <trkpt lat="48.77103000" lon="8.253962000">
        <ele>303.00000</ele>
        <time>2008-10-19T12:11:45Z</time>
      </trkpt>
      <trkpt lat="48.77105000" lon="8.253989000">
        <ele>303.00000</ele>
        <time>2008-10-19T12:11:45Z</time>
      </trkpt>
      <trkpt lat="48.77106000" lon="8.254018000">
        <ele>303.00000</ele>
        <time>2008-10-19T12:11:45Z</time>
      </trkpt>
      <trkpt lat="48.77107000" lon="8.254054000">
        <ele>303.00000</ele>
        <time>2008-10-19T12:11:45Z</time>
      </trkpt>
      <trkpt lat="48.77108000" lon="8.254088000">
        <ele>303.00000</ele>
        <time>2008-10-19T12:11:45Z</time>
      </trkpt>
      <trkpt lat="48.77108000" lon="8.254116000">
        <ele>303.00000</ele>
        <time>2008-10-19T12:11:45Z</time>
      </trkpt>
      <trkpt lat="48.77109000" lon="8.254142000">
        <ele>303.00000</ele>
        <time>2008-10-19T12:11:45Z</time>
      </trkpt>
      <trkpt lat="48.77110000" lon="8.254170000">
        <ele>303.00000</ele>
        <time>2008-10-19T12:11:45Z</time>
      </trkpt>
      <trkpt lat="48.77110000" lon="8.254199000">
        <ele>303.00000</ele>
        <time>2008-10-19T12:11:45Z</time>
      </trkpt>
      <trkpt lat="48.77111000" lon="8.254229000">
        <ele>303.00000</ele>
        <time>2008-10-19T12:11:45Z</time>
      </trkpt>
      <trkpt lat="48.77112000" lon="8.254258000">
        <ele>303.00000</ele>
        <time>2008-10-19T12:11:45Z</time>
      </trkpt>
      <trkpt lat="48.77113000" lon="8.254292000">
        <ele>303.00000</ele>
        <time>2008-10-19T12:11:45Z</time>
      </trkpt>
      <trkpt lat="48.77114000" lon="8.254329000">
        <ele>303.00000</ele>
        <time>2008-10-19T12:11:45Z</time>
      </trkpt>
      <trkpt lat="48.77116000" lon="8.254361000">
        <ele>303.00000</ele>
        <time>2008-10-19T12:11:45Z</time>
      </trkpt>
      <trkpt lat="48.77117000" lon="8.254382000">
        <ele>303.00000</ele>
        <time>2008-10-19T12:11:45Z</time>
      </trkpt>
      <trkpt lat="48.77118000" lon="8.254408000">
        <ele>303.00000</ele>
        <time>2008-10-19T12:11:45Z</time>
      </trkpt>
      <trkpt lat="48.77119000" lon="8.254439000">
        <ele>303.00000</ele>
        <time>2008-10-19T12:11:45Z</time>
      </trkpt>
      <trkpt lat="48.77120000" lon="8.254470000">
        <ele>303.00000</ele>
        <time>2008-10-19T12:11:45Z</time>
      </trkpt>
      <trkpt lat="48.77120000" lon="8.254498000">
        <ele>303.00000</ele>
        <time>2008-10-19T12:11:45Z</time>
      </trkpt>
      <trkpt lat="48.77121000" lon="8.254529000">
        <ele>303.00000</ele>
        <time>2008-10-19T12:11:45Z</time>
      </trkpt>
      <trkpt lat="48.77122000" lon="8.254557000">
        <ele>303.00000</ele>
        <time>2008-10-19T12:11:45Z</time>
      </trkpt>
      <trkpt lat="48.77122000" lon="8.254587000">
        <ele>295.00000</ele>
        <time>2008-10-19T12:11:45Z</time>
      </trkpt>
      <trkpt lat="48.77122000" lon="8.254622000">
        <ele>295.00000</ele>
        <time>2008-10-19T12:11:45Z</time>
      </trkpt>
      <trkpt lat="48.77122000" lon="8.254654000">
        <ele>295.00000</ele>
        <time>2008-10-19T12:11:45Z</time>
      </trkpt>
      <trkpt lat="48.77124000" lon="8.254687000">
        <ele>295.00000</ele>
        <time>2008-10-19T12:11:45Z</time>
      </trkpt>
      <trkpt lat="48.77124000" lon="8.254725000">
        <ele>295.00000</ele>
        <time>2008-10-19T12:11:45Z</time>
      </trkpt>
      <trkpt lat="48.77126000" lon="8.254752000">
        <ele>322.00000</ele>
        <time>2008-10-19T12:11:45Z</time>
      </trkpt>
      <trkpt lat="48.77127000" lon="8.254775000">
        <ele>322.00000</ele>
        <time>2008-10-19T12:11:45Z</time>
      </trkpt>
      <trkpt lat="48.77128000" lon="8.254804000">
        <ele>322.00000</ele>
        <time>2008-10-19T12:11:45Z</time>
      </trkpt>
      <trkpt lat="48.77129000" lon="8.254835000">
        <ele>322.00000</ele>
        <time>2008-10-19T12:11:45Z</time>
      </trkpt>
      <trkpt lat="48.77131000" lon="8.254866000">
        <ele>322.00000</ele>
        <time>2008-10-19T12:11:45Z</time>
      </trkpt>
      <trkpt lat="48.77132000" lon="8.254889000">
        <ele>322.00000</ele>
        <time>2008-10-19T12:11:45Z</time>
      </trkpt>
      <trkpt lat="48.77133000" lon="8.254920000">
        <ele>322.00000</ele>
        <time>2008-10-19T12:11:45Z</time>
      </trkpt>
      <trkpt lat="48.77133000" lon="8.254953000">
        <ele>322.00000</ele>
        <time>2008-10-19T12:11:45Z</time>
      </trkpt>
      <trkpt lat="48.77134000" lon="8.254991000">
        <ele>322.00000</ele>
        <time>2008-10-19T12:11:45Z</time>
      </trkpt>
      <trkpt lat="48.77135000" lon="8.255028000">
        <ele>322.00000</ele>
        <time>2008-10-19T12:11:45Z</time>
      </trkpt>
      <trkpt lat="48.77135000" lon="8.255061000">
        <ele>322.00000</ele>
        <time>2008-10-19T12:11:45Z</time>
      </trkpt>
      <trkpt lat="48.77137000" lon="8.255095000">
        <ele>322.00000</ele>
        <time>2008-10-19T12:11:45Z</time>
      </trkpt>
      <trkpt lat="48.77138000" lon="8.255130000">
        <ele>322.00000</ele>
        <time>2008-10-19T12:11:45Z</time>
      </trkpt>
      <trkpt lat="48.77139000" lon="8.255165000">
        <ele>322.00000</ele>
        <time>2008-10-19T12:11:45Z</time>
      </trkpt>
      <trkpt lat="48.77140000" lon="8.255201000">
        <ele>322.00000</ele>
        <time>2008-10-19T12:11:45Z</time>
      </trkpt>
      <trkpt lat="48.77141000" lon="8.255236000">
        <ele>322.00000</ele>
        <time>2008-10-19T12:11:45Z</time>
      </trkpt>
      <trkpt lat="48.77142000" lon="8.255264000">
        <ele>322.00000</ele>
        <time>2008-10-19T12:11:45Z</time>
      </trkpt>
      <trkpt lat="48.77141000" lon="8.255293000">
        <ele>322.00000</ele>
        <time>2008-10-19T12:11:45Z</time>
      </trkpt>
      <trkpt lat="48.77141000" lon="8.255323000">
        <ele>322.00000</ele>
        <time>2008-10-19T12:11:45Z</time>
      </trkpt>
      <trkpt lat="48.77141000" lon="8.255360000">
        <ele>322.00000</ele>
        <time>2008-10-19T12:11:45Z</time>
      </trkpt>
      <trkpt lat="48.77140000" lon="8.255396000">
        <ele>322.00000</ele>
        <time>2008-10-19T12:11:45Z</time>
      </trkpt>
      <trkpt lat="48.77140000" lon="8.255432000">
        <ele>321.00000</ele>
        <time>2008-10-19T12:11:45Z</time>
      </trkpt>
      <trkpt lat="48.77139000" lon="8.255472000">
        <ele>321.00000</ele>
        <time>2008-10-19T12:11:45Z</time>
      </trkpt>
      <trkpt lat="48.77139000" lon="8.255514000">
        <ele>321.00000</ele>
        <time>2008-10-19T12:11:45Z</time>
      </trkpt>
      <trkpt lat="48.77140000" lon="8.255549000">
        <ele>321.00000</ele>
        <time>2008-10-19T12:11:45Z</time>
      </trkpt>
      <trkpt lat="48.77140000" lon="8.255586000">
        <ele>321.00000</ele>
        <time>2008-10-19T12:11:45Z</time>
      </trkpt>
      <trkpt lat="48.77142000" lon="8.255622000">
        <ele>321.00000</ele>
        <time>2008-10-19T12:11:45Z</time>
      </trkpt>
      <trkpt lat="48.77142000" lon="8.255657000">
        <ele>321.00000</ele>
        <time>2008-10-19T12:11:45Z</time>
      </trkpt>
      <trkpt lat="48.77142000" lon="8.255690000">
        <ele>321.00000</ele>
        <time>2008-10-19T12:11:45Z</time>
      </trkpt>
      <trkpt lat="48.77142000" lon="8.255724000">
        <ele>321.00000</ele>
        <time>2008-10-19T12:11:45Z</time>
      </trkpt>
      <trkpt lat="48.77143000" lon="8.255762000">
        <ele>321.00000</ele>
        <time>2008-10-19T12:11:45Z</time>
      </trkpt>
      <trkpt lat="48.77143000" lon="8.255802000">
        <ele>321.00000</ele>
        <time>2008-10-19T12:11:45Z</time>
      </trkpt>
      <trkpt lat="48.77143000" lon="8.255842000">
        <ele>321.00000</ele>
        <time>2008-10-19T12:11:45Z</time>
      </trkpt>
      <trkpt lat="48.77144000" lon="8.255878000">
        <ele>321.00000</ele>
        <time>2008-10-19T12:11:45Z</time>
      </trkpt>
      <trkpt lat="48.77145000" lon="8.255919000">
        <ele>321.00000</ele>
        <time>2008-10-19T12:11:45Z</time>
      </trkpt>
      <trkpt lat="48.77146000" lon="8.255961000">
        <ele>321.00000</ele>
        <time>2008-10-19T12:11:45Z</time>
      </trkpt>
      <trkpt lat="48.77148000" lon="8.256005000">
        <ele>321.00000</ele>
        <time>2008-10-19T12:11:45Z</time>
      </trkpt>
      <trkpt lat="48.77149000" lon="8.256044000">
        <ele>321.00000</ele>
        <time>2008-10-19T12:11:45Z</time>
      </trkpt>
      <trkpt lat="48.77150000" lon="8.256083000">
        <ele>321.00000</ele>
        <time>2008-10-19T12:11:45Z</time>
      </trkpt>
      <trkpt lat="48.77150000" lon="8.256129000">
        <ele>321.00000</ele>
        <time>2008-10-19T12:11:45Z</time>
      </trkpt>
      <trkpt lat="48.77150000" lon="8.256171000">
        <ele>321.00000</ele>
        <time>2008-10-19T12:11:45Z</time>
      </trkpt>
      <trkpt lat="48.77150000" lon="8.256206000">
        <ele>321.00000</ele>
        <time>2008-10-19T12:11:45Z</time>
      </trkpt>
      <trkpt lat="48.77150000" lon="8.256242000">
        <ele>321.00000</ele>
        <time>2008-10-19T12:11:45Z</time>
      </trkpt>
      <trkpt lat="48.77149000" lon="8.256283000">
        <ele>311.00000</ele>
        <time>2008-10-19T12:11:45Z</time>
      </trkpt>
      <trkpt lat="48.77148000" lon="8.256320000">
        <ele>311.00000</ele>
        <time>2008-10-19T12:11:45Z</time>
      </trkpt>
      <trkpt lat="48.77148000" lon="8.256354000">
        <ele>311.00000</ele>
        <time>2008-10-19T12:11:45Z</time>
      </trkpt>
      <trkpt lat="48.77147000" lon="8.256391000">
        <ele>311.00000</ele>
        <time>2008-10-19T12:11:45Z</time>
      </trkpt>
      <trkpt lat="48.77147000" lon="8.256433000">
        <ele>311.00000</ele>
        <time>2008-10-19T12:11:45Z</time>
      </trkpt>
      <trkpt lat="48.77145000" lon="8.256475000">
        <ele>311.00000</ele>
        <time>2008-10-19T12:11:45Z</time>
      </trkpt>
      <trkpt lat="48.77145000" lon="8.256516000">
        <ele>311.00000</ele>
        <time>2008-10-19T12:11:45Z</time>
      </trkpt>
      <trkpt lat="48.77144000" lon="8.256556000">
        <ele>311.00000</ele>
        <time>2008-10-19T12:11:45Z</time>
      </trkpt>
      <trkpt lat="48.77144000" lon="8.256590000">
        <ele>311.00000</ele>
        <time>2008-10-19T12:11:45Z</time>
      </trkpt>
      <trkpt lat="48.77145000" lon="8.256626000">
        <ele>311.00000</ele>
        <time>2008-10-19T12:11:45Z</time>
      </trkpt>
      <trkpt lat="48.77146000" lon="8.256661000">
        <ele>311.00000</ele>
        <time>2008-10-19T12:11:45Z</time>
      </trkpt>
      <trkpt lat="48.77147000" lon="8.256699000">
        <ele>311.00000</ele>
        <time>2008-10-19T12:11:45Z</time>
      </trkpt>
      <trkpt lat="48.77148000" lon="8.256735000">
        <ele>311.00000</ele>
        <time>2008-10-19T12:11:45Z</time>
      </trkpt>
      <trkpt lat="48.77149000" lon="8.256767000">
        <ele>311.00000</ele>
        <time>2008-10-19T12:11:45Z</time>
      </trkpt>
      <trkpt lat="48.77150000" lon="8.256804000">
        <ele>311.00000</ele>
        <time>2008-10-19T12:11:45Z</time>
      </trkpt>
      <trkpt lat="48.77151000" lon="8.256847000">
        <ele>311.00000</ele>
        <time>2008-10-19T12:11:45Z</time>
      </trkpt>
      <trkpt lat="48.77152000" lon="8.256893000">
        <ele>311.00000</ele>
        <time>2008-10-19T12:11:45Z</time>
      </trkpt>
      <trkpt lat="48.77153000" lon="8.256932000">
        <ele>311.00000</ele>
        <time>2008-10-19T12:11:45Z</time>
      </trkpt>
      <trkpt lat="48.77153000" lon="8.256968000">
        <ele>311.00000</ele>
        <time>2008-10-19T12:11:45Z</time>
      </trkpt>
      <trkpt lat="48.77153000" lon="8.257005000">
        <ele>311.00000</ele>
        <time>2008-10-19T12:11:45Z</time>
      </trkpt>
      <trkpt lat="48.77154000" lon="8.257038000">
        <ele>311.00000</ele>
        <time>2008-10-19T12:11:45Z</time>
      </trkpt>
      <trkpt lat="48.77154000" lon="8.257062000">
        <ele>311.00000</ele>
        <time>2008-10-19T12:11:45Z</time>
      </trkpt>
      <trkpt lat="48.77154000" lon="8.257094000">
        <ele>311.00000</ele>
        <time>2008-10-19T12:11:45Z</time>
      </trkpt>
      <trkpt lat="48.77156000" lon="8.257140000">
        <ele>311.00000</ele>
        <time>2008-10-19T12:11:45Z</time>
      </trkpt>
      <trkpt lat="48.77159000" lon="8.257193000">
        <ele>311.00000</ele>
        <time>2008-10-19T12:11:45Z</time>
      </trkpt>
      <trkpt lat="48.77158000" lon="8.257233000">
        <ele>311.00000</ele>
        <time>2008-10-19T12:11:45Z</time>
      </trkpt>
      <trkpt lat="48.77158000" lon="8.257261000">
        <ele>311.00000</ele>
        <time>2008-10-19T12:11:45Z</time>
      </trkpt>
      <trkpt lat="48.77157000" lon="8.257292000">
        <ele>311.00000</ele>
        <time>2008-10-19T12:11:45Z</time>
      </trkpt>
      <trkpt lat="48.77158000" lon="8.257330000">
        <ele>311.00000</ele>
        <time>2008-10-19T12:11:45Z</time>
      </trkpt>
      <trkpt lat="48.77158000" lon="8.257369000">
        <ele>311.00000</ele>
        <time>2008-10-19T12:11:45Z</time>
      </trkpt>
      <trkpt lat="48.77160000" lon="8.257413000">
        <ele>311.00000</ele>
        <time>2008-10-19T12:11:45Z</time>
      </trkpt>
      <trkpt lat="48.77161000" lon="8.257460000">
        <ele>311.00000</ele>
        <time>2008-10-19T12:11:45Z</time>
      </trkpt>
      <trkpt lat="48.77161000" lon="8.257508000">
        <ele>311.00000</ele>
        <time>2008-10-19T12:11:45Z</time>
      </trkpt>
      <trkpt lat="48.77161000" lon="8.257555000">
        <ele>311.00000</ele>
        <time>2008-10-19T12:11:45Z</time>
      </trkpt>
      <trkpt lat="48.77161000" lon="8.257586000">
        <ele>311.00000</ele>
        <time>2008-10-19T12:11:45Z</time>
      </trkpt>
      <trkpt lat="48.77160000" lon="8.257623000">
        <ele>311.00000</ele>
        <time>2008-10-19T12:11:45Z</time>
      </trkpt>
      <trkpt lat="48.77160000" lon="8.257648000">
        <ele>311.00000</ele>
        <time>2008-10-19T12:11:45Z</time>
      </trkpt>
      <trkpt lat="48.77160000" lon="8.257679000">
        <ele>311.00000</ele>
        <time>2008-10-19T12:11:45Z</time>
      </trkpt>
      <trkpt lat="48.77161000" lon="8.257708000">
        <ele>311.00000</ele>
        <time>2008-10-19T12:11:45Z</time>
      </trkpt>
      <trkpt lat="48.77163000" lon="8.257750000">
        <ele>311.00000</ele>
        <time>2008-10-19T12:11:45Z</time>
      </trkpt>
      <trkpt lat="48.77164000" lon="8.257786000">
        <ele>311.00000</ele>
        <time>2008-10-19T12:11:45Z</time>
      </trkpt>
      <trkpt lat="48.77165000" lon="8.257821000">
        <ele>311.00000</ele>
        <time>2008-10-19T12:11:45Z</time>
      </trkpt>
      <trkpt lat="48.77166000" lon="8.257859000">
        <ele>311.00000</ele>
        <time>2008-10-19T12:11:45Z</time>
      </trkpt>
      <trkpt lat="48.77167000" lon="8.257890000">
        <ele>311.00000</ele>
        <time>2008-10-19T12:11:45Z</time>
      </trkpt>
      <trkpt lat="48.77168000" lon="8.257926000">
        <ele>307.00000</ele>
        <time>2008-10-19T12:11:45Z</time>
      </trkpt>
      <trkpt lat="48.77169000" lon="8.257967000">
        <ele>307.00000</ele>
        <time>2008-10-19T12:11:45Z</time>
      </trkpt>
      <trkpt lat="48.77169000" lon="8.258001000">
        <ele>307.00000</ele>
        <time>2008-10-19T12:11:45Z</time>
      </trkpt>
      <trkpt lat="48.77169000" lon="8.258041000">
        <ele>307.00000</ele>
        <time>2008-10-19T12:11:45Z</time>
      </trkpt>
      <trkpt lat="48.77169000" lon="8.258084000">
        <ele>307.00000</ele>
        <time>2008-10-19T12:11:45Z</time>
      </trkpt>
      <trkpt lat="48.77169000" lon="8.258128000">
        <ele>307.00000</ele>
        <time>2008-10-19T12:11:45Z</time>
      </trkpt>
      <trkpt lat="48.77169000" lon="8.258171000">
        <ele>307.00000</ele>
        <time>2008-10-19T12:11:45Z</time>
      </trkpt>
      <trkpt lat="48.77170000" lon="8.258204000">
        <ele>307.00000</ele>
        <time>2008-10-19T12:11:45Z</time>
      </trkpt>
      <trkpt lat="48.77171000" lon="8.258244000">
        <ele>307.00000</ele>
        <time>2008-10-19T12:11:45Z</time>
      </trkpt>
      <trkpt lat="48.77172000" lon="8.258281000">
        <ele>307.00000</ele>
        <time>2008-10-19T12:11:45Z</time>
      </trkpt>
      <trkpt lat="48.77174000" lon="8.258316000">
        <ele>307.00000</ele>
        <time>2008-10-19T12:11:45Z</time>
      </trkpt>
      <trkpt lat="48.77175000" lon="8.258357000">
        <ele>307.00000</ele>
        <time>2008-10-19T12:11:45Z</time>
      </trkpt>
      <trkpt lat="48.77175000" lon="8.258395000">
        <ele>307.00000</ele>
        <time>2008-10-19T12:11:45Z</time>
      </trkpt>
      <trkpt lat="48.77177000" lon="8.258427000">
        <ele>307.00000</ele>
        <time>2008-10-19T12:11:45Z</time>
      </trkpt>
      <trkpt lat="48.77178000" lon="8.258465000">
        <ele>307.00000</ele>
        <time>2008-10-19T12:11:45Z</time>
      </trkpt>
      <trkpt lat="48.77179000" lon="8.258495000">
        <ele>307.00000</ele>
        <time>2008-10-19T12:11:45Z</time>
      </trkpt>
      <trkpt lat="48.77180000" lon="8.258520000">
        <ele>307.00000</ele>
        <time>2008-10-19T12:11:45Z</time>
      </trkpt>
      <trkpt lat="48.77182000" lon="8.258546000">
        <ele>307.00000</ele>
        <time>2008-10-19T12:11:45Z</time>
      </trkpt>
      <trkpt lat="48.77184000" lon="8.258578000">
        <ele>307.00000</ele>
        <time>2008-10-19T12:11:45Z</time>
      </trkpt>
      <trkpt lat="48.77184000" lon="8.258613000">
        <ele>307.00000</ele>
        <time>2008-10-19T12:11:45Z</time>
      </trkpt>
      <trkpt lat="48.77185000" lon="8.258649000">
        <ele>307.00000</ele>
        <time>2008-10-19T12:11:45Z</time>
      </trkpt>
      <trkpt lat="48.77185000" lon="8.258679000">
        <ele>307.00000</ele>
        <time>2008-10-19T12:11:45Z</time>
      </trkpt>
      <trkpt lat="48.77185000" lon="8.258710000">
        <ele>307.00000</ele>
        <time>2008-10-19T12:11:45Z</time>
      </trkpt>
      <trkpt lat="48.77186000" lon="8.258739000">
        <ele>307.00000</ele>
        <time>2008-10-19T12:11:45Z</time>
      </trkpt>
      <trkpt lat="48.77186000" lon="8.258766000">
        <ele>304.00000</ele>
        <time>2008-10-19T12:11:45Z</time>
      </trkpt>
      <trkpt lat="48.77186000" lon="8.258803000">
        <ele>304.00000</ele>
        <time>2008-10-19T12:11:45Z</time>
      </trkpt>
      <trkpt lat="48.77186000" lon="8.258840000">
        <ele>304.00000</ele>
        <time>2008-10-19T12:11:45Z</time>
      </trkpt>
      <trkpt lat="48.77187000" lon="8.258880000">
        <ele>304.00000</ele>
        <time>2008-10-19T12:11:45Z</time>
      </trkpt>
      <trkpt lat="48.77187000" lon="8.258916000">
        <ele>304.00000</ele>
        <time>2008-10-19T12:11:45Z</time>
      </trkpt>
      <trkpt lat="48.77187000" lon="8.258941000">
        <ele>304.00000</ele>
        <time>2008-10-19T12:11:45Z</time>
      </trkpt>
      <trkpt lat="48.77187000" lon="8.258965000">
        <ele>304.00000</ele>
        <time>2008-10-19T12:11:45Z</time>
      </trkpt>
      <trkpt lat="48.77187000" lon="8.259000000">
        <ele>304.00000</ele>
        <time>2008-10-19T12:11:45Z</time>
      </trkpt>
      <trkpt lat="48.77188000" lon="8.259034000">
        <ele>304.00000</ele>
        <time>2008-10-19T12:11:45Z</time>
      </trkpt>
      <trkpt lat="48.77188000" lon="8.259068000">
        <ele>304.00000</ele>
        <time>2008-10-19T12:11:45Z</time>
      </trkpt>
      <trkpt lat="48.77189000" lon="8.259096000">
        <ele>304.00000</ele>
        <time>2008-10-19T12:11:45Z</time>
      </trkpt>
      <trkpt lat="48.77189000" lon="8.259123000">
        <ele>304.00000</ele>
        <time>2008-10-19T12:11:45Z</time>
      </trkpt>
      <trkpt lat="48.77190000" lon="8.259148000">
        <ele>304.00000</ele>
        <time>2008-10-19T12:11:45Z</time>
      </trkpt>
      <trkpt lat="48.77190000" lon="8.259174000">
        <ele>304.00000</ele>
        <time>2008-10-19T12:11:45Z</time>
      </trkpt>
      <trkpt lat="48.77191000" lon="8.259205000">
        <ele>304.00000</ele>
        <time>2008-10-19T12:11:45Z</time>
      </trkpt>
      <trkpt lat="48.77193000" lon="8.259232000">
        <ele>304.00000</ele>
        <time>2008-10-19T12:11:45Z</time>
      </trkpt>
      <trkpt lat="48.77194000" lon="8.259271000">
        <ele>304.00000</ele>
        <time>2008-10-19T12:11:45Z</time>
      </trkpt>
      <trkpt lat="48.77197000" lon="8.259312000">
        <ele>304.00000</ele>
        <time>2008-10-19T12:11:45Z</time>
      </trkpt>
      <trkpt lat="48.77200000" lon="8.259352000">
        <ele>304.00000</ele>
        <time>2008-10-19T12:11:45Z</time>
      </trkpt>
      <trkpt lat="48.77203000" lon="8.259389000">
        <ele>304.00000</ele>
        <time>2008-10-19T12:11:45Z</time>
      </trkpt>
      <trkpt lat="48.77205000" lon="8.259418000">
        <ele>304.00000</ele>
        <time>2008-10-19T12:11:45Z</time>
      </trkpt>
      <trkpt lat="48.77207000" lon="8.259439000">
        <ele>304.00000</ele>
        <time>2008-10-19T12:11:45Z</time>
      </trkpt>
      <trkpt lat="48.77209000" lon="8.259470000">
        <ele>335.00000</ele>
        <time>2008-10-19T12:11:45Z</time>
      </trkpt>
      <trkpt lat="48.77212000" lon="8.259491000">
        <ele>335.00000</ele>
        <time>2008-10-19T12:11:45Z</time>
      </trkpt>
      <trkpt lat="48.77214000" lon="8.259508000">
        <ele>335.00000</ele>
        <time>2008-10-19T12:11:45Z</time>
      </trkpt>
      <trkpt lat="48.77216000" lon="8.259520000">
        <ele>335.00000</ele>
        <time>2008-10-19T12:11:45Z</time>
      </trkpt>
      <trkpt lat="48.77218000" lon="8.259536000">
        <ele>335.00000</ele>
        <time>2008-10-19T12:11:45Z</time>
      </trkpt>
      <trkpt lat="48.77218000" lon="8.259554000">
        <ele>335.00000</ele>
        <time>2008-10-19T12:11:45Z</time>
      </trkpt>
      <trkpt lat="48.77219000" lon="8.259578000">
        <ele>335.00000</ele>
        <time>2008-10-19T12:11:45Z</time>
      </trkpt>
      <trkpt lat="48.77221000" lon="8.259612000">
        <ele>326.00000</ele>
        <time>2008-10-19T12:11:45Z</time>
      </trkpt>
      <trkpt lat="48.77223000" lon="8.259647000">
        <ele>326.00000</ele>
        <time>2008-10-19T12:11:45Z</time>
      </trkpt>
      <trkpt lat="48.77224000" lon="8.259693000">
        <ele>326.00000</ele>
        <time>2008-10-19T12:11:45Z</time>
      </trkpt>
      <trkpt lat="48.77225000" lon="8.259747000">
        <ele>326.00000</ele>
        <time>2008-10-19T12:11:45Z</time>
      </trkpt>
      <trkpt lat="48.77225000" lon="8.259800000">
        <ele>326.00000</ele>
        <time>2008-10-19T12:11:45Z</time>
      </trkpt>
      <trkpt lat="48.77225000" lon="8.259853000">
        <ele>326.00000</ele>
        <time>2008-10-19T12:11:45Z</time>
      </trkpt>
      <trkpt lat="48.77225000" lon="8.259901000">
        <ele>326.00000</ele>
        <time>2008-10-19T12:11:45Z</time>
      </trkpt>
      <trkpt lat="48.77225000" lon="8.259931000">
        <ele>326.00000</ele>
        <time>2008-10-19T12:11:45Z</time>
      </trkpt>
      <trkpt lat="48.77224000" lon="8.259969000">
        <ele>326.00000</ele>
        <time>2008-10-19T12:11:45Z</time>
      </trkpt>
      <trkpt lat="48.77223000" lon="8.260008000">
        <ele>326.00000</ele>
        <time>2008-10-19T12:11:45Z</time>
      </trkpt>
      <trkpt lat="48.77222000" lon="8.260036000">
        <ele>326.00000</ele>
        <time>2008-10-19T12:11:45Z</time>
      </trkpt>
      <trkpt lat="48.77222000" lon="8.260059000">
        <ele>326.00000</ele>
        <time>2008-10-19T12:11:45Z</time>
      </trkpt>
      <trkpt lat="48.77221000" lon="8.260087000">
        <ele>326.00000</ele>
        <time>2008-10-19T12:11:45Z</time>
      </trkpt>
      <trkpt lat="48.77221000" lon="8.260112000">
        <ele>326.00000</ele>
        <time>2008-10-19T12:11:45Z</time>
      </trkpt>
      <trkpt lat="48.77221000" lon="8.260137000">
        <ele>326.00000</ele>
        <time>2008-10-19T12:11:45Z</time>
      </trkpt>
      <trkpt lat="48.77221000" lon="8.260163000">
        <ele>326.00000</ele>
        <time>2008-10-19T12:11:45Z</time>
      </trkpt>
      <trkpt lat="48.77221000" lon="8.260186000">
        <ele>326.00000</ele>
        <time>2008-10-19T12:11:45Z</time>
      </trkpt>
      <trkpt lat="48.77222000" lon="8.260213000">
        <ele>326.00000</ele>
        <time>2008-10-19T12:11:45Z</time>
      </trkpt>
      <trkpt lat="48.77222000" lon="8.260242000">
        <ele>326.00000</ele>
        <time>2008-10-19T12:11:45Z</time>
      </trkpt>
      <trkpt lat="48.77222000" lon="8.260270000">
        <ele>326.00000</ele>
        <time>2008-10-19T12:11:45Z</time>
      </trkpt>
      <trkpt lat="48.77222000" lon="8.260301000">
        <ele>326.00000</ele>
        <time>2008-10-19T12:11:45Z</time>
      </trkpt>
      <trkpt lat="48.77223000" lon="8.260334000">
        <ele>326.00000</ele>
        <time>2008-10-19T12:11:45Z</time>
      </trkpt>
      <trkpt lat="48.77223000" lon="8.260367000">
        <ele>326.00000</ele>
        <time>2008-10-19T12:11:45Z</time>
      </trkpt>
      <trkpt lat="48.77223000" lon="8.260396000">
        <ele>326.00000</ele>
        <time>2008-10-19T12:11:45Z</time>
      </trkpt>
      <trkpt lat="48.77224000" lon="8.260421000">
        <ele>327.00000</ele>
        <time>2008-10-19T12:11:45Z</time>
      </trkpt>
      <trkpt lat="48.77224000" lon="8.260452000">
        <ele>327.00000</ele>
        <time>2008-10-19T12:11:45Z</time>
      </trkpt>
      <trkpt lat="48.77224000" lon="8.260483000">
        <ele>327.00000</ele>
        <time>2008-10-19T12:11:45Z</time>
      </trkpt>
      <trkpt lat="48.77224000" lon="8.260509000">
        <ele>327.00000</ele>
        <time>2008-10-19T12:11:45Z</time>
      </trkpt>
      <trkpt lat="48.77224000" lon="8.260540000">
        <ele>327.00000</ele>
        <time>2008-10-19T12:11:45Z</time>
      </trkpt>
      <trkpt lat="48.77224000" lon="8.260578000">
        <ele>327.00000</ele>
        <time>2008-10-19T12:11:45Z</time>
      </trkpt>
      <trkpt lat="48.77224000" lon="8.260611000">
        <ele>327.00000</ele>
        <time>2008-10-19T12:11:45Z</time>
      </trkpt>
      <trkpt lat="48.77224000" lon="8.260639000">
        <ele>327.00000</ele>
        <time>2008-10-19T12:11:45Z</time>
      </trkpt>
      <trkpt lat="48.77224000" lon="8.260667000">
        <ele>327.00000</ele>
        <time>2008-10-19T12:11:45Z</time>
      </trkpt>
      <trkpt lat="48.77224000" lon="8.260698000">
        <ele>327.00000</ele>
        <time>2008-10-19T12:11:45Z</time>
      </trkpt>
      <trkpt lat="48.77225000" lon="8.260728000">
        <ele>327.00000</ele>
        <time>2008-10-19T12:11:45Z</time>
      </trkpt>
      <trkpt lat="48.77225000" lon="8.260758000">
        <ele>327.00000</ele>
        <time>2008-10-19T12:11:45Z</time>
      </trkpt>
      <trkpt lat="48.77225000" lon="8.260798000">
        <ele>327.00000</ele>
        <time>2008-10-19T12:11:45Z</time>
      </trkpt>
      <trkpt lat="48.77225000" lon="8.260825000">
        <ele>327.00000</ele>
        <time>2008-10-19T12:11:45Z</time>
      </trkpt>
      <trkpt lat="48.77224000" lon="8.260856000">
        <ele>327.00000</ele>
        <time>2008-10-19T12:11:45Z</time>
      </trkpt>
      <trkpt lat="48.77225000" lon="8.260893000">
        <ele>327.00000</ele>
        <time>2008-10-19T12:11:45Z</time>
      </trkpt>
      <trkpt lat="48.77224000" lon="8.260926000">
        <ele>327.00000</ele>
        <time>2008-10-19T12:11:45Z</time>
      </trkpt>
      <trkpt lat="48.77225000" lon="8.260959000">
        <ele>327.00000</ele>
        <time>2008-10-19T12:11:45Z</time>
      </trkpt>
      <trkpt lat="48.77226000" lon="8.260993000">
        <ele>327.00000</ele>
        <time>2008-10-19T12:11:45Z</time>
      </trkpt>
      <trkpt lat="48.77226000" lon="8.261024000">
        <ele>327.00000</ele>
        <time>2008-10-19T12:11:45Z</time>
      </trkpt>
      <trkpt lat="48.77227000" lon="8.261057000">
        <ele>327.00000</ele>
        <time>2008-10-19T12:11:45Z</time>
      </trkpt>
      <trkpt lat="48.77228000" lon="8.261087000">
        <ele>327.00000</ele>
        <time>2008-10-19T12:11:45Z</time>
      </trkpt>
      <trkpt lat="48.77230000" lon="8.261115000">
        <ele>327.00000</ele>
        <time>2008-10-19T12:11:45Z</time>
      </trkpt>
      <trkpt lat="48.77230000" lon="8.261143000">
        <ele>327.00000</ele>
        <time>2008-10-19T12:11:45Z</time>
      </trkpt>
      <trkpt lat="48.77231000" lon="8.261170000">
        <ele>327.00000</ele>
        <time>2008-10-19T12:11:45Z</time>
      </trkpt>
      <trkpt lat="48.77232000" lon="8.261200000">
        <ele>327.00000</ele>
        <time>2008-10-19T12:11:45Z</time>
      </trkpt>
      <trkpt lat="48.77233000" lon="8.261231000">
        <ele>327.00000</ele>
        <time>2008-10-19T12:11:45Z</time>
      </trkpt>
      <trkpt lat="48.77235000" lon="8.261267000">
        <ele>327.00000</ele>
        <time>2008-10-19T12:11:45Z</time>
      </trkpt>
      <trkpt lat="48.77236000" lon="8.261297000">
        <ele>327.00000</ele>
        <time>2008-10-19T12:11:45Z</time>
      </trkpt>
      <trkpt lat="48.77237000" lon="8.261325000">
        <ele>327.00000</ele>
        <time>2008-10-19T12:11:45Z</time>
      </trkpt>
      <trkpt lat="48.77237000" lon="8.261354000">
        <ele>327.00000</ele>
        <time>2008-10-19T12:11:45Z</time>
      </trkpt>
      <trkpt lat="48.77238000" lon="8.261385000">
        <ele>327.00000</ele>
        <time>2008-10-19T12:11:45Z</time>
      </trkpt>
      <trkpt lat="48.77237000" lon="8.261409000">
        <ele>327.00000</ele>
        <time>2008-10-19T12:11:45Z</time>
      </trkpt>
      <trkpt lat="48.77237000" lon="8.261431000">
        <ele>327.00000</ele>
        <time>2008-10-19T12:11:45Z</time>
      </trkpt>
      <trkpt lat="48.77237000" lon="8.261455000">
        <ele>327.00000</ele>
        <time>2008-10-19T12:11:45Z</time>
      </trkpt>
      <trkpt lat="48.77238000" lon="8.261479000">
        <ele>327.00000</ele>
        <time>2008-10-19T12:11:45Z</time>
      </trkpt>
      <trkpt lat="48.77242000" lon="8.261519000">
        <ele>327.00000</ele>
        <time>2008-10-19T12:11:45Z</time>
      </trkpt>
      <trkpt lat="48.77244000" lon="8.261556000">
        <ele>327.00000</ele>
        <time>2008-10-19T12:11:45Z</time>
      </trkpt>
      <trkpt lat="48.77245000" lon="8.261597000">
        <ele>327.00000</ele>
        <time>2008-10-19T12:11:45Z</time>
      </trkpt>
      <trkpt lat="48.77245000" lon="8.261634000">
        <ele>327.00000</ele>
        <time>2008-10-19T12:11:45Z</time>
      </trkpt>
      <trkpt lat="48.77244000" lon="8.261660000">
        <ele>327.00000</ele>
        <time>2008-10-19T12:11:45Z</time>
      </trkpt>
      <trkpt lat="48.77244000" lon="8.261680000">
        <ele>327.00000</ele>
        <time>2008-10-19T12:11:45Z</time>
      </trkpt>
      <trkpt lat="48.77243000" lon="8.261703000">
        <ele>327.00000</ele>
        <time>2008-10-19T12:11:45Z</time>
      </trkpt>
      <trkpt lat="48.77243000" lon="8.261724000">
        <ele>327.00000</ele>
        <time>2008-10-19T12:11:45Z</time>
      </trkpt>
      <trkpt lat="48.77243000" lon="8.261751000">
        <ele>327.00000</ele>
        <time>2008-10-19T12:11:45Z</time>
      </trkpt>
      <trkpt lat="48.77244000" lon="8.261783000">
        <ele>327.00000</ele>
        <time>2008-10-19T12:11:45Z</time>
      </trkpt>
      <trkpt lat="48.77245000" lon="8.261816000">
        <ele>327.00000</ele>
        <time>2008-10-19T12:11:45Z</time>
      </trkpt>
      <trkpt lat="48.77245000" lon="8.261845000">
        <ele>327.00000</ele>
        <time>2008-10-19T12:11:45Z</time>
      </trkpt>
      <trkpt lat="48.77246000" lon="8.261877000">
        <ele>327.00000</ele>
        <time>2008-10-19T12:11:45Z</time>
      </trkpt>
      <trkpt lat="48.77246000" lon="8.261909000">
        <ele>327.00000</ele>
        <time>2008-10-19T12:11:45Z</time>
      </trkpt>
      <trkpt lat="48.77247000" lon="8.261930000">
        <ele>327.00000</ele>
        <time>2008-10-19T12:11:45Z</time>
      </trkpt>
      <trkpt lat="48.77247000" lon="8.261955000">
        <ele>327.00000</ele>
        <time>2008-10-19T12:11:45Z</time>
      </trkpt>
      <trkpt lat="48.77246000" lon="8.261969000">
        <ele>327.00000</ele>
        <time>2008-10-19T12:11:45Z</time>
      </trkpt>
      <trkpt lat="48.77246000" lon="8.261982000">
        <ele>327.00000</ele>
        <time>2008-10-19T12:11:45Z</time>
      </trkpt>
      <trkpt lat="48.77247000" lon="8.261989000">
        <ele>327.00000</ele>
        <time>2008-10-19T12:11:45Z</time>
      </trkpt>
      <trkpt lat="48.77248000" lon="8.261997000">
        <ele>327.00000</ele>
        <time>2008-10-19T12:11:45Z</time>
      </trkpt>
      <trkpt lat="48.77248000" lon="8.262010000">
        <ele>327.00000</ele>
        <time>2008-10-19T12:11:45Z</time>
      </trkpt>
      <trkpt lat="48.77248000" lon="8.262023000">
        <ele>327.00000</ele>
        <time>2008-10-19T12:11:45Z</time>
      </trkpt>
      <trkpt lat="48.77248000" lon="8.262042000">
        <ele>327.00000</ele>
        <time>2008-10-19T12:11:45Z</time>
      </trkpt>
      <trkpt lat="48.77248000" lon="8.262061000">
        <ele>327.00000</ele>
        <time>2008-10-19T12:11:45Z</time>
      </trkpt>
      <trkpt lat="48.77249000" lon="8.262081000">
        <ele>327.00000</ele>
        <time>2008-10-19T12:11:45Z</time>
      </trkpt>
      <trkpt lat="48.77249000" lon="8.262106000">
        <ele>327.00000</ele>
        <time>2008-10-19T12:11:45Z</time>
      </trkpt>
      <trkpt lat="48.77249000" lon="8.262126000">
        <ele>327.00000</ele>
        <time>2008-10-19T12:11:45Z</time>
      </trkpt>
      <trkpt lat="48.77249000" lon="8.262139000">
        <ele>327.00000</ele>
        <time>2008-10-19T12:11:45Z</time>
      </trkpt>
      <trkpt lat="48.77249000" lon="8.262153000">
        <ele>327.00000</ele>
        <time>2008-10-19T12:11:45Z</time>
      </trkpt>
      <trkpt lat="48.77248000" lon="8.262170000">
        <ele>327.00000</ele>
        <time>2008-10-19T12:11:45Z</time>
      </trkpt>
      <trkpt lat="48.77247000" lon="8.262197000">
        <ele>327.00000</ele>
        <time>2008-10-19T12:11:45Z</time>
      </trkpt>
      <trkpt lat="48.77247000" lon="8.262222000">
        <ele>327.00000</ele>
        <time>2008-10-19T12:11:45Z</time>
      </trkpt>
      <trkpt lat="48.77247000" lon="8.262241000">
        <ele>327.00000</ele>
        <time>2008-10-19T12:11:45Z</time>
      </trkpt>
      <trkpt lat="48.77247000" lon="8.262275000">
        <ele>327.00000</ele>
        <time>2008-10-19T12:11:45Z</time>
      </trkpt>
      <trkpt lat="48.77248000" lon="8.262312000">
        <ele>327.00000</ele>
        <time>2008-10-19T12:11:45Z</time>
      </trkpt>
      <trkpt lat="48.77248000" lon="8.262338000">
        <ele>327.00000</ele>
        <time>2008-10-19T12:11:45Z</time>
      </trkpt>
      <trkpt lat="48.77248000" lon="8.262359000">
        <ele>327.00000</ele>
        <time>2008-10-19T12:11:45Z</time>
      </trkpt>
      <trkpt lat="48.77248000" lon="8.262383000">
        <ele>327.00000</ele>
        <time>2008-10-19T12:11:45Z</time>
      </trkpt>
      <trkpt lat="48.77247000" lon="8.262410000">
        <ele>327.00000</ele>
        <time>2008-10-19T12:11:45Z</time>
      </trkpt>
      <trkpt lat="48.77247000" lon="8.262439000">
        <ele>327.00000</ele>
        <time>2008-10-19T12:11:45Z</time>
      </trkpt>
      <trkpt lat="48.77245000" lon="8.262471000">
        <ele>327.00000</ele>
        <time>2008-10-19T12:11:45Z</time>
      </trkpt>
      <trkpt lat="48.77245000" lon="8.262501000">
        <ele>327.00000</ele>
        <time>2008-10-19T12:11:45Z</time>
      </trkpt>
      <trkpt lat="48.77244000" lon="8.262527000">
        <ele>327.00000</ele>
        <time>2008-10-19T12:11:45Z</time>
      </trkpt>
      <trkpt lat="48.77244000" lon="8.262556000">
        <ele>327.00000</ele>
        <time>2008-10-19T12:11:45Z</time>
      </trkpt>
      <trkpt lat="48.77244000" lon="8.262583000">
        <ele>327.00000</ele>
        <time>2008-10-19T12:11:45Z</time>
      </trkpt>
      <trkpt lat="48.77243000" lon="8.262610000">
        <ele>327.00000</ele>
        <time>2008-10-19T12:11:45Z</time>
      </trkpt>
      <trkpt lat="48.77242000" lon="8.262638000">
        <ele>327.00000</ele>
        <time>2008-10-19T12:11:45Z</time>
      </trkpt>
      <trkpt lat="48.77241000" lon="8.262665000">
        <ele>327.00000</ele>
        <time>2008-10-19T12:11:45Z</time>
      </trkpt>
      <trkpt lat="48.77240000" lon="8.262697000">
        <ele>327.00000</ele>
        <time>2008-10-19T12:11:45Z</time>
      </trkpt>
      <trkpt lat="48.77240000" lon="8.262731000">
        <ele>327.00000</ele>
        <time>2008-10-19T12:11:45Z</time>
      </trkpt>
      <trkpt lat="48.77239000" lon="8.262755000">
        <ele>327.00000</ele>
        <time>2008-10-19T12:11:45Z</time>
      </trkpt>
      <trkpt lat="48.77239000" lon="8.262780000">
        <ele>327.00000</ele>
        <time>2008-10-19T12:11:45Z</time>
      </trkpt>
      <trkpt lat="48.77239000" lon="8.262811000">
        <ele>327.00000</ele>
        <time>2008-10-19T12:11:45Z</time>
      </trkpt>
      <trkpt lat="48.77240000" lon="8.262846000">
        <ele>327.00000</ele>
        <time>2008-10-19T12:11:45Z</time>
      </trkpt>
      <trkpt lat="48.77241000" lon="8.262876000">
        <ele>327.00000</ele>
        <time>2008-10-19T12:11:45Z</time>
      </trkpt>
      <trkpt lat="48.77242000" lon="8.262904000">
        <ele>327.00000</ele>
        <time>2008-10-19T12:11:45Z</time>
      </trkpt>
      <trkpt lat="48.77242000" lon="8.262939000">
        <ele>325.00000</ele>
        <time>2008-10-19T12:11:45Z</time>
      </trkpt>
      <trkpt lat="48.77242000" lon="8.262970000">
        <ele>325.00000</ele>
        <time>2008-10-19T12:11:45Z</time>
      </trkpt>
      <trkpt lat="48.77242000" lon="8.262990000">
        <ele>325.00000</ele>
        <time>2008-10-19T12:11:45Z</time>
      </trkpt>
      <trkpt lat="48.77242000" lon="8.263015000">
        <ele>325.00000</ele>
        <time>2008-10-19T12:11:45Z</time>
      </trkpt>
      <trkpt lat="48.77243000" lon="8.263034000">
        <ele>325.00000</ele>
        <time>2008-10-19T12:11:45Z</time>
      </trkpt>
      <trkpt lat="48.77243000" lon="8.263057000">
        <ele>325.00000</ele>
        <time>2008-10-19T12:11:45Z</time>
      </trkpt>
      <trkpt lat="48.77243000" lon="8.263089000">
        <ele>325.00000</ele>
        <time>2008-10-19T12:11:45Z</time>
      </trkpt>
      <trkpt lat="48.77245000" lon="8.263117000">
        <ele>325.00000</ele>
        <time>2008-10-19T12:11:45Z</time>
      </trkpt>
      <trkpt lat="48.77246000" lon="8.263144000">
        <ele>325.00000</ele>
        <time>2008-10-19T12:11:45Z</time>
      </trkpt>
      <trkpt lat="48.77247000" lon="8.263172000">
        <ele>325.00000</ele>
        <time>2008-10-19T12:11:45Z</time>
      </trkpt>
      <trkpt lat="48.77248000" lon="8.263202000">
        <ele>325.00000</ele>
        <time>2008-10-19T12:11:45Z</time>
      </trkpt>
      <trkpt lat="48.77249000" lon="8.263228000">
        <ele>325.00000</ele>
        <time>2008-10-19T12:11:45Z</time>
      </trkpt>
      <trkpt lat="48.77251000" lon="8.263261000">
        <ele>325.00000</ele>
        <time>2008-10-19T12:11:45Z</time>
      </trkpt>
      <trkpt lat="48.77252000" lon="8.263293000">
        <ele>325.00000</ele>
        <time>2008-10-19T12:11:45Z</time>
      </trkpt>
      <trkpt lat="48.77252000" lon="8.263319000">
        <ele>325.00000</ele>
        <time>2008-10-19T12:11:45Z</time>
      </trkpt>
      <trkpt lat="48.77253000" lon="8.263340000">
        <ele>325.00000</ele>
        <time>2008-10-19T12:11:45Z</time>
      </trkpt>
      <trkpt lat="48.77254000" lon="8.263369000">
        <ele>325.00000</ele>
        <time>2008-10-19T12:11:45Z</time>
      </trkpt>
      <trkpt lat="48.77256000" lon="8.263402000">
        <ele>325.00000</ele>
        <time>2008-10-19T12:11:45Z</time>
      </trkpt>
      <trkpt lat="48.77257000" lon="8.263435000">
        <ele>325.00000</ele>
        <time>2008-10-19T12:11:45Z</time>
      </trkpt>
      <trkpt lat="48.77258000" lon="8.263467000">
        <ele>325.00000</ele>
        <time>2008-10-19T12:11:45Z</time>
      </trkpt>
      <trkpt lat="48.77259000" lon="8.263504000">
        <ele>325.00000</ele>
        <time>2008-10-19T12:11:45Z</time>
      </trkpt>
      <trkpt lat="48.77261000" lon="8.263533000">
        <ele>325.00000</ele>
        <time>2008-10-19T12:11:45Z</time>
      </trkpt>
      <trkpt lat="48.77261000" lon="8.263571000">
        <ele>325.00000</ele>
        <time>2008-10-19T12:11:45Z</time>
      </trkpt>
      <trkpt lat="48.77261000" lon="8.263602000">
        <ele>325.00000</ele>
        <time>2008-10-19T12:11:45Z</time>
      </trkpt>
      <trkpt lat="48.77260000" lon="8.263635000">
        <ele>325.00000</ele>
        <time>2008-10-19T12:11:45Z</time>
      </trkpt>
      <trkpt lat="48.77260000" lon="8.263664000">
        <ele>325.00000</ele>
        <time>2008-10-19T12:11:45Z</time>
      </trkpt>
      <trkpt lat="48.77260000" lon="8.263692000">
        <ele>325.00000</ele>
        <time>2008-10-19T12:11:45Z</time>
      </trkpt>
      <trkpt lat="48.77260000" lon="8.263714000">
        <ele>325.00000</ele>
        <time>2008-10-19T12:11:45Z</time>
      </trkpt>
      <trkpt lat="48.77260000" lon="8.263747000">
        <ele>325.00000</ele>
        <time>2008-10-19T12:11:45Z</time>
      </trkpt>
      <trkpt lat="48.77261000" lon="8.263782000">
        <ele>327.00000</ele>
        <time>2008-10-19T12:11:45Z</time>
      </trkpt>
      <trkpt lat="48.77260000" lon="8.263817000">
        <ele>327.00000</ele>
        <time>2008-10-19T12:11:45Z</time>
      </trkpt>
      <trkpt lat="48.77260000" lon="8.263848000">
        <ele>327.00000</ele>
        <time>2008-10-19T12:11:45Z</time>
      </trkpt>
      <trkpt lat="48.77259000" lon="8.263879000">
        <ele>327.00000</ele>
        <time>2008-10-19T12:11:45Z</time>
      </trkpt>
      <trkpt lat="48.77260000" lon="8.263916000">
        <ele>327.00000</ele>
        <time>2008-10-19T12:11:45Z</time>
      </trkpt>
      <trkpt lat="48.77258000" lon="8.263947000">
        <ele>327.00000</ele>
        <time>2008-10-19T12:11:45Z</time>
      </trkpt>
      <trkpt lat="48.77257000" lon="8.263981000">
        <ele>327.00000</ele>
        <time>2008-10-19T12:11:45Z</time>
      </trkpt>
      <trkpt lat="48.77256000" lon="8.264011000">
        <ele>327.00000</ele>
        <time>2008-10-19T12:11:45Z</time>
      </trkpt>
      <trkpt lat="48.77255000" lon="8.264047000">
        <ele>327.00000</ele>
        <time>2008-10-19T12:11:45Z</time>
      </trkpt>
      <trkpt lat="48.77254000" lon="8.264090000">
        <ele>327.00000</ele>
        <time>2008-10-19T12:11:45Z</time>
      </trkpt>
      <trkpt lat="48.77253000" lon="8.264127000">
        <ele>327.00000</ele>
        <time>2008-10-19T12:11:45Z</time>
      </trkpt>
      <trkpt lat="48.77254000" lon="8.264156000">
        <ele>327.00000</ele>
        <time>2008-10-19T12:11:45Z</time>
      </trkpt>
      <trkpt lat="48.77254000" lon="8.264188000">
        <ele>327.00000</ele>
        <time>2008-10-19T12:11:45Z</time>
      </trkpt>
      <trkpt lat="48.77253000" lon="8.264225000">
        <ele>327.00000</ele>
        <time>2008-10-19T12:11:45Z</time>
      </trkpt>
      <trkpt lat="48.77253000" lon="8.264253000">
        <ele>327.00000</ele>
        <time>2008-10-19T12:11:45Z</time>
      </trkpt>
      <trkpt lat="48.77253000" lon="8.264279000">
        <ele>327.00000</ele>
        <time>2008-10-19T12:11:45Z</time>
      </trkpt>
      <trkpt lat="48.77255000" lon="8.264319000">
        <ele>327.00000</ele>
        <time>2008-10-19T12:11:45Z</time>
      </trkpt>
      <trkpt lat="48.77254000" lon="8.264349000">
        <ele>327.00000</ele>
        <time>2008-10-19T12:11:45Z</time>
      </trkpt>
      <trkpt lat="48.77254000" lon="8.264376000">
        <ele>327.00000</ele>
        <time>2008-10-19T12:11:45Z</time>
      </trkpt>
      <trkpt lat="48.77255000" lon="8.264413000">
        <ele>327.00000</ele>
        <time>2008-10-19T12:11:45Z</time>
      </trkpt>
      <trkpt lat="48.77255000" lon="8.264445000">
        <ele>327.00000</ele>
        <time>2008-10-19T12:11:45Z</time>
      </trkpt>
      <trkpt lat="48.77256000" lon="8.264472000">
        <ele>327.00000</ele>
        <time>2008-10-19T12:11:45Z</time>
      </trkpt>
      <trkpt lat="48.77257000" lon="8.264509000">
        <ele>327.00000</ele>
        <time>2008-10-19T12:11:45Z</time>
      </trkpt>
      <trkpt lat="48.77258000" lon="8.264546000">
        <ele>327.00000</ele>
        <time>2008-10-19T12:11:45Z</time>
      </trkpt>
      <trkpt lat="48.77259000" lon="8.264578000">
        <ele>327.00000</ele>
        <time>2008-10-19T12:11:45Z</time>
      </trkpt>
      <trkpt lat="48.77259000" lon="8.264601000">
        <ele>334.00000</ele>
        <time>2008-10-19T12:11:45Z</time>
      </trkpt>
      <trkpt lat="48.77259000" lon="8.264632000">
        <ele>334.00000</ele>
        <time>2008-10-19T12:11:45Z</time>
      </trkpt>
      <trkpt lat="48.77258000" lon="8.264659000">
        <ele>334.00000</ele>
        <time>2008-10-19T12:11:45Z</time>
      </trkpt>
      <trkpt lat="48.77260000" lon="8.264688000">
        <ele>334.00000</ele>
        <time>2008-10-19T12:11:45Z</time>
      </trkpt>
      <trkpt lat="48.77260000" lon="8.264718000">
        <ele>334.00000</ele>
        <time>2008-10-19T12:11:45Z</time>
      </trkpt>
      <trkpt lat="48.77259000" lon="8.264747000">
        <ele>334.00000</ele>
        <time>2008-10-19T12:11:45Z</time>
      </trkpt>
      <trkpt lat="48.77259000" lon="8.264770000">
        <ele>334.00000</ele>
        <time>2008-10-19T12:11:45Z</time>
      </trkpt>
      <trkpt lat="48.77259000" lon="8.264803000">
        <ele>334.00000</ele>
        <time>2008-10-19T12:11:45Z</time>
      </trkpt>
      <trkpt lat="48.77260000" lon="8.264833000">
        <ele>334.00000</ele>
        <time>2008-10-19T12:11:45Z</time>
      </trkpt>
      <trkpt lat="48.77261000" lon="8.264868000">
        <ele>334.00000</ele>
        <time>2008-10-19T12:11:45Z</time>
      </trkpt>
      <trkpt lat="48.77262000" lon="8.264894000">
        <ele>334.00000</ele>
        <time>2008-10-19T12:11:45Z</time>
      </trkpt>
      <trkpt lat="48.77262000" lon="8.264926000">
        <ele>334.00000</ele>
        <time>2008-10-19T12:11:45Z</time>
      </trkpt>
      <trkpt lat="48.77262000" lon="8.264962000">
        <ele>334.00000</ele>
        <time>2008-10-19T12:11:45Z</time>
      </trkpt>
      <trkpt lat="48.77262000" lon="8.264999000">
        <ele>334.00000</ele>
        <time>2008-10-19T12:11:45Z</time>
      </trkpt>
      <trkpt lat="48.77261000" lon="8.265035000">
        <ele>334.00000</ele>
        <time>2008-10-19T12:11:45Z</time>
      </trkpt>
      <trkpt lat="48.77261000" lon="8.265065000">
        <ele>334.00000</ele>
        <time>2008-10-19T12:11:45Z</time>
      </trkpt>
      <trkpt lat="48.77260000" lon="8.265092000">
        <ele>334.00000</ele>
        <time>2008-10-19T12:11:45Z</time>
      </trkpt>
      <trkpt lat="48.77260000" lon="8.265121000">
        <ele>334.00000</ele>
        <time>2008-10-19T12:11:45Z</time>
      </trkpt>
      <trkpt lat="48.77261000" lon="8.265158000">
        <ele>334.00000</ele>
        <time>2008-10-19T12:11:45Z</time>
      </trkpt>
      <trkpt lat="48.77260000" lon="8.265185000">
        <ele>334.00000</ele>
        <time>2008-10-19T12:11:45Z</time>
      </trkpt>
      <trkpt lat="48.77260000" lon="8.265212000">
        <ele>334.00000</ele>
        <time>2008-10-19T12:11:45Z</time>
      </trkpt>
      <trkpt lat="48.77260000" lon="8.265245000">
        <ele>334.00000</ele>
        <time>2008-10-19T12:11:45Z</time>
      </trkpt>
      <trkpt lat="48.77260000" lon="8.265276000">
        <ele>334.00000</ele>
        <time>2008-10-19T12:11:45Z</time>
      </trkpt>
      <trkpt lat="48.77259000" lon="8.265312000">
        <ele>334.00000</ele>
        <time>2008-10-19T12:11:45Z</time>
      </trkpt>
      <trkpt lat="48.77258000" lon="8.265347000">
        <ele>334.00000</ele>
        <time>2008-10-19T12:11:45Z</time>
      </trkpt>
      <trkpt lat="48.77259000" lon="8.265377000">
        <ele>334.00000</ele>
        <time>2008-10-19T12:11:45Z</time>
      </trkpt>
      <trkpt lat="48.77260000" lon="8.265410000">
        <ele>334.00000</ele>
        <time>2008-10-19T12:11:45Z</time>
      </trkpt>
      <trkpt lat="48.77260000" lon="8.265441000">
        <ele>340.00000</ele>
        <time>2008-10-19T12:11:45Z</time>
      </trkpt>
      <trkpt lat="48.77260000" lon="8.265477000">
        <ele>340.00000</ele>
        <time>2008-10-19T12:11:45Z</time>
      </trkpt>
      <trkpt lat="48.77259000" lon="8.265511000">
        <ele>340.00000</ele>
        <time>2008-10-19T12:11:45Z</time>
      </trkpt>
      <trkpt lat="48.77259000" lon="8.265538000">
        <ele>340.00000</ele>
        <time>2008-10-19T12:11:45Z</time>
      </trkpt>
      <trkpt lat="48.77259000" lon="8.265567000">
        <ele>340.00000</ele>
        <time>2008-10-19T12:11:45Z</time>
      </trkpt>
      <trkpt lat="48.77259000" lon="8.265597000">
        <ele>340.00000</ele>
        <time>2008-10-19T12:11:45Z</time>
      </trkpt>
      <trkpt lat="48.77259000" lon="8.265630000">
        <ele>340.00000</ele>
        <time>2008-10-19T12:11:45Z</time>
      </trkpt>
      <trkpt lat="48.77258000" lon="8.265658000">
        <ele>340.00000</ele>
        <time>2008-10-19T12:11:45Z</time>
      </trkpt>
      <trkpt lat="48.77258000" lon="8.265689000">
        <ele>340.00000</ele>
        <time>2008-10-19T12:11:45Z</time>
      </trkpt>
      <trkpt lat="48.77258000" lon="8.265722000">
        <ele>340.00000</ele>
        <time>2008-10-19T12:11:45Z</time>
      </trkpt>
      <trkpt lat="48.77259000" lon="8.265757000">
        <ele>340.00000</ele>
        <time>2008-10-19T12:11:45Z</time>
      </trkpt>
      <trkpt lat="48.77260000" lon="8.265793000">
        <ele>340.00000</ele>
        <time>2008-10-19T12:11:45Z</time>
      </trkpt>
      <trkpt lat="48.77260000" lon="8.265827000">
        <ele>340.00000</ele>
        <time>2008-10-19T12:11:45Z</time>
      </trkpt>
      <trkpt lat="48.77259000" lon="8.265859000">
        <ele>340.00000</ele>
        <time>2008-10-19T12:11:45Z</time>
      </trkpt>
      <trkpt lat="48.77258000" lon="8.265890000">
        <ele>340.00000</ele>
        <time>2008-10-19T12:11:45Z</time>
      </trkpt>
      <trkpt lat="48.77258000" lon="8.265921000">
        <ele>340.00000</ele>
        <time>2008-10-19T12:11:45Z</time>
      </trkpt>
      <trkpt lat="48.77258000" lon="8.265949000">
        <ele>340.00000</ele>
        <time>2008-10-19T12:11:45Z</time>
      </trkpt>
      <trkpt lat="48.77259000" lon="8.265983000">
        <ele>340.00000</ele>
        <time>2008-10-19T12:11:45Z</time>
      </trkpt>
      <trkpt lat="48.77260000" lon="8.266014000">
        <ele>340.00000</ele>
        <time>2008-10-19T12:11:45Z</time>
      </trkpt>
      <trkpt lat="48.77261000" lon="8.266047000">
        <ele>340.00000</ele>
        <time>2008-10-19T12:11:45Z</time>
      </trkpt>
      <trkpt lat="48.77262000" lon="8.266080000">
        <ele>340.00000</ele>
        <time>2008-10-19T12:11:45Z</time>
      </trkpt>
      <trkpt lat="48.77263000" lon="8.266109000">
        <ele>340.00000</ele>
        <time>2008-10-19T12:11:45Z</time>
      </trkpt>
      <trkpt lat="48.77264000" lon="8.266134000">
        <ele>340.00000</ele>
        <time>2008-10-19T12:11:45Z</time>
      </trkpt>
      <trkpt lat="48.77265000" lon="8.266166000">
        <ele>340.00000</ele>
        <time>2008-10-19T12:11:45Z</time>
      </trkpt>
      <trkpt lat="48.77266000" lon="8.266206000">
        <ele>340.00000</ele>
        <time>2008-10-19T12:11:45Z</time>
      </trkpt>
      <trkpt lat="48.77267000" lon="8.266244000">
        <ele>340.00000</ele>
        <time>2008-10-19T12:11:45Z</time>
      </trkpt>
      <trkpt lat="48.77268000" lon="8.266273000">
        <ele>335.00000</ele>
        <time>2008-10-19T12:11:45Z</time>
      </trkpt>
      <trkpt lat="48.77269000" lon="8.266300000">
        <ele>335.00000</ele>
        <time>2008-10-19T12:11:45Z</time>
      </trkpt>
      <trkpt lat="48.77271000" lon="8.266321000">
        <ele>335.00000</ele>
        <time>2008-10-19T12:11:45Z</time>
      </trkpt>
      <trkpt lat="48.77271000" lon="8.266336000">
        <ele>335.00000</ele>
        <time>2008-10-19T12:11:45Z</time>
      </trkpt>
      <trkpt lat="48.77272000" lon="8.266358000">
        <ele>335.00000</ele>
        <time>2008-10-19T12:11:45Z</time>
      </trkpt>
      <trkpt lat="48.77274000" lon="8.266377000">
        <ele>335.00000</ele>
        <time>2008-10-19T12:11:45Z</time>
      </trkpt>
      <trkpt lat="48.77277000" lon="8.266393000">
        <ele>335.00000</ele>
        <time>2008-10-19T12:11:45Z</time>
      </trkpt>
      <trkpt lat="48.77278000" lon="8.266412000">
        <ele>335.00000</ele>
        <time>2008-10-19T12:11:45Z</time>
      </trkpt>
      <trkpt lat="48.77278000" lon="8.266434000">
        <ele>335.00000</ele>
        <time>2008-10-19T12:11:45Z</time>
      </trkpt>
      <trkpt lat="48.77279000" lon="8.266456000">
        <ele>335.00000</ele>
        <time>2008-10-19T12:11:45Z</time>
      </trkpt>
      <trkpt lat="48.77279000" lon="8.266476000">
        <ele>335.00000</ele>
        <time>2008-10-19T12:11:45Z</time>
      </trkpt>
      <trkpt lat="48.77279000" lon="8.266503000">
        <ele>335.00000</ele>
        <time>2008-10-19T12:11:45Z</time>
      </trkpt>
      <trkpt lat="48.77280000" lon="8.266524000">
        <ele>335.00000</ele>
        <time>2008-10-19T12:11:45Z</time>
      </trkpt>
      <trkpt lat="48.77282000" lon="8.266543000">
        <ele>335.00000</ele>
        <time>2008-10-19T12:11:45Z</time>
      </trkpt>
      <trkpt lat="48.77283000" lon="8.266567000">
        <ele>335.00000</ele>
        <time>2008-10-19T12:11:45Z</time>
      </trkpt>
      <trkpt lat="48.77283000" lon="8.266590000">
        <ele>335.00000</ele>
        <time>2008-10-19T12:11:45Z</time>
      </trkpt>
      <trkpt lat="48.77285000" lon="8.266613000">
        <ele>335.00000</ele>
        <time>2008-10-19T12:11:45Z</time>
      </trkpt>
      <trkpt lat="48.77286000" lon="8.266634000">
        <ele>335.00000</ele>
        <time>2008-10-19T12:11:45Z</time>
      </trkpt>
      <trkpt lat="48.77288000" lon="8.266656000">
        <ele>335.00000</ele>
        <time>2008-10-19T12:11:45Z</time>
      </trkpt>
      <trkpt lat="48.77290000" lon="8.266685000">
        <ele>335.00000</ele>
        <time>2008-10-19T12:11:45Z</time>
      </trkpt>
      <trkpt lat="48.77291000" lon="8.266711000">
        <ele>335.00000</ele>
        <time>2008-10-19T12:11:45Z</time>
      </trkpt>
      <trkpt lat="48.77290000" lon="8.266740000">
        <ele>335.00000</ele>
        <time>2008-10-19T12:11:45Z</time>
      </trkpt>
      <trkpt lat="48.77292000" lon="8.266775000">
        <ele>373.00000</ele>
        <time>2008-10-19T12:11:45Z</time>
      </trkpt>
      <trkpt lat="48.77293000" lon="8.266807000">
        <ele>373.00000</ele>
        <time>2008-10-19T12:11:45Z</time>
      </trkpt>
      <trkpt lat="48.77294000" lon="8.266835000">
        <ele>373.00000</ele>
        <time>2008-10-19T12:11:45Z</time>
      </trkpt>
      <trkpt lat="48.77294000" lon="8.266866000">
        <ele>373.00000</ele>
        <time>2008-10-19T12:11:45Z</time>
      </trkpt>
      <trkpt lat="48.77295000" lon="8.266891000">
        <ele>373.00000</ele>
        <time>2008-10-19T12:11:45Z</time>
      </trkpt>
      <trkpt lat="48.77295000" lon="8.266920000">
        <ele>373.00000</ele>
        <time>2008-10-19T12:11:45Z</time>
      </trkpt>
      <trkpt lat="48.77295000" lon="8.266937000">
        <ele>373.00000</ele>
        <time>2008-10-19T12:11:45Z</time>
      </trkpt>
      <trkpt lat="48.77295000" lon="8.266952000">
        <ele>373.00000</ele>
        <time>2008-10-19T12:11:45Z</time>
      </trkpt>
      <trkpt lat="48.77296000" lon="8.266977000">
        <ele>373.00000</ele>
        <time>2008-10-19T12:11:45Z</time>
      </trkpt>
      <trkpt lat="48.77296000" lon="8.266997000">
        <ele>373.00000</ele>
        <time>2008-10-19T12:11:45Z</time>
      </trkpt>
      <trkpt lat="48.77297000" lon="8.267016000">
        <ele>373.00000</ele>
        <time>2008-10-19T12:11:45Z</time>
      </trkpt>
      <trkpt lat="48.77298000" lon="8.267031000">
        <ele>373.00000</ele>
        <time>2008-10-19T12:11:45Z</time>
      </trkpt>
      <trkpt lat="48.77300000" lon="8.267049000">
        <ele>373.00000</ele>
        <time>2008-10-19T12:11:45Z</time>
      </trkpt>
      <trkpt lat="48.77302000" lon="8.267073000">
        <ele>373.00000</ele>
        <time>2008-10-19T12:11:45Z</time>
      </trkpt>
      <trkpt lat="48.77304000" lon="8.267100000">
        <ele>368.00000</ele>
        <time>2008-10-19T12:11:45Z</time>
      </trkpt>
      <trkpt lat="48.77307000" lon="8.267131000">
        <ele>368.00000</ele>
        <time>2008-10-19T12:11:45Z</time>
      </trkpt>
      <trkpt lat="48.77307000" lon="8.267158000">
        <ele>368.00000</ele>
        <time>2008-10-19T12:11:45Z</time>
      </trkpt>
      <trkpt lat="48.77309000" lon="8.267185000">
        <ele>368.00000</ele>
        <time>2008-10-19T12:11:45Z</time>
      </trkpt>
      <trkpt lat="48.77307000" lon="8.267200000">
        <ele>368.00000</ele>
        <time>2008-10-19T12:11:45Z</time>
      </trkpt>
      <trkpt lat="48.77307000" lon="8.267219000">
        <ele>368.00000</ele>
        <time>2008-10-19T12:11:45Z</time>
      </trkpt>
      <trkpt lat="48.77306000" lon="8.267245000">
        <ele>368.00000</ele>
        <time>2008-10-19T12:11:45Z</time>
      </trkpt>
      <trkpt lat="48.77306000" lon="8.267282000">
        <ele>368.00000</ele>
        <time>2008-10-19T12:11:45Z</time>
      </trkpt>
      <trkpt lat="48.77306000" lon="8.267315000">
        <ele>368.00000</ele>
        <time>2008-10-19T12:11:45Z</time>
      </trkpt>
      <trkpt lat="48.77306000" lon="8.267346000">
        <ele>368.00000</ele>
        <time>2008-10-19T12:11:45Z</time>
      </trkpt>
      <trkpt lat="48.77306000" lon="8.267368000">
        <ele>368.00000</ele>
        <time>2008-10-19T12:11:45Z</time>
      </trkpt>
      <trkpt lat="48.77307000" lon="8.267391000">
        <ele>368.00000</ele>
        <time>2008-10-19T12:11:45Z</time>
      </trkpt>
      <trkpt lat="48.77308000" lon="8.267412000">
        <ele>368.00000</ele>
        <time>2008-10-19T12:11:45Z</time>
      </trkpt>
      <trkpt lat="48.77307000" lon="8.267434000">
        <ele>368.00000</ele>
        <time>2008-10-19T12:11:45Z</time>
      </trkpt>
      <trkpt lat="48.77306000" lon="8.267453000">
        <ele>368.00000</ele>
        <time>2008-10-19T12:11:45Z</time>
      </trkpt>
      <trkpt lat="48.77306000" lon="8.267478000">
        <ele>368.00000</ele>
        <time>2008-10-19T12:11:45Z</time>
      </trkpt>
      <trkpt lat="48.77307000" lon="8.267505000">
        <ele>368.00000</ele>
        <time>2008-10-19T12:11:45Z</time>
      </trkpt>
      <trkpt lat="48.77308000" lon="8.267535000">
        <ele>368.00000</ele>
        <time>2008-10-19T12:11:45Z</time>
      </trkpt>
      <trkpt lat="48.77310000" lon="8.267564000">
        <ele>368.00000</ele>
        <time>2008-10-19T12:11:45Z</time>
      </trkpt>
      <trkpt lat="48.77310000" lon="8.267592000">
        <ele>368.00000</ele>
        <time>2008-10-19T12:11:45Z</time>
      </trkpt>
      <trkpt lat="48.77312000" lon="8.267621000">
        <ele>368.00000</ele>
        <time>2008-10-19T12:11:45Z</time>
      </trkpt>
      <trkpt lat="48.77312000" lon="8.267650000">
        <ele>368.00000</ele>
        <time>2008-10-19T12:11:45Z</time>
      </trkpt>
      <trkpt lat="48.77312000" lon="8.267680000">
        <ele>368.00000</ele>
        <time>2008-10-19T12:11:45Z</time>
      </trkpt>
      <trkpt lat="48.77312000" lon="8.267704000">
        <ele>368.00000</ele>
        <time>2008-10-19T12:11:45Z</time>
      </trkpt>
      <trkpt lat="48.77312000" lon="8.267729000">
        <ele>368.00000</ele>
        <time>2008-10-19T12:11:45Z</time>
      </trkpt>
      <trkpt lat="48.77313000" lon="8.267760000">
        <ele>368.00000</ele>
        <time>2008-10-19T12:11:45Z</time>
      </trkpt>
      <trkpt lat="48.77314000" lon="8.267796000">
        <ele>368.00000</ele>
        <time>2008-10-19T12:11:45Z</time>
      </trkpt>
      <trkpt lat="48.77316000" lon="8.267824000">
        <ele>368.00000</ele>
        <time>2008-10-19T12:11:45Z</time>
      </trkpt>
      <trkpt lat="48.77317000" lon="8.267854000">
        <ele>368.00000</ele>
        <time>2008-10-19T12:11:45Z</time>
      </trkpt>
      <trkpt lat="48.77317000" lon="8.267883000">
        <ele>368.00000</ele>
        <time>2008-10-19T12:11:45Z</time>
      </trkpt>
      <trkpt lat="48.77317000" lon="8.267900000">
        <ele>368.00000</ele>
        <time>2008-10-19T12:11:45Z</time>
      </trkpt>
      <trkpt lat="48.77318000" lon="8.267922000">
        <ele>357.00000</ele>
        <time>2008-10-19T12:11:45Z</time>
      </trkpt>
      <trkpt lat="48.77320000" lon="8.267955000">
        <ele>357.00000</ele>
        <time>2008-10-19T12:11:45Z</time>
      </trkpt>
      <trkpt lat="48.77322000" lon="8.267987000">
        <ele>357.00000</ele>
        <time>2008-10-19T12:11:45Z</time>
      </trkpt>
      <trkpt lat="48.77325000" lon="8.268014000">
        <ele>357.00000</ele>
        <time>2008-10-19T12:11:45Z</time>
      </trkpt>
      <trkpt lat="48.77327000" lon="8.268036000">
        <ele>357.00000</ele>
        <time>2008-10-19T12:11:45Z</time>
      </trkpt>
      <trkpt lat="48.77329000" lon="8.268060000">
        <ele>357.00000</ele>
        <time>2008-10-19T12:11:45Z</time>
      </trkpt>
      <trkpt lat="48.77330000" lon="8.268080000">
        <ele>357.00000</ele>
        <time>2008-10-19T12:11:45Z</time>
      </trkpt>
      <trkpt lat="48.77330000" lon="8.268105000">
        <ele>357.00000</ele>
        <time>2008-10-19T12:11:45Z</time>
      </trkpt>
      <trkpt lat="48.77331000" lon="8.268129000">
        <ele>357.00000</ele>
        <time>2008-10-19T12:11:45Z</time>
      </trkpt>
      <trkpt lat="48.77331000" lon="8.268149000">
        <ele>357.00000</ele>
        <time>2008-10-19T12:11:45Z</time>
      </trkpt>
      <trkpt lat="48.77332000" lon="8.268172000">
        <ele>357.00000</ele>
        <time>2008-10-19T12:11:45Z</time>
      </trkpt>
      <trkpt lat="48.77332000" lon="8.268191000">
        <ele>357.00000</ele>
        <time>2008-10-19T12:11:45Z</time>
      </trkpt>
      <trkpt lat="48.77332000" lon="8.268215000">
        <ele>357.00000</ele>
        <time>2008-10-19T12:11:45Z</time>
      </trkpt>
      <trkpt lat="48.77332000" lon="8.268243000">
        <ele>357.00000</ele>
        <time>2008-10-19T12:11:45Z</time>
      </trkpt>
      <trkpt lat="48.77332000" lon="8.268264000">
        <ele>357.00000</ele>
        <time>2008-10-19T12:11:45Z</time>
      </trkpt>
      <trkpt lat="48.77332000" lon="8.268280000">
        <ele>357.00000</ele>
        <time>2008-10-19T12:11:45Z</time>
      </trkpt>
      <trkpt lat="48.77332000" lon="8.268300000">
        <ele>357.00000</ele>
        <time>2008-10-19T12:11:45Z</time>
      </trkpt>
      <trkpt lat="48.77334000" lon="8.268327000">
        <ele>357.00000</ele>
        <time>2008-10-19T12:11:45Z</time>
      </trkpt>
      <trkpt lat="48.77335000" lon="8.268353000">
        <ele>357.00000</ele>
        <time>2008-10-19T12:11:45Z</time>
      </trkpt>
      <trkpt lat="48.77338000" lon="8.268383000">
        <ele>357.00000</ele>
        <time>2008-10-19T12:11:45Z</time>
      </trkpt>
      <trkpt lat="48.77340000" lon="8.268414000">
        <ele>357.00000</ele>
        <time>2008-10-19T12:11:45Z</time>
      </trkpt>
      <trkpt lat="48.77343000" lon="8.268446000">
        <ele>357.00000</ele>
        <time>2008-10-19T12:11:45Z</time>
      </trkpt>
      <trkpt lat="48.77347000" lon="8.268472000">
        <ele>357.00000</ele>
        <time>2008-10-19T12:11:45Z</time>
      </trkpt>
      <trkpt lat="48.77348000" lon="8.268496000">
        <ele>357.00000</ele>
        <time>2008-10-19T12:11:45Z</time>
      </trkpt>
      <trkpt lat="48.77346000" lon="8.268528000">
        <ele>357.00000</ele>
        <time>2008-10-19T12:11:45Z</time>
      </trkpt>
      <trkpt lat="48.77344000" lon="8.268562000">
        <ele>357.00000</ele>
        <time>2008-10-19T12:11:45Z</time>
      </trkpt>
      <trkpt lat="48.77343000" lon="8.268597000">
        <ele>357.00000</ele>
        <time>2008-10-19T12:11:45Z</time>
      </trkpt>
      <trkpt lat="48.77344000" lon="8.268627000">
        <ele>357.00000</ele>
        <time>2008-10-19T12:11:45Z</time>
      </trkpt>
      <trkpt lat="48.77344000" lon="8.268665000">
        <ele>357.00000</ele>
        <time>2008-10-19T12:11:45Z</time>
      </trkpt>
      <trkpt lat="48.77344000" lon="8.268704000">
        <ele>357.00000</ele>
        <time>2008-10-19T12:11:45Z</time>
      </trkpt>
      <trkpt lat="48.77343000" lon="8.268748000">
        <ele>357.00000</ele>
        <time>2008-10-19T12:11:45Z</time>
      </trkpt>
      <trkpt lat="48.77341000" lon="8.268785000">
        <ele>358.00000</ele>
        <time>2008-10-19T12:11:45Z</time>
      </trkpt>
      <trkpt lat="48.77341000" lon="8.268826000">
        <ele>358.00000</ele>
        <time>2008-10-19T12:11:45Z</time>
      </trkpt>
      <trkpt lat="48.77341000" lon="8.268850000">
        <ele>358.00000</ele>
        <time>2008-10-19T12:11:45Z</time>
      </trkpt>
      <trkpt lat="48.77340000" lon="8.268878000">
        <ele>358.00000</ele>
        <time>2008-10-19T12:11:45Z</time>
      </trkpt>
      <trkpt lat="48.77338000" lon="8.268917000">
        <ele>358.00000</ele>
        <time>2008-10-19T12:11:45Z</time>
      </trkpt>
      <trkpt lat="48.77338000" lon="8.268949000">
        <ele>358.00000</ele>
        <time>2008-10-19T12:11:45Z</time>
      </trkpt>
      <trkpt lat="48.77338000" lon="8.268978000">
        <ele>358.00000</ele>
        <time>2008-10-19T12:11:45Z</time>
      </trkpt>
      <trkpt lat="48.77338000" lon="8.269008000">
        <ele>358.00000</ele>
        <time>2008-10-19T12:11:45Z</time>
      </trkpt>
      <trkpt lat="48.77336000" lon="8.269048000">
        <ele>358.00000</ele>
        <time>2008-10-19T12:11:45Z</time>
      </trkpt>
      <trkpt lat="48.77335000" lon="8.269078000">
        <ele>358.00000</ele>
        <time>2008-10-19T12:11:45Z</time>
      </trkpt>
      <trkpt lat="48.77334000" lon="8.269111000">
        <ele>358.00000</ele>
        <time>2008-10-19T12:11:45Z</time>
      </trkpt>
      <trkpt lat="48.77335000" lon="8.269140000">
        <ele>358.00000</ele>
        <time>2008-10-19T12:11:45Z</time>
      </trkpt>
      <trkpt lat="48.77336000" lon="8.269173000">
        <ele>358.00000</ele>
        <time>2008-10-19T12:11:45Z</time>
      </trkpt>
      <trkpt lat="48.77337000" lon="8.269202000">
        <ele>358.00000</ele>
        <time>2008-10-19T12:11:45Z</time>
      </trkpt>
      <trkpt lat="48.77337000" lon="8.269235000">
        <ele>358.00000</ele>
        <time>2008-10-19T12:11:45Z</time>
      </trkpt>
      <trkpt lat="48.77337000" lon="8.269263000">
        <ele>358.00000</ele>
        <time>2008-10-19T12:11:45Z</time>
      </trkpt>
      <trkpt lat="48.77336000" lon="8.269291000">
        <ele>358.00000</ele>
        <time>2008-10-19T12:11:45Z</time>
      </trkpt>
      <trkpt lat="48.77335000" lon="8.269323000">
        <ele>358.00000</ele>
        <time>2008-10-19T12:11:45Z</time>
      </trkpt>
      <trkpt lat="48.77335000" lon="8.269349000">
        <ele>358.00000</ele>
        <time>2008-10-19T12:11:45Z</time>
      </trkpt>
      <trkpt lat="48.77335000" lon="8.269377000">
        <ele>358.00000</ele>
        <time>2008-10-19T12:11:45Z</time>
      </trkpt>
      <trkpt lat="48.77334000" lon="8.269407000">
        <ele>358.00000</ele>
        <time>2008-10-19T12:11:45Z</time>
      </trkpt>
      <trkpt lat="48.77334000" lon="8.269444000">
        <ele>358.00000</ele>
        <time>2008-10-19T12:11:45Z</time>
      </trkpt>
      <trkpt lat="48.77333000" lon="8.269476000">
        <ele>358.00000</ele>
        <time>2008-10-19T12:11:45Z</time>
      </trkpt>
      <trkpt lat="48.77333000" lon="8.269507000">
        <ele>358.00000</ele>
        <time>2008-10-19T12:11:45Z</time>
      </trkpt>
      <trkpt lat="48.77332000" lon="8.269535000">
        <ele>358.00000</ele>
        <time>2008-10-19T12:11:45Z</time>
      </trkpt>
      <trkpt lat="48.77332000" lon="8.269560000">
        <ele>358.00000</ele>
        <time>2008-10-19T12:11:45Z</time>
      </trkpt>
      <trkpt lat="48.77332000" lon="8.269583000">
        <ele>358.00000</ele>
        <time>2008-10-19T12:11:45Z</time>
      </trkpt>
      <trkpt lat="48.77334000" lon="8.269622000">
        <ele>358.00000</ele>
        <time>2008-10-19T12:11:45Z</time>
      </trkpt>
      <trkpt lat="48.77335000" lon="8.269657000">
        <ele>358.00000</ele>
        <time>2008-10-19T12:11:45Z</time>
      </trkpt>
      <trkpt lat="48.77335000" lon="8.269685000">
        <ele>358.00000</ele>
        <time>2008-10-19T12:11:45Z</time>
      </trkpt>
      <trkpt lat="48.77336000" lon="8.269713000">
        <ele>358.00000</ele>
        <time>2008-10-19T12:11:45Z</time>
      </trkpt>
      <trkpt lat="48.77337000" lon="8.269738000">
        <ele>358.00000</ele>
        <time>2008-10-19T12:11:45Z</time>
      </trkpt>
      <trkpt lat="48.77337000" lon="8.269765000">
        <ele>358.00000</ele>
        <time>2008-10-19T12:11:45Z</time>
      </trkpt>
      <trkpt lat="48.77338000" lon="8.269795000">
        <ele>358.00000</ele>
        <time>2008-10-19T12:11:45Z</time>
      </trkpt>
      <trkpt lat="48.77338000" lon="8.269835000">
        <ele>358.00000</ele>
        <time>2008-10-19T12:11:45Z</time>
      </trkpt>
      <trkpt lat="48.77338000" lon="8.269872000">
        <ele>358.00000</ele>
        <time>2008-10-19T12:11:45Z</time>
      </trkpt>
      <trkpt lat="48.77339000" lon="8.269898000">
        <ele>358.00000</ele>
        <time>2008-10-19T12:11:45Z</time>
      </trkpt>
      <trkpt lat="48.77340000" lon="8.269924000">
        <ele>358.00000</ele>
        <time>2008-10-19T12:11:45Z</time>
      </trkpt>
      <trkpt lat="48.77341000" lon="8.269946000">
        <ele>358.00000</ele>
        <time>2008-10-19T12:11:45Z</time>
      </trkpt>
      <trkpt lat="48.77343000" lon="8.269965000">
        <ele>358.00000</ele>
        <time>2008-10-19T12:11:45Z</time>
      </trkpt>
      <trkpt lat="48.77344000" lon="8.269992000">
        <ele>358.00000</ele>
        <time>2008-10-19T12:11:45Z</time>
      </trkpt>
      <trkpt lat="48.77346000" lon="8.270020000">
        <ele>358.00000</ele>
        <time>2008-10-19T12:11:45Z</time>
      </trkpt>
      <trkpt lat="48.77347000" lon="8.270043000">
        <ele>358.00000</ele>
        <time>2008-10-19T12:11:45Z</time>
      </trkpt>
      <trkpt lat="48.77348000" lon="8.270067000">
        <ele>358.00000</ele>
        <time>2008-10-19T12:11:45Z</time>
      </trkpt>
      <trkpt lat="48.77349000" lon="8.270088000">
        <ele>358.00000</ele>
        <time>2008-10-19T12:11:45Z</time>
      </trkpt>
      <trkpt lat="48.77350000" lon="8.270105000">
        <ele>358.00000</ele>
        <time>2008-10-19T12:11:45Z</time>
      </trkpt>
      <trkpt lat="48.77349000" lon="8.270124000">
        <ele>358.00000</ele>
        <time>2008-10-19T12:11:45Z</time>
      </trkpt>
      <trkpt lat="48.77349000" lon="8.270145000">
        <ele>358.00000</ele>
        <time>2008-10-19T12:11:45Z</time>
      </trkpt>
      <trkpt lat="48.77349000" lon="8.270170000">
        <ele>358.00000</ele>
        <time>2008-10-19T12:11:45Z</time>
      </trkpt>
      <trkpt lat="48.77348000" lon="8.270193000">
        <ele>358.00000</ele>
        <time>2008-10-19T12:11:45Z</time>
      </trkpt>
      <trkpt lat="48.77348000" lon="8.270217000">
        <ele>358.00000</ele>
        <time>2008-10-19T12:11:45Z</time>
      </trkpt>
      <trkpt lat="48.77348000" lon="8.270241000">
        <ele>358.00000</ele>
        <time>2008-10-19T12:11:45Z</time>
      </trkpt>
      <trkpt lat="48.77348000" lon="8.270263000">
        <ele>358.00000</ele>
        <time>2008-10-19T12:11:45Z</time>
      </trkpt>
      <trkpt lat="48.77347000" lon="8.270285000">
        <ele>358.00000</ele>
        <time>2008-10-19T12:11:45Z</time>
      </trkpt>
      <trkpt lat="48.77348000" lon="8.270307000">
        <ele>358.00000</ele>
        <time>2008-10-19T12:11:45Z</time>
      </trkpt>
      <trkpt lat="48.77348000" lon="8.270331000">
        <ele>358.00000</ele>
        <time>2008-10-19T12:11:45Z</time>
      </trkpt>
      <trkpt lat="48.77349000" lon="8.270359000">
        <ele>358.00000</ele>
        <time>2008-10-19T12:11:45Z</time>
      </trkpt>
      <trkpt lat="48.77351000" lon="8.270389000">
        <ele>358.00000</ele>
        <time>2008-10-19T12:11:45Z</time>
      </trkpt>
      <trkpt lat="48.77351000" lon="8.270417000">
        <ele>357.00000</ele>
        <time>2008-10-19T12:11:45Z</time>
      </trkpt>
      <trkpt lat="48.77351000" lon="8.270449000">
        <ele>357.00000</ele>
        <time>2008-10-19T12:11:45Z</time>
      </trkpt>
      <trkpt lat="48.77352000" lon="8.270479000">
        <ele>357.00000</ele>
        <time>2008-10-19T12:11:45Z</time>
      </trkpt>
      <trkpt lat="48.77352000" lon="8.270510000">
        <ele>357.00000</ele>
        <time>2008-10-19T12:11:45Z</time>
      </trkpt>
      <trkpt lat="48.77352000" lon="8.270542000">
        <ele>357.00000</ele>
        <time>2008-10-19T12:11:45Z</time>
      </trkpt>
      <trkpt lat="48.77353000" lon="8.270570000">
        <ele>357.00000</ele>
        <time>2008-10-19T12:11:45Z</time>
      </trkpt>
      <trkpt lat="48.77352000" lon="8.270596000">
        <ele>357.00000</ele>
        <time>2008-10-19T12:11:45Z</time>
      </trkpt>
      <trkpt lat="48.77352000" lon="8.270617000">
        <ele>357.00000</ele>
        <time>2008-10-19T12:11:45Z</time>
      </trkpt>
      <trkpt lat="48.77351000" lon="8.270643000">
        <ele>357.00000</ele>
        <time>2008-10-19T12:11:45Z</time>
      </trkpt>
      <trkpt lat="48.77351000" lon="8.270675000">
        <ele>357.00000</ele>
        <time>2008-10-19T12:11:45Z</time>
      </trkpt>
      <trkpt lat="48.77351000" lon="8.270700000">
        <ele>357.00000</ele>
        <time>2008-10-19T12:11:45Z</time>
      </trkpt>
      <trkpt lat="48.77351000" lon="8.270727000">
        <ele>357.00000</ele>
        <time>2008-10-19T12:11:45Z</time>
      </trkpt>
      <trkpt lat="48.77352000" lon="8.270753000">
        <ele>357.00000</ele>
        <time>2008-10-19T12:11:45Z</time>
      </trkpt>
      <trkpt lat="48.77352000" lon="8.270781000">
        <ele>357.00000</ele>
        <time>2008-10-19T12:11:45Z</time>
      </trkpt>
      <trkpt lat="48.77352000" lon="8.270811000">
        <ele>357.00000</ele>
        <time>2008-10-19T12:11:45Z</time>
      </trkpt>
      <trkpt lat="48.77351000" lon="8.270847000">
        <ele>357.00000</ele>
        <time>2008-10-19T12:11:45Z</time>
      </trkpt>
      <trkpt lat="48.77351000" lon="8.270877000">
        <ele>357.00000</ele>
        <time>2008-10-19T12:11:45Z</time>
      </trkpt>
      <trkpt lat="48.77351000" lon="8.270904000">
        <ele>357.00000</ele>
        <time>2008-10-19T12:11:45Z</time>
      </trkpt>
      <trkpt lat="48.77351000" lon="8.270928000">
        <ele>357.00000</ele>
        <time>2008-10-19T12:11:45Z</time>
      </trkpt>
      <trkpt lat="48.77351000" lon="8.270957000">
        <ele>357.00000</ele>
        <time>2008-10-19T12:11:45Z</time>
      </trkpt>
      <trkpt lat="48.77351000" lon="8.270984000">
        <ele>357.00000</ele>
        <time>2008-10-19T12:11:45Z</time>
      </trkpt>
      <trkpt lat="48.77351000" lon="8.271021000">
        <ele>357.00000</ele>
        <time>2008-10-19T12:11:45Z</time>
      </trkpt>
      <trkpt lat="48.77351000" lon="8.271064000">
        <ele>357.00000</ele>
        <time>2008-10-19T12:11:45Z</time>
      </trkpt>
      <trkpt lat="48.77351000" lon="8.271105000">
        <ele>357.00000</ele>
        <time>2008-10-19T12:11:45Z</time>
      </trkpt>
      <trkpt lat="48.77351000" lon="8.271144000">
        <ele>357.00000</ele>
        <time>2008-10-19T12:11:45Z</time>
      </trkpt>
      <trkpt lat="48.77351000" lon="8.271182000">
        <ele>357.00000</ele>
        <time>2008-10-19T12:11:45Z</time>
      </trkpt>
      <trkpt lat="48.77351000" lon="8.271214000">
        <ele>357.00000</ele>
        <time>2008-10-19T12:11:45Z</time>
      </trkpt>
      <trkpt lat="48.77351000" lon="8.271246000">
        <ele>357.00000</ele>
        <time>2008-10-19T12:11:45Z</time>
      </trkpt>
      <trkpt lat="48.77350000" lon="8.271274000">
        <ele>358.00000</ele>
        <time>2008-10-19T12:11:45Z</time>
      </trkpt>
      <trkpt lat="48.77349000" lon="8.271304000">
        <ele>358.00000</ele>
        <time>2008-10-19T12:11:45Z</time>
      </trkpt>
      <trkpt lat="48.77348000" lon="8.271334000">
        <ele>358.00000</ele>
        <time>2008-10-19T12:11:45Z</time>
      </trkpt>
      <trkpt lat="48.77348000" lon="8.271371000">
        <ele>358.00000</ele>
        <time>2008-10-19T12:11:45Z</time>
      </trkpt>
      <trkpt lat="48.77348000" lon="8.271413000">
        <ele>358.00000</ele>
        <time>2008-10-19T12:11:45Z</time>
      </trkpt>
      <trkpt lat="48.77348000" lon="8.271443000">
        <ele>358.00000</ele>
        <time>2008-10-19T12:11:45Z</time>
      </trkpt>
      <trkpt lat="48.77348000" lon="8.271475000">
        <ele>358.00000</ele>
        <time>2008-10-19T12:11:45Z</time>
      </trkpt>
      <trkpt lat="48.77348000" lon="8.271511000">
        <ele>358.00000</ele>
        <time>2008-10-19T12:11:45Z</time>
      </trkpt>
      <trkpt lat="48.77348000" lon="8.271543000">
        <ele>358.00000</ele>
        <time>2008-10-19T12:11:45Z</time>
      </trkpt>
      <trkpt lat="48.77349000" lon="8.271577000">
        <ele>358.00000</ele>
        <time>2008-10-19T12:11:45Z</time>
      </trkpt>
      <trkpt lat="48.77349000" lon="8.271610000">
        <ele>358.00000</ele>
        <time>2008-10-19T12:11:45Z</time>
      </trkpt>
      <trkpt lat="48.77348000" lon="8.271641000">
        <ele>358.00000</ele>
        <time>2008-10-19T12:11:45Z</time>
      </trkpt>
      <trkpt lat="48.77349000" lon="8.271671000">
        <ele>358.00000</ele>
        <time>2008-10-19T12:11:45Z</time>
      </trkpt>
      <trkpt lat="48.77348000" lon="8.271702000">
        <ele>358.00000</ele>
        <time>2008-10-19T12:11:45Z</time>
      </trkpt>
      <trkpt lat="48.77348000" lon="8.271730000">
        <ele>358.00000</ele>
        <time>2008-10-19T12:11:45Z</time>
      </trkpt>
      <trkpt lat="48.77349000" lon="8.271768000">
        <ele>358.00000</ele>
        <time>2008-10-19T12:11:45Z</time>
      </trkpt>
      <trkpt lat="48.77350000" lon="8.271808000">
        <ele>358.00000</ele>
        <time>2008-10-19T12:11:45Z</time>
      </trkpt>
      <trkpt lat="48.77351000" lon="8.271849000">
        <ele>358.00000</ele>
        <time>2008-10-19T12:11:45Z</time>
      </trkpt>
      <trkpt lat="48.77351000" lon="8.271876000">
        <ele>358.00000</ele>
        <time>2008-10-19T12:11:45Z</time>
      </trkpt>
      <trkpt lat="48.77351000" lon="8.271906000">
        <ele>358.00000</ele>
        <time>2008-10-19T12:11:45Z</time>
      </trkpt>
      <trkpt lat="48.77350000" lon="8.271936000">
        <ele>358.00000</ele>
        <time>2008-10-19T12:11:45Z</time>
      </trkpt>
      <trkpt lat="48.77349000" lon="8.271959000">
        <ele>358.00000</ele>
        <time>2008-10-19T12:11:45Z</time>
      </trkpt>
      <trkpt lat="48.77349000" lon="8.271984000">
        <ele>358.00000</ele>
        <time>2008-10-19T12:11:45Z</time>
      </trkpt>
      <trkpt lat="48.77349000" lon="8.272018000">
        <ele>358.00000</ele>
        <time>2008-10-19T12:11:45Z</time>
      </trkpt>
      <trkpt lat="48.77349000" lon="8.272046000">
        <ele>358.00000</ele>
        <time>2008-10-19T12:11:45Z</time>
      </trkpt>
      <trkpt lat="48.77348000" lon="8.272077000">
        <ele>358.00000</ele>
        <time>2008-10-19T12:11:45Z</time>
      </trkpt>
      <trkpt lat="48.77347000" lon="8.272105000">
        <ele>360.00000</ele>
        <time>2008-10-19T12:11:45Z</time>
      </trkpt>
      <trkpt lat="48.77346000" lon="8.272127000">
        <ele>360.00000</ele>
        <time>2008-10-19T12:11:45Z</time>
      </trkpt>
      <trkpt lat="48.77345000" lon="8.272157000">
        <ele>360.00000</ele>
        <time>2008-10-19T12:11:45Z</time>
      </trkpt>
      <trkpt lat="48.77345000" lon="8.272188000">
        <ele>360.00000</ele>
        <time>2008-10-19T12:11:45Z</time>
      </trkpt>
      <trkpt lat="48.77345000" lon="8.272223000">
        <ele>360.00000</ele>
        <time>2008-10-19T12:11:45Z</time>
      </trkpt>
      <trkpt lat="48.77345000" lon="8.272250000">
        <ele>360.00000</ele>
        <time>2008-10-19T12:11:45Z</time>
      </trkpt>
      <trkpt lat="48.77345000" lon="8.272280000">
        <ele>360.00000</ele>
        <time>2008-10-19T12:11:45Z</time>
      </trkpt>
      <trkpt lat="48.77345000" lon="8.272305000">
        <ele>360.00000</ele>
        <time>2008-10-19T12:11:45Z</time>
      </trkpt>
      <trkpt lat="48.77345000" lon="8.272335000">
        <ele>360.00000</ele>
        <time>2008-10-19T12:11:45Z</time>
      </trkpt>
      <trkpt lat="48.77344000" lon="8.272368000">
        <ele>360.00000</ele>
        <time>2008-10-19T12:11:45Z</time>
      </trkpt>
      <trkpt lat="48.77345000" lon="8.272413000">
        <ele>360.00000</ele>
        <time>2008-10-19T12:11:45Z</time>
      </trkpt>
      <trkpt lat="48.77345000" lon="8.272447000">
        <ele>360.00000</ele>
        <time>2008-10-19T12:11:45Z</time>
      </trkpt>
      <trkpt lat="48.77344000" lon="8.272480000">
        <ele>360.00000</ele>
        <time>2008-10-19T12:11:45Z</time>
      </trkpt>
      <trkpt lat="48.77344000" lon="8.272514000">
        <ele>360.00000</ele>
        <time>2008-10-19T12:11:45Z</time>
      </trkpt>
      <trkpt lat="48.77344000" lon="8.272552000">
        <ele>360.00000</ele>
        <time>2008-10-19T12:11:45Z</time>
      </trkpt>
      <trkpt lat="48.77344000" lon="8.272587000">
        <ele>360.00000</ele>
        <time>2008-10-19T12:11:45Z</time>
      </trkpt>
      <trkpt lat="48.77343000" lon="8.272617000">
        <ele>360.00000</ele>
        <time>2008-10-19T12:11:45Z</time>
      </trkpt>
      <trkpt lat="48.77343000" lon="8.272650000">
        <ele>360.00000</ele>
        <time>2008-10-19T12:11:45Z</time>
      </trkpt>
      <trkpt lat="48.77342000" lon="8.272682000">
        <ele>360.00000</ele>
        <time>2008-10-19T12:11:45Z</time>
      </trkpt>
      <trkpt lat="48.77342000" lon="8.272712000">
        <ele>360.00000</ele>
        <time>2008-10-19T12:11:45Z</time>
      </trkpt>
      <trkpt lat="48.77342000" lon="8.272745000">
        <ele>360.00000</ele>
        <time>2008-10-19T12:11:45Z</time>
      </trkpt>
      <trkpt lat="48.77343000" lon="8.272776000">
        <ele>360.00000</ele>
        <time>2008-10-19T12:11:45Z</time>
      </trkpt>
      <trkpt lat="48.77343000" lon="8.272809000">
        <ele>360.00000</ele>
        <time>2008-10-19T12:11:45Z</time>
      </trkpt>
      <trkpt lat="48.77343000" lon="8.272845000">
        <ele>360.00000</ele>
        <time>2008-10-19T12:11:45Z</time>
      </trkpt>
      <trkpt lat="48.77342000" lon="8.272876000">
        <ele>360.00000</ele>
        <time>2008-10-19T12:11:45Z</time>
      </trkpt>
      <trkpt lat="48.77343000" lon="8.272902000">
        <ele>360.00000</ele>
        <time>2008-10-19T12:11:45Z</time>
      </trkpt>
      <trkpt lat="48.77344000" lon="8.272930000">
        <ele>363.00000</ele>
        <time>2008-10-19T12:11:45Z</time>
      </trkpt>
      <trkpt lat="48.77344000" lon="8.272956000">
        <ele>363.00000</ele>
        <time>2008-10-19T12:11:45Z</time>
      </trkpt>
      <trkpt lat="48.77344000" lon="8.272983000">
        <ele>363.00000</ele>
        <time>2008-10-19T12:11:45Z</time>
      </trkpt>
      <trkpt lat="48.77344000" lon="8.273009000">
        <ele>363.00000</ele>
        <time>2008-10-19T12:11:45Z</time>
      </trkpt>
      <trkpt lat="48.77344000" lon="8.273032000">
        <ele>363.00000</ele>
        <time>2008-10-19T12:11:45Z</time>
      </trkpt>
      <trkpt lat="48.77343000" lon="8.273060000">
        <ele>363.00000</ele>
        <time>2008-10-19T12:11:45Z</time>
      </trkpt>
      <trkpt lat="48.77345000" lon="8.273095000">
        <ele>363.00000</ele>
        <time>2008-10-19T12:11:45Z</time>
      </trkpt>
      <trkpt lat="48.77346000" lon="8.273132000">
        <ele>363.00000</ele>
        <time>2008-10-19T12:11:45Z</time>
      </trkpt>
      <trkpt lat="48.77347000" lon="8.273166000">
        <ele>363.00000</ele>
        <time>2008-10-19T12:11:45Z</time>
      </trkpt>
      <trkpt lat="48.77348000" lon="8.273197000">
        <ele>363.00000</ele>
        <time>2008-10-19T12:11:45Z</time>
      </trkpt>
      <trkpt lat="48.77348000" lon="8.273225000">
        <ele>363.00000</ele>
        <time>2008-10-19T12:11:45Z</time>
      </trkpt>
      <trkpt lat="48.77349000" lon="8.273253000">
        <ele>363.00000</ele>
        <time>2008-10-19T12:11:45Z</time>
      </trkpt>
      <trkpt lat="48.77349000" lon="8.273287000">
        <ele>363.00000</ele>
        <time>2008-10-19T12:11:45Z</time>
      </trkpt>
      <trkpt lat="48.77350000" lon="8.273322000">
        <ele>363.00000</ele>
        <time>2008-10-19T12:11:45Z</time>
      </trkpt>
      <trkpt lat="48.77351000" lon="8.273355000">
        <ele>363.00000</ele>
        <time>2008-10-19T12:11:45Z</time>
      </trkpt>
      <trkpt lat="48.77350000" lon="8.273386000">
        <ele>363.00000</ele>
        <time>2008-10-19T12:11:45Z</time>
      </trkpt>
      <trkpt lat="48.77350000" lon="8.273416000">
        <ele>363.00000</ele>
        <time>2008-10-19T12:11:45Z</time>
      </trkpt>
      <trkpt lat="48.77350000" lon="8.273449000">
        <ele>363.00000</ele>
        <time>2008-10-19T12:11:45Z</time>
      </trkpt>
      <trkpt lat="48.77350000" lon="8.273482000">
        <ele>363.00000</ele>
        <time>2008-10-19T12:11:45Z</time>
      </trkpt>
      <trkpt lat="48.77351000" lon="8.273518000">
        <ele>363.00000</ele>
        <time>2008-10-19T12:11:45Z</time>
      </trkpt>
      <trkpt lat="48.77351000" lon="8.273548000">
        <ele>363.00000</ele>
        <time>2008-10-19T12:11:45Z</time>
      </trkpt>
      <trkpt lat="48.77350000" lon="8.273576000">
        <ele>363.00000</ele>
        <time>2008-10-19T12:11:45Z</time>
      </trkpt>
      <trkpt lat="48.77352000" lon="8.273612000">
        <ele>363.00000</ele>
        <time>2008-10-19T12:11:45Z</time>
      </trkpt>
      <trkpt lat="48.77354000" lon="8.273653000">
        <ele>363.00000</ele>
        <time>2008-10-19T12:11:45Z</time>
      </trkpt>
      <trkpt lat="48.77354000" lon="8.273685000">
        <ele>363.00000</ele>
        <time>2008-10-19T12:11:45Z</time>
      </trkpt>
      <trkpt lat="48.77356000" lon="8.273727000">
        <ele>363.00000</ele>
        <time>2008-10-19T12:11:45Z</time>
      </trkpt>
      <trkpt lat="48.77358000" lon="8.273768000">
        <ele>369.00000</ele>
        <time>2008-10-19T12:11:45Z</time>
      </trkpt>
      <trkpt lat="48.77358000" lon="8.273800000">
        <ele>369.00000</ele>
        <time>2008-10-19T12:11:45Z</time>
      </trkpt>
      <trkpt lat="48.77359000" lon="8.273829000">
        <ele>369.00000</ele>
        <time>2008-10-19T12:11:45Z</time>
      </trkpt>
      <trkpt lat="48.77359000" lon="8.273860000">
        <ele>369.00000</ele>
        <time>2008-10-19T12:11:45Z</time>
      </trkpt>
      <trkpt lat="48.77359000" lon="8.273889000">
        <ele>369.00000</ele>
        <time>2008-10-19T12:11:45Z</time>
      </trkpt>
      <trkpt lat="48.77359000" lon="8.273921000">
        <ele>369.00000</ele>
        <time>2008-10-19T12:11:45Z</time>
      </trkpt>
      <trkpt lat="48.77359000" lon="8.273955000">
        <ele>369.00000</ele>
        <time>2008-10-19T12:11:45Z</time>
      </trkpt>
      <trkpt lat="48.77359000" lon="8.273985000">
        <ele>369.00000</ele>
        <time>2008-10-19T12:11:45Z</time>
      </trkpt>
      <trkpt lat="48.77359000" lon="8.274009000">
        <ele>369.00000</ele>
        <time>2008-10-19T12:11:45Z</time>
      </trkpt>
      <trkpt lat="48.77359000" lon="8.274033000">
        <ele>369.00000</ele>
        <time>2008-10-19T12:11:45Z</time>
      </trkpt>
      <trkpt lat="48.77359000" lon="8.274061000">
        <ele>369.00000</ele>
        <time>2008-10-19T12:11:45Z</time>
      </trkpt>
      <trkpt lat="48.77359000" lon="8.274093000">
        <ele>369.00000</ele>
        <time>2008-10-19T12:11:45Z</time>
      </trkpt>
      <trkpt lat="48.77360000" lon="8.274124000">
        <ele>369.00000</ele>
        <time>2008-10-19T12:11:45Z</time>
      </trkpt>
      <trkpt lat="48.77360000" lon="8.274153000">
        <ele>369.00000</ele>
        <time>2008-10-19T12:11:45Z</time>
      </trkpt>
      <trkpt lat="48.77359000" lon="8.274179000">
        <ele>369.00000</ele>
        <time>2008-10-19T12:11:45Z</time>
      </trkpt>
      <trkpt lat="48.77359000" lon="8.274208000">
        <ele>369.00000</ele>
        <time>2008-10-19T12:11:45Z</time>
      </trkpt>
      <trkpt lat="48.77360000" lon="8.274240000">
        <ele>369.00000</ele>
        <time>2008-10-19T12:11:45Z</time>
      </trkpt>
      <trkpt lat="48.77361000" lon="8.274269000">
        <ele>369.00000</ele>
        <time>2008-10-19T12:11:45Z</time>
      </trkpt>
      <trkpt lat="48.77361000" lon="8.274296000">
        <ele>369.00000</ele>
        <time>2008-10-19T12:11:45Z</time>
      </trkpt>
      <trkpt lat="48.77362000" lon="8.274323000">
        <ele>369.00000</ele>
        <time>2008-10-19T12:11:45Z</time>
      </trkpt>
      <trkpt lat="48.77362000" lon="8.274349000">
        <ele>369.00000</ele>
        <time>2008-10-19T12:11:45Z</time>
      </trkpt>
      <trkpt lat="48.77362000" lon="8.274378000">
        <ele>369.00000</ele>
        <time>2008-10-19T12:11:45Z</time>
      </trkpt>
      <trkpt lat="48.77362000" lon="8.274405000">
        <ele>369.00000</ele>
        <time>2008-10-19T12:11:45Z</time>
      </trkpt>
      <trkpt lat="48.77362000" lon="8.274430000">
        <ele>369.00000</ele>
        <time>2008-10-19T12:11:45Z</time>
      </trkpt>
      <trkpt lat="48.77362000" lon="8.274456000">
        <ele>369.00000</ele>
        <time>2008-10-19T12:11:45Z</time>
      </trkpt>
      <trkpt lat="48.77362000" lon="8.274482000">
        <ele>369.00000</ele>
        <time>2008-10-19T12:11:45Z</time>
      </trkpt>
      <trkpt lat="48.77362000" lon="8.274508000">
        <ele>369.00000</ele>
        <time>2008-10-19T12:11:45Z</time>
      </trkpt>
      <trkpt lat="48.77361000" lon="8.274533000">
        <ele>369.00000</ele>
        <time>2008-10-19T12:11:45Z</time>
      </trkpt>
      <trkpt lat="48.77361000" lon="8.274556000">
        <ele>369.00000</ele>
        <time>2008-10-19T12:11:45Z</time>
      </trkpt>
      <trkpt lat="48.77361000" lon="8.274584000">
        <ele>373.00000</ele>
        <time>2008-10-19T12:11:45Z</time>
      </trkpt>
      <trkpt lat="48.77361000" lon="8.274615000">
        <ele>373.00000</ele>
        <time>2008-10-19T12:11:45Z</time>
      </trkpt>
      <trkpt lat="48.77362000" lon="8.274648000">
        <ele>373.00000</ele>
        <time>2008-10-19T12:11:45Z</time>
      </trkpt>
      <trkpt lat="48.77363000" lon="8.274674000">
        <ele>373.00000</ele>
        <time>2008-10-19T12:11:45Z</time>
      </trkpt>
      <trkpt lat="48.77364000" lon="8.274703000">
        <ele>373.00000</ele>
        <time>2008-10-19T12:11:45Z</time>
      </trkpt>
      <trkpt lat="48.77364000" lon="8.274735000">
        <ele>373.00000</ele>
        <time>2008-10-19T12:11:45Z</time>
      </trkpt>
      <trkpt lat="48.77365000" lon="8.274765000">
        <ele>373.00000</ele>
        <time>2008-10-19T12:11:45Z</time>
      </trkpt>
      <trkpt lat="48.77367000" lon="8.274794000">
        <ele>373.00000</ele>
        <time>2008-10-19T12:11:45Z</time>
      </trkpt>
      <trkpt lat="48.77369000" lon="8.274817000">
        <ele>373.00000</ele>
        <time>2008-10-19T12:11:45Z</time>
      </trkpt>
      <trkpt lat="48.77370000" lon="8.274829000">
        <ele>373.00000</ele>
        <time>2008-10-19T12:11:45Z</time>
      </trkpt>
      <trkpt lat="48.77370000" lon="8.274830000">
        <ele>373.00000</ele>
        <time>2008-10-19T12:11:45Z</time>
      </trkpt>
      <trkpt lat="48.77371000" lon="8.274817000">
        <ele>373.00000</ele>
        <time>2008-10-19T12:11:45Z</time>
      </trkpt>
      <trkpt lat="48.77371000" lon="8.274798000">
        <ele>373.00000</ele>
        <time>2008-10-19T12:11:45Z</time>
      </trkpt>
      <trkpt lat="48.77370000" lon="8.274776000">
        <ele>373.00000</ele>
        <time>2008-10-19T12:11:45Z</time>
      </trkpt>
      <trkpt lat="48.77370000" lon="8.274743000">
        <ele>373.00000</ele>
        <time>2008-10-19T12:11:45Z</time>
      </trkpt>
      <trkpt lat="48.77370000" lon="8.274711000">
        <ele>373.00000</ele>
        <time>2008-10-19T12:11:45Z</time>
      </trkpt>
      <trkpt lat="48.77370000" lon="8.274688000">
        <ele>373.00000</ele>
        <time>2008-10-19T12:11:45Z</time>
      </trkpt>
      <trkpt lat="48.77370000" lon="8.274666000">
        <ele>373.00000</ele>
        <time>2008-10-19T12:11:45Z</time>
      </trkpt>
      <trkpt lat="48.77370000" lon="8.274644000">
        <ele>373.00000</ele>
        <time>2008-10-19T12:11:45Z</time>
      </trkpt>
      <trkpt lat="48.77370000" lon="8.274622000">
        <ele>373.00000</ele>
        <time>2008-10-19T12:11:45Z</time>
      </trkpt>
      <trkpt lat="48.77371000" lon="8.274600000">
        <ele>373.00000</ele>
        <time>2008-10-19T12:11:45Z</time>
      </trkpt>
      <trkpt lat="48.77371000" lon="8.274577000">
        <ele>369.00000</ele>
        <time>2008-10-19T12:11:45Z</time>
      </trkpt>
      <trkpt lat="48.77371000" lon="8.274545000">
        <ele>369.00000</ele>
        <time>2008-10-19T12:11:45Z</time>
      </trkpt>
      <trkpt lat="48.77371000" lon="8.274508000">
        <ele>369.00000</ele>
        <time>2008-10-19T12:11:45Z</time>
      </trkpt>
      <trkpt lat="48.77371000" lon="8.274479000">
        <ele>369.00000</ele>
        <time>2008-10-19T12:11:45Z</time>
      </trkpt>
      <trkpt lat="48.77371000" lon="8.274452000">
        <ele>369.00000</ele>
        <time>2008-10-19T12:11:45Z</time>
      </trkpt>
      <trkpt lat="48.77371000" lon="8.274429000">
        <ele>369.00000</ele>
        <time>2008-10-19T12:11:45Z</time>
      </trkpt>
      <trkpt lat="48.77371000" lon="8.274408000">
        <ele>369.00000</ele>
        <time>2008-10-19T12:11:45Z</time>
      </trkpt>
      <trkpt lat="48.77371000" lon="8.274387000">
        <ele>369.00000</ele>
        <time>2008-10-19T12:11:45Z</time>
      </trkpt>
      <trkpt lat="48.77371000" lon="8.274367000">
        <ele>369.00000</ele>
        <time>2008-10-19T12:11:45Z</time>
      </trkpt>
      <trkpt lat="48.77372000" lon="8.274349000">
        <ele>369.00000</ele>
        <time>2008-10-19T12:11:45Z</time>
      </trkpt>
      <trkpt lat="48.77372000" lon="8.274330000">
        <ele>369.00000</ele>
        <time>2008-10-19T12:11:45Z</time>
      </trkpt>
      <trkpt lat="48.77372000" lon="8.274311000">
        <ele>369.00000</ele>
        <time>2008-10-19T12:11:45Z</time>
      </trkpt>
      <trkpt lat="48.77372000" lon="8.274293000">
        <ele>369.00000</ele>
        <time>2008-10-19T12:11:45Z</time>
      </trkpt>
      <trkpt lat="48.77372000" lon="8.274270000">
        <ele>369.00000</ele>
        <time>2008-10-19T12:11:45Z</time>
      </trkpt>
      <trkpt lat="48.77372000" lon="8.274244000">
        <ele>369.00000</ele>
        <time>2008-10-19T12:11:45Z</time>
      </trkpt>
      <trkpt lat="48.77372000" lon="8.274220000">
        <ele>369.00000</ele>
        <time>2008-10-19T12:11:45Z</time>
      </trkpt>
      <trkpt lat="48.77372000" lon="8.274199000">
        <ele>369.00000</ele>
        <time>2008-10-19T12:11:45Z</time>
      </trkpt>
      <trkpt lat="48.77373000" lon="8.274173000">
        <ele>369.00000</ele>
        <time>2008-10-19T12:11:45Z</time>
      </trkpt>
      <trkpt lat="48.77373000" lon="8.274141000">
        <ele>369.00000</ele>
        <time>2008-10-19T12:11:45Z</time>
      </trkpt>
      <trkpt lat="48.77374000" lon="8.274113000">
        <ele>369.00000</ele>
        <time>2008-10-19T12:11:45Z</time>
      </trkpt>
      <trkpt lat="48.77374000" lon="8.274089000">
        <ele>369.00000</ele>
        <time>2008-10-19T12:11:45Z</time>
      </trkpt>
      <trkpt lat="48.77374000" lon="8.274069000">
        <ele>369.00000</ele>
        <time>2008-10-19T12:11:45Z</time>
      </trkpt>
      <trkpt lat="48.77374000" lon="8.274041000">
        <ele>369.00000</ele>
        <time>2008-10-19T12:11:45Z</time>
      </trkpt>
      <trkpt lat="48.77375000" lon="8.274014000">
        <ele>386.00000</ele>
        <time>2008-10-19T12:11:45Z</time>
      </trkpt>
      <trkpt lat="48.77374000" lon="8.273977000">
        <ele>369.00000</ele>
        <time>2008-10-19T12:11:45Z</time>
      </trkpt>
      <trkpt lat="48.77374000" lon="8.273943000">
        <ele>369.00000</ele>
        <time>2008-10-19T12:11:45Z</time>
      </trkpt>
      <trkpt lat="48.77374000" lon="8.273911000">
        <ele>369.00000</ele>
        <time>2008-10-19T12:11:45Z</time>
      </trkpt>
      <trkpt lat="48.77374000" lon="8.273882000">
        <ele>369.00000</ele>
        <time>2008-10-19T12:11:45Z</time>
      </trkpt>
      <trkpt lat="48.77375000" lon="8.273857000">
        <ele>386.00000</ele>
        <time>2008-10-19T12:11:45Z</time>
      </trkpt>
      <trkpt lat="48.77375000" lon="8.273833000">
        <ele>386.00000</ele>
        <time>2008-10-19T12:11:45Z</time>
      </trkpt>
      <trkpt lat="48.77376000" lon="8.273811000">
        <ele>386.00000</ele>
        <time>2008-10-19T12:11:45Z</time>
      </trkpt>
      <trkpt lat="48.77377000" lon="8.273791000">
        <ele>386.00000</ele>
        <time>2008-10-19T12:11:45Z</time>
      </trkpt>
      <trkpt lat="48.77378000" lon="8.273768000">
        <ele>386.00000</ele>
        <time>2008-10-19T12:11:45Z</time>
      </trkpt>
      <trkpt lat="48.77378000" lon="8.273742000">
        <ele>391.00000</ele>
        <time>2008-10-19T12:11:45Z</time>
      </trkpt>
      <trkpt lat="48.77378000" lon="8.273712000">
        <ele>391.00000</ele>
        <time>2008-10-19T12:11:45Z</time>
      </trkpt>
      <trkpt lat="48.77377000" lon="8.273680000">
        <ele>391.00000</ele>
        <time>2008-10-19T12:11:45Z</time>
      </trkpt>
      <trkpt lat="48.77375000" lon="8.273643000">
        <ele>391.00000</ele>
        <time>2008-10-19T12:11:45Z</time>
      </trkpt>
      <trkpt lat="48.77373000" lon="8.273609000">
        <ele>363.00000</ele>
        <time>2008-10-19T12:11:45Z</time>
      </trkpt>
      <trkpt lat="48.77372000" lon="8.273580000">
        <ele>363.00000</ele>
        <time>2008-10-19T12:11:45Z</time>
      </trkpt>
      <trkpt lat="48.77370000" lon="8.273549000">
        <ele>363.00000</ele>
        <time>2008-10-19T12:11:45Z</time>
      </trkpt>
      <trkpt lat="48.77369000" lon="8.273518000">
        <ele>363.00000</ele>
        <time>2008-10-19T12:11:45Z</time>
      </trkpt>
      <trkpt lat="48.77369000" lon="8.273487000">
        <ele>363.00000</ele>
        <time>2008-10-19T12:11:45Z</time>
      </trkpt>
      <trkpt lat="48.77368000" lon="8.273458000">
        <ele>363.00000</ele>
        <time>2008-10-19T12:11:45Z</time>
      </trkpt>
      <trkpt lat="48.77368000" lon="8.273427000">
        <ele>363.00000</ele>
        <time>2008-10-19T12:11:45Z</time>
      </trkpt>
      <trkpt lat="48.77368000" lon="8.273396000">
        <ele>363.00000</ele>
        <time>2008-10-19T12:11:45Z</time>
      </trkpt>
      <trkpt lat="48.77369000" lon="8.273367000">
        <ele>363.00000</ele>
        <time>2008-10-19T12:11:45Z</time>
      </trkpt>
      <trkpt lat="48.77369000" lon="8.273340000">
        <ele>363.00000</ele>
        <time>2008-10-19T12:11:45Z</time>
      </trkpt>
      <trkpt lat="48.77368000" lon="8.273311000">
        <ele>363.00000</ele>
        <time>2008-10-19T12:11:45Z</time>
      </trkpt>
      <trkpt lat="48.77369000" lon="8.273284000">
        <ele>363.00000</ele>
        <time>2008-10-19T12:11:45Z</time>
      </trkpt>
      <trkpt lat="48.77369000" lon="8.273257000">
        <ele>363.00000</ele>
        <time>2008-10-19T12:11:45Z</time>
      </trkpt>
      <trkpt lat="48.77370000" lon="8.273228000">
        <ele>363.00000</ele>
        <time>2008-10-19T12:11:45Z</time>
      </trkpt>
      <trkpt lat="48.77370000" lon="8.273196000">
        <ele>363.00000</ele>
        <time>2008-10-19T12:11:45Z</time>
      </trkpt>
      <trkpt lat="48.77371000" lon="8.273165000">
        <ele>363.00000</ele>
        <time>2008-10-19T12:11:45Z</time>
      </trkpt>
      <trkpt lat="48.77371000" lon="8.273132000">
        <ele>363.00000</ele>
        <time>2008-10-19T12:11:45Z</time>
      </trkpt>
      <trkpt lat="48.77372000" lon="8.273102000">
        <ele>363.00000</ele>
        <time>2008-10-19T12:11:45Z</time>
      </trkpt>
      <trkpt lat="48.77372000" lon="8.273074000">
        <ele>363.00000</ele>
        <time>2008-10-19T12:11:45Z</time>
      </trkpt>
      <trkpt lat="48.77372000" lon="8.273045000">
        <ele>363.00000</ele>
        <time>2008-10-19T12:11:45Z</time>
      </trkpt>
      <trkpt lat="48.77372000" lon="8.273013000">
        <ele>363.00000</ele>
        <time>2008-10-19T12:11:45Z</time>
      </trkpt>
      <trkpt lat="48.77372000" lon="8.272979000">
        <ele>363.00000</ele>
        <time>2008-10-19T12:11:45Z</time>
      </trkpt>
      <trkpt lat="48.77372000" lon="8.272946000">
        <ele>363.00000</ele>
        <time>2008-10-19T12:11:45Z</time>
      </trkpt>
      <trkpt lat="48.77373000" lon="8.272926000">
        <ele>363.00000</ele>
        <time>2008-10-19T12:11:45Z</time>
      </trkpt>
      <trkpt lat="48.77375000" lon="8.272909000">
        <ele>394.00000</ele>
        <time>2008-10-19T12:11:45Z</time>
      </trkpt>
      <trkpt lat="48.77377000" lon="8.272888000">
        <ele>394.00000</ele>
        <time>2008-10-19T12:11:45Z</time>
      </trkpt>
      <trkpt lat="48.77378000" lon="8.272863000">
        <ele>394.00000</ele>
        <time>2008-10-19T12:11:45Z</time>
      </trkpt>
      <trkpt lat="48.77378000" lon="8.272841000">
        <ele>394.00000</ele>
        <time>2008-10-19T12:11:45Z</time>
      </trkpt>
      <trkpt lat="48.77380000" lon="8.272823000">
        <ele>394.00000</ele>
        <time>2008-10-19T12:11:45Z</time>
      </trkpt>
      <trkpt lat="48.77382000" lon="8.272809000">
        <ele>394.00000</ele>
        <time>2008-10-19T12:11:45Z</time>
      </trkpt>
      <trkpt lat="48.77383000" lon="8.272798000">
        <ele>394.00000</ele>
        <time>2008-10-19T12:11:45Z</time>
      </trkpt>
      <trkpt lat="48.77384000" lon="8.272792000">
        <ele>394.00000</ele>
        <time>2008-10-19T12:11:45Z</time>
      </trkpt>
      <trkpt lat="48.77386000" lon="8.272791000">
        <ele>394.00000</ele>
        <time>2008-10-19T12:11:45Z</time>
      </trkpt>
      <trkpt lat="48.77389000" lon="8.272790000">
        <ele>394.00000</ele>
        <time>2008-10-19T12:11:45Z</time>
      </trkpt>
      <trkpt lat="48.77391000" lon="8.272785000">
        <ele>394.00000</ele>
        <time>2008-10-19T12:11:45Z</time>
      </trkpt>
      <trkpt lat="48.77393000" lon="8.272780000">
        <ele>394.00000</ele>
        <time>2008-10-19T12:11:45Z</time>
      </trkpt>
      <trkpt lat="48.77395000" lon="8.272767000">
        <ele>394.00000</ele>
        <time>2008-10-19T12:11:45Z</time>
      </trkpt>
      <trkpt lat="48.77397000" lon="8.272753000">
        <ele>394.00000</ele>
        <time>2008-10-19T12:11:45Z</time>
      </trkpt>
      <trkpt lat="48.77400000" lon="8.272747000">
        <ele>394.00000</ele>
        <time>2008-10-19T12:11:45Z</time>
      </trkpt>
      <trkpt lat="48.77402000" lon="8.272737000">
        <ele>394.00000</ele>
        <time>2008-10-19T12:11:45Z</time>
      </trkpt>
      <trkpt lat="48.77404000" lon="8.272721000">
        <ele>394.00000</ele>
        <time>2008-10-19T12:11:45Z</time>
      </trkpt>
      <trkpt lat="48.77407000" lon="8.272711000">
        <ele>394.00000</ele>
        <time>2008-10-19T12:11:45Z</time>
      </trkpt>
      <trkpt lat="48.77408000" lon="8.272702000">
        <ele>394.00000</ele>
        <time>2008-10-19T12:11:45Z</time>
      </trkpt>
      <trkpt lat="48.77409000" lon="8.272684000">
        <ele>394.00000</ele>
        <time>2008-10-19T12:11:45Z</time>
      </trkpt>
      <trkpt lat="48.77410000" lon="8.272669000">
        <ele>394.00000</ele>
        <time>2008-10-19T12:11:45Z</time>
      </trkpt>
      <trkpt lat="48.77411000" lon="8.272652000">
        <ele>394.00000</ele>
        <time>2008-10-19T12:11:45Z</time>
      </trkpt>
      <trkpt lat="48.77412000" lon="8.272623000">
        <ele>394.00000</ele>
        <time>2008-10-19T12:11:45Z</time>
      </trkpt>
      <trkpt lat="48.77414000" lon="8.272593000">
        <ele>394.00000</ele>
        <time>2008-10-19T12:11:45Z</time>
      </trkpt>
      <trkpt lat="48.77415000" lon="8.272565000">
        <ele>394.00000</ele>
        <time>2008-10-19T12:11:45Z</time>
      </trkpt>
      <trkpt lat="48.77417000" lon="8.272540000">
        <ele>394.00000</ele>
        <time>2008-10-19T12:11:45Z</time>
      </trkpt>
      <trkpt lat="48.77418000" lon="8.272514000">
        <ele>394.00000</ele>
        <time>2008-10-19T12:11:45Z</time>
      </trkpt>
      <trkpt lat="48.77419000" lon="8.272485000">
        <ele>394.00000</ele>
        <time>2008-10-19T12:11:45Z</time>
      </trkpt>
      <trkpt lat="48.77420000" lon="8.272451000">
        <ele>394.00000</ele>
        <time>2008-10-19T12:11:45Z</time>
      </trkpt>
      <trkpt lat="48.77421000" lon="8.272420000">
        <ele>394.00000</ele>
        <time>2008-10-19T12:11:45Z</time>
      </trkpt>
      <trkpt lat="48.77421000" lon="8.272387000">
        <ele>394.00000</ele>
        <time>2008-10-19T12:11:45Z</time>
      </trkpt>
      <trkpt lat="48.77421000" lon="8.272354000">
        <ele>394.00000</ele>
        <time>2008-10-19T12:11:45Z</time>
      </trkpt>
      <trkpt lat="48.77422000" lon="8.272322000">
        <ele>394.00000</ele>
        <time>2008-10-19T12:11:45Z</time>
      </trkpt>
      <trkpt lat="48.77422000" lon="8.272296000">
        <ele>394.00000</ele>
        <time>2008-10-19T12:11:45Z</time>
      </trkpt>
      <trkpt lat="48.77422000" lon="8.272278000">
        <ele>394.00000</ele>
        <time>2008-10-19T12:11:45Z</time>
      </trkpt>
      <trkpt lat="48.77421000" lon="8.272256000">
        <ele>394.00000</ele>
        <time>2008-10-19T12:11:45Z</time>
      </trkpt>
      <trkpt lat="48.77420000" lon="8.272226000">
        <ele>394.00000</ele>
        <time>2008-10-19T12:11:45Z</time>
      </trkpt>
      <trkpt lat="48.77419000" lon="8.272184000">
        <ele>394.00000</ele>
        <time>2008-10-19T12:11:45Z</time>
      </trkpt>
      <trkpt lat="48.77417000" lon="8.272141000">
        <ele>394.00000</ele>
        <time>2008-10-19T12:11:45Z</time>
      </trkpt>
      <trkpt lat="48.77415000" lon="8.272093000">
        <ele>394.00000</ele>
        <time>2008-10-19T12:11:45Z</time>
      </trkpt>
      <trkpt lat="48.77414000" lon="8.272048000">
        <ele>394.00000</ele>
        <time>2008-10-19T12:11:45Z</time>
      </trkpt>
      <trkpt lat="48.77413000" lon="8.272009000">
        <ele>394.00000</ele>
        <time>2008-10-19T12:11:45Z</time>
      </trkpt>
      <trkpt lat="48.77413000" lon="8.271978000">
        <ele>394.00000</ele>
        <time>2008-10-19T12:11:45Z</time>
      </trkpt>
      <trkpt lat="48.77412000" lon="8.271950000">
        <ele>394.00000</ele>
        <time>2008-10-19T12:11:45Z</time>
      </trkpt>
      <trkpt lat="48.77411000" lon="8.271923000">
        <ele>394.00000</ele>
        <time>2008-10-19T12:11:45Z</time>
      </trkpt>
      <trkpt lat="48.77411000" lon="8.271889000">
        <ele>394.00000</ele>
        <time>2008-10-19T12:11:45Z</time>
      </trkpt>
      <trkpt lat="48.77410000" lon="8.271852000">
        <ele>394.00000</ele>
        <time>2008-10-19T12:11:45Z</time>
      </trkpt>
      <trkpt lat="48.77410000" lon="8.271824000">
        <ele>394.00000</ele>
        <time>2008-10-19T12:11:45Z</time>
      </trkpt>
      <trkpt lat="48.77409000" lon="8.271800000">
        <ele>394.00000</ele>
        <time>2008-10-19T12:11:45Z</time>
      </trkpt>
      <trkpt lat="48.77409000" lon="8.271779000">
        <ele>394.00000</ele>
        <time>2008-10-19T12:11:45Z</time>
      </trkpt>
      <trkpt lat="48.77409000" lon="8.271755000">
        <ele>394.00000</ele>
        <time>2008-10-19T12:11:45Z</time>
      </trkpt>
      <trkpt lat="48.77409000" lon="8.271727000">
        <ele>394.00000</ele>
        <time>2008-10-19T12:11:45Z</time>
      </trkpt>
      <trkpt lat="48.77408000" lon="8.271705000">
        <ele>394.00000</ele>
        <time>2008-10-19T12:11:45Z</time>
      </trkpt>
      <trkpt lat="48.77407000" lon="8.271688000">
        <ele>394.00000</ele>
        <time>2008-10-19T12:11:45Z</time>
      </trkpt>
      <trkpt lat="48.77406000" lon="8.271663000">
        <ele>394.00000</ele>
        <time>2008-10-19T12:11:45Z</time>
      </trkpt>
      <trkpt lat="48.77406000" lon="8.271635000">
        <ele>394.00000</ele>
        <time>2008-10-19T12:11:45Z</time>
      </trkpt>
      <trkpt lat="48.77406000" lon="8.271609000">
        <ele>394.00000</ele>
        <time>2008-10-19T12:11:45Z</time>
      </trkpt>
      <trkpt lat="48.77406000" lon="8.271585000">
        <ele>394.00000</ele>
        <time>2008-10-19T12:11:45Z</time>
      </trkpt>
      <trkpt lat="48.77405000" lon="8.271544000">
        <ele>394.00000</ele>
        <time>2008-10-19T12:11:45Z</time>
      </trkpt>
      <trkpt lat="48.77405000" lon="8.271516000">
        <ele>394.00000</ele>
        <time>2008-10-19T12:11:45Z</time>
      </trkpt>
      <trkpt lat="48.77406000" lon="8.271486000">
        <ele>394.00000</ele>
        <time>2008-10-19T12:11:45Z</time>
      </trkpt>
      <trkpt lat="48.77406000" lon="8.271457000">
        <ele>394.00000</ele>
        <time>2008-10-19T12:11:45Z</time>
      </trkpt>
      <trkpt lat="48.77405000" lon="8.271418000">
        <ele>394.00000</ele>
        <time>2008-10-19T12:11:45Z</time>
      </trkpt>
      <trkpt lat="48.77404000" lon="8.271389000">
        <ele>394.00000</ele>
        <time>2008-10-19T12:11:45Z</time>
      </trkpt>
      <trkpt lat="48.77403000" lon="8.271360000">
        <ele>394.00000</ele>
        <time>2008-10-19T12:11:45Z</time>
      </trkpt>
      <trkpt lat="48.77404000" lon="8.271330000">
        <ele>394.00000</ele>
        <time>2008-10-19T12:11:45Z</time>
      </trkpt>
      <trkpt lat="48.77404000" lon="8.271298000">
        <ele>394.00000</ele>
        <time>2008-10-19T12:11:45Z</time>
      </trkpt>
      <trkpt lat="48.77404000" lon="8.271270000">
        <ele>394.00000</ele>
        <time>2008-10-19T12:11:45Z</time>
      </trkpt>
      <trkpt lat="48.77403000" lon="8.271227000">
        <ele>391.00000</ele>
        <time>2008-10-19T12:11:45Z</time>
      </trkpt>
      <trkpt lat="48.77403000" lon="8.271188000">
        <ele>391.00000</ele>
        <time>2008-10-19T12:11:45Z</time>
      </trkpt>
      <trkpt lat="48.77404000" lon="8.271154000">
        <ele>391.00000</ele>
        <time>2008-10-19T12:11:45Z</time>
      </trkpt>
      <trkpt lat="48.77406000" lon="8.271123000">
        <ele>391.00000</ele>
        <time>2008-10-19T12:11:45Z</time>
      </trkpt>
      <trkpt lat="48.77406000" lon="8.271093000">
        <ele>391.00000</ele>
        <time>2008-10-19T12:11:45Z</time>
      </trkpt>
      <trkpt lat="48.77405000" lon="8.271057000">
        <ele>391.00000</ele>
        <time>2008-10-19T12:11:45Z</time>
      </trkpt>
      <trkpt lat="48.77404000" lon="8.271021000">
        <ele>391.00000</ele>
        <time>2008-10-19T12:11:45Z</time>
      </trkpt>
      <trkpt lat="48.77402000" lon="8.270982000">
        <ele>391.00000</ele>
        <time>2008-10-19T12:11:45Z</time>
      </trkpt>
      <trkpt lat="48.77401000" lon="8.270939000">
        <ele>391.00000</ele>
        <time>2008-10-19T12:11:45Z</time>
      </trkpt>
      <trkpt lat="48.77400000" lon="8.270899000">
        <ele>391.00000</ele>
        <time>2008-10-19T12:11:45Z</time>
      </trkpt>
      <trkpt lat="48.77400000" lon="8.270859000">
        <ele>391.00000</ele>
        <time>2008-10-19T12:11:45Z</time>
      </trkpt>
      <trkpt lat="48.77401000" lon="8.270821000">
        <ele>391.00000</ele>
        <time>2008-10-19T12:11:45Z</time>
      </trkpt>
      <trkpt lat="48.77401000" lon="8.270784000">
        <ele>391.00000</ele>
        <time>2008-10-19T12:11:45Z</time>
      </trkpt>
      <trkpt lat="48.77402000" lon="8.270745000">
        <ele>391.00000</ele>
        <time>2008-10-19T12:11:45Z</time>
      </trkpt>
      <trkpt lat="48.77402000" lon="8.270714000">
        <ele>391.00000</ele>
        <time>2008-10-19T12:11:45Z</time>
      </trkpt>
      <trkpt lat="48.77403000" lon="8.270684000">
        <ele>391.00000</ele>
        <time>2008-10-19T12:11:45Z</time>
      </trkpt>
      <trkpt lat="48.77404000" lon="8.270657000">
        <ele>391.00000</ele>
        <time>2008-10-19T12:11:45Z</time>
      </trkpt>
      <trkpt lat="48.77405000" lon="8.270633000">
        <ele>391.00000</ele>
        <time>2008-10-19T12:11:45Z</time>
      </trkpt>
      <trkpt lat="48.77406000" lon="8.270609000">
        <ele>391.00000</ele>
        <time>2008-10-19T12:11:45Z</time>
      </trkpt>
      <trkpt lat="48.77407000" lon="8.270580000">
        <ele>391.00000</ele>
        <time>2008-10-19T12:11:45Z</time>
      </trkpt>
      <trkpt lat="48.77408000" lon="8.270551000">
        <ele>391.00000</ele>
        <time>2008-10-19T12:11:45Z</time>
      </trkpt>
      <trkpt lat="48.77409000" lon="8.270523000">
        <ele>391.00000</ele>
        <time>2008-10-19T12:11:45Z</time>
      </trkpt>
      <trkpt lat="48.77410000" lon="8.270494000">
        <ele>391.00000</ele>
        <time>2008-10-19T12:11:45Z</time>
      </trkpt>
      <trkpt lat="48.77411000" lon="8.270472000">
        <ele>391.00000</ele>
        <time>2008-10-19T12:11:45Z</time>
      </trkpt>
      <trkpt lat="48.77412000" lon="8.270452000">
        <ele>391.00000</ele>
        <time>2008-10-19T12:11:45Z</time>
      </trkpt>
      <trkpt lat="48.77413000" lon="8.270430000">
        <ele>391.00000</ele>
        <time>2008-10-19T12:11:45Z</time>
      </trkpt>
      <trkpt lat="48.77414000" lon="8.270407000">
        <ele>393.00000</ele>
        <time>2008-10-19T12:11:45Z</time>
      </trkpt>
      <trkpt lat="48.77415000" lon="8.270388000">
        <ele>393.00000</ele>
        <time>2008-10-19T12:11:45Z</time>
      </trkpt>
      <trkpt lat="48.77416000" lon="8.270362000">
        <ele>393.00000</ele>
        <time>2008-10-19T12:11:45Z</time>
      </trkpt>
      <trkpt lat="48.77418000" lon="8.270336000">
        <ele>393.00000</ele>
        <time>2008-10-19T12:11:45Z</time>
      </trkpt>
      <trkpt lat="48.77419000" lon="8.270314000">
        <ele>393.00000</ele>
        <time>2008-10-19T12:11:45Z</time>
      </trkpt>
      <trkpt lat="48.77419000" lon="8.270292000">
        <ele>393.00000</ele>
        <time>2008-10-19T12:11:45Z</time>
      </trkpt>
      <trkpt lat="48.77419000" lon="8.270263000">
        <ele>393.00000</ele>
        <time>2008-10-19T12:11:45Z</time>
      </trkpt>
      <trkpt lat="48.77418000" lon="8.270228000">
        <ele>393.00000</ele>
        <time>2008-10-19T12:11:45Z</time>
      </trkpt>
      <trkpt lat="48.77419000" lon="8.270194000">
        <ele>393.00000</ele>
        <time>2008-10-19T12:11:45Z</time>
      </trkpt>
      <trkpt lat="48.77419000" lon="8.270164000">
        <ele>393.00000</ele>
        <time>2008-10-19T12:11:45Z</time>
      </trkpt>
      <trkpt lat="48.77420000" lon="8.270135000">
        <ele>393.00000</ele>
        <time>2008-10-19T12:11:45Z</time>
      </trkpt>
      <trkpt lat="48.77420000" lon="8.270100000">
        <ele>393.00000</ele>
        <time>2008-10-19T12:11:45Z</time>
      </trkpt>
      <trkpt lat="48.77420000" lon="8.270069000">
        <ele>393.00000</ele>
        <time>2008-10-19T12:11:45Z</time>
      </trkpt>
      <trkpt lat="48.77420000" lon="8.270036000">
        <ele>393.00000</ele>
        <time>2008-10-19T12:11:45Z</time>
      </trkpt>
      <trkpt lat="48.77421000" lon="8.270000000">
        <ele>393.00000</ele>
        <time>2008-10-19T12:11:45Z</time>
      </trkpt>
      <trkpt lat="48.77420000" lon="8.269957000">
        <ele>393.00000</ele>
        <time>2008-10-19T12:11:45Z</time>
      </trkpt>
      <trkpt lat="48.77419000" lon="8.269916000">
        <ele>393.00000</ele>
        <time>2008-10-19T12:11:45Z</time>
      </trkpt>
      <trkpt lat="48.77417000" lon="8.269877000">
        <ele>393.00000</ele>
        <time>2008-10-19T12:11:45Z</time>
      </trkpt>
      <trkpt lat="48.77416000" lon="8.269846000">
        <ele>393.00000</ele>
        <time>2008-10-19T12:11:45Z</time>
      </trkpt>
      <trkpt lat="48.77415000" lon="8.269817000">
        <ele>393.00000</ele>
        <time>2008-10-19T12:11:45Z</time>
      </trkpt>
      <trkpt lat="48.77414000" lon="8.269788000">
        <ele>393.00000</ele>
        <time>2008-10-19T12:11:45Z</time>
      </trkpt>
      <trkpt lat="48.77413000" lon="8.269757000">
        <ele>393.00000</ele>
        <time>2008-10-19T12:11:45Z</time>
      </trkpt>
      <trkpt lat="48.77412000" lon="8.269730000">
        <ele>393.00000</ele>
        <time>2008-10-19T12:11:45Z</time>
      </trkpt>
      <trkpt lat="48.77411000" lon="8.269693000">
        <ele>393.00000</ele>
        <time>2008-10-19T12:11:45Z</time>
      </trkpt>
      <trkpt lat="48.77410000" lon="8.269665000">
        <ele>393.00000</ele>
        <time>2008-10-19T12:11:45Z</time>
      </trkpt>
      <trkpt lat="48.77408000" lon="8.269630000">
        <ele>393.00000</ele>
        <time>2008-10-19T12:11:45Z</time>
      </trkpt>
      <trkpt lat="48.77407000" lon="8.269588000">
        <ele>393.00000</ele>
        <time>2008-10-19T12:11:45Z</time>
      </trkpt>
      <trkpt lat="48.77406000" lon="8.269571000">
        <ele>400.00000</ele>
        <time>2008-10-19T12:11:45Z</time>
      </trkpt>
      <trkpt lat="48.77406000" lon="8.269549000">
        <ele>400.00000</ele>
        <time>2008-10-19T12:11:45Z</time>
      </trkpt>
      <trkpt lat="48.77406000" lon="8.269509000">
        <ele>400.00000</ele>
        <time>2008-10-19T12:11:45Z</time>
      </trkpt>
      <trkpt lat="48.77406000" lon="8.269470000">
        <ele>400.00000</ele>
        <time>2008-10-19T12:11:45Z</time>
      </trkpt>
      <trkpt lat="48.77406000" lon="8.269437000">
        <ele>400.00000</ele>
        <time>2008-10-19T12:11:45Z</time>
      </trkpt>
      <trkpt lat="48.77406000" lon="8.269406000">
        <ele>400.00000</ele>
        <time>2008-10-19T12:11:45Z</time>
      </trkpt>
      <trkpt lat="48.77404000" lon="8.269370000">
        <ele>400.00000</ele>
        <time>2008-10-19T12:11:45Z</time>
      </trkpt>
      <trkpt lat="48.77404000" lon="8.269337000">
        <ele>400.00000</ele>
        <time>2008-10-19T12:11:45Z</time>
      </trkpt>
      <trkpt lat="48.77404000" lon="8.269300000">
        <ele>400.00000</ele>
        <time>2008-10-19T12:11:45Z</time>
      </trkpt>
      <trkpt lat="48.77404000" lon="8.269263000">
        <ele>400.00000</ele>
        <time>2008-10-19T12:11:45Z</time>
      </trkpt>
      <trkpt lat="48.77404000" lon="8.269233000">
        <ele>400.00000</ele>
        <time>2008-10-19T12:11:45Z</time>
      </trkpt>
      <trkpt lat="48.77404000" lon="8.269205000">
        <ele>400.00000</ele>
        <time>2008-10-19T12:11:45Z</time>
      </trkpt>
      <trkpt lat="48.77404000" lon="8.269172000">
        <ele>400.00000</ele>
        <time>2008-10-19T12:11:45Z</time>
      </trkpt>
      <trkpt lat="48.77404000" lon="8.269139000">
        <ele>400.00000</ele>
        <time>2008-10-19T12:11:45Z</time>
      </trkpt>
      <trkpt lat="48.77404000" lon="8.269109000">
        <ele>400.00000</ele>
        <time>2008-10-19T12:11:45Z</time>
      </trkpt>
      <trkpt lat="48.77403000" lon="8.269075000">
        <ele>400.00000</ele>
        <time>2008-10-19T12:11:45Z</time>
      </trkpt>
      <trkpt lat="48.77402000" lon="8.269043000">
        <ele>400.00000</ele>
        <time>2008-10-19T12:11:45Z</time>
      </trkpt>
      <trkpt lat="48.77402000" lon="8.269011000">
        <ele>400.00000</ele>
        <time>2008-10-19T12:11:45Z</time>
      </trkpt>
      <trkpt lat="48.77401000" lon="8.268983000">
        <ele>400.00000</ele>
        <time>2008-10-19T12:11:45Z</time>
      </trkpt>
      <trkpt lat="48.77401000" lon="8.268957000">
        <ele>400.00000</ele>
        <time>2008-10-19T12:11:45Z</time>
      </trkpt>
      <trkpt lat="48.77399000" lon="8.268925000">
        <ele>400.00000</ele>
        <time>2008-10-19T12:11:45Z</time>
      </trkpt>
      <trkpt lat="48.77399000" lon="8.268883000">
        <ele>400.00000</ele>
        <time>2008-10-19T12:11:45Z</time>
      </trkpt>
      <trkpt lat="48.77398000" lon="8.268842000">
        <ele>400.00000</ele>
        <time>2008-10-19T12:11:45Z</time>
      </trkpt>
      <trkpt lat="48.77398000" lon="8.268808000">
        <ele>400.00000</ele>
        <time>2008-10-19T12:11:45Z</time>
      </trkpt>
      <trkpt lat="48.77397000" lon="8.268772000">
        <ele>400.00000</ele>
        <time>2008-10-19T12:11:45Z</time>
      </trkpt>
      <trkpt lat="48.77396000" lon="8.268737000">
        <ele>404.00000</ele>
        <time>2008-10-19T12:11:45Z</time>
      </trkpt>
      <trkpt lat="48.77396000" lon="8.268699000">
        <ele>404.00000</ele>
        <time>2008-10-19T12:11:45Z</time>
      </trkpt>
      <trkpt lat="48.77396000" lon="8.268663000">
        <ele>404.00000</ele>
        <time>2008-10-19T12:11:45Z</time>
      </trkpt>
      <trkpt lat="48.77397000" lon="8.268629000">
        <ele>404.00000</ele>
        <time>2008-10-19T12:11:45Z</time>
      </trkpt>
      <trkpt lat="48.77399000" lon="8.268591000">
        <ele>404.00000</ele>
        <time>2008-10-19T12:11:45Z</time>
      </trkpt>
      <trkpt lat="48.77400000" lon="8.268556000">
        <ele>404.00000</ele>
        <time>2008-10-19T12:11:45Z</time>
      </trkpt>
      <trkpt lat="48.77401000" lon="8.268525000">
        <ele>404.00000</ele>
        <time>2008-10-19T12:11:45Z</time>
      </trkpt>
      <trkpt lat="48.77402000" lon="8.268499000">
        <ele>404.00000</ele>
        <time>2008-10-19T12:11:45Z</time>
      </trkpt>
      <trkpt lat="48.77404000" lon="8.268468000">
        <ele>404.00000</ele>
        <time>2008-10-19T12:11:45Z</time>
      </trkpt>
      <trkpt lat="48.77405000" lon="8.268435000">
        <ele>404.00000</ele>
        <time>2008-10-19T12:11:45Z</time>
      </trkpt>
      <trkpt lat="48.77406000" lon="8.268404000">
        <ele>404.00000</ele>
        <time>2008-10-19T12:11:45Z</time>
      </trkpt>
      <trkpt lat="48.77407000" lon="8.268373000">
        <ele>404.00000</ele>
        <time>2008-10-19T12:11:45Z</time>
      </trkpt>
      <trkpt lat="48.77408000" lon="8.268342000">
        <ele>404.00000</ele>
        <time>2008-10-19T12:11:45Z</time>
      </trkpt>
      <trkpt lat="48.77409000" lon="8.268318000">
        <ele>404.00000</ele>
        <time>2008-10-19T12:11:45Z</time>
      </trkpt>
      <trkpt lat="48.77410000" lon="8.268291000">
        <ele>404.00000</ele>
        <time>2008-10-19T12:11:45Z</time>
      </trkpt>
      <trkpt lat="48.77410000" lon="8.268260000">
        <ele>404.00000</ele>
        <time>2008-10-19T12:11:45Z</time>
      </trkpt>
      <trkpt lat="48.77410000" lon="8.268225000">
        <ele>404.00000</ele>
        <time>2008-10-19T12:11:45Z</time>
      </trkpt>
      <trkpt lat="48.77410000" lon="8.268192000">
        <ele>404.00000</ele>
        <time>2008-10-19T12:11:45Z</time>
      </trkpt>
      <trkpt lat="48.77411000" lon="8.268160000">
        <ele>404.00000</ele>
        <time>2008-10-19T12:11:45Z</time>
      </trkpt>
      <trkpt lat="48.77412000" lon="8.268132000">
        <ele>404.00000</ele>
        <time>2008-10-19T12:11:45Z</time>
      </trkpt>
      <trkpt lat="48.77412000" lon="8.268109000">
        <ele>404.00000</ele>
        <time>2008-10-19T12:11:45Z</time>
      </trkpt>
      <trkpt lat="48.77412000" lon="8.268082000">
        <ele>404.00000</ele>
        <time>2008-10-19T12:11:45Z</time>
      </trkpt>
      <trkpt lat="48.77412000" lon="8.268054000">
        <ele>404.00000</ele>
        <time>2008-10-19T12:11:45Z</time>
      </trkpt>
      <trkpt lat="48.77412000" lon="8.268029000">
        <ele>404.00000</ele>
        <time>2008-10-19T12:11:45Z</time>
      </trkpt>
      <trkpt lat="48.77411000" lon="8.268000000">
        <ele>404.00000</ele>
        <time>2008-10-19T12:11:45Z</time>
      </trkpt>
      <trkpt lat="48.77411000" lon="8.267967000">
        <ele>404.00000</ele>
        <time>2008-10-19T12:11:45Z</time>
      </trkpt>
      <trkpt lat="48.77411000" lon="8.267942000">
        <ele>404.00000</ele>
        <time>2008-10-19T12:11:45Z</time>
      </trkpt>
      <trkpt lat="48.77410000" lon="8.267921000">
        <ele>404.00000</ele>
        <time>2008-10-19T12:11:45Z</time>
      </trkpt>
      <trkpt lat="48.77408000" lon="8.267882000">
        <ele>411.00000</ele>
        <time>2008-10-19T12:11:45Z</time>
      </trkpt>
      <trkpt lat="48.77407000" lon="8.267858000">
        <ele>411.00000</ele>
        <time>2008-10-19T12:11:45Z</time>
      </trkpt>
      <trkpt lat="48.77407000" lon="8.267829000">
        <ele>411.00000</ele>
        <time>2008-10-19T12:11:45Z</time>
      </trkpt>
      <trkpt lat="48.77406000" lon="8.267800000">
        <ele>411.00000</ele>
        <time>2008-10-19T12:11:45Z</time>
      </trkpt>
      <trkpt lat="48.77406000" lon="8.267769000">
        <ele>411.00000</ele>
        <time>2008-10-19T12:11:45Z</time>
      </trkpt>
      <trkpt lat="48.77407000" lon="8.267738000">
        <ele>411.00000</ele>
        <time>2008-10-19T12:11:45Z</time>
      </trkpt>
      <trkpt lat="48.77405000" lon="8.267693000">
        <ele>411.00000</ele>
        <time>2008-10-19T12:11:45Z</time>
      </trkpt>
      <trkpt lat="48.77404000" lon="8.267664000">
        <ele>411.00000</ele>
        <time>2008-10-19T12:11:45Z</time>
      </trkpt>
      <trkpt lat="48.77403000" lon="8.267624000">
        <ele>411.00000</ele>
        <time>2008-10-19T12:11:45Z</time>
      </trkpt>
      <trkpt lat="48.77402000" lon="8.267589000">
        <ele>411.00000</ele>
        <time>2008-10-19T12:11:45Z</time>
      </trkpt>
      <trkpt lat="48.77402000" lon="8.267548000">
        <ele>411.00000</ele>
        <time>2008-10-19T12:11:45Z</time>
      </trkpt>
      <trkpt lat="48.77401000" lon="8.267504000">
        <ele>411.00000</ele>
        <time>2008-10-19T12:11:45Z</time>
      </trkpt>
      <trkpt lat="48.77401000" lon="8.267463000">
        <ele>411.00000</ele>
        <time>2008-10-19T12:11:45Z</time>
      </trkpt>
      <trkpt lat="48.77401000" lon="8.267425000">
        <ele>411.00000</ele>
        <time>2008-10-19T12:11:45Z</time>
      </trkpt>
      <trkpt lat="48.77399000" lon="8.267383000">
        <ele>411.00000</ele>
        <time>2008-10-19T12:11:45Z</time>
      </trkpt>
      <trkpt lat="48.77399000" lon="8.267340000">
        <ele>411.00000</ele>
        <time>2008-10-19T12:11:45Z</time>
      </trkpt>
      <trkpt lat="48.77397000" lon="8.267301000">
        <ele>411.00000</ele>
        <time>2008-10-19T12:11:45Z</time>
      </trkpt>
      <trkpt lat="48.77397000" lon="8.267269000">
        <ele>411.00000</ele>
        <time>2008-10-19T12:11:45Z</time>
      </trkpt>
      <trkpt lat="48.77398000" lon="8.267233000">
        <ele>411.00000</ele>
        <time>2008-10-19T12:11:45Z</time>
      </trkpt>
      <trkpt lat="48.77398000" lon="8.267195000">
        <ele>411.00000</ele>
        <time>2008-10-19T12:11:45Z</time>
      </trkpt>
      <trkpt lat="48.77398000" lon="8.267158000">
        <ele>411.00000</ele>
        <time>2008-10-19T12:11:45Z</time>
      </trkpt>
      <trkpt lat="48.77397000" lon="8.267124000">
        <ele>411.00000</ele>
        <time>2008-10-19T12:11:45Z</time>
      </trkpt>
      <trkpt lat="48.77396000" lon="8.267090000">
        <ele>411.00000</ele>
        <time>2008-10-19T12:11:45Z</time>
      </trkpt>
      <trkpt lat="48.77395000" lon="8.267053000">
        <ele>421.00000</ele>
        <time>2008-10-19T12:11:45Z</time>
      </trkpt>
      <trkpt lat="48.77393000" lon="8.267011000">
        <ele>421.00000</ele>
        <time>2008-10-19T12:11:45Z</time>
      </trkpt>
      <trkpt lat="48.77392000" lon="8.266973000">
        <ele>421.00000</ele>
        <time>2008-10-19T12:11:45Z</time>
      </trkpt>
      <trkpt lat="48.77391000" lon="8.266943000">
        <ele>421.00000</ele>
        <time>2008-10-19T12:11:45Z</time>
      </trkpt>
      <trkpt lat="48.77391000" lon="8.266914000">
        <ele>421.00000</ele>
        <time>2008-10-19T12:11:45Z</time>
      </trkpt>
      <trkpt lat="48.77391000" lon="8.266881000">
        <ele>421.00000</ele>
        <time>2008-10-19T12:11:45Z</time>
      </trkpt>
      <trkpt lat="48.77390000" lon="8.266838000">
        <ele>421.00000</ele>
        <time>2008-10-19T12:11:45Z</time>
      </trkpt>
      <trkpt lat="48.77388000" lon="8.266798000">
        <ele>421.00000</ele>
        <time>2008-10-19T12:11:45Z</time>
      </trkpt>
      <trkpt lat="48.77387000" lon="8.266764000">
        <ele>421.00000</ele>
        <time>2008-10-19T12:11:45Z</time>
      </trkpt>
      <trkpt lat="48.77386000" lon="8.266730000">
        <ele>421.00000</ele>
        <time>2008-10-19T12:11:45Z</time>
      </trkpt>
      <trkpt lat="48.77386000" lon="8.266698000">
        <ele>421.00000</ele>
        <time>2008-10-19T12:11:45Z</time>
      </trkpt>
      <trkpt lat="48.77385000" lon="8.266665000">
        <ele>421.00000</ele>
        <time>2008-10-19T12:11:45Z</time>
      </trkpt>
      <trkpt lat="48.77385000" lon="8.266639000">
        <ele>421.00000</ele>
        <time>2008-10-19T12:11:45Z</time>
      </trkpt>
      <trkpt lat="48.77384000" lon="8.266612000">
        <ele>421.00000</ele>
        <time>2008-10-19T12:11:45Z</time>
      </trkpt>
      <trkpt lat="48.77383000" lon="8.266574000">
        <ele>421.00000</ele>
        <time>2008-10-19T12:11:45Z</time>
      </trkpt>
      <trkpt lat="48.77383000" lon="8.266534000">
        <ele>421.00000</ele>
        <time>2008-10-19T12:11:45Z</time>
      </trkpt>
      <trkpt lat="48.77383000" lon="8.266503000">
        <ele>421.00000</ele>
        <time>2008-10-19T12:11:45Z</time>
      </trkpt>
      <trkpt lat="48.77382000" lon="8.266475000">
        <ele>421.00000</ele>
        <time>2008-10-19T12:11:45Z</time>
      </trkpt>
      <trkpt lat="48.77382000" lon="8.266444000">
        <ele>421.00000</ele>
        <time>2008-10-19T12:11:45Z</time>
      </trkpt>
      <trkpt lat="48.77381000" lon="8.266415000">
        <ele>421.00000</ele>
        <time>2008-10-19T12:11:45Z</time>
      </trkpt>
      <trkpt lat="48.77380000" lon="8.266384000">
        <ele>421.00000</ele>
        <time>2008-10-19T12:11:45Z</time>
      </trkpt>
      <trkpt lat="48.77380000" lon="8.266351000">
        <ele>421.00000</ele>
        <time>2008-10-19T12:11:45Z</time>
      </trkpt>
      <trkpt lat="48.77380000" lon="8.266318000">
        <ele>421.00000</ele>
        <time>2008-10-19T12:11:45Z</time>
      </trkpt>
      <trkpt lat="48.77378000" lon="8.266287000">
        <ele>421.00000</ele>
        <time>2008-10-19T12:11:45Z</time>
      </trkpt>
      <trkpt lat="48.77378000" lon="8.266254000">
        <ele>421.00000</ele>
        <time>2008-10-19T12:11:45Z</time>
      </trkpt>
      <trkpt lat="48.77377000" lon="8.266226000">
        <ele>422.00000</ele>
        <time>2008-10-19T12:11:45Z</time>
      </trkpt>
      <trkpt lat="48.77377000" lon="8.266192000">
        <ele>422.00000</ele>
        <time>2008-10-19T12:11:45Z</time>
      </trkpt>
      <trkpt lat="48.77377000" lon="8.266158000">
        <ele>422.00000</ele>
        <time>2008-10-19T12:11:45Z</time>
      </trkpt>
      <trkpt lat="48.77376000" lon="8.266122000">
        <ele>422.00000</ele>
        <time>2008-10-19T12:11:45Z</time>
      </trkpt>
      <trkpt lat="48.77376000" lon="8.266092000">
        <ele>422.00000</ele>
        <time>2008-10-19T12:11:45Z</time>
      </trkpt>
      <trkpt lat="48.77375000" lon="8.266065000">
        <ele>422.00000</ele>
        <time>2008-10-19T12:11:45Z</time>
      </trkpt>
      <trkpt lat="48.77375000" lon="8.266028000">
        <ele>422.00000</ele>
        <time>2008-10-19T12:11:45Z</time>
      </trkpt>
      <trkpt lat="48.77374000" lon="8.265991000">
        <ele>378.00000</ele>
        <time>2008-10-19T12:11:45Z</time>
      </trkpt>
      <trkpt lat="48.77374000" lon="8.265949000">
        <ele>378.00000</ele>
        <time>2008-10-19T12:11:45Z</time>
      </trkpt>
      <trkpt lat="48.77374000" lon="8.265907000">
        <ele>378.00000</ele>
        <time>2008-10-19T12:11:45Z</time>
      </trkpt>
      <trkpt lat="48.77374000" lon="8.265867000">
        <ele>378.00000</ele>
        <time>2008-10-19T12:11:45Z</time>
      </trkpt>
      <trkpt lat="48.77374000" lon="8.265829000">
        <ele>378.00000</ele>
        <time>2008-10-19T12:11:45Z</time>
      </trkpt>
      <trkpt lat="48.77375000" lon="8.265789000">
        <ele>422.00000</ele>
        <time>2008-10-19T12:11:45Z</time>
      </trkpt>
      <trkpt lat="48.77376000" lon="8.265757000">
        <ele>422.00000</ele>
        <time>2008-10-19T12:11:45Z</time>
      </trkpt>
      <trkpt lat="48.77377000" lon="8.265727000">
        <ele>422.00000</ele>
        <time>2008-10-19T12:11:45Z</time>
      </trkpt>
      <trkpt lat="48.77378000" lon="8.265695000">
        <ele>422.00000</ele>
        <time>2008-10-19T12:11:45Z</time>
      </trkpt>
      <trkpt lat="48.77378000" lon="8.265654000">
        <ele>422.00000</ele>
        <time>2008-10-19T12:11:45Z</time>
      </trkpt>
      <trkpt lat="48.77380000" lon="8.265605000">
        <ele>422.00000</ele>
        <time>2008-10-19T12:11:45Z</time>
      </trkpt>
      <trkpt lat="48.77382000" lon="8.265556000">
        <ele>422.00000</ele>
        <time>2008-10-19T12:11:45Z</time>
      </trkpt>
      <trkpt lat="48.77383000" lon="8.265514000">
        <ele>422.00000</ele>
        <time>2008-10-19T12:11:45Z</time>
      </trkpt>
      <trkpt lat="48.77386000" lon="8.265474000">
        <ele>422.00000</ele>
        <time>2008-10-19T12:11:45Z</time>
      </trkpt>
      <trkpt lat="48.77388000" lon="8.265429000">
        <ele>422.00000</ele>
        <time>2008-10-19T12:11:45Z</time>
      </trkpt>
      <trkpt lat="48.77390000" lon="8.265390000">
        <ele>417.00000</ele>
        <time>2008-10-19T12:11:45Z</time>
      </trkpt>
      <trkpt lat="48.77392000" lon="8.265358000">
        <ele>417.00000</ele>
        <time>2008-10-19T12:11:45Z</time>
      </trkpt>
      <trkpt lat="48.77394000" lon="8.265319000">
        <ele>417.00000</ele>
        <time>2008-10-19T12:11:45Z</time>
      </trkpt>
      <trkpt lat="48.77396000" lon="8.265275000">
        <ele>417.00000</ele>
        <time>2008-10-19T12:11:45Z</time>
      </trkpt>
      <trkpt lat="48.77398000" lon="8.265231000">
        <ele>417.00000</ele>
        <time>2008-10-19T12:11:45Z</time>
      </trkpt>
      <trkpt lat="48.77399000" lon="8.265194000">
        <ele>417.00000</ele>
        <time>2008-10-19T12:11:45Z</time>
      </trkpt>
      <trkpt lat="48.77401000" lon="8.265159000">
        <ele>417.00000</ele>
        <time>2008-10-19T12:11:45Z</time>
      </trkpt>
      <trkpt lat="48.77402000" lon="8.265117000">
        <ele>417.00000</ele>
        <time>2008-10-19T12:11:45Z</time>
      </trkpt>
      <trkpt lat="48.77404000" lon="8.265067000">
        <ele>417.00000</ele>
        <time>2008-10-19T12:11:45Z</time>
      </trkpt>
      <trkpt lat="48.77406000" lon="8.265024000">
        <ele>417.00000</ele>
        <time>2008-10-19T12:11:45Z</time>
      </trkpt>
      <trkpt lat="48.77407000" lon="8.264989000">
        <ele>417.00000</ele>
        <time>2008-10-19T12:11:45Z</time>
      </trkpt>
      <trkpt lat="48.77409000" lon="8.264961000">
        <ele>417.00000</ele>
        <time>2008-10-19T12:11:45Z</time>
      </trkpt>
      <trkpt lat="48.77411000" lon="8.264926000">
        <ele>417.00000</ele>
        <time>2008-10-19T12:11:45Z</time>
      </trkpt>
      <trkpt lat="48.77411000" lon="8.264883000">
        <ele>417.00000</ele>
        <time>2008-10-19T12:11:45Z</time>
      </trkpt>
      <trkpt lat="48.77412000" lon="8.264845000">
        <ele>417.00000</ele>
        <time>2008-10-19T12:11:45Z</time>
      </trkpt>
      <trkpt lat="48.77414000" lon="8.264805000">
        <ele>417.00000</ele>
        <time>2008-10-19T12:11:45Z</time>
      </trkpt>
      <trkpt lat="48.77415000" lon="8.264764000">
        <ele>417.00000</ele>
        <time>2008-10-19T12:11:45Z</time>
      </trkpt>
      <trkpt lat="48.77416000" lon="8.264728000">
        <ele>417.00000</ele>
        <time>2008-10-19T12:11:45Z</time>
      </trkpt>
      <trkpt lat="48.77416000" lon="8.264699000">
        <ele>417.00000</ele>
        <time>2008-10-19T12:11:45Z</time>
      </trkpt>
      <trkpt lat="48.77417000" lon="8.264661000">
        <ele>417.00000</ele>
        <time>2008-10-19T12:11:45Z</time>
      </trkpt>
      <trkpt lat="48.77419000" lon="8.264616000">
        <ele>417.00000</ele>
        <time>2008-10-19T12:11:45Z</time>
      </trkpt>
      <trkpt lat="48.77420000" lon="8.264567000">
        <ele>408.00000</ele>
        <time>2008-10-19T12:11:45Z</time>
      </trkpt>
      <trkpt lat="48.77421000" lon="8.264520000">
        <ele>408.00000</ele>
        <time>2008-10-19T12:11:45Z</time>
      </trkpt>
      <trkpt lat="48.77421000" lon="8.264479000">
        <ele>408.00000</ele>
        <time>2008-10-19T12:11:45Z</time>
      </trkpt>
      <trkpt lat="48.77423000" lon="8.264443000">
        <ele>408.00000</ele>
        <time>2008-10-19T12:11:45Z</time>
      </trkpt>
      <trkpt lat="48.77425000" lon="8.264411000">
        <ele>408.00000</ele>
        <time>2008-10-19T12:11:45Z</time>
      </trkpt>
      <trkpt lat="48.77425000" lon="8.264371000">
        <ele>408.00000</ele>
        <time>2008-10-19T12:11:45Z</time>
      </trkpt>
      <trkpt lat="48.77427000" lon="8.264331000">
        <ele>408.00000</ele>
        <time>2008-10-19T12:11:45Z</time>
      </trkpt>
      <trkpt lat="48.77427000" lon="8.264293000">
        <ele>408.00000</ele>
        <time>2008-10-19T12:11:45Z</time>
      </trkpt>
      <trkpt lat="48.77428000" lon="8.264261000">
        <ele>408.00000</ele>
        <time>2008-10-19T12:11:45Z</time>
      </trkpt>
      <trkpt lat="48.77429000" lon="8.264220000">
        <ele>408.00000</ele>
        <time>2008-10-19T12:11:45Z</time>
      </trkpt>
      <trkpt lat="48.77428000" lon="8.264179000">
        <ele>408.00000</ele>
        <time>2008-10-19T12:11:45Z</time>
      </trkpt>
      <trkpt lat="48.77427000" lon="8.264136000">
        <ele>408.00000</ele>
        <time>2008-10-19T12:11:45Z</time>
      </trkpt>
      <trkpt lat="48.77427000" lon="8.264089000">
        <ele>408.00000</ele>
        <time>2008-10-19T12:11:45Z</time>
      </trkpt>
      <trkpt lat="48.77428000" lon="8.264042000">
        <ele>408.00000</ele>
        <time>2008-10-19T12:11:45Z</time>
      </trkpt>
      <trkpt lat="48.77428000" lon="8.263999000">
        <ele>408.00000</ele>
        <time>2008-10-19T12:11:45Z</time>
      </trkpt>
      <trkpt lat="48.77429000" lon="8.263956000">
        <ele>408.00000</ele>
        <time>2008-10-19T12:11:45Z</time>
      </trkpt>
      <trkpt lat="48.77429000" lon="8.263913000">
        <ele>408.00000</ele>
        <time>2008-10-19T12:11:45Z</time>
      </trkpt>
      <trkpt lat="48.77430000" lon="8.263862000">
        <ele>408.00000</ele>
        <time>2008-10-19T12:11:45Z</time>
      </trkpt>
      <trkpt lat="48.77431000" lon="8.263819000">
        <ele>408.00000</ele>
        <time>2008-10-19T12:11:45Z</time>
      </trkpt>
      <trkpt lat="48.77431000" lon="8.263781000">
        <ele>408.00000</ele>
        <time>2008-10-19T12:11:45Z</time>
      </trkpt>
      <trkpt lat="48.77432000" lon="8.263753000">
        <ele>408.00000</ele>
        <time>2008-10-19T12:11:45Z</time>
      </trkpt>
      <trkpt lat="48.77433000" lon="8.263715000">
        <ele>395.00000</ele>
        <time>2008-10-19T12:11:45Z</time>
      </trkpt>
      <trkpt lat="48.77434000" lon="8.263680000">
        <ele>395.00000</ele>
        <time>2008-10-19T12:11:45Z</time>
      </trkpt>
      <trkpt lat="48.77435000" lon="8.263649000">
        <ele>395.00000</ele>
        <time>2008-10-19T12:11:45Z</time>
      </trkpt>
      <trkpt lat="48.77436000" lon="8.263618000">
        <ele>395.00000</ele>
        <time>2008-10-19T12:11:45Z</time>
      </trkpt>
      <trkpt lat="48.77436000" lon="8.263584000">
        <ele>395.00000</ele>
        <time>2008-10-19T12:11:45Z</time>
      </trkpt>
      <trkpt lat="48.77437000" lon="8.263548000">
        <ele>395.00000</ele>
        <time>2008-10-19T12:11:45Z</time>
      </trkpt>
      <trkpt lat="48.77438000" lon="8.263511000">
        <ele>395.00000</ele>
        <time>2008-10-19T12:11:45Z</time>
      </trkpt>
      <trkpt lat="48.77439000" lon="8.263474000">
        <ele>395.00000</ele>
        <time>2008-10-19T12:11:45Z</time>
      </trkpt>
      <trkpt lat="48.77439000" lon="8.263433000">
        <ele>395.00000</ele>
        <time>2008-10-19T12:11:45Z</time>
      </trkpt>
      <trkpt lat="48.77441000" lon="8.263393000">
        <ele>395.00000</ele>
        <time>2008-10-19T12:11:45Z</time>
      </trkpt>
      <trkpt lat="48.77441000" lon="8.263361000">
        <ele>395.00000</ele>
        <time>2008-10-19T12:11:45Z</time>
      </trkpt>
      <trkpt lat="48.77443000" lon="8.263330000">
        <ele>395.00000</ele>
        <time>2008-10-19T12:11:45Z</time>
      </trkpt>
      <trkpt lat="48.77444000" lon="8.263295000">
        <ele>395.00000</ele>
        <time>2008-10-19T12:11:45Z</time>
      </trkpt>
      <trkpt lat="48.77445000" lon="8.263260000">
        <ele>395.00000</ele>
        <time>2008-10-19T12:11:45Z</time>
      </trkpt>
      <trkpt lat="48.77446000" lon="8.263224000">
        <ele>395.00000</ele>
        <time>2008-10-19T12:11:45Z</time>
      </trkpt>
      <trkpt lat="48.77447000" lon="8.263182000">
        <ele>395.00000</ele>
        <time>2008-10-19T12:11:45Z</time>
      </trkpt>
      <trkpt lat="48.77448000" lon="8.263126000">
        <ele>395.00000</ele>
        <time>2008-10-19T12:11:45Z</time>
      </trkpt>
      <trkpt lat="48.77449000" lon="8.263073000">
        <ele>395.00000</ele>
        <time>2008-10-19T12:11:45Z</time>
      </trkpt>
      <trkpt lat="48.77449000" lon="8.263025000">
        <ele>395.00000</ele>
        <time>2008-10-19T12:11:45Z</time>
      </trkpt>
      <trkpt lat="48.77450000" lon="8.262986000">
        <ele>395.00000</ele>
        <time>2008-10-19T12:11:45Z</time>
      </trkpt>
      <trkpt lat="48.77450000" lon="8.262938000">
        <ele>395.00000</ele>
        <time>2008-10-19T12:11:45Z</time>
      </trkpt>
      <trkpt lat="48.77450000" lon="8.262892000">
        <ele>389.00000</ele>
        <time>2008-10-19T12:11:45Z</time>
      </trkpt>
      <trkpt lat="48.77450000" lon="8.262856000">
        <ele>389.00000</ele>
        <time>2008-10-19T12:11:45Z</time>
      </trkpt>
      <trkpt lat="48.77451000" lon="8.262815000">
        <ele>389.00000</ele>
        <time>2008-10-19T12:11:45Z</time>
      </trkpt>
      <trkpt lat="48.77451000" lon="8.262773000">
        <ele>389.00000</ele>
        <time>2008-10-19T12:11:45Z</time>
      </trkpt>
      <trkpt lat="48.77452000" lon="8.262734000">
        <ele>389.00000</ele>
        <time>2008-10-19T12:11:45Z</time>
      </trkpt>
      <trkpt lat="48.77452000" lon="8.262707000">
        <ele>389.00000</ele>
        <time>2008-10-19T12:11:45Z</time>
      </trkpt>
      <trkpt lat="48.77452000" lon="8.262680000">
        <ele>389.00000</ele>
        <time>2008-10-19T12:11:45Z</time>
      </trkpt>
      <trkpt lat="48.77451000" lon="8.262632000">
        <ele>389.00000</ele>
        <time>2008-10-19T12:11:45Z</time>
      </trkpt>
      <trkpt lat="48.77450000" lon="8.262589000">
        <ele>389.00000</ele>
        <time>2008-10-19T12:11:45Z</time>
      </trkpt>
      <trkpt lat="48.77450000" lon="8.262552000">
        <ele>389.00000</ele>
        <time>2008-10-19T12:11:45Z</time>
      </trkpt>
      <trkpt lat="48.77450000" lon="8.262507000">
        <ele>389.00000</ele>
        <time>2008-10-19T12:11:45Z</time>
      </trkpt>
      <trkpt lat="48.77451000" lon="8.262477000">
        <ele>389.00000</ele>
        <time>2008-10-19T12:11:45Z</time>
      </trkpt>
      <trkpt lat="48.77451000" lon="8.262444000">
        <ele>389.00000</ele>
        <time>2008-10-19T12:11:45Z</time>
      </trkpt>
      <trkpt lat="48.77452000" lon="8.262410000">
        <ele>389.00000</ele>
        <time>2008-10-19T12:11:45Z</time>
      </trkpt>
      <trkpt lat="48.77452000" lon="8.262375000">
        <ele>389.00000</ele>
        <time>2008-10-19T12:11:45Z</time>
      </trkpt>
      <trkpt lat="48.77453000" lon="8.262343000">
        <ele>389.00000</ele>
        <time>2008-10-19T12:11:45Z</time>
      </trkpt>
      <trkpt lat="48.77454000" lon="8.262306000">
        <ele>389.00000</ele>
        <time>2008-10-19T12:11:45Z</time>
      </trkpt>
      <trkpt lat="48.77454000" lon="8.262259000">
        <ele>389.00000</ele>
        <time>2008-10-19T12:11:45Z</time>
      </trkpt>
      <trkpt lat="48.77454000" lon="8.262220000">
        <ele>389.00000</ele>
        <time>2008-10-19T12:11:45Z</time>
      </trkpt>
      <trkpt lat="48.77455000" lon="8.262181000">
        <ele>389.00000</ele>
        <time>2008-10-19T12:11:45Z</time>
      </trkpt>
      <trkpt lat="48.77455000" lon="8.262139000">
        <ele>389.00000</ele>
        <time>2008-10-19T12:11:45Z</time>
      </trkpt>
      <trkpt lat="48.77456000" lon="8.262101000">
        <ele>389.00000</ele>
        <time>2008-10-19T12:11:45Z</time>
      </trkpt>
      <trkpt lat="48.77457000" lon="8.262062000">
        <ele>388.00000</ele>
        <time>2008-10-19T12:11:45Z</time>
      </trkpt>
      <trkpt lat="48.77457000" lon="8.262023000">
        <ele>388.00000</ele>
        <time>2008-10-19T12:11:45Z</time>
      </trkpt>
      <trkpt lat="48.77458000" lon="8.261987000">
        <ele>388.00000</ele>
        <time>2008-10-19T12:11:45Z</time>
      </trkpt>
      <trkpt lat="48.77459000" lon="8.261955000">
        <ele>424.00000</ele>
        <time>2008-10-19T12:11:45Z</time>
      </trkpt>
      <trkpt lat="48.77460000" lon="8.261924000">
        <ele>424.00000</ele>
        <time>2008-10-19T12:11:45Z</time>
      </trkpt>
      <trkpt lat="48.77461000" lon="8.261896000">
        <ele>424.00000</ele>
        <time>2008-10-19T12:11:45Z</time>
      </trkpt>
      <trkpt lat="48.77462000" lon="8.261865000">
        <ele>424.00000</ele>
        <time>2008-10-19T12:11:45Z</time>
      </trkpt>
      <trkpt lat="48.77463000" lon="8.261830000">
        <ele>424.00000</ele>
        <time>2008-10-19T12:11:45Z</time>
      </trkpt>
      <trkpt lat="48.77464000" lon="8.261791000">
        <ele>424.00000</ele>
        <time>2008-10-19T12:11:45Z</time>
      </trkpt>
      <trkpt lat="48.77464000" lon="8.261747000">
        <ele>424.00000</ele>
        <time>2008-10-19T12:11:45Z</time>
      </trkpt>
      <trkpt lat="48.77464000" lon="8.261713000">
        <ele>424.00000</ele>
        <time>2008-10-19T12:11:45Z</time>
      </trkpt>
      <trkpt lat="48.77465000" lon="8.261680000">
        <ele>424.00000</ele>
        <time>2008-10-19T12:11:45Z</time>
      </trkpt>
      <trkpt lat="48.77465000" lon="8.261650000">
        <ele>424.00000</ele>
        <time>2008-10-19T12:11:45Z</time>
      </trkpt>
      <trkpt lat="48.77466000" lon="8.261621000">
        <ele>424.00000</ele>
        <time>2008-10-19T12:11:45Z</time>
      </trkpt>
      <trkpt lat="48.77467000" lon="8.261592000">
        <ele>424.00000</ele>
        <time>2008-10-19T12:11:45Z</time>
      </trkpt>
      <trkpt lat="48.77467000" lon="8.261561000">
        <ele>424.00000</ele>
        <time>2008-10-19T12:11:45Z</time>
      </trkpt>
      <trkpt lat="48.77468000" lon="8.261530000">
        <ele>424.00000</ele>
        <time>2008-10-19T12:11:45Z</time>
      </trkpt>
      <trkpt lat="48.77468000" lon="8.261508000">
        <ele>424.00000</ele>
        <time>2008-10-19T12:11:45Z</time>
      </trkpt>
      <trkpt lat="48.77469000" lon="8.261478000">
        <ele>424.00000</ele>
        <time>2008-10-19T12:11:45Z</time>
      </trkpt>
      <trkpt lat="48.77470000" lon="8.261440000">
        <ele>424.00000</ele>
        <time>2008-10-19T12:11:45Z</time>
      </trkpt>
      <trkpt lat="48.77470000" lon="8.261404000">
        <ele>424.00000</ele>
        <time>2008-10-19T12:11:45Z</time>
      </trkpt>
      <trkpt lat="48.77470000" lon="8.261369000">
        <ele>424.00000</ele>
        <time>2008-10-19T12:11:45Z</time>
      </trkpt>
      <trkpt lat="48.77472000" lon="8.261333000">
        <ele>424.00000</ele>
        <time>2008-10-19T12:11:45Z</time>
      </trkpt>
      <trkpt lat="48.77473000" lon="8.261298000">
        <ele>424.00000</ele>
        <time>2008-10-19T12:11:45Z</time>
      </trkpt>
      <trkpt lat="48.77475000" lon="8.261266000">
        <ele>424.00000</ele>
        <time>2008-10-19T12:11:45Z</time>
      </trkpt>
      <trkpt lat="48.77475000" lon="8.261234000">
        <ele>420.00000</ele>
        <time>2008-10-19T12:11:45Z</time>
      </trkpt>
      <trkpt lat="48.77476000" lon="8.261202000">
        <ele>420.00000</ele>
        <time>2008-10-19T12:11:45Z</time>
      </trkpt>
      <trkpt lat="48.77477000" lon="8.261169000">
        <ele>420.00000</ele>
        <time>2008-10-19T12:11:45Z</time>
      </trkpt>
      <trkpt lat="48.77478000" lon="8.261143000">
        <ele>420.00000</ele>
        <time>2008-10-19T12:11:45Z</time>
      </trkpt>
      <trkpt lat="48.77479000" lon="8.261116000">
        <ele>420.00000</ele>
        <time>2008-10-19T12:11:45Z</time>
      </trkpt>
      <trkpt lat="48.77480000" lon="8.261085000">
        <ele>420.00000</ele>
        <time>2008-10-19T12:11:45Z</time>
      </trkpt>
      <trkpt lat="48.77478000" lon="8.261041000">
        <ele>420.00000</ele>
        <time>2008-10-19T12:11:45Z</time>
      </trkpt>
      <trkpt lat="48.77479000" lon="8.261013000">
        <ele>420.00000</ele>
        <time>2008-10-19T12:11:45Z</time>
      </trkpt>
      <trkpt lat="48.77480000" lon="8.260980000">
        <ele>420.00000</ele>
        <time>2008-10-19T12:11:45Z</time>
      </trkpt>
      <trkpt lat="48.77480000" lon="8.260942000">
        <ele>420.00000</ele>
        <time>2008-10-19T12:11:45Z</time>
      </trkpt>
      <trkpt lat="48.77481000" lon="8.260909000">
        <ele>420.00000</ele>
        <time>2008-10-19T12:11:45Z</time>
      </trkpt>
      <trkpt lat="48.77482000" lon="8.260882000">
        <ele>420.00000</ele>
        <time>2008-10-19T12:11:45Z</time>
      </trkpt>
      <trkpt lat="48.77482000" lon="8.260850000">
        <ele>420.00000</ele>
        <time>2008-10-19T12:11:45Z</time>
      </trkpt>
      <trkpt lat="48.77483000" lon="8.260818000">
        <ele>420.00000</ele>
        <time>2008-10-19T12:11:45Z</time>
      </trkpt>
      <trkpt lat="48.77483000" lon="8.260780000">
        <ele>420.00000</ele>
        <time>2008-10-19T12:11:45Z</time>
      </trkpt>
      <trkpt lat="48.77485000" lon="8.260749000">
        <ele>420.00000</ele>
        <time>2008-10-19T12:11:45Z</time>
      </trkpt>
      <trkpt lat="48.77486000" lon="8.260719000">
        <ele>420.00000</ele>
        <time>2008-10-19T12:11:45Z</time>
      </trkpt>
      <trkpt lat="48.77487000" lon="8.260689000">
        <ele>420.00000</ele>
        <time>2008-10-19T12:11:45Z</time>
      </trkpt>
      <trkpt lat="48.77486000" lon="8.260639000">
        <ele>420.00000</ele>
        <time>2008-10-19T12:11:45Z</time>
      </trkpt>
      <trkpt lat="48.77486000" lon="8.260601000">
        <ele>420.00000</ele>
        <time>2008-10-19T12:11:45Z</time>
      </trkpt>
      <trkpt lat="48.77486000" lon="8.260570000">
        <ele>420.00000</ele>
        <time>2008-10-19T12:11:45Z</time>
      </trkpt>
      <trkpt lat="48.77487000" lon="8.260540000">
        <ele>420.00000</ele>
        <time>2008-10-19T12:11:45Z</time>
      </trkpt>
      <trkpt lat="48.77487000" lon="8.260512000">
        <ele>420.00000</ele>
        <time>2008-10-19T12:11:45Z</time>
      </trkpt>
      <trkpt lat="48.77487000" lon="8.260486000">
        <ele>420.00000</ele>
        <time>2008-10-19T12:11:45Z</time>
      </trkpt>
      <trkpt lat="48.77488000" lon="8.260450000">
        <ele>420.00000</ele>
        <time>2008-10-19T12:11:45Z</time>
      </trkpt>
      <trkpt lat="48.77488000" lon="8.260418000">
        <ele>420.00000</ele>
        <time>2008-10-19T12:11:45Z</time>
      </trkpt>
      <trkpt lat="48.77489000" lon="8.260387000">
        <ele>421.00000</ele>
        <time>2008-10-19T12:11:45Z</time>
      </trkpt>
      <trkpt lat="48.77490000" lon="8.260354000">
        <ele>421.00000</ele>
        <time>2008-10-19T12:11:45Z</time>
      </trkpt>
      <trkpt lat="48.77491000" lon="8.260318000">
        <ele>421.00000</ele>
        <time>2008-10-19T12:11:45Z</time>
      </trkpt>
      <trkpt lat="48.77491000" lon="8.260283000">
        <ele>421.00000</ele>
        <time>2008-10-19T12:11:45Z</time>
      </trkpt>
      <trkpt lat="48.77492000" lon="8.260252000">
        <ele>421.00000</ele>
        <time>2008-10-19T12:11:45Z</time>
      </trkpt>
      <trkpt lat="48.77492000" lon="8.260218000">
        <ele>421.00000</ele>
        <time>2008-10-19T12:11:45Z</time>
      </trkpt>
      <trkpt lat="48.77493000" lon="8.260183000">
        <ele>421.00000</ele>
        <time>2008-10-19T12:11:45Z</time>
      </trkpt>
      <trkpt lat="48.77494000" lon="8.260156000">
        <ele>421.00000</ele>
        <time>2008-10-19T12:11:45Z</time>
      </trkpt>
      <trkpt lat="48.77494000" lon="8.260130000">
        <ele>421.00000</ele>
        <time>2008-10-19T12:11:45Z</time>
      </trkpt>
      <trkpt lat="48.77496000" lon="8.260105000">
        <ele>421.00000</ele>
        <time>2008-10-19T12:11:45Z</time>
      </trkpt>
      <trkpt lat="48.77496000" lon="8.260078000">
        <ele>421.00000</ele>
        <time>2008-10-19T12:11:45Z</time>
      </trkpt>
      <trkpt lat="48.77497000" lon="8.260054000">
        <ele>421.00000</ele>
        <time>2008-10-19T12:11:45Z</time>
      </trkpt>
      <trkpt lat="48.77498000" lon="8.260029000">
        <ele>421.00000</ele>
        <time>2008-10-19T12:11:45Z</time>
      </trkpt>
      <trkpt lat="48.77499000" lon="8.259999000">
        <ele>421.00000</ele>
        <time>2008-10-19T12:11:45Z</time>
      </trkpt>
      <trkpt lat="48.77500000" lon="8.259972000">
        <ele>421.00000</ele>
        <time>2008-10-19T12:11:45Z</time>
      </trkpt>
      <trkpt lat="48.77501000" lon="8.259941000">
        <ele>421.00000</ele>
        <time>2008-10-19T12:11:45Z</time>
      </trkpt>
      <trkpt lat="48.77502000" lon="8.259914000">
        <ele>421.00000</ele>
        <time>2008-10-19T12:11:45Z</time>
      </trkpt>
      <trkpt lat="48.77503000" lon="8.259888000">
        <ele>421.00000</ele>
        <time>2008-10-19T12:11:45Z</time>
      </trkpt>
      <trkpt lat="48.77504000" lon="8.259858000">
        <ele>421.00000</ele>
        <time>2008-10-19T12:11:45Z</time>
      </trkpt>
      <trkpt lat="48.77504000" lon="8.259826000">
        <ele>421.00000</ele>
        <time>2008-10-19T12:11:45Z</time>
      </trkpt>
      <trkpt lat="48.77504000" lon="8.259805000">
        <ele>421.00000</ele>
        <time>2008-10-19T12:11:45Z</time>
      </trkpt>
      <trkpt lat="48.77504000" lon="8.259780000">
        <ele>421.00000</ele>
        <time>2008-10-19T12:11:45Z</time>
      </trkpt>
      <trkpt lat="48.77504000" lon="8.259759000">
        <ele>421.00000</ele>
        <time>2008-10-19T12:11:45Z</time>
      </trkpt>
      <trkpt lat="48.77504000" lon="8.259733000">
        <ele>421.00000</ele>
        <time>2008-10-19T12:11:45Z</time>
      </trkpt>
      <trkpt lat="48.77505000" lon="8.259708000">
        <ele>421.00000</ele>
        <time>2008-10-19T12:11:45Z</time>
      </trkpt>
      <trkpt lat="48.77505000" lon="8.259687000">
        <ele>421.00000</ele>
        <time>2008-10-19T12:11:45Z</time>
      </trkpt>
      <trkpt lat="48.77505000" lon="8.259666000">
        <ele>421.00000</ele>
        <time>2008-10-19T12:11:45Z</time>
      </trkpt>
      <trkpt lat="48.77505000" lon="8.259644000">
        <ele>421.00000</ele>
        <time>2008-10-19T12:11:45Z</time>
      </trkpt>
      <trkpt lat="48.77505000" lon="8.259624000">
        <ele>421.00000</ele>
        <time>2008-10-19T12:11:45Z</time>
      </trkpt>
      <trkpt lat="48.77505000" lon="8.259605000">
        <ele>421.00000</ele>
        <time>2008-10-19T12:11:45Z</time>
      </trkpt>
      <trkpt lat="48.77505000" lon="8.259588000">
        <ele>421.00000</ele>
        <time>2008-10-19T12:11:45Z</time>
      </trkpt>
      <trkpt lat="48.77505000" lon="8.259571000">
        <ele>421.00000</ele>
        <time>2008-10-19T12:11:45Z</time>
      </trkpt>
      <trkpt lat="48.77505000" lon="8.259556000">
        <ele>421.00000</ele>
        <time>2008-10-19T12:11:45Z</time>
      </trkpt>
      <trkpt lat="48.77506000" lon="8.259538000">
        <ele>421.00000</ele>
        <time>2008-10-19T12:11:45Z</time>
      </trkpt>
      <trkpt lat="48.77507000" lon="8.259516000">
        <ele>421.00000</ele>
        <time>2008-10-19T12:11:45Z</time>
      </trkpt>
      <trkpt lat="48.77507000" lon="8.259489000">
        <ele>421.00000</ele>
        <time>2008-10-19T12:11:45Z</time>
      </trkpt>
      <trkpt lat="48.77507000" lon="8.259473000">
        <ele>421.00000</ele>
        <time>2008-10-19T12:11:45Z</time>
      </trkpt>
      <trkpt lat="48.77507000" lon="8.259449000">
        <ele>421.00000</ele>
        <time>2008-10-19T12:11:45Z</time>
      </trkpt>
      <trkpt lat="48.77507000" lon="8.259430000">
        <ele>421.00000</ele>
        <time>2008-10-19T12:11:45Z</time>
      </trkpt>
      <trkpt lat="48.77507000" lon="8.259402000">
        <ele>421.00000</ele>
        <time>2008-10-19T12:11:45Z</time>
      </trkpt>
      <trkpt lat="48.77507000" lon="8.259381000">
        <ele>421.00000</ele>
        <time>2008-10-19T12:11:45Z</time>
      </trkpt>
      <trkpt lat="48.77508000" lon="8.259359000">
        <ele>421.00000</ele>
        <time>2008-10-19T12:11:45Z</time>
      </trkpt>
      <trkpt lat="48.77508000" lon="8.259339000">
        <ele>421.00000</ele>
        <time>2008-10-19T12:11:45Z</time>
      </trkpt>
      <trkpt lat="48.77508000" lon="8.259315000">
        <ele>421.00000</ele>
        <time>2008-10-19T12:11:45Z</time>
      </trkpt>
      <trkpt lat="48.77509000" lon="8.259292000">
        <ele>421.00000</ele>
        <time>2008-10-19T12:11:45Z</time>
      </trkpt>
      <trkpt lat="48.77509000" lon="8.259272000">
        <ele>421.00000</ele>
        <time>2008-10-19T12:11:45Z</time>
      </trkpt>
      <trkpt lat="48.77510000" lon="8.259248000">
        <ele>421.00000</ele>
        <time>2008-10-19T12:11:45Z</time>
      </trkpt>
      <trkpt lat="48.77510000" lon="8.259221000">
        <ele>421.00000</ele>
        <time>2008-10-19T12:11:45Z</time>
      </trkpt>
      <trkpt lat="48.77510000" lon="8.259197000">
        <ele>421.00000</ele>
        <time>2008-10-19T12:11:45Z</time>
      </trkpt>
      <trkpt lat="48.77510000" lon="8.259172000">
        <ele>421.00000</ele>
        <time>2008-10-19T12:11:45Z</time>
      </trkpt>
      <trkpt lat="48.77511000" lon="8.259151000">
        <ele>421.00000</ele>
        <time>2008-10-19T12:11:45Z</time>
      </trkpt>
      <trkpt lat="48.77512000" lon="8.259129000">
        <ele>421.00000</ele>
        <time>2008-10-19T12:11:45Z</time>
      </trkpt>
      <trkpt lat="48.77512000" lon="8.259102000">
        <ele>421.00000</ele>
        <time>2008-10-19T12:11:45Z</time>
      </trkpt>
      <trkpt lat="48.77513000" lon="8.259077000">
        <ele>421.00000</ele>
        <time>2008-10-19T12:11:45Z</time>
      </trkpt>
      <trkpt lat="48.77514000" lon="8.259058000">
        <ele>421.00000</ele>
        <time>2008-10-19T12:11:45Z</time>
      </trkpt>
      <trkpt lat="48.77514000" lon="8.259037000">
        <ele>421.00000</ele>
        <time>2008-10-19T12:11:45Z</time>
      </trkpt>
      <trkpt lat="48.77514000" lon="8.259015000">
        <ele>421.00000</ele>
        <time>2008-10-19T12:11:45Z</time>
      </trkpt>
      <trkpt lat="48.77515000" lon="8.258996000">
        <ele>421.00000</ele>
        <time>2008-10-19T12:11:45Z</time>
      </trkpt>
      <trkpt lat="48.77515000" lon="8.258977000">
        <ele>421.00000</ele>
        <time>2008-10-19T12:11:45Z</time>
      </trkpt>
      <trkpt lat="48.77516000" lon="8.258958000">
        <ele>421.00000</ele>
        <time>2008-10-19T12:11:45Z</time>
      </trkpt>
      <trkpt lat="48.77517000" lon="8.258938000">
        <ele>421.00000</ele>
        <time>2008-10-19T12:11:45Z</time>
      </trkpt>
      <trkpt lat="48.77518000" lon="8.258915000">
        <ele>421.00000</ele>
        <time>2008-10-19T12:11:45Z</time>
      </trkpt>
      <trkpt lat="48.77518000" lon="8.258889000">
        <ele>421.00000</ele>
        <time>2008-10-19T12:11:45Z</time>
      </trkpt>
      <trkpt lat="48.77518000" lon="8.258862000">
        <ele>421.00000</ele>
        <time>2008-10-19T12:11:45Z</time>
      </trkpt>
      <trkpt lat="48.77519000" lon="8.258844000">
        <ele>421.00000</ele>
        <time>2008-10-19T12:11:45Z</time>
      </trkpt>
      <trkpt lat="48.77519000" lon="8.258828000">
        <ele>421.00000</ele>
        <time>2008-10-19T12:11:45Z</time>
      </trkpt>
      <trkpt lat="48.77518000" lon="8.258808000">
        <ele>421.00000</ele>
        <time>2008-10-19T12:11:45Z</time>
      </trkpt>
      <trkpt lat="48.77518000" lon="8.258784000">
        <ele>421.00000</ele>
        <time>2008-10-19T12:11:45Z</time>
      </trkpt>
      <trkpt lat="48.77518000" lon="8.258764000">
        <ele>421.00000</ele>
        <time>2008-10-19T12:11:45Z</time>
      </trkpt>
      <trkpt lat="48.77518000" lon="8.258743000">
        <ele>426.00000</ele>
        <time>2008-10-19T12:11:45Z</time>
      </trkpt>
      <trkpt lat="48.77518000" lon="8.258726000">
        <ele>426.00000</ele>
        <time>2008-10-19T12:11:45Z</time>
      </trkpt>
      <trkpt lat="48.77519000" lon="8.258709000">
        <ele>426.00000</ele>
        <time>2008-10-19T12:11:45Z</time>
      </trkpt>
      <trkpt lat="48.77520000" lon="8.258683000">
        <ele>426.00000</ele>
        <time>2008-10-19T12:11:45Z</time>
      </trkpt>
      <trkpt lat="48.77520000" lon="8.258657000">
        <ele>426.00000</ele>
        <time>2008-10-19T12:11:45Z</time>
      </trkpt>
      <trkpt lat="48.77520000" lon="8.258633000">
        <ele>426.00000</ele>
        <time>2008-10-19T12:11:45Z</time>
      </trkpt>
      <trkpt lat="48.77520000" lon="8.258613000">
        <ele>426.00000</ele>
        <time>2008-10-19T12:11:45Z</time>
      </trkpt>
      <trkpt lat="48.77519000" lon="8.258579000">
        <ele>426.00000</ele>
        <time>2008-10-19T12:11:45Z</time>
      </trkpt>
      <trkpt lat="48.77520000" lon="8.258556000">
        <ele>426.00000</ele>
        <time>2008-10-19T12:11:45Z</time>
      </trkpt>
      <trkpt lat="48.77520000" lon="8.258528000">
        <ele>426.00000</ele>
        <time>2008-10-19T12:11:45Z</time>
      </trkpt>
      <trkpt lat="48.77520000" lon="8.258490000">
        <ele>426.00000</ele>
        <time>2008-10-19T12:11:45Z</time>
      </trkpt>
      <trkpt lat="48.77520000" lon="8.258464000">
        <ele>426.00000</ele>
        <time>2008-10-19T12:11:45Z</time>
      </trkpt>
      <trkpt lat="48.77521000" lon="8.258442000">
        <ele>426.00000</ele>
        <time>2008-10-19T12:11:45Z</time>
      </trkpt>
      <trkpt lat="48.77520000" lon="8.258410000">
        <ele>426.00000</ele>
        <time>2008-10-19T12:11:45Z</time>
      </trkpt>
      <trkpt lat="48.77519000" lon="8.258378000">
        <ele>426.00000</ele>
        <time>2008-10-19T12:11:45Z</time>
      </trkpt>
      <trkpt lat="48.77520000" lon="8.258360000">
        <ele>426.00000</ele>
        <time>2008-10-19T12:11:45Z</time>
      </trkpt>
      <trkpt lat="48.77522000" lon="8.258340000">
        <ele>426.00000</ele>
        <time>2008-10-19T12:11:45Z</time>
      </trkpt>
      <trkpt lat="48.77523000" lon="8.258312000">
        <ele>426.00000</ele>
        <time>2008-10-19T12:11:45Z</time>
      </trkpt>
      <trkpt lat="48.77525000" lon="8.258286000">
        <ele>426.00000</ele>
        <time>2008-10-19T12:11:45Z</time>
      </trkpt>
      <trkpt lat="48.77526000" lon="8.258269000">
        <ele>426.00000</ele>
        <time>2008-10-19T12:11:45Z</time>
      </trkpt>
      <trkpt lat="48.77528000" lon="8.258246000">
        <ele>426.00000</ele>
        <time>2008-10-19T12:11:45Z</time>
      </trkpt>
      <trkpt lat="48.77529000" lon="8.258225000">
        <ele>426.00000</ele>
        <time>2008-10-19T12:11:45Z</time>
      </trkpt>
      <trkpt lat="48.77530000" lon="8.258204000">
        <ele>426.00000</ele>
        <time>2008-10-19T12:11:45Z</time>
      </trkpt>
      <trkpt lat="48.77531000" lon="8.258189000">
        <ele>426.00000</ele>
        <time>2008-10-19T12:11:45Z</time>
      </trkpt>
      <trkpt lat="48.77531000" lon="8.258173000">
        <ele>426.00000</ele>
        <time>2008-10-19T12:11:45Z</time>
      </trkpt>
      <trkpt lat="48.77533000" lon="8.258155000">
        <ele>426.00000</ele>
        <time>2008-10-19T12:11:45Z</time>
      </trkpt>
      <trkpt lat="48.77533000" lon="8.258134000">
        <ele>426.00000</ele>
        <time>2008-10-19T12:11:45Z</time>
      </trkpt>
      <trkpt lat="48.77534000" lon="8.258117000">
        <ele>426.00000</ele>
        <time>2008-10-19T12:11:45Z</time>
      </trkpt>
      <trkpt lat="48.77535000" lon="8.258103000">
        <ele>426.00000</ele>
        <time>2008-10-19T12:11:45Z</time>
      </trkpt>
      <trkpt lat="48.77535000" lon="8.258088000">
        <ele>426.00000</ele>
        <time>2008-10-19T12:11:45Z</time>
      </trkpt>
      <trkpt lat="48.77537000" lon="8.258054000">
        <ele>426.00000</ele>
        <time>2008-10-19T12:11:45Z</time>
      </trkpt>
      <trkpt lat="48.77538000" lon="8.258033000">
        <ele>426.00000</ele>
        <time>2008-10-19T12:11:45Z</time>
      </trkpt>
      <trkpt lat="48.77538000" lon="8.258013000">
        <ele>426.00000</ele>
        <time>2008-10-19T12:11:45Z</time>
      </trkpt>
      <trkpt lat="48.77539000" lon="8.257992000">
        <ele>426.00000</ele>
        <time>2008-10-19T12:11:45Z</time>
      </trkpt>
      <trkpt lat="48.77540000" lon="8.257974000">
        <ele>426.00000</ele>
        <time>2008-10-19T12:11:45Z</time>
      </trkpt>
      <trkpt lat="48.77541000" lon="8.257957000">
        <ele>426.00000</ele>
        <time>2008-10-19T12:11:45Z</time>
      </trkpt>
      <trkpt lat="48.77541000" lon="8.257935000">
        <ele>426.00000</ele>
        <time>2008-10-19T12:11:45Z</time>
      </trkpt>
      <trkpt lat="48.77542000" lon="8.257913000">
        <ele>449.00000</ele>
        <time>2008-10-19T12:11:45Z</time>
      </trkpt>
      <trkpt lat="48.77543000" lon="8.257893000">
        <ele>449.00000</ele>
        <time>2008-10-19T12:11:45Z</time>
      </trkpt>
      <trkpt lat="48.77544000" lon="8.257875000">
        <ele>449.00000</ele>
        <time>2008-10-19T12:11:45Z</time>
      </trkpt>
      <trkpt lat="48.77545000" lon="8.257855000">
        <ele>449.00000</ele>
        <time>2008-10-19T12:11:45Z</time>
      </trkpt>
      <trkpt lat="48.77545000" lon="8.257833000">
        <ele>449.00000</ele>
        <time>2008-10-19T12:11:45Z</time>
      </trkpt>
      <trkpt lat="48.77546000" lon="8.257816000">
        <ele>449.00000</ele>
        <time>2008-10-19T12:11:45Z</time>
      </trkpt>
      <trkpt lat="48.77546000" lon="8.257799000">
        <ele>449.00000</ele>
        <time>2008-10-19T12:11:45Z</time>
      </trkpt>
      <trkpt lat="48.77547000" lon="8.257776000">
        <ele>449.00000</ele>
        <time>2008-10-19T12:11:45Z</time>
      </trkpt>
      <trkpt lat="48.77548000" lon="8.257756000">
        <ele>449.00000</ele>
        <time>2008-10-19T12:11:45Z</time>
      </trkpt>
      <trkpt lat="48.77549000" lon="8.257738000">
        <ele>449.00000</ele>
        <time>2008-10-19T12:11:45Z</time>
      </trkpt>
      <trkpt lat="48.77548000" lon="8.257708000">
        <ele>449.00000</ele>
        <time>2008-10-19T12:11:45Z</time>
      </trkpt>
      <trkpt lat="48.77548000" lon="8.257677000">
        <ele>449.00000</ele>
        <time>2008-10-19T12:11:45Z</time>
      </trkpt>
      <trkpt lat="48.77549000" lon="8.257649000">
        <ele>449.00000</ele>
        <time>2008-10-19T12:11:45Z</time>
      </trkpt>
      <trkpt lat="48.77549000" lon="8.257628000">
        <ele>449.00000</ele>
        <time>2008-10-19T12:11:45Z</time>
      </trkpt>
      <trkpt lat="48.77549000" lon="8.257609000">
        <ele>449.00000</ele>
        <time>2008-10-19T12:11:45Z</time>
      </trkpt>
      <trkpt lat="48.77550000" lon="8.257589000">
        <ele>449.00000</ele>
        <time>2008-10-19T12:11:45Z</time>
      </trkpt>
      <trkpt lat="48.77551000" lon="8.257566000">
        <ele>449.00000</ele>
        <time>2008-10-19T12:11:45Z</time>
      </trkpt>
      <trkpt lat="48.77551000" lon="8.257545000">
        <ele>449.00000</ele>
        <time>2008-10-19T12:11:45Z</time>
      </trkpt>
      <trkpt lat="48.77552000" lon="8.257525000">
        <ele>449.00000</ele>
        <time>2008-10-19T12:11:45Z</time>
      </trkpt>
      <trkpt lat="48.77553000" lon="8.257505000">
        <ele>449.00000</ele>
        <time>2008-10-19T12:11:45Z</time>
      </trkpt>
      <trkpt lat="48.77554000" lon="8.257486000">
        <ele>449.00000</ele>
        <time>2008-10-19T12:11:45Z</time>
      </trkpt>
      <trkpt lat="48.77555000" lon="8.257463000">
        <ele>449.00000</ele>
        <time>2008-10-19T12:11:45Z</time>
      </trkpt>
      <trkpt lat="48.77555000" lon="8.257440000">
        <ele>449.00000</ele>
        <time>2008-10-19T12:11:45Z</time>
      </trkpt>
      <trkpt lat="48.77556000" lon="8.257416000">
        <ele>449.00000</ele>
        <time>2008-10-19T12:11:45Z</time>
      </trkpt>
      <trkpt lat="48.77557000" lon="8.257395000">
        <ele>449.00000</ele>
        <time>2008-10-19T12:11:45Z</time>
      </trkpt>
      <trkpt lat="48.77557000" lon="8.257371000">
        <ele>449.00000</ele>
        <time>2008-10-19T12:11:45Z</time>
      </trkpt>
      <trkpt lat="48.77557000" lon="8.257339000">
        <ele>449.00000</ele>
        <time>2008-10-19T12:11:45Z</time>
      </trkpt>
      <trkpt lat="48.77557000" lon="8.257309000">
        <ele>449.00000</ele>
        <time>2008-10-19T12:11:45Z</time>
      </trkpt>
      <trkpt lat="48.77557000" lon="8.257291000">
        <ele>449.00000</ele>
        <time>2008-10-19T12:11:45Z</time>
      </trkpt>
      <trkpt lat="48.77557000" lon="8.257271000">
        <ele>449.00000</ele>
        <time>2008-10-19T12:11:45Z</time>
      </trkpt>
      <trkpt lat="48.77558000" lon="8.257251000">
        <ele>449.00000</ele>
        <time>2008-10-19T12:11:45Z</time>
      </trkpt>
      <trkpt lat="48.77559000" lon="8.257232000">
        <ele>449.00000</ele>
        <time>2008-10-19T12:11:45Z</time>
      </trkpt>
      <trkpt lat="48.77558000" lon="8.257205000">
        <ele>449.00000</ele>
        <time>2008-10-19T12:11:45Z</time>
      </trkpt>
      <trkpt lat="48.77558000" lon="8.257180000">
        <ele>449.00000</ele>
        <time>2008-10-19T12:11:45Z</time>
      </trkpt>
      <trkpt lat="48.77558000" lon="8.257154000">
        <ele>449.00000</ele>
        <time>2008-10-19T12:11:45Z</time>
      </trkpt>
      <trkpt lat="48.77558000" lon="8.257129000">
        <ele>449.00000</ele>
        <time>2008-10-19T12:11:45Z</time>
      </trkpt>
      <trkpt lat="48.77559000" lon="8.257111000">
        <ele>449.00000</ele>
        <time>2008-10-19T12:11:45Z</time>
      </trkpt>
      <trkpt lat="48.77559000" lon="8.257098000">
        <ele>449.00000</ele>
        <time>2008-10-19T12:11:45Z</time>
      </trkpt>
      <trkpt lat="48.77560000" lon="8.257086000">
        <ele>449.00000</ele>
        <time>2008-10-19T12:11:45Z</time>
      </trkpt>
      <trkpt lat="48.77562000" lon="8.257073000">
        <ele>448.00000</ele>
        <time>2008-10-19T12:11:45Z</time>
      </trkpt>
      <trkpt lat="48.77563000" lon="8.257068000">
        <ele>448.00000</ele>
        <time>2008-10-19T12:11:45Z</time>
      </trkpt>
      <trkpt lat="48.77564000" lon="8.257075000">
        <ele>448.00000</ele>
        <time>2008-10-19T12:11:45Z</time>
      </trkpt>
      <trkpt lat="48.77565000" lon="8.257086000">
        <ele>449.00000</ele>
        <time>2008-10-19T12:11:45Z</time>
      </trkpt>
      <trkpt lat="48.77566000" lon="8.257103000">
        <ele>449.00000</ele>
        <time>2008-10-19T12:11:45Z</time>
      </trkpt>
      <trkpt lat="48.77566000" lon="8.257113000">
        <ele>449.00000</ele>
        <time>2008-10-19T12:11:45Z</time>
      </trkpt>
      <trkpt lat="48.77565000" lon="8.257117000">
        <ele>449.00000</ele>
        <time>2008-10-19T12:11:45Z</time>
      </trkpt>
      <trkpt lat="48.77566000" lon="8.257126000">
        <ele>449.00000</ele>
        <time>2008-10-19T12:11:45Z</time>
      </trkpt>
      <trkpt lat="48.77566000" lon="8.257140000">
        <ele>449.00000</ele>
        <time>2008-10-19T12:11:45Z</time>
      </trkpt>
      <trkpt lat="48.77565000" lon="8.257155000">
        <ele>449.00000</ele>
        <time>2008-10-19T12:11:45Z</time>
      </trkpt>
      <trkpt lat="48.77566000" lon="8.257178000">
        <ele>449.00000</ele>
        <time>2008-10-19T12:11:45Z</time>
      </trkpt>
      <trkpt lat="48.77567000" lon="8.257194000">
        <ele>449.00000</ele>
        <time>2008-10-19T12:11:45Z</time>
      </trkpt>
      <trkpt lat="48.77568000" lon="8.257217000">
        <ele>449.00000</ele>
        <time>2008-10-19T12:11:45Z</time>
      </trkpt>
      <trkpt lat="48.77568000" lon="8.257234000">
        <ele>449.00000</ele>
        <time>2008-10-19T12:11:45Z</time>
      </trkpt>
      <trkpt lat="48.77568000" lon="8.257254000">
        <ele>449.00000</ele>
        <time>2008-10-19T12:11:45Z</time>
      </trkpt>
      <trkpt lat="48.77569000" lon="8.257271000">
        <ele>449.00000</ele>
        <time>2008-10-19T12:11:45Z</time>
      </trkpt>
      <trkpt lat="48.77569000" lon="8.257285000">
        <ele>449.00000</ele>
        <time>2008-10-19T12:11:45Z</time>
      </trkpt>
      <trkpt lat="48.77569000" lon="8.257301000">
        <ele>449.00000</ele>
        <time>2008-10-19T12:11:45Z</time>
      </trkpt>
      <trkpt lat="48.77570000" lon="8.257315000">
        <ele>449.00000</ele>
        <time>2008-10-19T12:11:45Z</time>
      </trkpt>
      <trkpt lat="48.77569000" lon="8.257331000">
        <ele>449.00000</ele>
        <time>2008-10-19T12:11:45Z</time>
      </trkpt>
      <trkpt lat="48.77569000" lon="8.257349000">
        <ele>449.00000</ele>
        <time>2008-10-19T12:11:45Z</time>
      </trkpt>
      <trkpt lat="48.77568000" lon="8.257374000">
        <ele>449.00000</ele>
        <time>2008-10-19T12:11:45Z</time>
      </trkpt>
      <trkpt lat="48.77568000" lon="8.257400000">
        <ele>449.00000</ele>
        <time>2008-10-19T12:11:45Z</time>
      </trkpt>
      <trkpt lat="48.77568000" lon="8.257422000">
        <ele>449.00000</ele>
        <time>2008-10-19T12:11:45Z</time>
      </trkpt>
      <trkpt lat="48.77568000" lon="8.257437000">
        <ele>449.00000</ele>
        <time>2008-10-19T12:11:45Z</time>
      </trkpt>
      <trkpt lat="48.77570000" lon="8.257448000">
        <ele>449.00000</ele>
        <time>2008-10-19T12:11:45Z</time>
      </trkpt>
      <trkpt lat="48.77570000" lon="8.257468000">
        <ele>449.00000</ele>
        <time>2008-10-19T12:11:45Z</time>
      </trkpt>
      <trkpt lat="48.77568000" lon="8.257487000">
        <ele>449.00000</ele>
        <time>2008-10-19T12:11:45Z</time>
      </trkpt>
      <trkpt lat="48.77568000" lon="8.257500000">
        <ele>449.00000</ele>
        <time>2008-10-19T12:11:45Z</time>
      </trkpt>
      <trkpt lat="48.77568000" lon="8.257517000">
        <ele>449.00000</ele>
        <time>2008-10-19T12:11:45Z</time>
      </trkpt>
      <trkpt lat="48.77568000" lon="8.257541000">
        <ele>449.00000</ele>
        <time>2008-10-19T12:11:45Z</time>
      </trkpt>
      <trkpt lat="48.77569000" lon="8.257564000">
        <ele>449.00000</ele>
        <time>2008-10-19T12:11:45Z</time>
      </trkpt>
      <trkpt lat="48.77569000" lon="8.257586000">
        <ele>449.00000</ele>
        <time>2008-10-19T12:11:45Z</time>
      </trkpt>
      <trkpt lat="48.77570000" lon="8.257607000">
        <ele>449.00000</ele>
        <time>2008-10-19T12:11:45Z</time>
      </trkpt>
      <trkpt lat="48.77571000" lon="8.257627000">
        <ele>449.00000</ele>
        <time>2008-10-19T12:11:45Z</time>
      </trkpt>
      <trkpt lat="48.77571000" lon="8.257650000">
        <ele>449.00000</ele>
        <time>2008-10-19T12:11:45Z</time>
      </trkpt>
      <trkpt lat="48.77573000" lon="8.257677000">
        <ele>449.00000</ele>
        <time>2008-10-19T12:11:45Z</time>
      </trkpt>
      <trkpt lat="48.77575000" lon="8.257705000">
        <ele>449.00000</ele>
        <time>2008-10-19T12:11:45Z</time>
      </trkpt>
      <trkpt lat="48.77576000" lon="8.257738000">
        <ele>449.00000</ele>
        <time>2008-10-19T12:11:45Z</time>
      </trkpt>
      <trkpt lat="48.77577000" lon="8.257765000">
        <ele>449.00000</ele>
        <time>2008-10-19T12:11:45Z</time>
      </trkpt>
      <trkpt lat="48.77576000" lon="8.257789000">
        <ele>449.00000</ele>
        <time>2008-10-19T12:11:45Z</time>
      </trkpt>
      <trkpt lat="48.77576000" lon="8.257818000">
        <ele>449.00000</ele>
        <time>2008-10-19T12:11:45Z</time>
      </trkpt>
      <trkpt lat="48.77577000" lon="8.257850000">
        <ele>449.00000</ele>
        <time>2008-10-19T12:11:45Z</time>
      </trkpt>
      <trkpt lat="48.77577000" lon="8.257875000">
        <ele>449.00000</ele>
        <time>2008-10-19T12:11:45Z</time>
      </trkpt>
      <trkpt lat="48.77577000" lon="8.257898000">
        <ele>449.00000</ele>
        <time>2008-10-19T12:11:45Z</time>
      </trkpt>
      <trkpt lat="48.77578000" lon="8.257917000">
        <ele>452.00000</ele>
        <time>2008-10-19T12:11:45Z</time>
      </trkpt>
      <trkpt lat="48.77578000" lon="8.257936000">
        <ele>452.00000</ele>
        <time>2008-10-19T12:11:45Z</time>
      </trkpt>
      <trkpt lat="48.77579000" lon="8.257957000">
        <ele>452.00000</ele>
        <time>2008-10-19T12:11:45Z</time>
      </trkpt>
      <trkpt lat="48.77579000" lon="8.257975000">
        <ele>452.00000</ele>
        <time>2008-10-19T12:11:45Z</time>
      </trkpt>
      <trkpt lat="48.77579000" lon="8.257994000">
        <ele>452.00000</ele>
        <time>2008-10-19T12:11:45Z</time>
      </trkpt>
      <trkpt lat="48.77580000" lon="8.258007000">
        <ele>452.00000</ele>
        <time>2008-10-19T12:11:45Z</time>
      </trkpt>
      <trkpt lat="48.77580000" lon="8.258024000">
        <ele>452.00000</ele>
        <time>2008-10-19T12:11:45Z</time>
      </trkpt>
      <trkpt lat="48.77582000" lon="8.258045000">
        <ele>452.00000</ele>
        <time>2008-10-19T12:11:45Z</time>
      </trkpt>
      <trkpt lat="48.77582000" lon="8.258064000">
        <ele>452.00000</ele>
        <time>2008-10-19T12:11:45Z</time>
      </trkpt>
      <trkpt lat="48.77583000" lon="8.258096000">
        <ele>452.00000</ele>
        <time>2008-10-19T12:11:45Z</time>
      </trkpt>
      <trkpt lat="48.77583000" lon="8.258116000">
        <ele>452.00000</ele>
        <time>2008-10-19T12:11:45Z</time>
      </trkpt>
      <trkpt lat="48.77584000" lon="8.258130000">
        <ele>452.00000</ele>
        <time>2008-10-19T12:11:45Z</time>
      </trkpt>
      <trkpt lat="48.77584000" lon="8.258145000">
        <ele>452.00000</ele>
        <time>2008-10-19T12:11:45Z</time>
      </trkpt>
      <trkpt lat="48.77585000" lon="8.258159000">
        <ele>452.00000</ele>
        <time>2008-10-19T12:11:45Z</time>
      </trkpt>
      <trkpt lat="48.77586000" lon="8.258183000">
        <ele>452.00000</ele>
        <time>2008-10-19T12:11:45Z</time>
      </trkpt>
      <trkpt lat="48.77587000" lon="8.258204000">
        <ele>452.00000</ele>
        <time>2008-10-19T12:11:45Z</time>
      </trkpt>
      <trkpt lat="48.77588000" lon="8.258226000">
        <ele>452.00000</ele>
        <time>2008-10-19T12:11:45Z</time>
      </trkpt>
      <trkpt lat="48.77589000" lon="8.258255000">
        <ele>452.00000</ele>
        <time>2008-10-19T12:11:45Z</time>
      </trkpt>
      <trkpt lat="48.77590000" lon="8.258281000">
        <ele>452.00000</ele>
        <time>2008-10-19T12:11:45Z</time>
      </trkpt>
      <trkpt lat="48.77589000" lon="8.258307000">
        <ele>452.00000</ele>
        <time>2008-10-19T12:11:45Z</time>
      </trkpt>
      <trkpt lat="48.77589000" lon="8.258327000">
        <ele>452.00000</ele>
        <time>2008-10-19T12:11:45Z</time>
      </trkpt>
      <trkpt lat="48.77588000" lon="8.258348000">
        <ele>452.00000</ele>
        <time>2008-10-19T12:11:45Z</time>
      </trkpt>
      <trkpt lat="48.77588000" lon="8.258371000">
        <ele>452.00000</ele>
        <time>2008-10-19T12:11:45Z</time>
      </trkpt>
      <trkpt lat="48.77588000" lon="8.258392000">
        <ele>452.00000</ele>
        <time>2008-10-19T12:11:45Z</time>
      </trkpt>
      <trkpt lat="48.77589000" lon="8.258410000">
        <ele>452.00000</ele>
        <time>2008-10-19T12:11:45Z</time>
      </trkpt>
      <trkpt lat="48.77589000" lon="8.258432000">
        <ele>452.00000</ele>
        <time>2008-10-19T12:11:45Z</time>
      </trkpt>
      <trkpt lat="48.77591000" lon="8.258458000">
        <ele>452.00000</ele>
        <time>2008-10-19T12:11:45Z</time>
      </trkpt>
      <trkpt lat="48.77592000" lon="8.258492000">
        <ele>452.00000</ele>
        <time>2008-10-19T12:11:45Z</time>
      </trkpt>
      <trkpt lat="48.77594000" lon="8.258526000">
        <ele>452.00000</ele>
        <time>2008-10-19T12:11:45Z</time>
      </trkpt>
      <trkpt lat="48.77593000" lon="8.258559000">
        <ele>452.00000</ele>
        <time>2008-10-19T12:11:45Z</time>
      </trkpt>
      <trkpt lat="48.77593000" lon="8.258581000">
        <ele>452.00000</ele>
        <time>2008-10-19T12:11:45Z</time>
      </trkpt>
      <trkpt lat="48.77594000" lon="8.258604000">
        <ele>452.00000</ele>
        <time>2008-10-19T12:11:45Z</time>
      </trkpt>
      <trkpt lat="48.77593000" lon="8.258626000">
        <ele>452.00000</ele>
        <time>2008-10-19T12:11:45Z</time>
      </trkpt>
      <trkpt lat="48.77594000" lon="8.258645000">
        <ele>452.00000</ele>
        <time>2008-10-19T12:11:45Z</time>
      </trkpt>
      <trkpt lat="48.77593000" lon="8.258665000">
        <ele>452.00000</ele>
        <time>2008-10-19T12:11:45Z</time>
      </trkpt>
      <trkpt lat="48.77594000" lon="8.258693000">
        <ele>452.00000</ele>
        <time>2008-10-19T12:11:45Z</time>
      </trkpt>
      <trkpt lat="48.77594000" lon="8.258712000">
        <ele>452.00000</ele>
        <time>2008-10-19T12:11:45Z</time>
      </trkpt>
      <trkpt lat="48.77595000" lon="8.258737000">
        <ele>452.00000</ele>
        <time>2008-10-19T12:11:45Z</time>
      </trkpt>
      <trkpt lat="48.77595000" lon="8.258759000">
        <ele>454.00000</ele>
        <time>2008-10-19T12:11:45Z</time>
      </trkpt>
      <trkpt lat="48.77594000" lon="8.258785000">
        <ele>454.00000</ele>
        <time>2008-10-19T12:11:45Z</time>
      </trkpt>
      <trkpt lat="48.77594000" lon="8.258813000">
        <ele>454.00000</ele>
        <time>2008-10-19T12:11:45Z</time>
      </trkpt>
      <trkpt lat="48.77594000" lon="8.258835000">
        <ele>454.00000</ele>
        <time>2008-10-19T12:11:45Z</time>
      </trkpt>
      <trkpt lat="48.77593000" lon="8.258851000">
        <ele>454.00000</ele>
        <time>2008-10-19T12:11:45Z</time>
      </trkpt>
      <trkpt lat="48.77593000" lon="8.258865000">
        <ele>454.00000</ele>
        <time>2008-10-19T12:11:45Z</time>
      </trkpt>
      <trkpt lat="48.77594000" lon="8.258887000">
        <ele>454.00000</ele>
        <time>2008-10-19T12:11:45Z</time>
      </trkpt>
      <trkpt lat="48.77595000" lon="8.258910000">
        <ele>454.00000</ele>
        <time>2008-10-19T12:11:45Z</time>
      </trkpt>
      <trkpt lat="48.77596000" lon="8.258939000">
        <ele>454.00000</ele>
        <time>2008-10-19T12:11:45Z</time>
      </trkpt>
      <trkpt lat="48.77597000" lon="8.258969000">
        <ele>454.00000</ele>
        <time>2008-10-19T12:11:45Z</time>
      </trkpt>
      <trkpt lat="48.77598000" lon="8.259001000">
        <ele>454.00000</ele>
        <time>2008-10-19T12:11:45Z</time>
      </trkpt>
      <trkpt lat="48.77600000" lon="8.259036000">
        <ele>454.00000</ele>
        <time>2008-10-19T12:11:45Z</time>
      </trkpt>
      <trkpt lat="48.77600000" lon="8.259069000">
        <ele>454.00000</ele>
        <time>2008-10-19T12:11:45Z</time>
      </trkpt>
      <trkpt lat="48.77601000" lon="8.259102000">
        <ele>454.00000</ele>
        <time>2008-10-19T12:11:45Z</time>
      </trkpt>
      <trkpt lat="48.77603000" lon="8.259134000">
        <ele>454.00000</ele>
        <time>2008-10-19T12:11:45Z</time>
      </trkpt>
      <trkpt lat="48.77604000" lon="8.259167000">
        <ele>454.00000</ele>
        <time>2008-10-19T12:11:45Z</time>
      </trkpt>
      <trkpt lat="48.77606000" lon="8.259202000">
        <ele>454.00000</ele>
        <time>2008-10-19T12:11:45Z</time>
      </trkpt>
      <trkpt lat="48.77606000" lon="8.259224000">
        <ele>454.00000</ele>
        <time>2008-10-19T12:11:45Z</time>
      </trkpt>
      <trkpt lat="48.77607000" lon="8.259237000">
        <ele>454.00000</ele>
        <time>2008-10-19T12:11:45Z</time>
      </trkpt>
      <trkpt lat="48.77607000" lon="8.259256000">
        <ele>454.00000</ele>
        <time>2008-10-19T12:11:45Z</time>
      </trkpt>
      <trkpt lat="48.77607000" lon="8.259273000">
        <ele>454.00000</ele>
        <time>2008-10-19T12:11:45Z</time>
      </trkpt>
      <trkpt lat="48.77607000" lon="8.259292000">
        <ele>454.00000</ele>
        <time>2008-10-19T12:11:45Z</time>
      </trkpt>
      <trkpt lat="48.77607000" lon="8.259312000">
        <ele>454.00000</ele>
        <time>2008-10-19T12:11:45Z</time>
      </trkpt>
      <trkpt lat="48.77606000" lon="8.259336000">
        <ele>454.00000</ele>
        <time>2008-10-19T12:11:45Z</time>
      </trkpt>
      <trkpt lat="48.77604000" lon="8.259363000">
        <ele>454.00000</ele>
        <time>2008-10-19T12:11:45Z</time>
      </trkpt>
      <trkpt lat="48.77604000" lon="8.259381000">
        <ele>454.00000</ele>
        <time>2008-10-19T12:11:45Z</time>
      </trkpt>
      <trkpt lat="48.77602000" lon="8.259418000">
        <ele>454.00000</ele>
        <time>2008-10-19T12:11:45Z</time>
      </trkpt>
      <trkpt lat="48.77602000" lon="8.259437000">
        <ele>454.00000</ele>
        <time>2008-10-19T12:11:45Z</time>
      </trkpt>
      <trkpt lat="48.77603000" lon="8.259454000">
        <ele>454.00000</ele>
        <time>2008-10-19T12:11:45Z</time>
      </trkpt>
      <trkpt lat="48.77602000" lon="8.259474000">
        <ele>454.00000</ele>
        <time>2008-10-19T12:11:45Z</time>
      </trkpt>
      <trkpt lat="48.77602000" lon="8.259494000">
        <ele>454.00000</ele>
        <time>2008-10-19T12:11:45Z</time>
      </trkpt>
      <trkpt lat="48.77604000" lon="8.259523000">
        <ele>454.00000</ele>
        <time>2008-10-19T12:11:45Z</time>
      </trkpt>
      <trkpt lat="48.77604000" lon="8.259549000">
        <ele>454.00000</ele>
        <time>2008-10-19T12:11:45Z</time>
      </trkpt>
      <trkpt lat="48.77604000" lon="8.259577000">
        <ele>454.00000</ele>
        <time>2008-10-19T12:11:45Z</time>
      </trkpt>
      <trkpt lat="48.77604000" lon="8.259593000">
        <ele>457.00000</ele>
        <time>2008-10-19T12:11:45Z</time>
      </trkpt>
      <trkpt lat="48.77602000" lon="8.259616000">
        <ele>457.00000</ele>
        <time>2008-10-19T12:11:45Z</time>
      </trkpt>
      <trkpt lat="48.77602000" lon="8.259634000">
        <ele>457.00000</ele>
        <time>2008-10-19T12:11:45Z</time>
      </trkpt>
      <trkpt lat="48.77601000" lon="8.259650000">
        <ele>457.00000</ele>
        <time>2008-10-19T12:11:45Z</time>
      </trkpt>
      <trkpt lat="48.77600000" lon="8.259670000">
        <ele>457.00000</ele>
        <time>2008-10-19T12:11:45Z</time>
      </trkpt>
      <trkpt lat="48.77601000" lon="8.259688000">
        <ele>457.00000</ele>
        <time>2008-10-19T12:11:45Z</time>
      </trkpt>
      <trkpt lat="48.77601000" lon="8.259706000">
        <ele>457.00000</ele>
        <time>2008-10-19T12:11:45Z</time>
      </trkpt>
      <trkpt lat="48.77601000" lon="8.259724000">
        <ele>457.00000</ele>
        <time>2008-10-19T12:11:45Z</time>
      </trkpt>
      <trkpt lat="48.77601000" lon="8.259740000">
        <ele>457.00000</ele>
        <time>2008-10-19T12:11:45Z</time>
      </trkpt>
      <trkpt lat="48.77602000" lon="8.259759000">
        <ele>457.00000</ele>
        <time>2008-10-19T12:11:45Z</time>
      </trkpt>
      <trkpt lat="48.77602000" lon="8.259777000">
        <ele>457.00000</ele>
        <time>2008-10-19T12:11:45Z</time>
      </trkpt>
      <trkpt lat="48.77602000" lon="8.259804000">
        <ele>457.00000</ele>
        <time>2008-10-19T12:11:45Z</time>
      </trkpt>
      <trkpt lat="48.77602000" lon="8.259828000">
        <ele>457.00000</ele>
        <time>2008-10-19T12:11:45Z</time>
      </trkpt>
      <trkpt lat="48.77602000" lon="8.259851000">
        <ele>457.00000</ele>
        <time>2008-10-19T12:11:45Z</time>
      </trkpt>
      <trkpt lat="48.77602000" lon="8.259870000">
        <ele>457.00000</ele>
        <time>2008-10-19T12:11:45Z</time>
      </trkpt>
      <trkpt lat="48.77602000" lon="8.259887000">
        <ele>457.00000</ele>
        <time>2008-10-19T12:11:45Z</time>
      </trkpt>
      <trkpt lat="48.77603000" lon="8.259911000">
        <ele>457.00000</ele>
        <time>2008-10-19T12:11:45Z</time>
      </trkpt>
      <trkpt lat="48.77604000" lon="8.259932000">
        <ele>457.00000</ele>
        <time>2008-10-19T12:11:45Z</time>
      </trkpt>
      <trkpt lat="48.77604000" lon="8.259960000">
        <ele>457.00000</ele>
        <time>2008-10-19T12:11:45Z</time>
      </trkpt>
      <trkpt lat="48.77604000" lon="8.259982000">
        <ele>457.00000</ele>
        <time>2008-10-19T12:11:45Z</time>
      </trkpt>
      <trkpt lat="48.77605000" lon="8.260007000">
        <ele>457.00000</ele>
        <time>2008-10-19T12:11:45Z</time>
      </trkpt>
      <trkpt lat="48.77606000" lon="8.260031000">
        <ele>457.00000</ele>
        <time>2008-10-19T12:11:45Z</time>
      </trkpt>
      <trkpt lat="48.77607000" lon="8.260051000">
        <ele>457.00000</ele>
        <time>2008-10-19T12:11:45Z</time>
      </trkpt>
      <trkpt lat="48.77607000" lon="8.260069000">
        <ele>457.00000</ele>
        <time>2008-10-19T12:11:45Z</time>
      </trkpt>
      <trkpt lat="48.77607000" lon="8.260090000">
        <ele>457.00000</ele>
        <time>2008-10-19T12:11:45Z</time>
      </trkpt>
      <trkpt lat="48.77607000" lon="8.260105000">
        <ele>457.00000</ele>
        <time>2008-10-19T12:11:45Z</time>
      </trkpt>
      <trkpt lat="48.77606000" lon="8.260130000">
        <ele>457.00000</ele>
        <time>2008-10-19T12:11:45Z</time>
      </trkpt>
      <trkpt lat="48.77608000" lon="8.260156000">
        <ele>457.00000</ele>
        <time>2008-10-19T12:11:45Z</time>
      </trkpt>
      <trkpt lat="48.77607000" lon="8.260190000">
        <ele>457.00000</ele>
        <time>2008-10-19T12:11:45Z</time>
      </trkpt>
      <trkpt lat="48.77607000" lon="8.260207000">
        <ele>457.00000</ele>
        <time>2008-10-19T12:11:45Z</time>
      </trkpt>
      <trkpt lat="48.77607000" lon="8.260228000">
        <ele>457.00000</ele>
        <time>2008-10-19T12:11:45Z</time>
      </trkpt>
      <trkpt lat="48.77608000" lon="8.260249000">
        <ele>457.00000</ele>
        <time>2008-10-19T12:11:45Z</time>
      </trkpt>
      <trkpt lat="48.77608000" lon="8.260271000">
        <ele>457.00000</ele>
        <time>2008-10-19T12:11:45Z</time>
      </trkpt>
      <trkpt lat="48.77609000" lon="8.260283000">
        <ele>457.00000</ele>
        <time>2008-10-19T12:11:45Z</time>
      </trkpt>
      <trkpt lat="48.77609000" lon="8.260300000">
        <ele>457.00000</ele>
        <time>2008-10-19T12:11:45Z</time>
      </trkpt>
      <trkpt lat="48.77610000" lon="8.260319000">
        <ele>457.00000</ele>
        <time>2008-10-19T12:11:45Z</time>
      </trkpt>
      <trkpt lat="48.77610000" lon="8.260345000">
        <ele>457.00000</ele>
        <time>2008-10-19T12:11:45Z</time>
      </trkpt>
      <trkpt lat="48.77611000" lon="8.260365000">
        <ele>457.00000</ele>
        <time>2008-10-19T12:11:45Z</time>
      </trkpt>
      <trkpt lat="48.77610000" lon="8.260386000">
        <ele>457.00000</ele>
        <time>2008-10-19T12:11:45Z</time>
      </trkpt>
      <trkpt lat="48.77610000" lon="8.260406000">
        <ele>457.00000</ele>
        <time>2008-10-19T12:11:45Z</time>
      </trkpt>
      <trkpt lat="48.77612000" lon="8.260429000">
        <ele>462.00000</ele>
        <time>2008-10-19T12:11:45Z</time>
      </trkpt>
      <trkpt lat="48.77613000" lon="8.260453000">
        <ele>462.00000</ele>
        <time>2008-10-19T12:11:45Z</time>
      </trkpt>
      <trkpt lat="48.77614000" lon="8.260473000">
        <ele>462.00000</ele>
        <time>2008-10-19T12:11:45Z</time>
      </trkpt>
      <trkpt lat="48.77615000" lon="8.260494000">
        <ele>462.00000</ele>
        <time>2008-10-19T12:11:45Z</time>
      </trkpt>
      <trkpt lat="48.77617000" lon="8.260519000">
        <ele>462.00000</ele>
        <time>2008-10-19T12:11:45Z</time>
      </trkpt>
      <trkpt lat="48.77617000" lon="8.260543000">
        <ele>462.00000</ele>
        <time>2008-10-19T12:11:45Z</time>
      </trkpt>
      <trkpt lat="48.77616000" lon="8.260564000">
        <ele>462.00000</ele>
        <time>2008-10-19T12:11:45Z</time>
      </trkpt>
      <trkpt lat="48.77616000" lon="8.260589000">
        <ele>462.00000</ele>
        <time>2008-10-19T12:11:45Z</time>
      </trkpt>
      <trkpt lat="48.77615000" lon="8.260617000">
        <ele>462.00000</ele>
        <time>2008-10-19T12:11:45Z</time>
      </trkpt>
      <trkpt lat="48.77614000" lon="8.260644000">
        <ele>462.00000</ele>
        <time>2008-10-19T12:11:45Z</time>
      </trkpt>
      <trkpt lat="48.77613000" lon="8.260671000">
        <ele>462.00000</ele>
        <time>2008-10-19T12:11:45Z</time>
      </trkpt>
      <trkpt lat="48.77613000" lon="8.260697000">
        <ele>462.00000</ele>
        <time>2008-10-19T12:11:45Z</time>
      </trkpt>
      <trkpt lat="48.77614000" lon="8.260717000">
        <ele>462.00000</ele>
        <time>2008-10-19T12:11:45Z</time>
      </trkpt>
      <trkpt lat="48.77614000" lon="8.260735000">
        <ele>462.00000</ele>
        <time>2008-10-19T12:11:45Z</time>
      </trkpt>
      <trkpt lat="48.77615000" lon="8.260756000">
        <ele>462.00000</ele>
        <time>2008-10-19T12:11:45Z</time>
      </trkpt>
      <trkpt lat="48.77615000" lon="8.260780000">
        <ele>462.00000</ele>
        <time>2008-10-19T12:11:45Z</time>
      </trkpt>
      <trkpt lat="48.77614000" lon="8.260808000">
        <ele>462.00000</ele>
        <time>2008-10-19T12:11:45Z</time>
      </trkpt>
      <trkpt lat="48.77615000" lon="8.260834000">
        <ele>462.00000</ele>
        <time>2008-10-19T12:11:45Z</time>
      </trkpt>
      <trkpt lat="48.77615000" lon="8.260861000">
        <ele>462.00000</ele>
        <time>2008-10-19T12:11:45Z</time>
      </trkpt>
      <trkpt lat="48.77615000" lon="8.260888000">
        <ele>462.00000</ele>
        <time>2008-10-19T12:11:45Z</time>
      </trkpt>
      <trkpt lat="48.77615000" lon="8.260910000">
        <ele>462.00000</ele>
        <time>2008-10-19T12:11:45Z</time>
      </trkpt>
      <trkpt lat="48.77616000" lon="8.260929000">
        <ele>462.00000</ele>
        <time>2008-10-19T12:11:45Z</time>
      </trkpt>
      <trkpt lat="48.77615000" lon="8.260955000">
        <ele>462.00000</ele>
        <time>2008-10-19T12:11:45Z</time>
      </trkpt>
      <trkpt lat="48.77616000" lon="8.260973000">
        <ele>462.00000</ele>
        <time>2008-10-19T12:11:45Z</time>
      </trkpt>
      <trkpt lat="48.77616000" lon="8.261001000">
        <ele>462.00000</ele>
        <time>2008-10-19T12:11:45Z</time>
      </trkpt>
      <trkpt lat="48.77617000" lon="8.261028000">
        <ele>462.00000</ele>
        <time>2008-10-19T12:11:45Z</time>
      </trkpt>
      <trkpt lat="48.77617000" lon="8.261054000">
        <ele>462.00000</ele>
        <time>2008-10-19T12:11:45Z</time>
      </trkpt>
      <trkpt lat="48.77617000" lon="8.261074000">
        <ele>462.00000</ele>
        <time>2008-10-19T12:11:45Z</time>
      </trkpt>
      <trkpt lat="48.77617000" lon="8.261095000">
        <ele>462.00000</ele>
        <time>2008-10-19T12:11:45Z</time>
      </trkpt>
      <trkpt lat="48.77617000" lon="8.261123000">
        <ele>462.00000</ele>
        <time>2008-10-19T12:11:45Z</time>
      </trkpt>
      <trkpt lat="48.77618000" lon="8.261143000">
        <ele>462.00000</ele>
        <time>2008-10-19T12:11:45Z</time>
      </trkpt>
      <trkpt lat="48.77619000" lon="8.261156000">
        <ele>462.00000</ele>
        <time>2008-10-19T12:11:45Z</time>
      </trkpt>
      <trkpt lat="48.77620000" lon="8.261178000">
        <ele>462.00000</ele>
        <time>2008-10-19T12:11:45Z</time>
      </trkpt>
      <trkpt lat="48.77620000" lon="8.261207000">
        <ele>462.00000</ele>
        <time>2008-10-19T12:11:45Z</time>
      </trkpt>
      <trkpt lat="48.77621000" lon="8.261238000">
        <ele>462.00000</ele>
        <time>2008-10-19T12:11:45Z</time>
      </trkpt>
      <trkpt lat="48.77621000" lon="8.261262000">
        <ele>463.00000</ele>
        <time>2008-10-19T12:11:45Z</time>
      </trkpt>
      <trkpt lat="48.77625000" lon="8.261291000">
        <ele>463.00000</ele>
        <time>2008-10-19T12:11:45Z</time>
      </trkpt>
      <trkpt lat="48.77625000" lon="8.261308000">
        <ele>463.00000</ele>
        <time>2008-10-19T12:11:45Z</time>
      </trkpt>
      <trkpt lat="48.77626000" lon="8.261309000">
        <ele>494.00000</ele>
        <time>2008-10-19T12:11:45Z</time>
      </trkpt>
      <trkpt lat="48.77626000" lon="8.261306000">
        <ele>494.00000</ele>
        <time>2008-10-19T12:11:45Z</time>
      </trkpt>
      <trkpt lat="48.77626000" lon="8.261296000">
        <ele>494.00000</ele>
        <time>2008-10-19T12:11:45Z</time>
      </trkpt>
      <trkpt lat="48.77626000" lon="8.261290000">
        <ele>494.00000</ele>
        <time>2008-10-19T12:11:45Z</time>
      </trkpt>
      <trkpt lat="48.77626000" lon="8.261273000">
        <ele>494.00000</ele>
        <time>2008-10-19T12:11:45Z</time>
      </trkpt>
      <trkpt lat="48.77626000" lon="8.261262000">
        <ele>494.00000</ele>
        <time>2008-10-19T12:11:45Z</time>
      </trkpt>
      <trkpt lat="48.77627000" lon="8.261244000">
        <ele>496.00000</ele>
        <time>2008-10-19T12:11:45Z</time>
      </trkpt>
      <trkpt lat="48.77627000" lon="8.261227000">
        <ele>496.00000</ele>
        <time>2008-10-19T12:11:45Z</time>
      </trkpt>
      <trkpt lat="48.77628000" lon="8.261208000">
        <ele>496.00000</ele>
        <time>2008-10-19T12:11:45Z</time>
      </trkpt>
      <trkpt lat="48.77629000" lon="8.261186000">
        <ele>496.00000</ele>
        <time>2008-10-19T12:11:45Z</time>
      </trkpt>
      <trkpt lat="48.77630000" lon="8.261165000">
        <ele>496.00000</ele>
        <time>2008-10-19T12:11:45Z</time>
      </trkpt>
      <trkpt lat="48.77630000" lon="8.261147000">
        <ele>496.00000</ele>
        <time>2008-10-19T12:11:45Z</time>
      </trkpt>
      <trkpt lat="48.77631000" lon="8.261130000">
        <ele>496.00000</ele>
        <time>2008-10-19T12:11:45Z</time>
      </trkpt>
      <trkpt lat="48.77631000" lon="8.261106000">
        <ele>496.00000</ele>
        <time>2008-10-19T12:11:45Z</time>
      </trkpt>
      <trkpt lat="48.77632000" lon="8.261086000">
        <ele>496.00000</ele>
        <time>2008-10-19T12:11:45Z</time>
      </trkpt>
      <trkpt lat="48.77633000" lon="8.261062000">
        <ele>496.00000</ele>
        <time>2008-10-19T12:11:45Z</time>
      </trkpt>
      <trkpt lat="48.77634000" lon="8.261041000">
        <ele>496.00000</ele>
        <time>2008-10-19T12:11:45Z</time>
      </trkpt>
      <trkpt lat="48.77634000" lon="8.261018000">
        <ele>496.00000</ele>
        <time>2008-10-19T12:11:45Z</time>
      </trkpt>
      <trkpt lat="48.77635000" lon="8.261001000">
        <ele>496.00000</ele>
        <time>2008-10-19T12:11:45Z</time>
      </trkpt>
      <trkpt lat="48.77636000" lon="8.260986000">
        <ele>496.00000</ele>
        <time>2008-10-19T12:11:45Z</time>
      </trkpt>
      <trkpt lat="48.77636000" lon="8.260971000">
        <ele>496.00000</ele>
        <time>2008-10-19T12:11:45Z</time>
      </trkpt>
      <trkpt lat="48.77637000" lon="8.260956000">
        <ele>496.00000</ele>
        <time>2008-10-19T12:11:45Z</time>
      </trkpt>
      <trkpt lat="48.77638000" lon="8.260932000">
        <ele>496.00000</ele>
        <time>2008-10-19T12:11:45Z</time>
      </trkpt>
      <trkpt lat="48.77640000" lon="8.260908000">
        <ele>496.00000</ele>
        <time>2008-10-19T12:11:45Z</time>
      </trkpt>
      <trkpt lat="48.77641000" lon="8.260889000">
        <ele>496.00000</ele>
        <time>2008-10-19T12:11:45Z</time>
      </trkpt>
      <trkpt lat="48.77642000" lon="8.260874000">
        <ele>496.00000</ele>
        <time>2008-10-19T12:11:45Z</time>
      </trkpt>
      <trkpt lat="48.77642000" lon="8.260857000">
        <ele>496.00000</ele>
        <time>2008-10-19T12:11:45Z</time>
      </trkpt>
      <trkpt lat="48.77644000" lon="8.260838000">
        <ele>496.00000</ele>
        <time>2008-10-19T12:11:45Z</time>
      </trkpt>
      <trkpt lat="48.77644000" lon="8.260820000">
        <ele>496.00000</ele>
        <time>2008-10-19T12:11:45Z</time>
      </trkpt>
      <trkpt lat="48.77645000" lon="8.260801000">
        <ele>496.00000</ele>
        <time>2008-10-19T12:11:45Z</time>
      </trkpt>
      <trkpt lat="48.77645000" lon="8.260784000">
        <ele>496.00000</ele>
        <time>2008-10-19T12:11:45Z</time>
      </trkpt>
      <trkpt lat="48.77646000" lon="8.260771000">
        <ele>496.00000</ele>
        <time>2008-10-19T12:11:45Z</time>
      </trkpt>
      <trkpt lat="48.77647000" lon="8.260758000">
        <ele>496.00000</ele>
        <time>2008-10-19T12:11:45Z</time>
      </trkpt>
      <trkpt lat="48.77649000" lon="8.260740000">
        <ele>496.00000</ele>
        <time>2008-10-19T12:11:45Z</time>
      </trkpt>
      <trkpt lat="48.77649000" lon="8.260723000">
        <ele>496.00000</ele>
        <time>2008-10-19T12:11:45Z</time>
      </trkpt>
      <trkpt lat="48.77650000" lon="8.260708000">
        <ele>496.00000</ele>
        <time>2008-10-19T12:11:45Z</time>
      </trkpt>
      <trkpt lat="48.77652000" lon="8.260695000">
        <ele>496.00000</ele>
        <time>2008-10-19T12:11:45Z</time>
      </trkpt>
      <trkpt lat="48.77652000" lon="8.260677000">
        <ele>496.00000</ele>
        <time>2008-10-19T12:11:45Z</time>
      </trkpt>
      <trkpt lat="48.77654000" lon="8.260660000">
        <ele>496.00000</ele>
        <time>2008-10-19T12:11:45Z</time>
      </trkpt>
      <trkpt lat="48.77656000" lon="8.260644000">
        <ele>496.00000</ele>
        <time>2008-10-19T12:11:45Z</time>
      </trkpt>
      <trkpt lat="48.77657000" lon="8.260623000">
        <ele>496.00000</ele>
        <time>2008-10-19T12:11:45Z</time>
      </trkpt>
      <trkpt lat="48.77658000" lon="8.260601000">
        <ele>496.00000</ele>
        <time>2008-10-19T12:11:45Z</time>
      </trkpt>
      <trkpt lat="48.77660000" lon="8.260586000">
        <ele>496.00000</ele>
        <time>2008-10-19T12:11:45Z</time>
      </trkpt>
      <trkpt lat="48.77661000" lon="8.260568000">
        <ele>496.00000</ele>
        <time>2008-10-19T12:11:45Z</time>
      </trkpt>
      <trkpt lat="48.77662000" lon="8.260551000">
        <ele>496.00000</ele>
        <time>2008-10-19T12:11:45Z</time>
      </trkpt>
      <trkpt lat="48.77663000" lon="8.260534000">
        <ele>496.00000</ele>
        <time>2008-10-19T12:11:45Z</time>
      </trkpt>
      <trkpt lat="48.77665000" lon="8.260513000">
        <ele>496.00000</ele>
        <time>2008-10-19T12:11:45Z</time>
      </trkpt>
      <trkpt lat="48.77666000" lon="8.260492000">
        <ele>496.00000</ele>
        <time>2008-10-19T12:11:45Z</time>
      </trkpt>
      <trkpt lat="48.77668000" lon="8.260474000">
        <ele>496.00000</ele>
        <time>2008-10-19T12:11:45Z</time>
      </trkpt>
      <trkpt lat="48.77670000" lon="8.260457000">
        <ele>496.00000</ele>
        <time>2008-10-19T12:11:45Z</time>
      </trkpt>
      <trkpt lat="48.77671000" lon="8.260447000">
        <ele>496.00000</ele>
        <time>2008-10-19T12:11:45Z</time>
      </trkpt>
      <trkpt lat="48.77672000" lon="8.260433000">
        <ele>496.00000</ele>
        <time>2008-10-19T12:11:45Z</time>
      </trkpt>
      <trkpt lat="48.77674000" lon="8.260421000">
        <ele>496.00000</ele>
        <time>2008-10-19T12:11:45Z</time>
      </trkpt>
      <trkpt lat="48.77675000" lon="8.260417000">
        <ele>496.00000</ele>
        <time>2008-10-19T12:11:45Z</time>
      </trkpt>
      <trkpt lat="48.77674000" lon="8.260405000">
        <ele>493.00000</ele>
        <time>2008-10-19T12:11:45Z</time>
      </trkpt>
      <trkpt lat="48.77674000" lon="8.260400000">
        <ele>493.00000</ele>
        <time>2008-10-19T12:11:45Z</time>
      </trkpt>
      <trkpt lat="48.77675000" lon="8.260405000">
        <ele>493.00000</ele>
        <time>2008-10-19T12:11:45Z</time>
      </trkpt>
      <trkpt lat="48.77676000" lon="8.260408000">
        <ele>493.00000</ele>
        <time>2008-10-19T12:11:45Z</time>
      </trkpt>
      <trkpt lat="48.77678000" lon="8.260409000">
        <ele>493.00000</ele>
        <time>2008-10-19T12:11:45Z</time>
      </trkpt>
      <trkpt lat="48.77680000" lon="8.260408000">
        <ele>493.00000</ele>
        <time>2008-10-19T12:11:45Z</time>
      </trkpt>
      <trkpt lat="48.77682000" lon="8.260410000">
        <ele>493.00000</ele>
        <time>2008-10-19T12:11:45Z</time>
      </trkpt>
      <trkpt lat="48.77684000" lon="8.260411000">
        <ele>493.00000</ele>
        <time>2008-10-19T12:11:45Z</time>
      </trkpt>
      <trkpt lat="48.77684000" lon="8.260422000">
        <ele>496.00000</ele>
        <time>2008-10-19T12:11:45Z</time>
      </trkpt>
      <trkpt lat="48.77686000" lon="8.260429000">
        <ele>496.00000</ele>
        <time>2008-10-19T12:11:45Z</time>
      </trkpt>
      <trkpt lat="48.77687000" lon="8.260444000">
        <ele>496.00000</ele>
        <time>2008-10-19T12:11:45Z</time>
      </trkpt>
      <trkpt lat="48.77687000" lon="8.260457000">
        <ele>496.00000</ele>
        <time>2008-10-19T12:11:45Z</time>
      </trkpt>
      <trkpt lat="48.77688000" lon="8.260471000">
        <ele>496.00000</ele>
        <time>2008-10-19T12:11:45Z</time>
      </trkpt>
      <trkpt lat="48.77689000" lon="8.260484000">
        <ele>496.00000</ele>
        <time>2008-10-19T12:11:45Z</time>
      </trkpt>
      <trkpt lat="48.77690000" lon="8.260495000">
        <ele>496.00000</ele>
        <time>2008-10-19T12:11:45Z</time>
      </trkpt>
      <trkpt lat="48.77691000" lon="8.260509000">
        <ele>496.00000</ele>
        <time>2008-10-19T12:11:45Z</time>
      </trkpt>
      <trkpt lat="48.77692000" lon="8.260530000">
        <ele>496.00000</ele>
        <time>2008-10-19T12:11:45Z</time>
      </trkpt>
      <trkpt lat="48.77694000" lon="8.260551000">
        <ele>496.00000</ele>
        <time>2008-10-19T12:11:45Z</time>
      </trkpt>
      <trkpt lat="48.77694000" lon="8.260568000">
        <ele>496.00000</ele>
        <time>2008-10-19T12:11:45Z</time>
      </trkpt>
      <trkpt lat="48.77695000" lon="8.260581000">
        <ele>496.00000</ele>
        <time>2008-10-19T12:11:45Z</time>
      </trkpt>
      <trkpt lat="48.77696000" lon="8.260592000">
        <ele>496.00000</ele>
        <time>2008-10-19T12:11:45Z</time>
      </trkpt>
      <trkpt lat="48.77697000" lon="8.260599000">
        <ele>496.00000</ele>
        <time>2008-10-19T12:11:45Z</time>
      </trkpt>
      <trkpt lat="48.77698000" lon="8.260590000">
        <ele>496.00000</ele>
        <time>2008-10-19T12:11:45Z</time>
      </trkpt>
      <trkpt lat="48.77699000" lon="8.260575000">
        <ele>496.00000</ele>
        <time>2008-10-19T12:11:45Z</time>
      </trkpt>
      <trkpt lat="48.77700000" lon="8.260555000">
        <ele>496.00000</ele>
        <time>2008-10-19T12:11:45Z</time>
      </trkpt>
      <trkpt lat="48.77700000" lon="8.260541000">
        <ele>496.00000</ele>
        <time>2008-10-19T12:11:45Z</time>
      </trkpt>
      <trkpt lat="48.77700000" lon="8.260530000">
        <ele>496.00000</ele>
        <time>2008-10-19T12:11:45Z</time>
      </trkpt>
      <trkpt lat="48.77701000" lon="8.260519000">
        <ele>496.00000</ele>
        <time>2008-10-19T12:11:45Z</time>
      </trkpt>
      <trkpt lat="48.77701000" lon="8.260509000">
        <ele>496.00000</ele>
        <time>2008-10-19T12:11:45Z</time>
      </trkpt>
      <trkpt lat="48.77701000" lon="8.260497000">
        <ele>496.00000</ele>
        <time>2008-10-19T12:11:45Z</time>
      </trkpt>
      <trkpt lat="48.77701000" lon="8.260483000">
        <ele>496.00000</ele>
        <time>2008-10-19T12:11:45Z</time>
      </trkpt>
      <trkpt lat="48.77701000" lon="8.260466000">
        <ele>496.00000</ele>
        <time>2008-10-19T12:11:45Z</time>
      </trkpt>
      <trkpt lat="48.77701000" lon="8.260446000">
        <ele>496.00000</ele>
        <time>2008-10-19T12:11:45Z</time>
      </trkpt>
      <trkpt lat="48.77702000" lon="8.260427000">
        <ele>496.00000</ele>
        <time>2008-10-19T12:11:45Z</time>
      </trkpt>
      <trkpt lat="48.77701000" lon="8.260413000">
        <ele>493.00000</ele>
        <time>2008-10-19T12:11:45Z</time>
      </trkpt>
      <trkpt lat="48.77700000" lon="8.260400000">
        <ele>493.00000</ele>
        <time>2008-10-19T12:11:45Z</time>
      </trkpt>
      <trkpt lat="48.77700000" lon="8.260386000">
        <ele>493.00000</ele>
        <time>2008-10-19T12:11:45Z</time>
      </trkpt>
      <trkpt lat="48.77700000" lon="8.260366000">
        <ele>493.00000</ele>
        <time>2008-10-19T12:11:45Z</time>
      </trkpt>
      <trkpt lat="48.77700000" lon="8.260351000">
        <ele>493.00000</ele>
        <time>2008-10-19T12:11:45Z</time>
      </trkpt>
      <trkpt lat="48.77700000" lon="8.260338000">
        <ele>493.00000</ele>
        <time>2008-10-19T12:11:45Z</time>
      </trkpt>
      <trkpt lat="48.77700000" lon="8.260324000">
        <ele>493.00000</ele>
        <time>2008-10-19T12:11:45Z</time>
      </trkpt>
      <trkpt lat="48.77700000" lon="8.260303000">
        <ele>493.00000</ele>
        <time>2008-10-19T12:11:45Z</time>
      </trkpt>
      <trkpt lat="48.77701000" lon="8.260276000">
        <ele>493.00000</ele>
        <time>2008-10-19T12:11:45Z</time>
      </trkpt>
      <trkpt lat="48.77701000" lon="8.260243000">
        <ele>493.00000</ele>
        <time>2008-10-19T12:11:45Z</time>
      </trkpt>
      <trkpt lat="48.77701000" lon="8.260215000">
        <ele>493.00000</ele>
        <time>2008-10-19T12:11:45Z</time>
      </trkpt>
      <trkpt lat="48.77701000" lon="8.260185000">
        <ele>493.00000</ele>
        <time>2008-10-19T12:11:45Z</time>
      </trkpt>
      <trkpt lat="48.77702000" lon="8.260155000">
        <ele>493.00000</ele>
        <time>2008-10-19T12:11:45Z</time>
      </trkpt>
      <trkpt lat="48.77701000" lon="8.260135000">
        <ele>493.00000</ele>
        <time>2008-10-19T12:11:45Z</time>
      </trkpt>
      <trkpt lat="48.77701000" lon="8.260107000">
        <ele>493.00000</ele>
        <time>2008-10-19T12:11:45Z</time>
      </trkpt>
      <trkpt lat="48.77702000" lon="8.260074000">
        <ele>493.00000</ele>
        <time>2008-10-19T12:11:45Z</time>
      </trkpt>
      <trkpt lat="48.77702000" lon="8.260043000">
        <ele>493.00000</ele>
        <time>2008-10-19T12:11:45Z</time>
      </trkpt>
      <trkpt lat="48.77702000" lon="8.260014000">
        <ele>493.00000</ele>
        <time>2008-10-19T12:11:45Z</time>
      </trkpt>
      <trkpt lat="48.77701000" lon="8.259974000">
        <ele>493.00000</ele>
        <time>2008-10-19T12:11:45Z</time>
      </trkpt>
      <trkpt lat="48.77701000" lon="8.259930000">
        <ele>493.00000</ele>
        <time>2008-10-19T12:11:45Z</time>
      </trkpt>
      <trkpt lat="48.77701000" lon="8.259880000">
        <ele>493.00000</ele>
        <time>2008-10-19T12:11:45Z</time>
      </trkpt>
      <trkpt lat="48.77701000" lon="8.259834000">
        <ele>493.00000</ele>
        <time>2008-10-19T12:11:45Z</time>
      </trkpt>
      <trkpt lat="48.77700000" lon="8.259801000">
        <ele>493.00000</ele>
        <time>2008-10-19T12:11:45Z</time>
      </trkpt>
      <trkpt lat="48.77699000" lon="8.259772000">
        <ele>493.00000</ele>
        <time>2008-10-19T12:11:45Z</time>
      </trkpt>
      <trkpt lat="48.77699000" lon="8.259735000">
        <ele>493.00000</ele>
        <time>2008-10-19T12:11:45Z</time>
      </trkpt>
      <trkpt lat="48.77699000" lon="8.259694000">
        <ele>493.00000</ele>
        <time>2008-10-19T12:11:45Z</time>
      </trkpt>
      <trkpt lat="48.77700000" lon="8.259658000">
        <ele>493.00000</ele>
        <time>2008-10-19T12:11:45Z</time>
      </trkpt>
      <trkpt lat="48.77699000" lon="8.259608000">
        <ele>493.00000</ele>
        <time>2008-10-19T12:11:45Z</time>
      </trkpt>
      <trkpt lat="48.77699000" lon="8.259565000">
        <ele>490.00000</ele>
        <time>2008-10-19T12:11:45Z</time>
      </trkpt>
      <trkpt lat="48.77699000" lon="8.259516000">
        <ele>490.00000</ele>
        <time>2008-10-19T12:11:45Z</time>
      </trkpt>
      <trkpt lat="48.77699000" lon="8.259466000">
        <ele>490.00000</ele>
        <time>2008-10-19T12:11:45Z</time>
      </trkpt>
      <trkpt lat="48.77697000" lon="8.259418000">
        <ele>490.00000</ele>
        <time>2008-10-19T12:11:45Z</time>
      </trkpt>
      <trkpt lat="48.77697000" lon="8.259376000">
        <ele>490.00000</ele>
        <time>2008-10-19T12:11:45Z</time>
      </trkpt>
      <trkpt lat="48.77697000" lon="8.259336000">
        <ele>490.00000</ele>
        <time>2008-10-19T12:11:45Z</time>
      </trkpt>
      <trkpt lat="48.77696000" lon="8.259296000">
        <ele>490.00000</ele>
        <time>2008-10-19T12:11:45Z</time>
      </trkpt>
      <trkpt lat="48.77694000" lon="8.259253000">
        <ele>490.00000</ele>
        <time>2008-10-19T12:11:45Z</time>
      </trkpt>
      <trkpt lat="48.77692000" lon="8.259207000">
        <ele>490.00000</ele>
        <time>2008-10-19T12:11:45Z</time>
      </trkpt>
      <trkpt lat="48.77690000" lon="8.259171000">
        <ele>490.00000</ele>
        <time>2008-10-19T12:11:45Z</time>
      </trkpt>
      <trkpt lat="48.77688000" lon="8.259130000">
        <ele>490.00000</ele>
        <time>2008-10-19T12:11:45Z</time>
      </trkpt>
      <trkpt lat="48.77686000" lon="8.259090000">
        <ele>490.00000</ele>
        <time>2008-10-19T12:11:45Z</time>
      </trkpt>
      <trkpt lat="48.77686000" lon="8.259048000">
        <ele>490.00000</ele>
        <time>2008-10-19T12:11:45Z</time>
      </trkpt>
      <trkpt lat="48.77684000" lon="8.259001000">
        <ele>490.00000</ele>
        <time>2008-10-19T12:11:45Z</time>
      </trkpt>
      <trkpt lat="48.77683000" lon="8.258951000">
        <ele>490.00000</ele>
        <time>2008-10-19T12:11:45Z</time>
      </trkpt>
      <trkpt lat="48.77682000" lon="8.258900000">
        <ele>490.00000</ele>
        <time>2008-10-19T12:11:45Z</time>
      </trkpt>
      <trkpt lat="48.77680000" lon="8.258847000">
        <ele>490.00000</ele>
        <time>2008-10-19T12:11:45Z</time>
      </trkpt>
      <trkpt lat="48.77679000" lon="8.258793000">
        <ele>490.00000</ele>
        <time>2008-10-19T12:11:45Z</time>
      </trkpt>
      <trkpt lat="48.77678000" lon="8.258742000">
        <ele>492.00000</ele>
        <time>2008-10-19T12:11:45Z</time>
      </trkpt>
      <trkpt lat="48.77676000" lon="8.258696000">
        <ele>492.00000</ele>
        <time>2008-10-19T12:11:45Z</time>
      </trkpt>
      <trkpt lat="48.77676000" lon="8.258646000">
        <ele>492.00000</ele>
        <time>2008-10-19T12:11:45Z</time>
      </trkpt>
      <trkpt lat="48.77676000" lon="8.258595000">
        <ele>492.00000</ele>
        <time>2008-10-19T12:11:45Z</time>
      </trkpt>
      <trkpt lat="48.77676000" lon="8.258542000">
        <ele>492.00000</ele>
        <time>2008-10-19T12:11:45Z</time>
      </trkpt>
      <trkpt lat="48.77676000" lon="8.258491000">
        <ele>492.00000</ele>
        <time>2008-10-19T12:11:45Z</time>
      </trkpt>
      <trkpt lat="48.77676000" lon="8.258437000">
        <ele>492.00000</ele>
        <time>2008-10-19T12:11:45Z</time>
      </trkpt>
      <trkpt lat="48.77676000" lon="8.258390000">
        <ele>492.00000</ele>
        <time>2008-10-19T12:11:45Z</time>
      </trkpt>
      <trkpt lat="48.77675000" lon="8.258348000">
        <ele>492.00000</ele>
        <time>2008-10-19T12:11:45Z</time>
      </trkpt>
      <trkpt lat="48.77674000" lon="8.258307000">
        <ele>492.00000</ele>
        <time>2008-10-19T12:11:45Z</time>
      </trkpt>
      <trkpt lat="48.77673000" lon="8.258265000">
        <ele>492.00000</ele>
        <time>2008-10-19T12:11:45Z</time>
      </trkpt>
      <trkpt lat="48.77671000" lon="8.258225000">
        <ele>492.00000</ele>
        <time>2008-10-19T12:11:45Z</time>
      </trkpt>
      <trkpt lat="48.77670000" lon="8.258179000">
        <ele>492.00000</ele>
        <time>2008-10-19T12:11:45Z</time>
      </trkpt>
      <trkpt lat="48.77668000" lon="8.258131000">
        <ele>492.00000</ele>
        <time>2008-10-19T12:11:45Z</time>
      </trkpt>
      <trkpt lat="48.77667000" lon="8.258089000">
        <ele>492.00000</ele>
        <time>2008-10-19T12:11:45Z</time>
      </trkpt>
      <trkpt lat="48.77665000" lon="8.258042000">
        <ele>492.00000</ele>
        <time>2008-10-19T12:11:45Z</time>
      </trkpt>
      <trkpt lat="48.77664000" lon="8.257992000">
        <ele>492.00000</ele>
        <time>2008-10-19T12:11:45Z</time>
      </trkpt>
      <trkpt lat="48.77663000" lon="8.257938000">
        <ele>492.00000</ele>
        <time>2008-10-19T12:11:45Z</time>
      </trkpt>
      <trkpt lat="48.77662000" lon="8.257894000">
        <ele>495.00000</ele>
        <time>2008-10-19T12:11:45Z</time>
      </trkpt>
      <trkpt lat="48.77661000" lon="8.257851000">
        <ele>495.00000</ele>
        <time>2008-10-19T12:11:45Z</time>
      </trkpt>
      <trkpt lat="48.77660000" lon="8.257807000">
        <ele>495.00000</ele>
        <time>2008-10-19T12:11:45Z</time>
      </trkpt>
      <trkpt lat="48.77660000" lon="8.257757000">
        <ele>495.00000</ele>
        <time>2008-10-19T12:11:45Z</time>
      </trkpt>
      <trkpt lat="48.77659000" lon="8.257709000">
        <ele>495.00000</ele>
        <time>2008-10-19T12:11:45Z</time>
      </trkpt>
      <trkpt lat="48.77659000" lon="8.257663000">
        <ele>495.00000</ele>
        <time>2008-10-19T12:11:45Z</time>
      </trkpt>
      <trkpt lat="48.77659000" lon="8.257611000">
        <ele>495.00000</ele>
        <time>2008-10-19T12:11:45Z</time>
      </trkpt>
      <trkpt lat="48.77659000" lon="8.257560000">
        <ele>495.00000</ele>
        <time>2008-10-19T12:11:45Z</time>
      </trkpt>
      <trkpt lat="48.77658000" lon="8.257515000">
        <ele>495.00000</ele>
        <time>2008-10-19T12:11:45Z</time>
      </trkpt>
      <trkpt lat="48.77658000" lon="8.257472000">
        <ele>495.00000</ele>
        <time>2008-10-19T12:11:45Z</time>
      </trkpt>
      <trkpt lat="48.77657000" lon="8.257430000">
        <ele>495.00000</ele>
        <time>2008-10-19T12:11:45Z</time>
      </trkpt>
      <trkpt lat="48.77657000" lon="8.257387000">
        <ele>495.00000</ele>
        <time>2008-10-19T12:11:45Z</time>
      </trkpt>
      <trkpt lat="48.77656000" lon="8.257343000">
        <ele>495.00000</ele>
        <time>2008-10-19T12:11:45Z</time>
      </trkpt>
      <trkpt lat="48.77656000" lon="8.257306000">
        <ele>495.00000</ele>
        <time>2008-10-19T12:11:45Z</time>
      </trkpt>
      <trkpt lat="48.77655000" lon="8.257271000">
        <ele>495.00000</ele>
        <time>2008-10-19T12:11:45Z</time>
      </trkpt>
      <trkpt lat="48.77655000" lon="8.257236000">
        <ele>495.00000</ele>
        <time>2008-10-19T12:11:45Z</time>
      </trkpt>
      <trkpt lat="48.77654000" lon="8.257196000">
        <ele>495.00000</ele>
        <time>2008-10-19T12:11:45Z</time>
      </trkpt>
      <trkpt lat="48.77654000" lon="8.257158000">
        <ele>495.00000</ele>
        <time>2008-10-19T12:11:45Z</time>
      </trkpt>
      <trkpt lat="48.77653000" lon="8.257125000">
        <ele>495.00000</ele>
        <time>2008-10-19T12:11:45Z</time>
      </trkpt>
      <trkpt lat="48.77653000" lon="8.257091000">
        <ele>495.00000</ele>
        <time>2008-10-19T12:11:45Z</time>
      </trkpt>
      <trkpt lat="48.77653000" lon="8.257050000">
        <ele>500.00000</ele>
        <time>2008-10-19T12:11:45Z</time>
      </trkpt>
      <trkpt lat="48.77652000" lon="8.257006000">
        <ele>500.00000</ele>
        <time>2008-10-19T12:11:45Z</time>
      </trkpt>
      <trkpt lat="48.77651000" lon="8.256967000">
        <ele>500.00000</ele>
        <time>2008-10-19T12:11:45Z</time>
      </trkpt>
      <trkpt lat="48.77651000" lon="8.256923000">
        <ele>500.00000</ele>
        <time>2008-10-19T12:11:45Z</time>
      </trkpt>
      <trkpt lat="48.77650000" lon="8.256884000">
        <ele>500.00000</ele>
        <time>2008-10-19T12:11:45Z</time>
      </trkpt>
      <trkpt lat="48.77651000" lon="8.256842000">
        <ele>500.00000</ele>
        <time>2008-10-19T12:11:45Z</time>
      </trkpt>
      <trkpt lat="48.77652000" lon="8.256798000">
        <ele>500.00000</ele>
        <time>2008-10-19T12:11:45Z</time>
      </trkpt>
      <trkpt lat="48.77652000" lon="8.256754000">
        <ele>500.00000</ele>
        <time>2008-10-19T12:11:45Z</time>
      </trkpt>
      <trkpt lat="48.77652000" lon="8.256710000">
        <ele>500.00000</ele>
        <time>2008-10-19T12:11:45Z</time>
      </trkpt>
      <trkpt lat="48.77652000" lon="8.256665000">
        <ele>500.00000</ele>
        <time>2008-10-19T12:11:45Z</time>
      </trkpt>
      <trkpt lat="48.77651000" lon="8.256620000">
        <ele>500.00000</ele>
        <time>2008-10-19T12:11:45Z</time>
      </trkpt>
      <trkpt lat="48.77652000" lon="8.256589000">
        <ele>500.00000</ele>
        <time>2008-10-19T12:11:45Z</time>
      </trkpt>
      <trkpt lat="48.77653000" lon="8.256554000">
        <ele>500.00000</ele>
        <time>2008-10-19T12:11:45Z</time>
      </trkpt>
      <trkpt lat="48.77654000" lon="8.256517000">
        <ele>500.00000</ele>
        <time>2008-10-19T12:11:45Z</time>
      </trkpt>
      <trkpt lat="48.77654000" lon="8.256472000">
        <ele>500.00000</ele>
        <time>2008-10-19T12:11:45Z</time>
      </trkpt>
      <trkpt lat="48.77654000" lon="8.256421000">
        <ele>500.00000</ele>
        <time>2008-10-19T12:11:45Z</time>
      </trkpt>
      <trkpt lat="48.77655000" lon="8.256379000">
        <ele>500.00000</ele>
        <time>2008-10-19T12:11:45Z</time>
      </trkpt>
      <trkpt lat="48.77654000" lon="8.256335000">
        <ele>500.00000</ele>
        <time>2008-10-19T12:11:45Z</time>
      </trkpt>
      <trkpt lat="48.77654000" lon="8.256289000">
        <ele>500.00000</ele>
        <time>2008-10-19T12:11:45Z</time>
      </trkpt>
      <trkpt lat="48.77653000" lon="8.256240000">
        <ele>507.00000</ele>
        <time>2008-10-19T12:11:45Z</time>
      </trkpt>
      <trkpt lat="48.77652000" lon="8.256192000">
        <ele>507.00000</ele>
        <time>2008-10-19T12:11:45Z</time>
      </trkpt>
      <trkpt lat="48.77651000" lon="8.256148000">
        <ele>507.00000</ele>
        <time>2008-10-19T12:11:45Z</time>
      </trkpt>
      <trkpt lat="48.77650000" lon="8.256104000">
        <ele>507.00000</ele>
        <time>2008-10-19T12:11:45Z</time>
      </trkpt>
      <trkpt lat="48.77650000" lon="8.256063000">
        <ele>507.00000</ele>
        <time>2008-10-19T12:11:45Z</time>
      </trkpt>
      <trkpt lat="48.77649000" lon="8.256018000">
        <ele>507.00000</ele>
        <time>2008-10-19T12:11:45Z</time>
      </trkpt>
      <trkpt lat="48.77647000" lon="8.255976000">
        <ele>507.00000</ele>
        <time>2008-10-19T12:11:45Z</time>
      </trkpt>
      <trkpt lat="48.77647000" lon="8.255938000">
        <ele>507.00000</ele>
        <time>2008-10-19T12:11:45Z</time>
      </trkpt>
      <trkpt lat="48.77646000" lon="8.255894000">
        <ele>507.00000</ele>
        <time>2008-10-19T12:11:45Z</time>
      </trkpt>
      <trkpt lat="48.77645000" lon="8.255851000">
        <ele>507.00000</ele>
        <time>2008-10-19T12:11:45Z</time>
      </trkpt>
      <trkpt lat="48.77645000" lon="8.255813000">
        <ele>507.00000</ele>
        <time>2008-10-19T12:11:45Z</time>
      </trkpt>
      <trkpt lat="48.77644000" lon="8.255775000">
        <ele>507.00000</ele>
        <time>2008-10-19T12:11:45Z</time>
      </trkpt>
      <trkpt lat="48.77644000" lon="8.255735000">
        <ele>507.00000</ele>
        <time>2008-10-19T12:11:45Z</time>
      </trkpt>
      <trkpt lat="48.77644000" lon="8.255692000">
        <ele>507.00000</ele>
        <time>2008-10-19T12:11:45Z</time>
      </trkpt>
      <trkpt lat="48.77644000" lon="8.255649000">
        <ele>507.00000</ele>
        <time>2008-10-19T12:11:45Z</time>
      </trkpt>
      <trkpt lat="48.77644000" lon="8.255610000">
        <ele>507.00000</ele>
        <time>2008-10-19T12:11:45Z</time>
      </trkpt>
      <trkpt lat="48.77644000" lon="8.255579000">
        <ele>507.00000</ele>
        <time>2008-10-19T12:11:45Z</time>
      </trkpt>
      <trkpt lat="48.77644000" lon="8.255546000">
        <ele>507.00000</ele>
        <time>2008-10-19T12:11:45Z</time>
      </trkpt>
      <trkpt lat="48.77644000" lon="8.255506000">
        <ele>507.00000</ele>
        <time>2008-10-19T12:11:45Z</time>
      </trkpt>
      <trkpt lat="48.77644000" lon="8.255466000">
        <ele>507.00000</ele>
        <time>2008-10-19T12:11:45Z</time>
      </trkpt>
      <trkpt lat="48.77644000" lon="8.255424000">
        <ele>507.00000</ele>
        <time>2008-10-19T12:11:45Z</time>
      </trkpt>
      <trkpt lat="48.77644000" lon="8.255382000">
        <ele>511.00000</ele>
        <time>2008-10-19T12:11:45Z</time>
      </trkpt>
      <trkpt lat="48.77644000" lon="8.255342000">
        <ele>511.00000</ele>
        <time>2008-10-19T12:11:45Z</time>
      </trkpt>
      <trkpt lat="48.77644000" lon="8.255301000">
        <ele>511.00000</ele>
        <time>2008-10-19T12:11:45Z</time>
      </trkpt>
      <trkpt lat="48.77643000" lon="8.255256000">
        <ele>511.00000</ele>
        <time>2008-10-19T12:11:45Z</time>
      </trkpt>
      <trkpt lat="48.77643000" lon="8.255207000">
        <ele>511.00000</ele>
        <time>2008-10-19T12:11:45Z</time>
      </trkpt>
      <trkpt lat="48.77643000" lon="8.255161000">
        <ele>511.00000</ele>
        <time>2008-10-19T12:11:45Z</time>
      </trkpt>
      <trkpt lat="48.77643000" lon="8.255117000">
        <ele>511.00000</ele>
        <time>2008-10-19T12:11:45Z</time>
      </trkpt>
      <trkpt lat="48.77642000" lon="8.255075000">
        <ele>511.00000</ele>
        <time>2008-10-19T12:11:45Z</time>
      </trkpt>
      <trkpt lat="48.77642000" lon="8.255033000">
        <ele>511.00000</ele>
        <time>2008-10-19T12:11:45Z</time>
      </trkpt>
      <trkpt lat="48.77642000" lon="8.254991000">
        <ele>511.00000</ele>
        <time>2008-10-19T12:11:45Z</time>
      </trkpt>
      <trkpt lat="48.77641000" lon="8.254950000">
        <ele>511.00000</ele>
        <time>2008-10-19T12:11:45Z</time>
      </trkpt>
      <trkpt lat="48.77641000" lon="8.254912000">
        <ele>511.00000</ele>
        <time>2008-10-19T12:11:45Z</time>
      </trkpt>
      <trkpt lat="48.77641000" lon="8.254871000">
        <ele>511.00000</ele>
        <time>2008-10-19T12:11:45Z</time>
      </trkpt>
      <trkpt lat="48.77640000" lon="8.254826000">
        <ele>511.00000</ele>
        <time>2008-10-19T12:11:45Z</time>
      </trkpt>
      <trkpt lat="48.77639000" lon="8.254786000">
        <ele>511.00000</ele>
        <time>2008-10-19T12:11:45Z</time>
      </trkpt>
      <trkpt lat="48.77639000" lon="8.254743000">
        <ele>511.00000</ele>
        <time>2008-10-19T12:11:45Z</time>
      </trkpt>
      <trkpt lat="48.77639000" lon="8.254703000">
        <ele>511.00000</ele>
        <time>2008-10-19T12:11:45Z</time>
      </trkpt>
      <trkpt lat="48.77639000" lon="8.254664000">
        <ele>511.00000</ele>
        <time>2008-10-19T12:11:45Z</time>
      </trkpt>
      <trkpt lat="48.77639000" lon="8.254628000">
        <ele>511.00000</ele>
        <time>2008-10-19T12:11:45Z</time>
      </trkpt>
      <trkpt lat="48.77639000" lon="8.254592000">
        <ele>511.00000</ele>
        <time>2008-10-19T12:11:45Z</time>
      </trkpt>
      <trkpt lat="48.77639000" lon="8.254554000">
        <ele>511.00000</ele>
        <time>2008-10-19T12:11:45Z</time>
      </trkpt>
      <trkpt lat="48.77640000" lon="8.254521000">
        <ele>511.00000</ele>
        <time>2008-10-19T12:11:45Z</time>
      </trkpt>
      <trkpt lat="48.77640000" lon="8.254487000">
        <ele>511.00000</ele>
        <time>2008-10-19T12:11:45Z</time>
      </trkpt>
      <trkpt lat="48.77640000" lon="8.254442000">
        <ele>511.00000</ele>
        <time>2008-10-19T12:11:45Z</time>
      </trkpt>
      <trkpt lat="48.77641000" lon="8.254398000">
        <ele>511.00000</ele>
        <time>2008-10-19T12:11:45Z</time>
      </trkpt>
      <trkpt lat="48.77641000" lon="8.254350000">
        <ele>511.00000</ele>
        <time>2008-10-19T12:11:45Z</time>
      </trkpt>
      <trkpt lat="48.77641000" lon="8.254306000">
        <ele>511.00000</ele>
        <time>2008-10-19T12:11:45Z</time>
      </trkpt>
      <trkpt lat="48.77641000" lon="8.254267000">
        <ele>511.00000</ele>
        <time>2008-10-19T12:11:45Z</time>
      </trkpt>
      <trkpt lat="48.77641000" lon="8.254227000">
        <ele>511.00000</ele>
        <time>2008-10-19T12:11:45Z</time>
      </trkpt>
      <trkpt lat="48.77642000" lon="8.254186000">
        <ele>511.00000</ele>
        <time>2008-10-19T12:11:45Z</time>
      </trkpt>
      <trkpt lat="48.77642000" lon="8.254151000">
        <ele>511.00000</ele>
        <time>2008-10-19T12:11:45Z</time>
      </trkpt>
      <trkpt lat="48.77643000" lon="8.254115000">
        <ele>511.00000</ele>
        <time>2008-10-19T12:11:45Z</time>
      </trkpt>
      <trkpt lat="48.77644000" lon="8.254077000">
        <ele>511.00000</ele>
        <time>2008-10-19T12:11:45Z</time>
      </trkpt>
      <trkpt lat="48.77643000" lon="8.254027000">
        <ele>511.00000</ele>
        <time>2008-10-19T12:11:45Z</time>
      </trkpt>
      <trkpt lat="48.77642000" lon="8.253982000">
        <ele>511.00000</ele>
        <time>2008-10-19T12:11:45Z</time>
      </trkpt>
      <trkpt lat="48.77642000" lon="8.253942000">
        <ele>511.00000</ele>
        <time>2008-10-19T12:11:45Z</time>
      </trkpt>
      <trkpt lat="48.77642000" lon="8.253897000">
        <ele>511.00000</ele>
        <time>2008-10-19T12:11:45Z</time>
      </trkpt>
      <trkpt lat="48.77641000" lon="8.253854000">
        <ele>511.00000</ele>
        <time>2008-10-19T12:11:45Z</time>
      </trkpt>
      <trkpt lat="48.77641000" lon="8.253810000">
        <ele>511.00000</ele>
        <time>2008-10-19T12:11:45Z</time>
      </trkpt>
      <trkpt lat="48.77641000" lon="8.253771000">
        <ele>511.00000</ele>
        <time>2008-10-19T12:11:45Z</time>
      </trkpt>
      <trkpt lat="48.77641000" lon="8.253728000">
        <ele>507.00000</ele>
        <time>2008-10-19T12:11:45Z</time>
      </trkpt>
      <trkpt lat="48.77639000" lon="8.253686000">
        <ele>507.00000</ele>
        <time>2008-10-19T12:11:45Z</time>
      </trkpt>
      <trkpt lat="48.77639000" lon="8.253643000">
        <ele>507.00000</ele>
        <time>2008-10-19T12:11:45Z</time>
      </trkpt>
      <trkpt lat="48.77638000" lon="8.253605000">
        <ele>507.00000</ele>
        <time>2008-10-19T12:11:45Z</time>
      </trkpt>
      <trkpt lat="48.77638000" lon="8.253574000">
        <ele>507.00000</ele>
        <time>2008-10-19T12:11:45Z</time>
      </trkpt>
      <trkpt lat="48.77637000" lon="8.253544000">
        <ele>507.00000</ele>
        <time>2008-10-19T12:11:45Z</time>
      </trkpt>
      <trkpt lat="48.77638000" lon="8.253502000">
        <ele>507.00000</ele>
        <time>2008-10-19T12:11:45Z</time>
      </trkpt>
      <trkpt lat="48.77638000" lon="8.253460000">
        <ele>507.00000</ele>
        <time>2008-10-19T12:11:45Z</time>
      </trkpt>
      <trkpt lat="48.77637000" lon="8.253423000">
        <ele>507.00000</ele>
        <time>2008-10-19T12:11:45Z</time>
      </trkpt>
      <trkpt lat="48.77636000" lon="8.253379000">
        <ele>507.00000</ele>
        <time>2008-10-19T12:11:45Z</time>
      </trkpt>
      <trkpt lat="48.77635000" lon="8.253342000">
        <ele>507.00000</ele>
        <time>2008-10-19T12:11:45Z</time>
      </trkpt>
      <trkpt lat="48.77634000" lon="8.253306000">
        <ele>507.00000</ele>
        <time>2008-10-19T12:11:45Z</time>
      </trkpt>
      <trkpt lat="48.77633000" lon="8.253272000">
        <ele>507.00000</ele>
        <time>2008-10-19T12:11:45Z</time>
      </trkpt>
      <trkpt lat="48.77632000" lon="8.253236000">
        <ele>507.00000</ele>
        <time>2008-10-19T12:11:45Z</time>
      </trkpt>
      <trkpt lat="48.77631000" lon="8.253199000">
        <ele>507.00000</ele>
        <time>2008-10-19T12:11:45Z</time>
      </trkpt>
      <trkpt lat="48.77629000" lon="8.253160000">
        <ele>507.00000</ele>
        <time>2008-10-19T12:11:45Z</time>
      </trkpt>
      <trkpt lat="48.77628000" lon="8.253126000">
        <ele>507.00000</ele>
        <time>2008-10-19T12:11:45Z</time>
      </trkpt>
      <trkpt lat="48.77627000" lon="8.253095000">
        <ele>507.00000</ele>
        <time>2008-10-19T12:11:45Z</time>
      </trkpt>
      <trkpt lat="48.77626000" lon="8.253054000">
        <ele>507.00000</ele>
        <time>2008-10-19T12:11:45Z</time>
      </trkpt>
      <trkpt lat="48.77625000" lon="8.253009000">
        <ele>462.00000</ele>
        <time>2008-10-19T12:11:45Z</time>
      </trkpt>
      <trkpt lat="48.77624000" lon="8.252963000">
        <ele>462.00000</ele>
        <time>2008-10-19T12:11:45Z</time>
      </trkpt>
      <trkpt lat="48.77623000" lon="8.252923000">
        <ele>462.00000</ele>
        <time>2008-10-19T12:11:45Z</time>
      </trkpt>
      <trkpt lat="48.77622000" lon="8.252887000">
        <ele>462.00000</ele>
        <time>2008-10-19T12:11:45Z</time>
      </trkpt>
      <trkpt lat="48.77621000" lon="8.252843000">
        <ele>462.00000</ele>
        <time>2008-10-19T12:11:45Z</time>
      </trkpt>
      <trkpt lat="48.77620000" lon="8.252801000">
        <ele>462.00000</ele>
        <time>2008-10-19T12:11:45Z</time>
      </trkpt>
      <trkpt lat="48.77619000" lon="8.252764000">
        <ele>462.00000</ele>
        <time>2008-10-19T12:11:45Z</time>
      </trkpt>
      <trkpt lat="48.77618000" lon="8.252724000">
        <ele>462.00000</ele>
        <time>2008-10-19T12:11:45Z</time>
      </trkpt>
      <trkpt lat="48.77617000" lon="8.252683000">
        <ele>462.00000</ele>
        <time>2008-10-19T12:11:45Z</time>
      </trkpt>
      <trkpt lat="48.77616000" lon="8.252641000">
        <ele>462.00000</ele>
        <time>2008-10-19T12:11:45Z</time>
      </trkpt>
      <trkpt lat="48.77615000" lon="8.252592000">
        <ele>462.00000</ele>
        <time>2008-10-19T12:11:45Z</time>
      </trkpt>
      <trkpt lat="48.77615000" lon="8.252544000">
        <ele>462.00000</ele>
        <time>2008-10-19T12:11:45Z</time>
      </trkpt>
      <trkpt lat="48.77614000" lon="8.252503000">
        <ele>462.00000</ele>
        <time>2008-10-19T12:11:45Z</time>
      </trkpt>
      <trkpt lat="48.77614000" lon="8.252456000">
        <ele>462.00000</ele>
        <time>2008-10-19T12:11:45Z</time>
      </trkpt>
      <trkpt lat="48.77613000" lon="8.252407000">
        <ele>462.00000</ele>
        <time>2008-10-19T12:11:45Z</time>
      </trkpt>
      <trkpt lat="48.77613000" lon="8.252359000">
        <ele>462.00000</ele>
        <time>2008-10-19T12:11:45Z</time>
      </trkpt>
      <trkpt lat="48.77612000" lon="8.252310000">
        <ele>462.00000</ele>
        <time>2008-10-19T12:11:45Z</time>
      </trkpt>
      <trkpt lat="48.77611000" lon="8.252262000">
        <ele>462.00000</ele>
        <time>2008-10-19T12:11:45Z</time>
      </trkpt>
      <trkpt lat="48.77610000" lon="8.252221000">
        <ele>462.00000</ele>
        <time>2008-10-19T12:11:45Z</time>
      </trkpt>
      <trkpt lat="48.77610000" lon="8.252178000">
        <ele>462.00000</ele>
        <time>2008-10-19T12:11:45Z</time>
      </trkpt>
      <trkpt lat="48.77610000" lon="8.252133000">
        <ele>462.00000</ele>
        <time>2008-10-19T12:11:45Z</time>
      </trkpt>
      <trkpt lat="48.77610000" lon="8.252082000">
        <ele>460.00000</ele>
        <time>2008-10-19T12:11:45Z</time>
      </trkpt>
      <trkpt lat="48.77610000" lon="8.252026000">
        <ele>460.00000</ele>
        <time>2008-10-19T12:11:45Z</time>
      </trkpt>
      <trkpt lat="48.77610000" lon="8.251977000">
        <ele>460.00000</ele>
        <time>2008-10-19T12:11:45Z</time>
      </trkpt>
      <trkpt lat="48.77611000" lon="8.251930000">
        <ele>460.00000</ele>
        <time>2008-10-19T12:11:45Z</time>
      </trkpt>
      <trkpt lat="48.77611000" lon="8.251885000">
        <ele>460.00000</ele>
        <time>2008-10-19T12:11:45Z</time>
      </trkpt>
      <trkpt lat="48.77610000" lon="8.251846000">
        <ele>460.00000</ele>
        <time>2008-10-19T12:11:45Z</time>
      </trkpt>
      <trkpt lat="48.77610000" lon="8.251808000">
        <ele>460.00000</ele>
        <time>2008-10-19T12:11:45Z</time>
      </trkpt>
      <trkpt lat="48.77610000" lon="8.251766000">
        <ele>460.00000</ele>
        <time>2008-10-19T12:11:45Z</time>
      </trkpt>
      <trkpt lat="48.77611000" lon="8.251719000">
        <ele>460.00000</ele>
        <time>2008-10-19T12:11:45Z</time>
      </trkpt>
      <trkpt lat="48.77611000" lon="8.251668000">
        <ele>460.00000</ele>
        <time>2008-10-19T12:11:45Z</time>
      </trkpt>
      <trkpt lat="48.77612000" lon="8.251620000">
        <ele>460.00000</ele>
        <time>2008-10-19T12:11:45Z</time>
      </trkpt>
      <trkpt lat="48.77613000" lon="8.251576000">
        <ele>460.00000</ele>
        <time>2008-10-19T12:11:45Z</time>
      </trkpt>
      <trkpt lat="48.77614000" lon="8.251532000">
        <ele>460.00000</ele>
        <time>2008-10-19T12:11:45Z</time>
      </trkpt>
      <trkpt lat="48.77614000" lon="8.251490000">
        <ele>460.00000</ele>
        <time>2008-10-19T12:11:45Z</time>
      </trkpt>
      <trkpt lat="48.77614000" lon="8.251439000">
        <ele>460.00000</ele>
        <time>2008-10-19T12:11:45Z</time>
      </trkpt>
      <trkpt lat="48.77613000" lon="8.251387000">
        <ele>460.00000</ele>
        <time>2008-10-19T12:11:45Z</time>
      </trkpt>
      <trkpt lat="48.77613000" lon="8.251347000">
        <ele>460.00000</ele>
        <time>2008-10-19T12:11:45Z</time>
      </trkpt>
      <trkpt lat="48.77614000" lon="8.251303000">
        <ele>460.00000</ele>
        <time>2008-10-19T12:11:45Z</time>
      </trkpt>
      <trkpt lat="48.77614000" lon="8.251258000">
        <ele>460.00000</ele>
        <time>2008-10-19T12:11:45Z</time>
      </trkpt>
      <trkpt lat="48.77614000" lon="8.251212000">
        <ele>457.00000</ele>
        <time>2008-10-19T12:11:45Z</time>
      </trkpt>
      <trkpt lat="48.77614000" lon="8.251159000">
        <ele>457.00000</ele>
        <time>2008-10-19T12:11:45Z</time>
      </trkpt>
      <trkpt lat="48.77614000" lon="8.251107000">
        <ele>457.00000</ele>
        <time>2008-10-19T12:11:45Z</time>
      </trkpt>
      <trkpt lat="48.77614000" lon="8.251051000">
        <ele>457.00000</ele>
        <time>2008-10-19T12:11:45Z</time>
      </trkpt>
      <trkpt lat="48.77614000" lon="8.251005000">
        <ele>457.00000</ele>
        <time>2008-10-19T12:11:45Z</time>
      </trkpt>
      <trkpt lat="48.77614000" lon="8.250967000">
        <ele>457.00000</ele>
        <time>2008-10-19T12:11:45Z</time>
      </trkpt>
      <trkpt lat="48.77614000" lon="8.250928000">
        <ele>457.00000</ele>
        <time>2008-10-19T12:11:45Z</time>
      </trkpt>
      <trkpt lat="48.77613000" lon="8.250886000">
        <ele>457.00000</ele>
        <time>2008-10-19T12:11:45Z</time>
      </trkpt>
      <trkpt lat="48.77613000" lon="8.250843000">
        <ele>457.00000</ele>
        <time>2008-10-19T12:11:45Z</time>
      </trkpt>
      <trkpt lat="48.77613000" lon="8.250797000">
        <ele>457.00000</ele>
        <time>2008-10-19T12:11:45Z</time>
      </trkpt>
      <trkpt lat="48.77613000" lon="8.250751000">
        <ele>457.00000</ele>
        <time>2008-10-19T12:11:45Z</time>
      </trkpt>
      <trkpt lat="48.77613000" lon="8.250700000">
        <ele>457.00000</ele>
        <time>2008-10-19T12:11:45Z</time>
      </trkpt>
      <trkpt lat="48.77613000" lon="8.250654000">
        <ele>457.00000</ele>
        <time>2008-10-19T12:11:45Z</time>
      </trkpt>
      <trkpt lat="48.77613000" lon="8.250609000">
        <ele>457.00000</ele>
        <time>2008-10-19T12:11:45Z</time>
      </trkpt>
      <trkpt lat="48.77613000" lon="8.250561000">
        <ele>457.00000</ele>
        <time>2008-10-19T12:11:45Z</time>
      </trkpt>
      <trkpt lat="48.77612000" lon="8.250515000">
        <ele>457.00000</ele>
        <time>2008-10-19T12:11:45Z</time>
      </trkpt>
      <trkpt lat="48.77613000" lon="8.250467000">
        <ele>457.00000</ele>
        <time>2008-10-19T12:11:45Z</time>
      </trkpt>
      <trkpt lat="48.77613000" lon="8.250427000">
        <ele>457.00000</ele>
        <time>2008-10-19T12:11:45Z</time>
      </trkpt>
      <trkpt lat="48.77614000" lon="8.250389000">
        <ele>453.00000</ele>
        <time>2008-10-19T12:11:45Z</time>
      </trkpt>
      <trkpt lat="48.77614000" lon="8.250342000">
        <ele>453.00000</ele>
        <time>2008-10-19T12:11:45Z</time>
      </trkpt>
      <trkpt lat="48.77614000" lon="8.250297000">
        <ele>453.00000</ele>
        <time>2008-10-19T12:11:45Z</time>
      </trkpt>
      <trkpt lat="48.77613000" lon="8.250246000">
        <ele>453.00000</ele>
        <time>2008-10-19T12:11:45Z</time>
      </trkpt>
      <trkpt lat="48.77613000" lon="8.250186000">
        <ele>453.00000</ele>
        <time>2008-10-19T12:11:45Z</time>
      </trkpt>
      <trkpt lat="48.77613000" lon="8.250136000">
        <ele>453.00000</ele>
        <time>2008-10-19T12:11:45Z</time>
      </trkpt>
      <trkpt lat="48.77613000" lon="8.250094000">
        <ele>453.00000</ele>
        <time>2008-10-19T12:11:45Z</time>
      </trkpt>
      <trkpt lat="48.77613000" lon="8.250057000">
        <ele>453.00000</ele>
        <time>2008-10-19T12:11:45Z</time>
      </trkpt>
      <trkpt lat="48.77612000" lon="8.250020000">
        <ele>453.00000</ele>
        <time>2008-10-19T12:11:45Z</time>
      </trkpt>
      <trkpt lat="48.77612000" lon="8.249981000">
        <ele>453.00000</ele>
        <time>2008-10-19T12:11:45Z</time>
      </trkpt>
      <trkpt lat="48.77612000" lon="8.249941000">
        <ele>453.00000</ele>
        <time>2008-10-19T12:11:45Z</time>
      </trkpt>
      <trkpt lat="48.77612000" lon="8.249900000">
        <ele>453.00000</ele>
        <time>2008-10-19T12:11:45Z</time>
      </trkpt>
      <trkpt lat="48.77612000" lon="8.249860000">
        <ele>453.00000</ele>
        <time>2008-10-19T12:11:45Z</time>
      </trkpt>
      <trkpt lat="48.77612000" lon="8.249820000">
        <ele>453.00000</ele>
        <time>2008-10-19T12:11:45Z</time>
      </trkpt>
      <trkpt lat="48.77612000" lon="8.249774000">
        <ele>453.00000</ele>
        <time>2008-10-19T12:11:45Z</time>
      </trkpt>
      <trkpt lat="48.77613000" lon="8.249735000">
        <ele>453.00000</ele>
        <time>2008-10-19T12:11:45Z</time>
      </trkpt>
      <trkpt lat="48.77614000" lon="8.249694000">
        <ele>453.00000</ele>
        <time>2008-10-19T12:11:45Z</time>
      </trkpt>
      <trkpt lat="48.77614000" lon="8.249653000">
        <ele>453.00000</ele>
        <time>2008-10-19T12:11:45Z</time>
      </trkpt>
      <trkpt lat="48.77615000" lon="8.249608000">
        <ele>453.00000</ele>
        <time>2008-10-19T12:11:45Z</time>
      </trkpt>
      <trkpt lat="48.77615000" lon="8.249562000">
        <ele>453.00000</ele>
        <time>2008-10-19T12:11:45Z</time>
      </trkpt>
      <trkpt lat="48.77615000" lon="8.249520000">
        <ele>453.00000</ele>
        <time>2008-10-19T12:11:45Z</time>
      </trkpt>
      <trkpt lat="48.77615000" lon="8.249475000">
        <ele>453.00000</ele>
        <time>2008-10-19T12:11:45Z</time>
      </trkpt>
      <trkpt lat="48.77615000" lon="8.249430000">
        <ele>453.00000</ele>
        <time>2008-10-19T12:11:45Z</time>
      </trkpt>
      <trkpt lat="48.77614000" lon="8.249384000">
        <ele>453.00000</ele>
        <time>2008-10-19T12:11:45Z</time>
      </trkpt>
      <trkpt lat="48.77613000" lon="8.249341000">
        <ele>453.00000</ele>
        <time>2008-10-19T12:11:45Z</time>
      </trkpt>
      <trkpt lat="48.77612000" lon="8.249298000">
        <ele>453.00000</ele>
        <time>2008-10-19T12:11:45Z</time>
      </trkpt>
      <trkpt lat="48.77610000" lon="8.249263000">
        <ele>453.00000</ele>
        <time>2008-10-19T12:11:45Z</time>
      </trkpt>
      <trkpt lat="48.77610000" lon="8.249228000">
        <ele>453.00000</ele>
        <time>2008-10-19T12:11:45Z</time>
      </trkpt>
      <trkpt lat="48.77609000" lon="8.249194000">
        <ele>453.00000</ele>
        <time>2008-10-19T12:11:45Z</time>
      </trkpt>
      <trkpt lat="48.77608000" lon="8.249155000">
        <ele>453.00000</ele>
        <time>2008-10-19T12:11:45Z</time>
      </trkpt>
      <trkpt lat="48.77607000" lon="8.249109000">
        <ele>453.00000</ele>
        <time>2008-10-19T12:11:45Z</time>
      </trkpt>
      <trkpt lat="48.77606000" lon="8.249066000">
        <ele>453.00000</ele>
        <time>2008-10-19T12:11:45Z</time>
      </trkpt>
      <trkpt lat="48.77605000" lon="8.249024000">
        <ele>453.00000</ele>
        <time>2008-10-19T12:11:45Z</time>
      </trkpt>
      <trkpt lat="48.77604000" lon="8.248977000">
        <ele>453.00000</ele>
        <time>2008-10-19T12:11:45Z</time>
      </trkpt>
      <trkpt lat="48.77603000" lon="8.248929000">
        <ele>453.00000</ele>
        <time>2008-10-19T12:11:45Z</time>
      </trkpt>
      <trkpt lat="48.77602000" lon="8.248895000">
        <ele>453.00000</ele>
        <time>2008-10-19T12:11:45Z</time>
      </trkpt>
      <trkpt lat="48.77601000" lon="8.248859000">
        <ele>453.00000</ele>
        <time>2008-10-19T12:11:45Z</time>
      </trkpt>
      <trkpt lat="48.77602000" lon="8.248808000">
        <ele>453.00000</ele>
        <time>2008-10-19T12:11:45Z</time>
      </trkpt>
      <trkpt lat="48.77603000" lon="8.248759000">
        <ele>453.00000</ele>
        <time>2008-10-19T12:11:45Z</time>
      </trkpt>
      <trkpt lat="48.77604000" lon="8.248717000">
        <ele>447.00000</ele>
        <time>2008-10-19T12:11:45Z</time>
      </trkpt>
      <trkpt lat="48.77604000" lon="8.248672000">
        <ele>447.00000</ele>
        <time>2008-10-19T12:11:45Z</time>
      </trkpt>
      <trkpt lat="48.77604000" lon="8.248627000">
        <ele>447.00000</ele>
        <time>2008-10-19T12:11:45Z</time>
      </trkpt>
      <trkpt lat="48.77604000" lon="8.248566000">
        <ele>447.00000</ele>
        <time>2008-10-19T12:11:45Z</time>
      </trkpt>
      <trkpt lat="48.77604000" lon="8.248517000">
        <ele>447.00000</ele>
        <time>2008-10-19T12:11:45Z</time>
      </trkpt>
      <trkpt lat="48.77604000" lon="8.248477000">
        <ele>447.00000</ele>
        <time>2008-10-19T12:11:45Z</time>
      </trkpt>
      <trkpt lat="48.77602000" lon="8.248433000">
        <ele>447.00000</ele>
        <time>2008-10-19T12:11:45Z</time>
      </trkpt>
      <trkpt lat="48.77602000" lon="8.248388000">
        <ele>447.00000</ele>
        <time>2008-10-19T12:11:45Z</time>
      </trkpt>
      <trkpt lat="48.77601000" lon="8.248342000">
        <ele>447.00000</ele>
        <time>2008-10-19T12:11:45Z</time>
      </trkpt>
      <trkpt lat="48.77601000" lon="8.248301000">
        <ele>447.00000</ele>
        <time>2008-10-19T12:11:45Z</time>
      </trkpt>
      <trkpt lat="48.77600000" lon="8.248267000">
        <ele>447.00000</ele>
        <time>2008-10-19T12:11:45Z</time>
      </trkpt>
      <trkpt lat="48.77600000" lon="8.248225000">
        <ele>447.00000</ele>
        <time>2008-10-19T12:11:45Z</time>
      </trkpt>
      <trkpt lat="48.77600000" lon="8.248180000">
        <ele>447.00000</ele>
        <time>2008-10-19T12:11:45Z</time>
      </trkpt>
      <trkpt lat="48.77601000" lon="8.248131000">
        <ele>447.00000</ele>
        <time>2008-10-19T12:11:45Z</time>
      </trkpt>
      <trkpt lat="48.77601000" lon="8.248086000">
        <ele>447.00000</ele>
        <time>2008-10-19T12:11:45Z</time>
      </trkpt>
      <trkpt lat="48.77601000" lon="8.248034000">
        <ele>447.00000</ele>
        <time>2008-10-19T12:11:45Z</time>
      </trkpt>
      <trkpt lat="48.77601000" lon="8.247974000">
        <ele>447.00000</ele>
        <time>2008-10-19T12:11:45Z</time>
      </trkpt>
      <trkpt lat="48.77600000" lon="8.247908000">
        <ele>437.00000</ele>
        <time>2008-10-19T12:11:45Z</time>
      </trkpt>
      <trkpt lat="48.77599000" lon="8.247852000">
        <ele>437.00000</ele>
        <time>2008-10-19T12:11:45Z</time>
      </trkpt>
      <trkpt lat="48.77599000" lon="8.247799000">
        <ele>437.00000</ele>
        <time>2008-10-19T12:11:45Z</time>
      </trkpt>
      <trkpt lat="48.77600000" lon="8.247746000">
        <ele>437.00000</ele>
        <time>2008-10-19T12:11:45Z</time>
      </trkpt>
      <trkpt lat="48.77599000" lon="8.247690000">
        <ele>437.00000</ele>
        <time>2008-10-19T12:11:45Z</time>
      </trkpt>
      <trkpt lat="48.77598000" lon="8.247628000">
        <ele>437.00000</ele>
        <time>2008-10-19T12:11:45Z</time>
      </trkpt>
      <trkpt lat="48.77599000" lon="8.247568000">
        <ele>437.00000</ele>
        <time>2008-10-19T12:11:45Z</time>
      </trkpt>
      <trkpt lat="48.77600000" lon="8.247523000">
        <ele>437.00000</ele>
        <time>2008-10-19T12:11:45Z</time>
      </trkpt>
      <trkpt lat="48.77601000" lon="8.247490000">
        <ele>437.00000</ele>
        <time>2008-10-19T12:11:45Z</time>
      </trkpt>
      <trkpt lat="48.77603000" lon="8.247460000">
        <ele>437.00000</ele>
        <time>2008-10-19T12:11:45Z</time>
      </trkpt>
      <trkpt lat="48.77605000" lon="8.247428000">
        <ele>437.00000</ele>
        <time>2008-10-19T12:11:45Z</time>
      </trkpt>
      <trkpt lat="48.77607000" lon="8.247387000">
        <ele>437.00000</ele>
        <time>2008-10-19T12:11:45Z</time>
      </trkpt>
      <trkpt lat="48.77608000" lon="8.247349000">
        <ele>437.00000</ele>
        <time>2008-10-19T12:11:45Z</time>
      </trkpt>
      <trkpt lat="48.77610000" lon="8.247313000">
        <ele>437.00000</ele>
        <time>2008-10-19T12:11:45Z</time>
      </trkpt>
      <trkpt lat="48.77610000" lon="8.247268000">
        <ele>437.00000</ele>
        <time>2008-10-19T12:11:45Z</time>
      </trkpt>
      <trkpt lat="48.77611000" lon="8.247218000">
        <ele>437.00000</ele>
        <time>2008-10-19T12:11:45Z</time>
      </trkpt>
      <trkpt lat="48.77612000" lon="8.247169000">
        <ele>437.00000</ele>
        <time>2008-10-19T12:11:45Z</time>
      </trkpt>
      <trkpt lat="48.77613000" lon="8.247126000">
        <ele>437.00000</ele>
        <time>2008-10-19T12:11:45Z</time>
      </trkpt>
      <trkpt lat="48.77613000" lon="8.247079000">
        <ele>428.00000</ele>
        <time>2008-10-19T12:11:45Z</time>
      </trkpt>
      <trkpt lat="48.77613000" lon="8.247030000">
        <ele>428.00000</ele>
        <time>2008-10-19T12:11:45Z</time>
      </trkpt>
      <trkpt lat="48.77614000" lon="8.246986000">
        <ele>428.00000</ele>
        <time>2008-10-19T12:11:45Z</time>
      </trkpt>
      <trkpt lat="48.77615000" lon="8.246938000">
        <ele>428.00000</ele>
        <time>2008-10-19T12:11:45Z</time>
      </trkpt>
      <trkpt lat="48.77616000" lon="8.246887000">
        <ele>428.00000</ele>
        <time>2008-10-19T12:11:45Z</time>
      </trkpt>
      <trkpt lat="48.77617000" lon="8.246840000">
        <ele>428.00000</ele>
        <time>2008-10-19T12:11:45Z</time>
      </trkpt>
      <trkpt lat="48.77617000" lon="8.246792000">
        <ele>428.00000</ele>
        <time>2008-10-19T12:11:45Z</time>
      </trkpt>
      <trkpt lat="48.77617000" lon="8.246752000">
        <ele>428.00000</ele>
        <time>2008-10-19T12:11:45Z</time>
      </trkpt>
      <trkpt lat="48.77618000" lon="8.246714000">
        <ele>428.00000</ele>
        <time>2008-10-19T12:11:45Z</time>
      </trkpt>
      <trkpt lat="48.77618000" lon="8.246674000">
        <ele>428.00000</ele>
        <time>2008-10-19T12:11:45Z</time>
      </trkpt>
      <trkpt lat="48.77618000" lon="8.246630000">
        <ele>428.00000</ele>
        <time>2008-10-19T12:11:45Z</time>
      </trkpt>
      <trkpt lat="48.77619000" lon="8.246583000">
        <ele>428.00000</ele>
        <time>2008-10-19T12:11:45Z</time>
      </trkpt>
      <trkpt lat="48.77620000" lon="8.246542000">
        <ele>428.00000</ele>
        <time>2008-10-19T12:11:45Z</time>
      </trkpt>
      <trkpt lat="48.77620000" lon="8.246492000">
        <ele>428.00000</ele>
        <time>2008-10-19T12:11:45Z</time>
      </trkpt>
      <trkpt lat="48.77620000" lon="8.246450000">
        <ele>428.00000</ele>
        <time>2008-10-19T12:11:45Z</time>
      </trkpt>
      <trkpt lat="48.77620000" lon="8.246408000">
        <ele>428.00000</ele>
        <time>2008-10-19T12:11:45Z</time>
      </trkpt>
      <trkpt lat="48.77621000" lon="8.246359000">
        <ele>428.00000</ele>
        <time>2008-10-19T12:11:45Z</time>
      </trkpt>
      <trkpt lat="48.77622000" lon="8.246306000">
        <ele>428.00000</ele>
        <time>2008-10-19T12:11:45Z</time>
      </trkpt>
      <trkpt lat="48.77622000" lon="8.246248000">
        <ele>422.00000</ele>
        <time>2008-10-19T12:11:45Z</time>
      </trkpt>
      <trkpt lat="48.77623000" lon="8.246204000">
        <ele>422.00000</ele>
        <time>2008-10-19T12:11:45Z</time>
      </trkpt>
      <trkpt lat="48.77623000" lon="8.246161000">
        <ele>422.00000</ele>
        <time>2008-10-19T12:11:45Z</time>
      </trkpt>
      <trkpt lat="48.77624000" lon="8.246117000">
        <ele>422.00000</ele>
        <time>2008-10-19T12:11:45Z</time>
      </trkpt>
      <trkpt lat="48.77625000" lon="8.246078000">
        <ele>422.00000</ele>
        <time>2008-10-19T12:11:45Z</time>
      </trkpt>
      <trkpt lat="48.77623000" lon="8.246037000">
        <ele>422.00000</ele>
        <time>2008-10-19T12:11:45Z</time>
      </trkpt>
      <trkpt lat="48.77623000" lon="8.245994000">
        <ele>422.00000</ele>
        <time>2008-10-19T12:11:45Z</time>
      </trkpt>
      <trkpt lat="48.77623000" lon="8.245937000">
        <ele>422.00000</ele>
        <time>2008-10-19T12:11:45Z</time>
      </trkpt>
      <trkpt lat="48.77623000" lon="8.245882000">
        <ele>422.00000</ele>
        <time>2008-10-19T12:11:45Z</time>
      </trkpt>
      <trkpt lat="48.77623000" lon="8.245833000">
        <ele>422.00000</ele>
        <time>2008-10-19T12:11:45Z</time>
      </trkpt>
      <trkpt lat="48.77624000" lon="8.245785000">
        <ele>422.00000</ele>
        <time>2008-10-19T12:11:45Z</time>
      </trkpt>
      <trkpt lat="48.77624000" lon="8.245732000">
        <ele>422.00000</ele>
        <time>2008-10-19T12:11:45Z</time>
      </trkpt>
      <trkpt lat="48.77625000" lon="8.245685000">
        <ele>422.00000</ele>
        <time>2008-10-19T12:11:45Z</time>
      </trkpt>
      <trkpt lat="48.77625000" lon="8.245637000">
        <ele>422.00000</ele>
        <time>2008-10-19T12:11:45Z</time>
      </trkpt>
      <trkpt lat="48.77626000" lon="8.245596000">
        <ele>459.00000</ele>
        <time>2008-10-19T12:11:45Z</time>
      </trkpt>
      <trkpt lat="48.77626000" lon="8.245553000">
        <ele>459.00000</ele>
        <time>2008-10-19T12:11:45Z</time>
      </trkpt>
      <trkpt lat="48.77626000" lon="8.245509000">
        <ele>459.00000</ele>
        <time>2008-10-19T12:11:45Z</time>
      </trkpt>
      <trkpt lat="48.77625000" lon="8.245457000">
        <ele>422.00000</ele>
        <time>2008-10-19T12:11:45Z</time>
      </trkpt>
      <trkpt lat="48.77625000" lon="8.245399000">
        <ele>413.00000</ele>
        <time>2008-10-19T12:11:45Z</time>
      </trkpt>
      <trkpt lat="48.77626000" lon="8.245342000">
        <ele>443.00000</ele>
        <time>2008-10-19T12:11:45Z</time>
      </trkpt>
      <trkpt lat="48.77626000" lon="8.245296000">
        <ele>443.00000</ele>
        <time>2008-10-19T12:11:45Z</time>
      </trkpt>
      <trkpt lat="48.77626000" lon="8.245247000">
        <ele>443.00000</ele>
        <time>2008-10-19T12:11:45Z</time>
      </trkpt>
      <trkpt lat="48.77626000" lon="8.245191000">
        <ele>443.00000</ele>
        <time>2008-10-19T12:11:45Z</time>
      </trkpt>
      <trkpt lat="48.77626000" lon="8.245133000">
        <ele>443.00000</ele>
        <time>2008-10-19T12:11:45Z</time>
      </trkpt>
      <trkpt lat="48.77626000" lon="8.245075000">
        <ele>443.00000</ele>
        <time>2008-10-19T12:11:45Z</time>
      </trkpt>
      <trkpt lat="48.77625000" lon="8.245018000">
        <ele>413.00000</ele>
        <time>2008-10-19T12:11:45Z</time>
      </trkpt>
      <trkpt lat="48.77624000" lon="8.244961000">
        <ele>413.00000</ele>
        <time>2008-10-19T12:11:45Z</time>
      </trkpt>
      <trkpt lat="48.77623000" lon="8.244902000">
        <ele>413.00000</ele>
        <time>2008-10-19T12:11:45Z</time>
      </trkpt>
      <trkpt lat="48.77622000" lon="8.244847000">
        <ele>413.00000</ele>
        <time>2008-10-19T12:11:45Z</time>
      </trkpt>
      <trkpt lat="48.77621000" lon="8.244795000">
        <ele>413.00000</ele>
        <time>2008-10-19T12:11:45Z</time>
      </trkpt>
      <trkpt lat="48.77620000" lon="8.244743000">
        <ele>413.00000</ele>
        <time>2008-10-19T12:11:45Z</time>
      </trkpt>
      <trkpt lat="48.77619000" lon="8.244699000">
        <ele>413.00000</ele>
        <time>2008-10-19T12:11:45Z</time>
      </trkpt>
      <trkpt lat="48.77618000" lon="8.244657000">
        <ele>413.00000</ele>
        <time>2008-10-19T12:11:45Z</time>
      </trkpt>
      <trkpt lat="48.77617000" lon="8.244619000">
        <ele>413.00000</ele>
        <time>2008-10-19T12:11:45Z</time>
      </trkpt>
      <trkpt lat="48.77616000" lon="8.244578000">
        <ele>407.00000</ele>
        <time>2008-10-19T12:11:45Z</time>
      </trkpt>
      <trkpt lat="48.77616000" lon="8.244536000">
        <ele>407.00000</ele>
        <time>2008-10-19T12:11:45Z</time>
      </trkpt>
      <trkpt lat="48.77616000" lon="8.244498000">
        <ele>407.00000</ele>
        <time>2008-10-19T12:11:45Z</time>
      </trkpt>
      <trkpt lat="48.77616000" lon="8.244457000">
        <ele>407.00000</ele>
        <time>2008-10-19T12:11:45Z</time>
      </trkpt>
      <trkpt lat="48.77616000" lon="8.244419000">
        <ele>407.00000</ele>
        <time>2008-10-19T12:11:45Z</time>
      </trkpt>
      <trkpt lat="48.77616000" lon="8.244386000">
        <ele>407.00000</ele>
        <time>2008-10-19T12:11:45Z</time>
      </trkpt>
      <trkpt lat="48.77616000" lon="8.244346000">
        <ele>407.00000</ele>
        <time>2008-10-19T12:11:45Z</time>
      </trkpt>
      <trkpt lat="48.77617000" lon="8.244306000">
        <ele>407.00000</ele>
        <time>2008-10-19T12:11:45Z</time>
      </trkpt>
      <trkpt lat="48.77617000" lon="8.244269000">
        <ele>407.00000</ele>
        <time>2008-10-19T12:11:45Z</time>
      </trkpt>
      <trkpt lat="48.77617000" lon="8.244231000">
        <ele>407.00000</ele>
        <time>2008-10-19T12:11:45Z</time>
      </trkpt>
      <trkpt lat="48.77618000" lon="8.244189000">
        <ele>407.00000</ele>
        <time>2008-10-19T12:11:45Z</time>
      </trkpt>
      <trkpt lat="48.77618000" lon="8.244147000">
        <ele>407.00000</ele>
        <time>2008-10-19T12:11:45Z</time>
      </trkpt>
      <trkpt lat="48.77620000" lon="8.244110000">
        <ele>407.00000</ele>
        <time>2008-10-19T12:11:45Z</time>
      </trkpt>
      <trkpt lat="48.77621000" lon="8.244078000">
        <ele>407.00000</ele>
        <time>2008-10-19T12:11:45Z</time>
      </trkpt>
      <trkpt lat="48.77623000" lon="8.244050000">
        <ele>407.00000</ele>
        <time>2008-10-19T12:11:45Z</time>
      </trkpt>
      <trkpt lat="48.77626000" lon="8.244018000">
        <ele>427.00000</ele>
        <time>2008-10-19T12:11:45Z</time>
      </trkpt>
      <trkpt lat="48.77627000" lon="8.243981000">
        <ele>427.00000</ele>
        <time>2008-10-19T12:11:45Z</time>
      </trkpt>
      <trkpt lat="48.77629000" lon="8.243953000">
        <ele>427.00000</ele>
        <time>2008-10-19T12:11:45Z</time>
      </trkpt>
      <trkpt lat="48.77631000" lon="8.243928000">
        <ele>427.00000</ele>
        <time>2008-10-19T12:11:45Z</time>
      </trkpt>
      <trkpt lat="48.77633000" lon="8.243905000">
        <ele>427.00000</ele>
        <time>2008-10-19T12:11:45Z</time>
      </trkpt>
      <trkpt lat="48.77635000" lon="8.243876000">
        <ele>427.00000</ele>
        <time>2008-10-19T12:11:45Z</time>
      </trkpt>
      <trkpt lat="48.77637000" lon="8.243851000">
        <ele>427.00000</ele>
        <time>2008-10-19T12:11:45Z</time>
      </trkpt>
      <trkpt lat="48.77639000" lon="8.243822000">
        <ele>427.00000</ele>
        <time>2008-10-19T12:11:45Z</time>
      </trkpt>
      <trkpt lat="48.77640000" lon="8.243794000">
        <ele>427.00000</ele>
        <time>2008-10-19T12:11:45Z</time>
      </trkpt>
      <trkpt lat="48.77642000" lon="8.243762000">
        <ele>427.00000</ele>
        <time>2008-10-19T12:11:45Z</time>
      </trkpt>
      <trkpt lat="48.77643000" lon="8.243729000">
        <ele>411.00000</ele>
        <time>2008-10-19T12:11:45Z</time>
      </trkpt>
      <trkpt lat="48.77643000" lon="8.243698000">
        <ele>411.00000</ele>
        <time>2008-10-19T12:11:45Z</time>
      </trkpt>
      <trkpt lat="48.77643000" lon="8.243669000">
        <ele>411.00000</ele>
        <time>2008-10-19T12:11:45Z</time>
      </trkpt>
      <trkpt lat="48.77642000" lon="8.243641000">
        <ele>411.00000</ele>
        <time>2008-10-19T12:11:45Z</time>
      </trkpt>
      <trkpt lat="48.77641000" lon="8.243605000">
        <ele>411.00000</ele>
        <time>2008-10-19T12:11:45Z</time>
      </trkpt>
      <trkpt lat="48.77640000" lon="8.243559000">
        <ele>411.00000</ele>
        <time>2008-10-19T12:11:45Z</time>
      </trkpt>
      <trkpt lat="48.77639000" lon="8.243506000">
        <ele>411.00000</ele>
        <time>2008-10-19T12:11:45Z</time>
      </trkpt>
      <trkpt lat="48.77638000" lon="8.243443000">
        <ele>411.00000</ele>
        <time>2008-10-19T12:11:45Z</time>
      </trkpt>
      <trkpt lat="48.77638000" lon="8.243377000">
        <ele>411.00000</ele>
        <time>2008-10-19T12:11:45Z</time>
      </trkpt>
      <trkpt lat="48.77638000" lon="8.243312000">
        <ele>411.00000</ele>
        <time>2008-10-19T12:11:45Z</time>
      </trkpt>
      <trkpt lat="48.77639000" lon="8.243252000">
        <ele>411.00000</ele>
        <time>2008-10-19T12:11:45Z</time>
      </trkpt>
      <trkpt lat="48.77641000" lon="8.243202000">
        <ele>411.00000</ele>
        <time>2008-10-19T12:11:45Z</time>
      </trkpt>
      <trkpt lat="48.77642000" lon="8.243161000">
        <ele>411.00000</ele>
        <time>2008-10-19T12:11:45Z</time>
      </trkpt>
      <trkpt lat="48.77645000" lon="8.243130000">
        <ele>411.00000</ele>
        <time>2008-10-19T12:11:45Z</time>
      </trkpt>
      <trkpt lat="48.77648000" lon="8.243107000">
        <ele>411.00000</ele>
        <time>2008-10-19T12:11:45Z</time>
      </trkpt>
      <trkpt lat="48.77649000" lon="8.243090000">
        <ele>411.00000</ele>
        <time>2008-10-19T12:11:45Z</time>
      </trkpt>
      <trkpt lat="48.77650000" lon="8.243093000">
        <ele>411.00000</ele>
        <time>2008-10-19T12:11:45Z</time>
      </trkpt>
      <trkpt lat="48.77653000" lon="8.243105000">
        <ele>411.00000</ele>
        <time>2008-10-19T12:11:45Z</time>
      </trkpt>
      <trkpt lat="48.77655000" lon="8.243125000">
        <ele>411.00000</ele>
        <time>2008-10-19T12:11:45Z</time>
      </trkpt>
      <trkpt lat="48.77656000" lon="8.243143000">
        <ele>411.00000</ele>
        <time>2008-10-19T12:11:45Z</time>
      </trkpt>
      <trkpt lat="48.77657000" lon="8.243163000">
        <ele>411.00000</ele>
        <time>2008-10-19T12:11:45Z</time>
      </trkpt>
      <trkpt lat="48.77658000" lon="8.243187000">
        <ele>411.00000</ele>
        <time>2008-10-19T12:11:45Z</time>
      </trkpt>
      <trkpt lat="48.77660000" lon="8.243216000">
        <ele>411.00000</ele>
        <time>2008-10-19T12:11:45Z</time>
      </trkpt>
      <trkpt lat="48.77662000" lon="8.243236000">
        <ele>411.00000</ele>
        <time>2008-10-19T12:11:45Z</time>
      </trkpt>
      <trkpt lat="48.77664000" lon="8.243258000">
        <ele>411.00000</ele>
        <time>2008-10-19T12:11:45Z</time>
      </trkpt>
      <trkpt lat="48.77666000" lon="8.243282000">
        <ele>411.00000</ele>
        <time>2008-10-19T12:11:45Z</time>
      </trkpt>
      <trkpt lat="48.77668000" lon="8.243312000">
        <ele>411.00000</ele>
        <time>2008-10-19T12:11:45Z</time>
      </trkpt>
      <trkpt lat="48.77669000" lon="8.243338000">
        <ele>411.00000</ele>
        <time>2008-10-19T12:11:45Z</time>
      </trkpt>
      <trkpt lat="48.77671000" lon="8.243360000">
        <ele>411.00000</ele>
        <time>2008-10-19T12:11:45Z</time>
      </trkpt>
      <trkpt lat="48.77672000" lon="8.243386000">
        <ele>411.00000</ele>
        <time>2008-10-19T12:11:45Z</time>
      </trkpt>
      <trkpt lat="48.77673000" lon="8.243409000">
        <ele>411.00000</ele>
        <time>2008-10-19T12:11:45Z</time>
      </trkpt>
      <trkpt lat="48.77675000" lon="8.243433000">
        <ele>411.00000</ele>
        <time>2008-10-19T12:11:45Z</time>
      </trkpt>
      <trkpt lat="48.77677000" lon="8.243455000">
        <ele>411.00000</ele>
        <time>2008-10-19T12:11:45Z</time>
      </trkpt>
      <trkpt lat="48.77679000" lon="8.243475000">
        <ele>411.00000</ele>
        <time>2008-10-19T12:11:45Z</time>
      </trkpt>
      <trkpt lat="48.77682000" lon="8.243493000">
        <ele>411.00000</ele>
        <time>2008-10-19T12:11:45Z</time>
      </trkpt>
      <trkpt lat="48.77685000" lon="8.243503000">
        <ele>411.00000</ele>
        <time>2008-10-19T12:11:45Z</time>
      </trkpt>
      <trkpt lat="48.77687000" lon="8.243518000">
        <ele>411.00000</ele>
        <time>2008-10-19T12:11:45Z</time>
      </trkpt>
      <trkpt lat="48.77690000" lon="8.243537000">
        <ele>411.00000</ele>
        <time>2008-10-19T12:11:45Z</time>
      </trkpt>
      <trkpt lat="48.77692000" lon="8.243559000">
        <ele>411.00000</ele>
        <time>2008-10-19T12:11:45Z</time>
      </trkpt>
      <trkpt lat="48.77694000" lon="8.243585000">
        <ele>411.00000</ele>
        <time>2008-10-19T12:11:45Z</time>
      </trkpt>
      <trkpt lat="48.77695000" lon="8.243622000">
        <ele>411.00000</ele>
        <time>2008-10-19T12:11:45Z</time>
      </trkpt>
      <trkpt lat="48.77695000" lon="8.243658000">
        <ele>411.00000</ele>
        <time>2008-10-19T12:11:45Z</time>
      </trkpt>
      <trkpt lat="48.77697000" lon="8.243694000">
        <ele>411.00000</ele>
        <time>2008-10-19T12:11:45Z</time>
      </trkpt>
      <trkpt lat="48.77699000" lon="8.243731000">
        <ele>411.00000</ele>
        <time>2008-10-19T12:11:45Z</time>
      </trkpt>
      <trkpt lat="48.77701000" lon="8.243767000">
        <ele>427.00000</ele>
        <time>2008-10-19T12:11:45Z</time>
      </trkpt>
      <trkpt lat="48.77702000" lon="8.243802000">
        <ele>427.00000</ele>
        <time>2008-10-19T12:11:45Z</time>
      </trkpt>
      <trkpt lat="48.77704000" lon="8.243834000">
        <ele>427.00000</ele>
        <time>2008-10-19T12:11:45Z</time>
      </trkpt>
      <trkpt lat="48.77706000" lon="8.243868000">
        <ele>427.00000</ele>
        <time>2008-10-19T12:11:45Z</time>
      </trkpt>
      <trkpt lat="48.77707000" lon="8.243896000">
        <ele>427.00000</ele>
        <time>2008-10-19T12:11:45Z</time>
      </trkpt>
      <trkpt lat="48.77709000" lon="8.243905000">
        <ele>410.00000</ele>
        <time>2008-10-19T12:11:45Z</time>
      </trkpt>
      <trkpt lat="48.77711000" lon="8.243906000">
        <ele>410.00000</ele>
        <time>2008-10-19T12:11:45Z</time>
      </trkpt>
      <trkpt lat="48.77713000" lon="8.243889000">
        <ele>410.00000</ele>
        <time>2008-10-19T12:11:45Z</time>
      </trkpt>
      <trkpt lat="48.77714000" lon="8.243863000">
        <ele>410.00000</ele>
        <time>2008-10-19T12:11:45Z</time>
      </trkpt>
      <trkpt lat="48.77713000" lon="8.243833000">
        <ele>410.00000</ele>
        <time>2008-10-19T12:11:45Z</time>
      </trkpt>
      <trkpt lat="48.77712000" lon="8.243809000">
        <ele>410.00000</ele>
        <time>2008-10-19T12:11:45Z</time>
      </trkpt>
      <trkpt lat="48.77710000" lon="8.243782000">
        <ele>410.00000</ele>
        <time>2008-10-19T12:11:45Z</time>
      </trkpt>
      <trkpt lat="48.77708000" lon="8.243752000">
        <ele>427.00000</ele>
        <time>2008-10-19T12:11:45Z</time>
      </trkpt>
      <trkpt lat="48.77706000" lon="8.243721000">
        <ele>411.00000</ele>
        <time>2008-10-19T12:11:45Z</time>
      </trkpt>
      <trkpt lat="48.77704000" lon="8.243687000">
        <ele>411.00000</ele>
        <time>2008-10-19T12:11:45Z</time>
      </trkpt>
      <trkpt lat="48.77703000" lon="8.243655000">
        <ele>411.00000</ele>
        <time>2008-10-19T12:11:45Z</time>
      </trkpt>
      <trkpt lat="48.77701000" lon="8.243629000">
        <ele>411.00000</ele>
        <time>2008-10-19T12:11:45Z</time>
      </trkpt>
      <trkpt lat="48.77699000" lon="8.243592000">
        <ele>411.00000</ele>
        <time>2008-10-19T12:11:45Z</time>
      </trkpt>
      <trkpt lat="48.77698000" lon="8.243554000">
        <ele>411.00000</ele>
        <time>2008-10-19T12:11:45Z</time>
      </trkpt>
      <trkpt lat="48.77696000" lon="8.243520000">
        <ele>411.00000</ele>
        <time>2008-10-19T12:11:45Z</time>
      </trkpt>
      <trkpt lat="48.77695000" lon="8.243481000">
        <ele>411.00000</ele>
        <time>2008-10-19T12:11:45Z</time>
      </trkpt>
      <trkpt lat="48.77694000" lon="8.243440000">
        <ele>411.00000</ele>
        <time>2008-10-19T12:11:45Z</time>
      </trkpt>
      <trkpt lat="48.77692000" lon="8.243400000">
        <ele>411.00000</ele>
        <time>2008-10-19T12:11:45Z</time>
      </trkpt>
      <trkpt lat="48.77690000" lon="8.243362000">
        <ele>411.00000</ele>
        <time>2008-10-19T12:11:45Z</time>
      </trkpt>
      <trkpt lat="48.77688000" lon="8.243323000">
        <ele>411.00000</ele>
        <time>2008-10-19T12:11:45Z</time>
      </trkpt>
      <trkpt lat="48.77686000" lon="8.243280000">
        <ele>411.00000</ele>
        <time>2008-10-19T12:11:45Z</time>
      </trkpt>
      <trkpt lat="48.77684000" lon="8.243245000">
        <ele>411.00000</ele>
        <time>2008-10-19T12:11:45Z</time>
      </trkpt>
      <trkpt lat="48.77682000" lon="8.243210000">
        <ele>411.00000</ele>
        <time>2008-10-19T12:11:45Z</time>
      </trkpt>
      <trkpt lat="48.77681000" lon="8.243170000">
        <ele>411.00000</ele>
        <time>2008-10-19T12:11:45Z</time>
      </trkpt>
      <trkpt lat="48.77679000" lon="8.243131000">
        <ele>411.00000</ele>
        <time>2008-10-19T12:11:45Z</time>
      </trkpt>
      <trkpt lat="48.77678000" lon="8.243094000">
        <ele>411.00000</ele>
        <time>2008-10-19T12:11:45Z</time>
      </trkpt>
      <trkpt lat="48.77676000" lon="8.243058000">
        <ele>411.00000</ele>
        <time>2008-10-19T12:11:45Z</time>
      </trkpt>
      <trkpt lat="48.77675000" lon="8.243022000">
        <ele>411.00000</ele>
        <time>2008-10-19T12:11:45Z</time>
      </trkpt>
      <trkpt lat="48.77674000" lon="8.242983000">
        <ele>411.00000</ele>
        <time>2008-10-19T12:11:45Z</time>
      </trkpt>
      <trkpt lat="48.77673000" lon="8.242945000">
        <ele>411.00000</ele>
        <time>2008-10-19T12:11:45Z</time>
      </trkpt>
      <trkpt lat="48.77671000" lon="8.242911000">
        <ele>391.00000</ele>
        <time>2008-10-19T12:11:45Z</time>
      </trkpt>
      <trkpt lat="48.77670000" lon="8.242881000">
        <ele>391.00000</ele>
        <time>2008-10-19T12:11:45Z</time>
      </trkpt>
      <trkpt lat="48.77668000" lon="8.242853000">
        <ele>391.00000</ele>
        <time>2008-10-19T12:11:45Z</time>
      </trkpt>
      <trkpt lat="48.77665000" lon="8.242824000">
        <ele>391.00000</ele>
        <time>2008-10-19T12:11:45Z</time>
      </trkpt>
      <trkpt lat="48.77663000" lon="8.242797000">
        <ele>391.00000</ele>
        <time>2008-10-19T12:11:45Z</time>
      </trkpt>
      <trkpt lat="48.77660000" lon="8.242774000">
        <ele>391.00000</ele>
        <time>2008-10-19T12:11:45Z</time>
      </trkpt>
      <trkpt lat="48.77658000" lon="8.242751000">
        <ele>391.00000</ele>
        <time>2008-10-19T12:11:45Z</time>
      </trkpt>
      <trkpt lat="48.77655000" lon="8.242735000">
        <ele>391.00000</ele>
        <time>2008-10-19T12:11:45Z</time>
      </trkpt>
      <trkpt lat="48.77652000" lon="8.242720000">
        <ele>391.00000</ele>
        <time>2008-10-19T12:11:45Z</time>
      </trkpt>
      <trkpt lat="48.77649000" lon="8.242711000">
        <ele>391.00000</ele>
        <time>2008-10-19T12:11:45Z</time>
      </trkpt>
      <trkpt lat="48.77646000" lon="8.242714000">
        <ele>391.00000</ele>
        <time>2008-10-19T12:11:45Z</time>
      </trkpt>
      <trkpt lat="48.77643000" lon="8.242723000">
        <ele>391.00000</ele>
        <time>2008-10-19T12:11:45Z</time>
      </trkpt>
      <trkpt lat="48.77639000" lon="8.242739000">
        <ele>391.00000</ele>
        <time>2008-10-19T12:11:45Z</time>
      </trkpt>
      <trkpt lat="48.77637000" lon="8.242759000">
        <ele>391.00000</ele>
        <time>2008-10-19T12:11:45Z</time>
      </trkpt>
      <trkpt lat="48.77634000" lon="8.242785000">
        <ele>391.00000</ele>
        <time>2008-10-19T12:11:45Z</time>
      </trkpt>
      <trkpt lat="48.77631000" lon="8.242805000">
        <ele>391.00000</ele>
        <time>2008-10-19T12:11:45Z</time>
      </trkpt>
      <trkpt lat="48.77628000" lon="8.242827000">
        <ele>391.00000</ele>
        <time>2008-10-19T12:11:45Z</time>
      </trkpt>
      <trkpt lat="48.77626000" lon="8.242851000">
        <ele>391.00000</ele>
        <time>2008-10-19T12:11:45Z</time>
      </trkpt>
      <trkpt lat="48.77624000" lon="8.242883000">
        <ele>374.00000</ele>
        <time>2008-10-19T12:11:45Z</time>
      </trkpt>
      <trkpt lat="48.77621000" lon="8.242926000">
        <ele>395.00000</ele>
        <time>2008-10-19T12:11:45Z</time>
      </trkpt>
      <trkpt lat="48.77619000" lon="8.242967000">
        <ele>395.00000</ele>
        <time>2008-10-19T12:11:45Z</time>
      </trkpt>
      <trkpt lat="48.77617000" lon="8.243001000">
        <ele>395.00000</ele>
        <time>2008-10-19T12:11:45Z</time>
      </trkpt>
      <trkpt lat="48.77615000" lon="8.243025000">
        <ele>395.00000</ele>
        <time>2008-10-19T12:11:45Z</time>
      </trkpt>
      <trkpt lat="48.77613000" lon="8.243052000">
        <ele>395.00000</ele>
        <time>2008-10-19T12:11:45Z</time>
      </trkpt>
      <trkpt lat="48.77612000" lon="8.243093000">
        <ele>395.00000</ele>
        <time>2008-10-19T12:11:45Z</time>
      </trkpt>
      <trkpt lat="48.77610000" lon="8.243132000">
        <ele>395.00000</ele>
        <time>2008-10-19T12:11:45Z</time>
      </trkpt>
      <trkpt lat="48.77608000" lon="8.243171000">
        <ele>395.00000</ele>
        <time>2008-10-19T12:11:45Z</time>
      </trkpt>
      <trkpt lat="48.77607000" lon="8.243208000">
        <ele>395.00000</ele>
        <time>2008-10-19T12:11:45Z</time>
      </trkpt>
      <trkpt lat="48.77605000" lon="8.243244000">
        <ele>395.00000</ele>
        <time>2008-10-19T12:11:45Z</time>
      </trkpt>
      <trkpt lat="48.77604000" lon="8.243279000">
        <ele>395.00000</ele>
        <time>2008-10-19T12:11:45Z</time>
      </trkpt>
      <trkpt lat="48.77602000" lon="8.243323000">
        <ele>395.00000</ele>
        <time>2008-10-19T12:11:45Z</time>
      </trkpt>
      <trkpt lat="48.77599000" lon="8.243366000">
        <ele>395.00000</ele>
        <time>2008-10-19T12:11:45Z</time>
      </trkpt>
      <trkpt lat="48.77597000" lon="8.243410000">
        <ele>395.00000</ele>
        <time>2008-10-19T12:11:45Z</time>
      </trkpt>
      <trkpt lat="48.77596000" lon="8.243450000">
        <ele>395.00000</ele>
        <time>2008-10-19T12:11:45Z</time>
      </trkpt>
      <trkpt lat="48.77593000" lon="8.243490000">
        <ele>395.00000</ele>
        <time>2008-10-19T12:11:45Z</time>
      </trkpt>
      <trkpt lat="48.77590000" lon="8.243534000">
        <ele>395.00000</ele>
        <time>2008-10-19T12:11:45Z</time>
      </trkpt>
      <trkpt lat="48.77588000" lon="8.243571000">
        <ele>395.00000</ele>
        <time>2008-10-19T12:11:45Z</time>
      </trkpt>
      <trkpt lat="48.77586000" lon="8.243610000">
        <ele>395.00000</ele>
        <time>2008-10-19T12:11:45Z</time>
      </trkpt>
      <trkpt lat="48.77585000" lon="8.243645000">
        <ele>395.00000</ele>
        <time>2008-10-19T12:11:45Z</time>
      </trkpt>
      <trkpt lat="48.77583000" lon="8.243689000">
        <ele>395.00000</ele>
        <time>2008-10-19T12:11:45Z</time>
      </trkpt>
      <trkpt lat="48.77581000" lon="8.243720000">
        <ele>395.00000</ele>
        <time>2008-10-19T12:11:45Z</time>
      </trkpt>
      <trkpt lat="48.77580000" lon="8.243753000">
        <ele>407.00000</ele>
        <time>2008-10-19T12:11:45Z</time>
      </trkpt>
      <trkpt lat="48.77579000" lon="8.243799000">
        <ele>407.00000</ele>
        <time>2008-10-19T12:11:45Z</time>
      </trkpt>
      <trkpt lat="48.77579000" lon="8.243848000">
        <ele>407.00000</ele>
        <time>2008-10-19T12:11:45Z</time>
      </trkpt>
      <trkpt lat="48.77578000" lon="8.243894000">
        <ele>407.00000</ele>
        <time>2008-10-19T12:11:45Z</time>
      </trkpt>
      <trkpt lat="48.77577000" lon="8.243939000">
        <ele>407.00000</ele>
        <time>2008-10-19T12:11:45Z</time>
      </trkpt>
      <trkpt lat="48.77577000" lon="8.243982000">
        <ele>407.00000</ele>
        <time>2008-10-19T12:11:45Z</time>
      </trkpt>
      <trkpt lat="48.77577000" lon="8.244026000">
        <ele>407.00000</ele>
        <time>2008-10-19T12:11:45Z</time>
      </trkpt>
      <trkpt lat="48.77576000" lon="8.244073000">
        <ele>407.00000</ele>
        <time>2008-10-19T12:11:45Z</time>
      </trkpt>
      <trkpt lat="48.77576000" lon="8.244115000">
        <ele>407.00000</ele>
        <time>2008-10-19T12:11:45Z</time>
      </trkpt>
      <trkpt lat="48.77576000" lon="8.244166000">
        <ele>407.00000</ele>
        <time>2008-10-19T12:11:45Z</time>
      </trkpt>
      <trkpt lat="48.77576000" lon="8.244210000">
        <ele>407.00000</ele>
        <time>2008-10-19T12:11:45Z</time>
      </trkpt>
      <trkpt lat="48.77575000" lon="8.244252000">
        <ele>407.00000</ele>
        <time>2008-10-19T12:11:45Z</time>
      </trkpt>
      <trkpt lat="48.77573000" lon="8.244296000">
        <ele>407.00000</ele>
        <time>2008-10-19T12:11:45Z</time>
      </trkpt>
      <trkpt lat="48.77573000" lon="8.244342000">
        <ele>407.00000</ele>
        <time>2008-10-19T12:11:45Z</time>
      </trkpt>
      <trkpt lat="48.77573000" lon="8.244389000">
        <ele>407.00000</ele>
        <time>2008-10-19T12:11:45Z</time>
      </trkpt>
      <trkpt lat="48.77574000" lon="8.244438000">
        <ele>407.00000</ele>
        <time>2008-10-19T12:11:45Z</time>
      </trkpt>
      <trkpt lat="48.77574000" lon="8.244484000">
        <ele>407.00000</ele>
        <time>2008-10-19T12:11:45Z</time>
      </trkpt>
      <trkpt lat="48.77573000" lon="8.244528000">
        <ele>407.00000</ele>
        <time>2008-10-19T12:11:45Z</time>
      </trkpt>
      <trkpt lat="48.77573000" lon="8.244565000">
        <ele>407.00000</ele>
        <time>2008-10-19T12:11:45Z</time>
      </trkpt>
      <trkpt lat="48.77572000" lon="8.244596000">
        <ele>413.00000</ele>
        <time>2008-10-19T12:11:45Z</time>
      </trkpt>
      <trkpt lat="48.77571000" lon="8.244639000">
        <ele>413.00000</ele>
        <time>2008-10-19T12:11:45Z</time>
      </trkpt>
      <trkpt lat="48.77567000" lon="8.244678000">
        <ele>413.00000</ele>
        <time>2008-10-19T12:11:45Z</time>
      </trkpt>
      <trkpt lat="48.77563000" lon="8.244716000">
        <ele>413.00000</ele>
        <time>2008-10-19T12:11:45Z</time>
      </trkpt>
      <trkpt lat="48.77561000" lon="8.244756000">
        <ele>413.00000</ele>
        <time>2008-10-19T12:11:45Z</time>
      </trkpt>
      <trkpt lat="48.77561000" lon="8.244799000">
        <ele>413.00000</ele>
        <time>2008-10-19T12:11:45Z</time>
      </trkpt>
      <trkpt lat="48.77561000" lon="8.244836000">
        <ele>413.00000</ele>
        <time>2008-10-19T12:11:45Z</time>
      </trkpt>
      <trkpt lat="48.77558000" lon="8.244868000">
        <ele>413.00000</ele>
        <time>2008-10-19T12:11:45Z</time>
      </trkpt>
      <trkpt lat="48.77557000" lon="8.244907000">
        <ele>413.00000</ele>
        <time>2008-10-19T12:11:45Z</time>
      </trkpt>
      <trkpt lat="48.77554000" lon="8.244960000">
        <ele>413.00000</ele>
        <time>2008-10-19T12:11:45Z</time>
      </trkpt>
      <trkpt lat="48.77551000" lon="8.245006000">
        <ele>413.00000</ele>
        <time>2008-10-19T12:11:45Z</time>
      </trkpt>
      <trkpt lat="48.77547000" lon="8.245061000">
        <ele>413.00000</ele>
        <time>2008-10-19T12:11:45Z</time>
      </trkpt>
      <trkpt lat="48.77546000" lon="8.245117000">
        <ele>413.00000</ele>
        <time>2008-10-19T12:11:45Z</time>
      </trkpt>
      <trkpt lat="48.77542000" lon="8.245173000">
        <ele>413.00000</ele>
        <time>2008-10-19T12:11:45Z</time>
      </trkpt>
      <trkpt lat="48.77541000" lon="8.245218000">
        <ele>382.00000</ele>
        <time>2008-10-19T12:11:45Z</time>
      </trkpt>
      <trkpt lat="48.77538000" lon="8.245270000">
        <ele>382.00000</ele>
        <time>2008-10-19T12:11:45Z</time>
      </trkpt>
      <trkpt lat="48.77537000" lon="8.245314000">
        <ele>382.00000</ele>
        <time>2008-10-19T12:11:45Z</time>
      </trkpt>
      <trkpt lat="48.77534000" lon="8.245352000">
        <ele>382.00000</ele>
        <time>2008-10-19T12:11:45Z</time>
      </trkpt>
      <trkpt lat="48.77531000" lon="8.245385000">
        <ele>382.00000</ele>
        <time>2008-10-19T12:11:45Z</time>
      </trkpt>
      <trkpt lat="48.77529000" lon="8.245420000">
        <ele>392.00000</ele>
        <time>2008-10-19T12:11:45Z</time>
      </trkpt>
      <trkpt lat="48.77528000" lon="8.245461000">
        <ele>392.00000</ele>
        <time>2008-10-19T12:11:45Z</time>
      </trkpt>
      <trkpt lat="48.77525000" lon="8.245497000">
        <ele>392.00000</ele>
        <time>2008-10-19T12:11:45Z</time>
      </trkpt>
      <trkpt lat="48.77523000" lon="8.245533000">
        <ele>392.00000</ele>
        <time>2008-10-19T12:11:45Z</time>
      </trkpt>
      <trkpt lat="48.77522000" lon="8.245569000">
        <ele>392.00000</ele>
        <time>2008-10-19T12:11:45Z</time>
      </trkpt>
      <trkpt lat="48.77520000" lon="8.245600000">
        <ele>392.00000</ele>
        <time>2008-10-19T12:11:45Z</time>
      </trkpt>
      <trkpt lat="48.77519000" lon="8.245629000">
        <ele>392.00000</ele>
        <time>2008-10-19T12:11:45Z</time>
      </trkpt>
      <trkpt lat="48.77517000" lon="8.245658000">
        <ele>392.00000</ele>
        <time>2008-10-19T12:11:45Z</time>
      </trkpt>
      <trkpt lat="48.77514000" lon="8.245684000">
        <ele>392.00000</ele>
        <time>2008-10-19T12:11:45Z</time>
      </trkpt>
      <trkpt lat="48.77511000" lon="8.245713000">
        <ele>392.00000</ele>
        <time>2008-10-19T12:11:45Z</time>
      </trkpt>
      <trkpt lat="48.77509000" lon="8.245744000">
        <ele>392.00000</ele>
        <time>2008-10-19T12:11:45Z</time>
      </trkpt>
      <trkpt lat="48.77506000" lon="8.245777000">
        <ele>392.00000</ele>
        <time>2008-10-19T12:11:45Z</time>
      </trkpt>
      <trkpt lat="48.77504000" lon="8.245809000">
        <ele>392.00000</ele>
        <time>2008-10-19T12:11:45Z</time>
      </trkpt>
      <trkpt lat="48.77502000" lon="8.245848000">
        <ele>392.00000</ele>
        <time>2008-10-19T12:11:45Z</time>
      </trkpt>
      <trkpt lat="48.77500000" lon="8.245882000">
        <ele>392.00000</ele>
        <time>2008-10-19T12:11:45Z</time>
      </trkpt>
      <trkpt lat="48.77498000" lon="8.245918000">
        <ele>392.00000</ele>
        <time>2008-10-19T12:11:45Z</time>
      </trkpt>
      <trkpt lat="48.77496000" lon="8.245955000">
        <ele>392.00000</ele>
        <time>2008-10-19T12:11:45Z</time>
      </trkpt>
      <trkpt lat="48.77494000" lon="8.245989000">
        <ele>392.00000</ele>
        <time>2008-10-19T12:11:45Z</time>
      </trkpt>
      <trkpt lat="48.77493000" lon="8.246023000">
        <ele>392.00000</ele>
        <time>2008-10-19T12:11:45Z</time>
      </trkpt>
      <trkpt lat="48.77491000" lon="8.246054000">
        <ele>392.00000</ele>
        <time>2008-10-19T12:11:45Z</time>
      </trkpt>
      <trkpt lat="48.77489000" lon="8.246084000">
        <ele>392.00000</ele>
        <time>2008-10-19T12:11:45Z</time>
      </trkpt>
      <trkpt lat="48.77488000" lon="8.246116000">
        <ele>392.00000</ele>
        <time>2008-10-19T12:11:45Z</time>
      </trkpt>
      <trkpt lat="48.77486000" lon="8.246147000">
        <ele>392.00000</ele>
        <time>2008-10-19T12:11:45Z</time>
      </trkpt>
      <trkpt lat="48.77484000" lon="8.246159000">
        <ele>392.00000</ele>
        <time>2008-10-19T12:11:45Z</time>
      </trkpt>
      <trkpt lat="48.77482000" lon="8.246172000">
        <ele>392.00000</ele>
        <time>2008-10-19T12:11:45Z</time>
      </trkpt>
      <trkpt lat="48.77480000" lon="8.246191000">
        <ele>392.00000</ele>
        <time>2008-10-19T12:11:45Z</time>
      </trkpt>
      <trkpt lat="48.77477000" lon="8.246211000">
        <ele>392.00000</ele>
        <time>2008-10-19T12:11:45Z</time>
      </trkpt>
      <trkpt lat="48.77475000" lon="8.246230000">
        <ele>392.00000</ele>
        <time>2008-10-19T12:11:45Z</time>
      </trkpt>
      <trkpt lat="48.77473000" lon="8.246250000">
        <ele>401.00000</ele>
        <time>2008-10-19T12:11:45Z</time>
      </trkpt>
      <trkpt lat="48.77471000" lon="8.246267000">
        <ele>401.00000</ele>
        <time>2008-10-19T12:11:45Z</time>
      </trkpt>
      <trkpt lat="48.77469000" lon="8.246292000">
        <ele>401.00000</ele>
        <time>2008-10-19T12:11:45Z</time>
      </trkpt>
      <trkpt lat="48.77468000" lon="8.246321000">
        <ele>401.00000</ele>
        <time>2008-10-19T12:11:45Z</time>
      </trkpt>
      <trkpt lat="48.77465000" lon="8.246352000">
        <ele>401.00000</ele>
        <time>2008-10-19T12:11:45Z</time>
      </trkpt>
      <trkpt lat="48.77463000" lon="8.246374000">
        <ele>401.00000</ele>
        <time>2008-10-19T12:11:45Z</time>
      </trkpt>
      <trkpt lat="48.77460000" lon="8.246408000">
        <ele>401.00000</ele>
        <time>2008-10-19T12:11:45Z</time>
      </trkpt>
      <trkpt lat="48.77458000" lon="8.246450000">
        <ele>379.00000</ele>
        <time>2008-10-19T12:11:45Z</time>
      </trkpt>
      <trkpt lat="48.77456000" lon="8.246496000">
        <ele>379.00000</ele>
        <time>2008-10-19T12:11:45Z</time>
      </trkpt>
      <trkpt lat="48.77454000" lon="8.246535000">
        <ele>379.00000</ele>
        <time>2008-10-19T12:11:45Z</time>
      </trkpt>
      <trkpt lat="48.77451000" lon="8.246571000">
        <ele>379.00000</ele>
        <time>2008-10-19T12:11:45Z</time>
      </trkpt>
      <trkpt lat="48.77448000" lon="8.246603000">
        <ele>379.00000</ele>
        <time>2008-10-19T12:11:45Z</time>
      </trkpt>
      <trkpt lat="48.77446000" lon="8.246634000">
        <ele>379.00000</ele>
        <time>2008-10-19T12:11:45Z</time>
      </trkpt>
      <trkpt lat="48.77443000" lon="8.246666000">
        <ele>379.00000</ele>
        <time>2008-10-19T12:11:45Z</time>
      </trkpt>
      <trkpt lat="48.77441000" lon="8.246690000">
        <ele>379.00000</ele>
        <time>2008-10-19T12:11:45Z</time>
      </trkpt>
      <trkpt lat="48.77438000" lon="8.246714000">
        <ele>379.00000</ele>
        <time>2008-10-19T12:11:45Z</time>
      </trkpt>
      <trkpt lat="48.77435000" lon="8.246732000">
        <ele>379.00000</ele>
        <time>2008-10-19T12:11:45Z</time>
      </trkpt>
      <trkpt lat="48.77432000" lon="8.246742000">
        <ele>379.00000</ele>
        <time>2008-10-19T12:11:45Z</time>
      </trkpt>
      <trkpt lat="48.77428000" lon="8.246756000">
        <ele>379.00000</ele>
        <time>2008-10-19T12:11:45Z</time>
      </trkpt>
      <trkpt lat="48.77425000" lon="8.246770000">
        <ele>379.00000</ele>
        <time>2008-10-19T12:11:45Z</time>
      </trkpt>
      <trkpt lat="48.77422000" lon="8.246778000">
        <ele>379.00000</ele>
        <time>2008-10-19T12:11:45Z</time>
      </trkpt>
      <trkpt lat="48.77419000" lon="8.246792000">
        <ele>379.00000</ele>
        <time>2008-10-19T12:11:45Z</time>
      </trkpt>
      <trkpt lat="48.77415000" lon="8.246808000">
        <ele>379.00000</ele>
        <time>2008-10-19T12:11:45Z</time>
      </trkpt>
      <trkpt lat="48.77412000" lon="8.246823000">
        <ele>379.00000</ele>
        <time>2008-10-19T12:11:45Z</time>
      </trkpt>
      <trkpt lat="48.77409000" lon="8.246839000">
        <ele>379.00000</ele>
        <time>2008-10-19T12:11:45Z</time>
      </trkpt>
      <trkpt lat="48.77406000" lon="8.246860000">
        <ele>379.00000</ele>
        <time>2008-10-19T12:11:45Z</time>
      </trkpt>
      <trkpt lat="48.77402000" lon="8.246883000">
        <ele>379.00000</ele>
        <time>2008-10-19T12:11:45Z</time>
      </trkpt>
      <trkpt lat="48.77399000" lon="8.246914000">
        <ele>379.00000</ele>
        <time>2008-10-19T12:11:45Z</time>
      </trkpt>
      <trkpt lat="48.77397000" lon="8.246931000">
        <ele>379.00000</ele>
        <time>2008-10-19T12:11:45Z</time>
      </trkpt>
      <trkpt lat="48.77395000" lon="8.246954000">
        <ele>379.00000</ele>
        <time>2008-10-19T12:11:45Z</time>
      </trkpt>
      <trkpt lat="48.77393000" lon="8.246973000">
        <ele>379.00000</ele>
        <time>2008-10-19T12:11:45Z</time>
      </trkpt>
      <trkpt lat="48.77390000" lon="8.246989000">
        <ele>379.00000</ele>
        <time>2008-10-19T12:11:45Z</time>
      </trkpt>
      <trkpt lat="48.77388000" lon="8.247014000">
        <ele>379.00000</ele>
        <time>2008-10-19T12:11:45Z</time>
      </trkpt>
      <trkpt lat="48.77385000" lon="8.247047000">
        <ele>379.00000</ele>
        <time>2008-10-19T12:11:45Z</time>
      </trkpt>
      <trkpt lat="48.77382000" lon="8.247070000">
        <ele>379.00000</ele>
        <time>2008-10-19T12:11:45Z</time>
      </trkpt>
      <trkpt lat="48.77379000" lon="8.247088000">
        <ele>384.00000</ele>
        <time>2008-10-19T12:11:45Z</time>
      </trkpt>
      <trkpt lat="48.77376000" lon="8.247102000">
        <ele>384.00000</ele>
        <time>2008-10-19T12:11:45Z</time>
      </trkpt>
      <trkpt lat="48.77372000" lon="8.247112000">
        <ele>365.00000</ele>
        <time>2008-10-19T12:11:45Z</time>
      </trkpt>
      <trkpt lat="48.77368000" lon="8.247133000">
        <ele>365.00000</ele>
        <time>2008-10-19T12:11:45Z</time>
      </trkpt>
      <trkpt lat="48.77364000" lon="8.247143000">
        <ele>365.00000</ele>
        <time>2008-10-19T12:11:45Z</time>
      </trkpt>
      <trkpt lat="48.77359000" lon="8.247147000">
        <ele>365.00000</ele>
        <time>2008-10-19T12:11:45Z</time>
      </trkpt>
      <trkpt lat="48.77355000" lon="8.247160000">
        <ele>365.00000</ele>
        <time>2008-10-19T12:11:45Z</time>
      </trkpt>
      <trkpt lat="48.77351000" lon="8.247164000">
        <ele>365.00000</ele>
        <time>2008-10-19T12:11:45Z</time>
      </trkpt>
      <trkpt lat="48.77347000" lon="8.247190000">
        <ele>365.00000</ele>
        <time>2008-10-19T12:11:45Z</time>
      </trkpt>
      <trkpt lat="48.77343000" lon="8.247201000">
        <ele>365.00000</ele>
        <time>2008-10-19T12:11:45Z</time>
      </trkpt>
      <trkpt lat="48.77340000" lon="8.247218000">
        <ele>365.00000</ele>
        <time>2008-10-19T12:11:45Z</time>
      </trkpt>
      <trkpt lat="48.77337000" lon="8.247231000">
        <ele>365.00000</ele>
        <time>2008-10-19T12:11:45Z</time>
      </trkpt>
      <trkpt lat="48.77334000" lon="8.247237000">
        <ele>365.00000</ele>
        <time>2008-10-19T12:11:45Z</time>
      </trkpt>
      <trkpt lat="48.77331000" lon="8.247255000">
        <ele>365.00000</ele>
        <time>2008-10-19T12:11:45Z</time>
      </trkpt>
      <trkpt lat="48.77328000" lon="8.247275000">
        <ele>365.00000</ele>
        <time>2008-10-19T12:11:45Z</time>
      </trkpt>
      <trkpt lat="48.77325000" lon="8.247287000">
        <ele>365.00000</ele>
        <time>2008-10-19T12:11:45Z</time>
      </trkpt>
      <trkpt lat="48.77322000" lon="8.247294000">
        <ele>365.00000</ele>
        <time>2008-10-19T12:11:45Z</time>
      </trkpt>
      <trkpt lat="48.77319000" lon="8.247312000">
        <ele>365.00000</ele>
        <time>2008-10-19T12:11:45Z</time>
      </trkpt>
      <trkpt lat="48.77316000" lon="8.247325000">
        <ele>365.00000</ele>
        <time>2008-10-19T12:11:45Z</time>
      </trkpt>
      <trkpt lat="48.77313000" lon="8.247334000">
        <ele>365.00000</ele>
        <time>2008-10-19T12:11:45Z</time>
      </trkpt>
      <trkpt lat="48.77311000" lon="8.247356000">
        <ele>365.00000</ele>
        <time>2008-10-19T12:11:45Z</time>
      </trkpt>
      <trkpt lat="48.77306000" lon="8.247372000">
        <ele>365.00000</ele>
        <time>2008-10-19T12:11:45Z</time>
      </trkpt>
      <trkpt lat="48.77301000" lon="8.247378000">
        <ele>365.00000</ele>
        <time>2008-10-19T12:11:45Z</time>
      </trkpt>
      <trkpt lat="48.77297000" lon="8.247394000">
        <ele>365.00000</ele>
        <time>2008-10-19T12:11:45Z</time>
      </trkpt>
      <trkpt lat="48.77294000" lon="8.247409000">
        <ele>365.00000</ele>
        <time>2008-10-19T12:11:45Z</time>
      </trkpt>
      <trkpt lat="48.77290000" lon="8.247417000">
        <ele>348.00000</ele>
        <time>2008-10-19T12:11:45Z</time>
      </trkpt>
      <trkpt lat="48.77286000" lon="8.247423000">
        <ele>348.00000</ele>
        <time>2008-10-19T12:11:45Z</time>
      </trkpt>
      <trkpt lat="48.77282000" lon="8.247439000">
        <ele>348.00000</ele>
        <time>2008-10-19T12:11:45Z</time>
      </trkpt>
      <trkpt lat="48.77278000" lon="8.247458000">
        <ele>348.00000</ele>
        <time>2008-10-19T12:11:45Z</time>
      </trkpt>
      <trkpt lat="48.77275000" lon="8.247478000">
        <ele>348.00000</ele>
        <time>2008-10-19T12:11:45Z</time>
      </trkpt>
      <trkpt lat="48.77272000" lon="8.247499000">
        <ele>348.00000</ele>
        <time>2008-10-19T12:11:45Z</time>
      </trkpt>
      <trkpt lat="48.77268000" lon="8.247509000">
        <ele>348.00000</ele>
        <time>2008-10-19T12:11:45Z</time>
      </trkpt>
      <trkpt lat="48.77265000" lon="8.247519000">
        <ele>348.00000</ele>
        <time>2008-10-19T12:11:45Z</time>
      </trkpt>
      <trkpt lat="48.77262000" lon="8.247534000">
        <ele>348.00000</ele>
        <time>2008-10-19T12:11:45Z</time>
      </trkpt>
      <trkpt lat="48.77259000" lon="8.247553000">
        <ele>348.00000</ele>
        <time>2008-10-19T12:11:45Z</time>
      </trkpt>
      <trkpt lat="48.77257000" lon="8.247578000">
        <ele>348.00000</ele>
        <time>2008-10-19T12:11:45Z</time>
      </trkpt>
      <trkpt lat="48.77254000" lon="8.247599000">
        <ele>348.00000</ele>
        <time>2008-10-19T12:11:45Z</time>
      </trkpt>
      <trkpt lat="48.77251000" lon="8.247622000">
        <ele>348.00000</ele>
        <time>2008-10-19T12:11:45Z</time>
      </trkpt>
      <trkpt lat="48.77248000" lon="8.247633000">
        <ele>348.00000</ele>
        <time>2008-10-19T12:11:45Z</time>
      </trkpt>
      <trkpt lat="48.77243000" lon="8.247640000">
        <ele>348.00000</ele>
        <time>2008-10-19T12:11:45Z</time>
      </trkpt>
      <trkpt lat="48.77240000" lon="8.247640000">
        <ele>348.00000</ele>
        <time>2008-10-19T12:11:45Z</time>
      </trkpt>
      <trkpt lat="48.77236000" lon="8.247633000">
        <ele>348.00000</ele>
        <time>2008-10-19T12:11:45Z</time>
      </trkpt>
      <trkpt lat="48.77232000" lon="8.247626000">
        <ele>348.00000</ele>
        <time>2008-10-19T12:11:45Z</time>
      </trkpt>
      <trkpt lat="48.77227000" lon="8.247611000">
        <ele>348.00000</ele>
        <time>2008-10-19T12:11:45Z</time>
      </trkpt>
      <trkpt lat="48.77223000" lon="8.247601000">
        <ele>348.00000</ele>
        <time>2008-10-19T12:11:45Z</time>
      </trkpt>
      <trkpt lat="48.77219000" lon="8.247588000">
        <ele>348.00000</ele>
        <time>2008-10-19T12:11:45Z</time>
      </trkpt>
      <trkpt lat="48.77214000" lon="8.247576000">
        <ele>348.00000</ele>
        <time>2008-10-19T12:11:45Z</time>
      </trkpt>
      <trkpt lat="48.77210000" lon="8.247569000">
        <ele>348.00000</ele>
        <time>2008-10-19T12:11:45Z</time>
      </trkpt>
      <trkpt lat="48.77206000" lon="8.247560000">
        <ele>335.00000</ele>
        <time>2008-10-19T12:11:45Z</time>
      </trkpt>
      <trkpt lat="48.77201000" lon="8.247549000">
        <ele>335.00000</ele>
        <time>2008-10-19T12:11:45Z</time>
      </trkpt>
      <trkpt lat="48.77198000" lon="8.247533000">
        <ele>335.00000</ele>
        <time>2008-10-19T12:11:45Z</time>
      </trkpt>
      <trkpt lat="48.77194000" lon="8.247525000">
        <ele>335.00000</ele>
        <time>2008-10-19T12:11:45Z</time>
      </trkpt>
      <trkpt lat="48.77190000" lon="8.247516000">
        <ele>335.00000</ele>
        <time>2008-10-19T12:11:45Z</time>
      </trkpt>
      <trkpt lat="48.77187000" lon="8.247512000">
        <ele>335.00000</ele>
        <time>2008-10-19T12:11:45Z</time>
      </trkpt>
      <trkpt lat="48.77183000" lon="8.247501000">
        <ele>335.00000</ele>
        <time>2008-10-19T12:11:45Z</time>
      </trkpt>
      <trkpt lat="48.77179000" lon="8.247491000">
        <ele>335.00000</ele>
        <time>2008-10-19T12:11:45Z</time>
      </trkpt>
      <trkpt lat="48.77176000" lon="8.247482000">
        <ele>335.00000</ele>
        <time>2008-10-19T12:11:45Z</time>
      </trkpt>
      <trkpt lat="48.77173000" lon="8.247477000">
        <ele>335.00000</ele>
        <time>2008-10-19T12:11:45Z</time>
      </trkpt>
      <trkpt lat="48.77169000" lon="8.247476000">
        <ele>335.00000</ele>
        <time>2008-10-19T12:11:45Z</time>
      </trkpt>
      <trkpt lat="48.77165000" lon="8.247475000">
        <ele>335.00000</ele>
        <time>2008-10-19T12:11:45Z</time>
      </trkpt>
      <trkpt lat="48.77161000" lon="8.247486000">
        <ele>335.00000</ele>
        <time>2008-10-19T12:11:45Z</time>
      </trkpt>
      <trkpt lat="48.77156000" lon="8.247506000">
        <ele>335.00000</ele>
        <time>2008-10-19T12:11:45Z</time>
      </trkpt>
      <trkpt lat="48.77152000" lon="8.247506000">
        <ele>335.00000</ele>
        <time>2008-10-19T12:11:45Z</time>
      </trkpt>
      <trkpt lat="48.77148000" lon="8.247518000">
        <ele>335.00000</ele>
        <time>2008-10-19T12:11:45Z</time>
      </trkpt>
      <trkpt lat="48.77144000" lon="8.247538000">
        <ele>335.00000</ele>
        <time>2008-10-19T12:11:45Z</time>
      </trkpt>
      <trkpt lat="48.77141000" lon="8.247553000">
        <ele>335.00000</ele>
        <time>2008-10-19T12:11:45Z</time>
      </trkpt>
      <trkpt lat="48.77137000" lon="8.247569000">
        <ele>335.00000</ele>
        <time>2008-10-19T12:11:45Z</time>
      </trkpt>
      <trkpt lat="48.77134000" lon="8.247589000">
        <ele>335.00000</ele>
        <time>2008-10-19T12:11:45Z</time>
      </trkpt>
      <trkpt lat="48.77131000" lon="8.247602000">
        <ele>335.00000</ele>
        <time>2008-10-19T12:11:45Z</time>
      </trkpt>
      <trkpt lat="48.77127000" lon="8.247608000">
        <ele>335.00000</ele>
        <time>2008-10-19T12:11:45Z</time>
      </trkpt>
      <trkpt lat="48.77124000" lon="8.247617000">
        <ele>337.00000</ele>
        <time>2008-10-19T12:11:45Z</time>
      </trkpt>
      <trkpt lat="48.77121000" lon="8.247623000">
        <ele>337.00000</ele>
        <time>2008-10-19T12:11:45Z</time>
      </trkpt>
      <trkpt lat="48.77118000" lon="8.247631000">
        <ele>337.00000</ele>
        <time>2008-10-19T12:11:45Z</time>
      </trkpt>
      <trkpt lat="48.77115000" lon="8.247632000">
        <ele>337.00000</ele>
        <time>2008-10-19T12:11:45Z</time>
      </trkpt>
      <trkpt lat="48.77112000" lon="8.247640000">
        <ele>337.00000</ele>
        <time>2008-10-19T12:11:45Z</time>
      </trkpt>
      <trkpt lat="48.77110000" lon="8.247659000">
        <ele>337.00000</ele>
        <time>2008-10-19T12:11:45Z</time>
      </trkpt>
      <trkpt lat="48.77106000" lon="8.247671000">
        <ele>337.00000</ele>
        <time>2008-10-19T12:11:45Z</time>
      </trkpt>
      <trkpt lat="48.77103000" lon="8.247683000">
        <ele>337.00000</ele>
        <time>2008-10-19T12:11:45Z</time>
      </trkpt>
      <trkpt lat="48.77099000" lon="8.247686000">
        <ele>337.00000</ele>
        <time>2008-10-19T12:11:45Z</time>
      </trkpt>
      <trkpt lat="48.77096000" lon="8.247688000">
        <ele>337.00000</ele>
        <time>2008-10-19T12:11:45Z</time>
      </trkpt>
      <trkpt lat="48.77093000" lon="8.247697000">
        <ele>337.00000</ele>
        <time>2008-10-19T12:11:45Z</time>
      </trkpt>
      <trkpt lat="48.77089000" lon="8.247719000">
        <ele>337.00000</ele>
        <time>2008-10-19T12:11:45Z</time>
      </trkpt>
      <trkpt lat="48.77085000" lon="8.247726000">
        <ele>337.00000</ele>
        <time>2008-10-19T12:11:45Z</time>
      </trkpt>
      <trkpt lat="48.77082000" lon="8.247743000">
        <ele>337.00000</ele>
        <time>2008-10-19T12:11:45Z</time>
      </trkpt>
      <trkpt lat="48.77078000" lon="8.247762000">
        <ele>337.00000</ele>
        <time>2008-10-19T12:11:45Z</time>
      </trkpt>
      <trkpt lat="48.77074000" lon="8.247775000">
        <ele>337.00000</ele>
        <time>2008-10-19T12:11:45Z</time>
      </trkpt>
      <trkpt lat="48.77071000" lon="8.247778000">
        <ele>337.00000</ele>
        <time>2008-10-19T12:11:45Z</time>
      </trkpt>
      <trkpt lat="48.77068000" lon="8.247781000">
        <ele>337.00000</ele>
        <time>2008-10-19T12:11:45Z</time>
      </trkpt>
      <trkpt lat="48.77064000" lon="8.247793000">
        <ele>337.00000</ele>
        <time>2008-10-19T12:11:45Z</time>
      </trkpt>
      <trkpt lat="48.77061000" lon="8.247800000">
        <ele>337.00000</ele>
        <time>2008-10-19T12:11:45Z</time>
      </trkpt>
      <trkpt lat="48.77058000" lon="8.247808000">
        <ele>337.00000</ele>
        <time>2008-10-19T12:11:45Z</time>
      </trkpt>
      <trkpt lat="48.77054000" lon="8.247803000">
        <ele>337.00000</ele>
        <time>2008-10-19T12:11:45Z</time>
      </trkpt>
      <trkpt lat="48.77051000" lon="8.247794000">
        <ele>337.00000</ele>
        <time>2008-10-19T12:11:45Z</time>
      </trkpt>
      <trkpt lat="48.77048000" lon="8.247795000">
        <ele>337.00000</ele>
        <time>2008-10-19T12:11:45Z</time>
      </trkpt>
      <trkpt lat="48.77045000" lon="8.247796000">
        <ele>337.00000</ele>
        <time>2008-10-19T12:11:45Z</time>
      </trkpt>
      <trkpt lat="48.77041000" lon="8.247799000">
        <ele>329.00000</ele>
        <time>2008-10-19T12:11:45Z</time>
      </trkpt>
      <trkpt lat="48.77038000" lon="8.247803000">
        <ele>329.00000</ele>
        <time>2008-10-19T12:11:45Z</time>
      </trkpt>
      <trkpt lat="48.77035000" lon="8.247808000">
        <ele>329.00000</ele>
        <time>2008-10-19T12:11:45Z</time>
      </trkpt>
      <trkpt lat="48.77032000" lon="8.247816000">
        <ele>329.00000</ele>
        <time>2008-10-19T12:11:45Z</time>
      </trkpt>
      <trkpt lat="48.77029000" lon="8.247826000">
        <ele>329.00000</ele>
        <time>2008-10-19T12:11:45Z</time>
      </trkpt>
      <trkpt lat="48.77026000" lon="8.247842000">
        <ele>329.00000</ele>
        <time>2008-10-19T12:11:45Z</time>
      </trkpt>
      <trkpt lat="48.77023000" lon="8.247868000">
        <ele>329.00000</ele>
        <time>2008-10-19T12:11:45Z</time>
      </trkpt>
      <trkpt lat="48.77019000" lon="8.247889000">
        <ele>329.00000</ele>
        <time>2008-10-19T12:11:45Z</time>
      </trkpt>
      <trkpt lat="48.77016000" lon="8.247906000">
        <ele>329.00000</ele>
        <time>2008-10-19T12:11:45Z</time>
      </trkpt>
      <trkpt lat="48.77013000" lon="8.247926000">
        <ele>324.00000</ele>
        <time>2008-10-19T12:11:45Z</time>
      </trkpt>
      <trkpt lat="48.77010000" lon="8.247952000">
        <ele>324.00000</ele>
        <time>2008-10-19T12:11:45Z</time>
      </trkpt>
      <trkpt lat="48.77008000" lon="8.247973000">
        <ele>324.00000</ele>
        <time>2008-10-19T12:11:45Z</time>
      </trkpt>
      <trkpt lat="48.77006000" lon="8.247999000">
        <ele>324.00000</ele>
        <time>2008-10-19T12:11:45Z</time>
      </trkpt>
      <trkpt lat="48.77005000" lon="8.248031000">
        <ele>324.00000</ele>
        <time>2008-10-19T12:11:45Z</time>
      </trkpt>
      <trkpt lat="48.77002000" lon="8.248074000">
        <ele>324.00000</ele>
        <time>2008-10-19T12:11:45Z</time>
      </trkpt>
      <trkpt lat="48.77000000" lon="8.248107000">
        <ele>324.00000</ele>
        <time>2008-10-19T12:11:45Z</time>
      </trkpt>
      <trkpt lat="48.76998000" lon="8.248137000">
        <ele>324.00000</ele>
        <time>2008-10-19T12:11:45Z</time>
      </trkpt>
      <trkpt lat="48.76995000" lon="8.248168000">
        <ele>324.00000</ele>
        <time>2008-10-19T12:11:45Z</time>
      </trkpt>
      <trkpt lat="48.76993000" lon="8.248204000">
        <ele>324.00000</ele>
        <time>2008-10-19T12:11:45Z</time>
      </trkpt>
      <trkpt lat="48.76991000" lon="8.248233000">
        <ele>324.00000</ele>
        <time>2008-10-19T12:11:45Z</time>
      </trkpt>
      <trkpt lat="48.76989000" lon="8.248264000">
        <ele>324.00000</ele>
        <time>2008-10-19T12:11:45Z</time>
      </trkpt>
      <trkpt lat="48.76987000" lon="8.248302000">
        <ele>324.00000</ele>
        <time>2008-10-19T12:11:45Z</time>
      </trkpt>
      <trkpt lat="48.76986000" lon="8.248348000">
        <ele>324.00000</ele>
        <time>2008-10-19T12:11:45Z</time>
      </trkpt>
      <trkpt lat="48.76984000" lon="8.248395000">
        <ele>324.00000</ele>
        <time>2008-10-19T12:11:45Z</time>
      </trkpt>
      <trkpt lat="48.76983000" lon="8.248444000">
        <ele>324.00000</ele>
        <time>2008-10-19T12:11:45Z</time>
      </trkpt>
      <trkpt lat="48.76982000" lon="8.248495000">
        <ele>324.00000</ele>
        <time>2008-10-19T12:11:45Z</time>
      </trkpt>
      <trkpt lat="48.76982000" lon="8.248535000">
        <ele>324.00000</ele>
        <time>2008-10-19T12:11:45Z</time>
      </trkpt>
      <trkpt lat="48.76981000" lon="8.248574000">
        <ele>324.00000</ele>
        <time>2008-10-19T12:11:45Z</time>
      </trkpt>
      <trkpt lat="48.76981000" lon="8.248617000">
        <ele>324.00000</ele>
        <time>2008-10-19T12:11:45Z</time>
      </trkpt>
      <trkpt lat="48.76979000" lon="8.248656000">
        <ele>324.00000</ele>
        <time>2008-10-19T12:11:45Z</time>
      </trkpt>
      <trkpt lat="48.76978000" lon="8.248702000">
        <ele>324.00000</ele>
        <time>2008-10-19T12:11:45Z</time>
      </trkpt>
      <trkpt lat="48.76976000" lon="8.248747000">
        <ele>324.00000</ele>
        <time>2008-10-19T12:11:45Z</time>
      </trkpt>
      <trkpt lat="48.76974000" lon="8.248792000">
        <ele>317.00000</ele>
        <time>2008-10-19T12:11:45Z</time>
      </trkpt>
      <trkpt lat="48.76973000" lon="8.248825000">
        <ele>317.00000</ele>
        <time>2008-10-19T12:11:45Z</time>
      </trkpt>
      <trkpt lat="48.76971000" lon="8.248863000">
        <ele>317.00000</ele>
        <time>2008-10-19T12:11:45Z</time>
      </trkpt>
      <trkpt lat="48.76968000" lon="8.248896000">
        <ele>317.00000</ele>
        <time>2008-10-19T12:11:45Z</time>
      </trkpt>
      <trkpt lat="48.76965000" lon="8.248908000">
        <ele>317.00000</ele>
        <time>2008-10-19T12:11:45Z</time>
      </trkpt>
      <trkpt lat="48.76962000" lon="8.248907000">
        <ele>317.00000</ele>
        <time>2008-10-19T12:11:45Z</time>
      </trkpt>
      <trkpt lat="48.76958000" lon="8.248906000">
        <ele>294.00000</ele>
        <time>2008-10-19T12:11:45Z</time>
      </trkpt>
      <trkpt lat="48.76954000" lon="8.248901000">
        <ele>294.00000</ele>
        <time>2008-10-19T12:11:45Z</time>
      </trkpt>
      <trkpt lat="48.76951000" lon="8.248889000">
        <ele>294.00000</ele>
        <time>2008-10-19T12:11:45Z</time>
      </trkpt>
      <trkpt lat="48.76947000" lon="8.248874000">
        <ele>294.00000</ele>
        <time>2008-10-19T12:11:45Z</time>
      </trkpt>
      <trkpt lat="48.76944000" lon="8.248854000">
        <ele>294.00000</ele>
        <time>2008-10-19T12:11:45Z</time>
      </trkpt>
      <trkpt lat="48.76942000" lon="8.248832000">
        <ele>294.00000</ele>
        <time>2008-10-19T12:11:45Z</time>
      </trkpt>
      <trkpt lat="48.76940000" lon="8.248802000">
        <ele>294.00000</ele>
        <time>2008-10-19T12:11:45Z</time>
      </trkpt>
      <trkpt lat="48.76939000" lon="8.248769000">
        <ele>294.00000</ele>
        <time>2008-10-19T12:11:45Z</time>
      </trkpt>
      <trkpt lat="48.76937000" lon="8.248722000">
        <ele>304.00000</ele>
        <time>2008-10-19T12:11:45Z</time>
      </trkpt>
      <trkpt lat="48.76936000" lon="8.248675000">
        <ele>304.00000</ele>
        <time>2008-10-19T12:11:45Z</time>
      </trkpt>
      <trkpt lat="48.76934000" lon="8.248631000">
        <ele>304.00000</ele>
        <time>2008-10-19T12:11:45Z</time>
      </trkpt>
      <trkpt lat="48.76932000" lon="8.248581000">
        <ele>304.00000</ele>
        <time>2008-10-19T12:11:45Z</time>
      </trkpt>
      <trkpt lat="48.76930000" lon="8.248533000">
        <ele>304.00000</ele>
        <time>2008-10-19T12:11:45Z</time>
      </trkpt>
      <trkpt lat="48.76929000" lon="8.248484000">
        <ele>304.00000</ele>
        <time>2008-10-19T12:11:45Z</time>
      </trkpt>
      <trkpt lat="48.76927000" lon="8.248442000">
        <ele>304.00000</ele>
        <time>2008-10-19T12:11:45Z</time>
      </trkpt>
      <trkpt lat="48.76925000" lon="8.248399000">
        <ele>304.00000</ele>
        <time>2008-10-19T12:11:45Z</time>
      </trkpt>
      <trkpt lat="48.76923000" lon="8.248347000">
        <ele>304.00000</ele>
        <time>2008-10-19T12:11:45Z</time>
      </trkpt>
      <trkpt lat="48.76921000" lon="8.248302000">
        <ele>304.00000</ele>
        <time>2008-10-19T12:11:45Z</time>
      </trkpt>
      <trkpt lat="48.76920000" lon="8.248261000">
        <ele>304.00000</ele>
        <time>2008-10-19T12:11:45Z</time>
      </trkpt>
      <trkpt lat="48.76918000" lon="8.248226000">
        <ele>304.00000</ele>
        <time>2008-10-19T12:11:45Z</time>
      </trkpt>
      <trkpt lat="48.76917000" lon="8.248187000">
        <ele>304.00000</ele>
        <time>2008-10-19T12:11:45Z</time>
      </trkpt>
      <trkpt lat="48.76917000" lon="8.248139000">
        <ele>304.00000</ele>
        <time>2008-10-19T12:11:45Z</time>
      </trkpt>
      <trkpt lat="48.76915000" lon="8.248093000">
        <ele>304.00000</ele>
        <time>2008-10-19T12:11:45Z</time>
      </trkpt>
      <trkpt lat="48.76913000" lon="8.248044000">
        <ele>304.00000</ele>
        <time>2008-10-19T12:11:45Z</time>
      </trkpt>
      <trkpt lat="48.76912000" lon="8.247996000">
        <ele>304.00000</ele>
        <time>2008-10-19T12:11:45Z</time>
      </trkpt>
      <trkpt lat="48.76909000" lon="8.247942000">
        <ele>304.00000</ele>
        <time>2008-10-19T12:11:45Z</time>
      </trkpt>
      <trkpt lat="48.76907000" lon="8.247890000">
        <ele>306.00000</ele>
        <time>2008-10-19T12:11:45Z</time>
      </trkpt>
      <trkpt lat="48.76905000" lon="8.247837000">
        <ele>306.00000</ele>
        <time>2008-10-19T12:11:45Z</time>
      </trkpt>
      <trkpt lat="48.76904000" lon="8.247790000">
        <ele>306.00000</ele>
        <time>2008-10-19T12:11:45Z</time>
      </trkpt>
      <trkpt lat="48.76902000" lon="8.247741000">
        <ele>306.00000</ele>
        <time>2008-10-19T12:11:45Z</time>
      </trkpt>
      <trkpt lat="48.76900000" lon="8.247700000">
        <ele>306.00000</ele>
        <time>2008-10-19T12:11:45Z</time>
      </trkpt>
      <trkpt lat="48.76899000" lon="8.247660000">
        <ele>306.00000</ele>
        <time>2008-10-19T12:11:45Z</time>
      </trkpt>
      <trkpt lat="48.76897000" lon="8.247615000">
        <ele>306.00000</ele>
        <time>2008-10-19T12:11:45Z</time>
      </trkpt>
      <trkpt lat="48.76895000" lon="8.247578000">
        <ele>306.00000</ele>
        <time>2008-10-19T12:11:45Z</time>
      </trkpt>
      <trkpt lat="48.76893000" lon="8.247535000">
        <ele>306.00000</ele>
        <time>2008-10-19T12:11:45Z</time>
      </trkpt>
      <trkpt lat="48.76891000" lon="8.247488000">
        <ele>306.00000</ele>
        <time>2008-10-19T12:11:45Z</time>
      </trkpt>
      <trkpt lat="48.76889000" lon="8.247445000">
        <ele>306.00000</ele>
        <time>2008-10-19T12:11:45Z</time>
      </trkpt>
      <trkpt lat="48.76886000" lon="8.247405000">
        <ele>306.00000</ele>
        <time>2008-10-19T12:11:45Z</time>
      </trkpt>
      <trkpt lat="48.76884000" lon="8.247366000">
        <ele>306.00000</ele>
        <time>2008-10-19T12:11:45Z</time>
      </trkpt>
      <trkpt lat="48.76883000" lon="8.247324000">
        <ele>306.00000</ele>
        <time>2008-10-19T12:11:45Z</time>
      </trkpt>
      <trkpt lat="48.76879000" lon="8.247291000">
        <ele>306.00000</ele>
        <time>2008-10-19T12:11:45Z</time>
      </trkpt>
      <trkpt lat="48.76876000" lon="8.247248000">
        <ele>306.00000</ele>
        <time>2008-10-19T12:11:45Z</time>
      </trkpt>
      <trkpt lat="48.76873000" lon="8.247207000">
        <ele>280.00000</ele>
        <time>2008-10-19T12:11:45Z</time>
      </trkpt>
      <trkpt lat="48.76871000" lon="8.247169000">
        <ele>280.00000</ele>
        <time>2008-10-19T12:11:45Z</time>
      </trkpt>
      <trkpt lat="48.76868000" lon="8.247126000">
        <ele>280.00000</ele>
        <time>2008-10-19T12:11:45Z</time>
      </trkpt>
      <trkpt lat="48.76866000" lon="8.247086000">
        <ele>280.00000</ele>
        <time>2008-10-19T12:11:45Z</time>
      </trkpt>
      <trkpt lat="48.76864000" lon="8.247041000">
        <ele>286.00000</ele>
        <time>2008-10-19T12:11:45Z</time>
      </trkpt>
      <trkpt lat="48.76862000" lon="8.246993000">
        <ele>286.00000</ele>
        <time>2008-10-19T12:11:45Z</time>
      </trkpt>
      <trkpt lat="48.76860000" lon="8.246945000">
        <ele>286.00000</ele>
        <time>2008-10-19T12:11:45Z</time>
      </trkpt>
      <trkpt lat="48.76857000" lon="8.246899000">
        <ele>286.00000</ele>
        <time>2008-10-19T12:11:45Z</time>
      </trkpt>
      <trkpt lat="48.76855000" lon="8.246854000">
        <ele>286.00000</ele>
        <time>2008-10-19T12:11:45Z</time>
      </trkpt>
      <trkpt lat="48.76854000" lon="8.246810000">
        <ele>286.00000</ele>
        <time>2008-10-19T12:11:45Z</time>
      </trkpt>
      <trkpt lat="48.76852000" lon="8.246759000">
        <ele>286.00000</ele>
        <time>2008-10-19T12:11:45Z</time>
      </trkpt>
      <trkpt lat="48.76851000" lon="8.246705000">
        <ele>286.00000</ele>
        <time>2008-10-19T12:11:45Z</time>
      </trkpt>
      <trkpt lat="48.76849000" lon="8.246655000">
        <ele>286.00000</ele>
        <time>2008-10-19T12:11:45Z</time>
      </trkpt>
      <trkpt lat="48.76847000" lon="8.246608000">
        <ele>286.00000</ele>
        <time>2008-10-19T12:11:45Z</time>
      </trkpt>
      <trkpt lat="48.76847000" lon="8.246548000">
        <ele>286.00000</ele>
        <time>2008-10-19T12:11:45Z</time>
      </trkpt>
      <trkpt lat="48.76847000" lon="8.246497000">
        <ele>286.00000</ele>
        <time>2008-10-19T12:11:45Z</time>
      </trkpt>
      <trkpt lat="48.76847000" lon="8.246443000">
        <ele>286.00000</ele>
        <time>2008-10-19T12:11:45Z</time>
      </trkpt>
      <trkpt lat="48.76845000" lon="8.246392000">
        <ele>286.00000</ele>
        <time>2008-10-19T12:11:45Z</time>
      </trkpt>
      <trkpt lat="48.76844000" lon="8.246343000">
        <ele>286.00000</ele>
        <time>2008-10-19T12:11:45Z</time>
      </trkpt>
      <trkpt lat="48.76843000" lon="8.246298000">
        <ele>286.00000</ele>
        <time>2008-10-19T12:11:45Z</time>
      </trkpt>
      <trkpt lat="48.76842000" lon="8.246255000">
        <ele>286.00000</ele>
        <time>2008-10-19T12:11:45Z</time>
      </trkpt>
      <trkpt lat="48.76842000" lon="8.246204000">
        <ele>284.00000</ele>
        <time>2008-10-19T12:11:45Z</time>
      </trkpt>
      <trkpt lat="48.76841000" lon="8.246157000">
        <ele>284.00000</ele>
        <time>2008-10-19T12:11:45Z</time>
      </trkpt>
      <trkpt lat="48.76841000" lon="8.246107000">
        <ele>284.00000</ele>
        <time>2008-10-19T12:11:45Z</time>
      </trkpt>
      <trkpt lat="48.76841000" lon="8.246053000">
        <ele>284.00000</ele>
        <time>2008-10-19T12:11:45Z</time>
      </trkpt>
      <trkpt lat="48.76840000" lon="8.245988000">
        <ele>284.00000</ele>
        <time>2008-10-19T12:11:45Z</time>
      </trkpt>
      <trkpt lat="48.76839000" lon="8.245920000">
        <ele>284.00000</ele>
        <time>2008-10-19T12:11:45Z</time>
      </trkpt>
      <trkpt lat="48.76840000" lon="8.245860000">
        <ele>284.00000</ele>
        <time>2008-10-19T12:11:45Z</time>
      </trkpt>
      <trkpt lat="48.76840000" lon="8.245805000">
        <ele>284.00000</ele>
        <time>2008-10-19T12:11:45Z</time>
      </trkpt>
      <trkpt lat="48.76841000" lon="8.245750000">
        <ele>284.00000</ele>
        <time>2008-10-19T12:11:45Z</time>
      </trkpt>
      <trkpt lat="48.76841000" lon="8.245695000">
        <ele>284.00000</ele>
        <time>2008-10-19T12:11:45Z</time>
      </trkpt>
      <trkpt lat="48.76841000" lon="8.245637000">
        <ele>284.00000</ele>
        <time>2008-10-19T12:11:45Z</time>
      </trkpt>
      <trkpt lat="48.76842000" lon="8.245581000">
        <ele>284.00000</ele>
        <time>2008-10-19T12:11:45Z</time>
      </trkpt>
      <trkpt lat="48.76842000" lon="8.245531000">
        <ele>284.00000</ele>
        <time>2008-10-19T12:11:45Z</time>
      </trkpt>
      <trkpt lat="48.76842000" lon="8.245481000">
        <ele>284.00000</ele>
        <time>2008-10-19T12:11:45Z</time>
      </trkpt>
      <trkpt lat="48.76841000" lon="8.245439000">
        <ele>284.00000</ele>
        <time>2008-10-19T12:11:45Z</time>
      </trkpt>
      <trkpt lat="48.76840000" lon="8.245400000">
        <ele>275.00000</ele>
        <time>2008-10-19T12:11:45Z</time>
      </trkpt>
      <trkpt lat="48.76839000" lon="8.245358000">
        <ele>275.00000</ele>
        <time>2008-10-19T12:11:45Z</time>
      </trkpt>
      <trkpt lat="48.76838000" lon="8.245317000">
        <ele>275.00000</ele>
        <time>2008-10-19T12:11:45Z</time>
      </trkpt>
      <trkpt lat="48.76837000" lon="8.245279000">
        <ele>275.00000</ele>
        <time>2008-10-19T12:11:45Z</time>
      </trkpt>
      <trkpt lat="48.76835000" lon="8.245237000">
        <ele>275.00000</ele>
        <time>2008-10-19T12:11:45Z</time>
      </trkpt>
      <trkpt lat="48.76834000" lon="8.245194000">
        <ele>275.00000</ele>
        <time>2008-10-19T12:11:45Z</time>
      </trkpt>
      <trkpt lat="48.76832000" lon="8.245150000">
        <ele>275.00000</ele>
        <time>2008-10-19T12:11:45Z</time>
      </trkpt>
      <trkpt lat="48.76831000" lon="8.245103000">
        <ele>275.00000</ele>
        <time>2008-10-19T12:11:45Z</time>
      </trkpt>
      <trkpt lat="48.76830000" lon="8.245060000">
        <ele>275.00000</ele>
        <time>2008-10-19T12:11:45Z</time>
      </trkpt>
      <trkpt lat="48.76830000" lon="8.245012000">
        <ele>275.00000</ele>
        <time>2008-10-19T12:11:45Z</time>
      </trkpt>
      <trkpt lat="48.76829000" lon="8.244962000">
        <ele>275.00000</ele>
        <time>2008-10-19T12:11:45Z</time>
      </trkpt>
      <trkpt lat="48.76830000" lon="8.244909000">
        <ele>275.00000</ele>
        <time>2008-10-19T12:11:45Z</time>
      </trkpt>
      <trkpt lat="48.76830000" lon="8.244857000">
        <ele>275.00000</ele>
        <time>2008-10-19T12:11:45Z</time>
      </trkpt>
      <trkpt lat="48.76830000" lon="8.244809000">
        <ele>275.00000</ele>
        <time>2008-10-19T12:11:45Z</time>
      </trkpt>
      <trkpt lat="48.76831000" lon="8.244758000">
        <ele>275.00000</ele>
        <time>2008-10-19T12:11:45Z</time>
      </trkpt>
      <trkpt lat="48.76831000" lon="8.244709000">
        <ele>275.00000</ele>
        <time>2008-10-19T12:11:45Z</time>
      </trkpt>
      <trkpt lat="48.76832000" lon="8.244656000">
        <ele>275.00000</ele>
        <time>2008-10-19T12:11:45Z</time>
      </trkpt>
      <trkpt lat="48.76833000" lon="8.244600000">
        <ele>275.00000</ele>
        <time>2008-10-19T12:11:45Z</time>
      </trkpt>
      <trkpt lat="48.76834000" lon="8.244551000">
        <ele>264.00000</ele>
        <time>2008-10-19T12:11:45Z</time>
      </trkpt>
      <trkpt lat="48.76834000" lon="8.244500000">
        <ele>264.00000</ele>
        <time>2008-10-19T12:11:45Z</time>
      </trkpt>
      <trkpt lat="48.76836000" lon="8.244450000">
        <ele>264.00000</ele>
        <time>2008-10-19T12:11:45Z</time>
      </trkpt>
      <trkpt lat="48.76836000" lon="8.244401000">
        <ele>264.00000</ele>
        <time>2008-10-19T12:11:45Z</time>
      </trkpt>
      <trkpt lat="48.76837000" lon="8.244348000">
        <ele>264.00000</ele>
        <time>2008-10-19T12:11:45Z</time>
      </trkpt>
      <trkpt lat="48.76838000" lon="8.244295000">
        <ele>264.00000</ele>
        <time>2008-10-19T12:11:45Z</time>
      </trkpt>
      <trkpt lat="48.76839000" lon="8.244241000">
        <ele>264.00000</ele>
        <time>2008-10-19T12:11:45Z</time>
      </trkpt>
      <trkpt lat="48.76839000" lon="8.244189000">
        <ele>264.00000</ele>
        <time>2008-10-19T12:11:45Z</time>
      </trkpt>
      <trkpt lat="48.76839000" lon="8.244143000">
        <ele>264.00000</ele>
        <time>2008-10-19T12:11:45Z</time>
      </trkpt>
      <trkpt lat="48.76840000" lon="8.244095000">
        <ele>264.00000</ele>
        <time>2008-10-19T12:11:45Z</time>
      </trkpt>
      <trkpt lat="48.76841000" lon="8.244044000">
        <ele>264.00000</ele>
        <time>2008-10-19T12:11:45Z</time>
      </trkpt>
      <trkpt lat="48.76841000" lon="8.243997000">
        <ele>264.00000</ele>
        <time>2008-10-19T12:11:45Z</time>
      </trkpt>
      <trkpt lat="48.76842000" lon="8.243950000">
        <ele>264.00000</ele>
        <time>2008-10-19T12:11:45Z</time>
      </trkpt>
      <trkpt lat="48.76842000" lon="8.243903000">
        <ele>264.00000</ele>
        <time>2008-10-19T12:11:45Z</time>
      </trkpt>
      <trkpt lat="48.76843000" lon="8.243855000">
        <ele>264.00000</ele>
        <time>2008-10-19T12:11:45Z</time>
      </trkpt>
      <trkpt lat="48.76843000" lon="8.243803000">
        <ele>264.00000</ele>
        <time>2008-10-19T12:11:45Z</time>
      </trkpt>
      <trkpt lat="48.76844000" lon="8.243748000">
        <ele>253.00000</ele>
        <time>2008-10-19T12:11:45Z</time>
      </trkpt>
      <trkpt lat="48.76844000" lon="8.243692000">
        <ele>253.00000</ele>
        <time>2008-10-19T12:11:45Z</time>
      </trkpt>
      <trkpt lat="48.76845000" lon="8.243637000">
        <ele>253.00000</ele>
        <time>2008-10-19T12:11:45Z</time>
      </trkpt>
      <trkpt lat="48.76845000" lon="8.243584000">
        <ele>253.00000</ele>
        <time>2008-10-19T12:11:45Z</time>
      </trkpt>
      <trkpt lat="48.76846000" lon="8.243532000">
        <ele>253.00000</ele>
        <time>2008-10-19T12:11:45Z</time>
      </trkpt>
      <trkpt lat="48.76847000" lon="8.243468000">
        <ele>253.00000</ele>
        <time>2008-10-19T12:11:45Z</time>
      </trkpt>
      <trkpt lat="48.76847000" lon="8.243402000">
        <ele>253.00000</ele>
        <time>2008-10-19T12:11:45Z</time>
      </trkpt>
      <trkpt lat="48.76847000" lon="8.243338000">
        <ele>253.00000</ele>
        <time>2008-10-19T12:11:45Z</time>
      </trkpt>
      <trkpt lat="48.76847000" lon="8.243292000">
        <ele>253.00000</ele>
        <time>2008-10-19T12:11:45Z</time>
      </trkpt>
      <trkpt lat="48.76845000" lon="8.243262000">
        <ele>253.00000</ele>
        <time>2008-10-19T12:11:45Z</time>
      </trkpt>
      <trkpt lat="48.76842000" lon="8.243252000">
        <ele>253.00000</ele>
        <time>2008-10-19T12:11:45Z</time>
      </trkpt>
      <trkpt lat="48.76839000" lon="8.243265000">
        <ele>253.00000</ele>
        <time>2008-10-19T12:11:45Z</time>
      </trkpt>
      <trkpt lat="48.76836000" lon="8.243293000">
        <ele>253.00000</ele>
        <time>2008-10-19T12:11:45Z</time>
      </trkpt>
      <trkpt lat="48.76834000" lon="8.243327000">
        <ele>253.00000</ele>
        <time>2008-10-19T12:11:45Z</time>
      </trkpt>
      <trkpt lat="48.76832000" lon="8.243361000">
        <ele>253.00000</ele>
        <time>2008-10-19T12:11:45Z</time>
      </trkpt>
      <trkpt lat="48.76830000" lon="8.243405000">
        <ele>253.00000</ele>
        <time>2008-10-19T12:11:45Z</time>
      </trkpt>
      <trkpt lat="48.76828000" lon="8.243440000">
        <ele>253.00000</ele>
        <time>2008-10-19T12:11:45Z</time>
      </trkpt>
      <trkpt lat="48.76825000" lon="8.243469000">
        <ele>253.00000</ele>
        <time>2008-10-19T12:11:45Z</time>
      </trkpt>
      <trkpt lat="48.76822000" lon="8.243503000">
        <ele>253.00000</ele>
        <time>2008-10-19T12:11:45Z</time>
      </trkpt>
      <trkpt lat="48.76818000" lon="8.243527000">
        <ele>253.00000</ele>
        <time>2008-10-19T12:11:45Z</time>
      </trkpt>
      <trkpt lat="48.76814000" lon="8.243541000">
        <ele>253.00000</ele>
        <time>2008-10-19T12:11:45Z</time>
      </trkpt>
      <trkpt lat="48.76811000" lon="8.243563000">
        <ele>253.00000</ele>
        <time>2008-10-19T12:11:45Z</time>
      </trkpt>
      <trkpt lat="48.76808000" lon="8.243590000">
        <ele>253.00000</ele>
        <time>2008-10-19T12:11:45Z</time>
      </trkpt>
      <trkpt lat="48.76805000" lon="8.243617000">
        <ele>253.00000</ele>
        <time>2008-10-19T12:11:45Z</time>
      </trkpt>
      <trkpt lat="48.76802000" lon="8.243639000">
        <ele>253.00000</ele>
        <time>2008-10-19T12:11:45Z</time>
      </trkpt>
      <trkpt lat="48.76799000" lon="8.243661000">
        <ele>253.00000</ele>
        <time>2008-10-19T12:11:45Z</time>
      </trkpt>
      <trkpt lat="48.76796000" lon="8.243685000">
        <ele>253.00000</ele>
        <time>2008-10-19T12:11:45Z</time>
      </trkpt>
      <trkpt lat="48.76792000" lon="8.243712000">
        <ele>253.00000</ele>
        <time>2008-10-19T12:11:45Z</time>
      </trkpt>
      <trkpt lat="48.76788000" lon="8.243742000">
        <ele>238.00000</ele>
        <time>2008-10-19T12:11:45Z</time>
      </trkpt>
      <trkpt lat="48.76785000" lon="8.243778000">
        <ele>244.00000</ele>
        <time>2008-10-19T12:11:45Z</time>
      </trkpt>
      <trkpt lat="48.76783000" lon="8.243817000">
        <ele>244.00000</ele>
        <time>2008-10-19T12:11:45Z</time>
      </trkpt>
      <trkpt lat="48.76780000" lon="8.243856000">
        <ele>244.00000</ele>
        <time>2008-10-19T12:11:45Z</time>
      </trkpt>
      <trkpt lat="48.76778000" lon="8.243901000">
        <ele>244.00000</ele>
        <time>2008-10-19T12:11:45Z</time>
      </trkpt>
      <trkpt lat="48.76777000" lon="8.243949000">
        <ele>244.00000</ele>
        <time>2008-10-19T12:11:45Z</time>
      </trkpt>
      <trkpt lat="48.76775000" lon="8.243996000">
        <ele>244.00000</ele>
        <time>2008-10-19T12:11:45Z</time>
      </trkpt>
      <trkpt lat="48.76773000" lon="8.244040000">
        <ele>244.00000</ele>
        <time>2008-10-19T12:11:45Z</time>
      </trkpt>
      <trkpt lat="48.76771000" lon="8.244085000">
        <ele>244.00000</ele>
        <time>2008-10-19T12:11:45Z</time>
      </trkpt>
      <trkpt lat="48.76769000" lon="8.244127000">
        <ele>244.00000</ele>
        <time>2008-10-19T12:11:45Z</time>
      </trkpt>
      <trkpt lat="48.76767000" lon="8.244174000">
        <ele>244.00000</ele>
        <time>2008-10-19T12:11:45Z</time>
      </trkpt>
      <trkpt lat="48.76765000" lon="8.244210000">
        <ele>244.00000</ele>
        <time>2008-10-19T12:11:45Z</time>
      </trkpt>
      <trkpt lat="48.76763000" lon="8.244244000">
        <ele>244.00000</ele>
        <time>2008-10-19T12:11:45Z</time>
      </trkpt>
      <trkpt lat="48.76760000" lon="8.244274000">
        <ele>244.00000</ele>
        <time>2008-10-19T12:11:45Z</time>
      </trkpt>
      <trkpt lat="48.76758000" lon="8.244305000">
        <ele>244.00000</ele>
        <time>2008-10-19T12:11:45Z</time>
      </trkpt>
      <trkpt lat="48.76756000" lon="8.244336000">
        <ele>244.00000</ele>
        <time>2008-10-19T12:11:45Z</time>
      </trkpt>
      <trkpt lat="48.76754000" lon="8.244370000">
        <ele>244.00000</ele>
        <time>2008-10-19T12:11:45Z</time>
      </trkpt>
      <trkpt lat="48.76752000" lon="8.244408000">
        <ele>244.00000</ele>
        <time>2008-10-19T12:11:45Z</time>
      </trkpt>
      <trkpt lat="48.76749000" lon="8.244445000">
        <ele>244.00000</ele>
        <time>2008-10-19T12:11:45Z</time>
      </trkpt>
      <trkpt lat="48.76747000" lon="8.244478000">
        <ele>244.00000</ele>
        <time>2008-10-19T12:11:45Z</time>
      </trkpt>
      <trkpt lat="48.76745000" lon="8.244507000">
        <ele>244.00000</ele>
        <time>2008-10-19T12:11:45Z</time>
      </trkpt>
      <trkpt lat="48.76742000" lon="8.244541000">
        <ele>244.00000</ele>
        <time>2008-10-19T12:11:45Z</time>
      </trkpt>
      <trkpt lat="48.76740000" lon="8.244578000">
        <ele>244.00000</ele>
        <time>2008-10-19T12:11:45Z</time>
      </trkpt>
      <trkpt lat="48.76738000" lon="8.244619000">
        <ele>248.00000</ele>
        <time>2008-10-19T12:11:45Z</time>
      </trkpt>
      <trkpt lat="48.76736000" lon="8.244658000">
        <ele>248.00000</ele>
        <time>2008-10-19T12:11:45Z</time>
      </trkpt>
      <trkpt lat="48.76733000" lon="8.244700000">
        <ele>248.00000</ele>
        <time>2008-10-19T12:11:45Z</time>
      </trkpt>
      <trkpt lat="48.76731000" lon="8.244739000">
        <ele>248.00000</ele>
        <time>2008-10-19T12:11:45Z</time>
      </trkpt>
      <trkpt lat="48.76728000" lon="8.244773000">
        <ele>248.00000</ele>
        <time>2008-10-19T12:11:45Z</time>
      </trkpt>
      <trkpt lat="48.76725000" lon="8.244819000">
        <ele>248.00000</ele>
        <time>2008-10-19T12:11:45Z</time>
      </trkpt>
      <trkpt lat="48.76723000" lon="8.244858000">
        <ele>248.00000</ele>
        <time>2008-10-19T12:11:45Z</time>
      </trkpt>
      <trkpt lat="48.76720000" lon="8.244893000">
        <ele>248.00000</ele>
        <time>2008-10-19T12:11:45Z</time>
      </trkpt>
      <trkpt lat="48.76718000" lon="8.244929000">
        <ele>248.00000</ele>
        <time>2008-10-19T12:11:45Z</time>
      </trkpt>
      <trkpt lat="48.76715000" lon="8.244964000">
        <ele>248.00000</ele>
        <time>2008-10-19T12:11:45Z</time>
      </trkpt>
      <trkpt lat="48.76713000" lon="8.244994000">
        <ele>248.00000</ele>
        <time>2008-10-19T12:11:45Z</time>
      </trkpt>
      <trkpt lat="48.76711000" lon="8.245028000">
        <ele>248.00000</ele>
        <time>2008-10-19T12:11:45Z</time>
      </trkpt>
      <trkpt lat="48.76708000" lon="8.245064000">
        <ele>234.00000</ele>
        <time>2008-10-19T12:11:45Z</time>
      </trkpt>
      <trkpt lat="48.76706000" lon="8.245096000">
        <ele>234.00000</ele>
        <time>2008-10-19T12:11:45Z</time>
      </trkpt>
      <trkpt lat="48.76703000" lon="8.245127000">
        <ele>234.00000</ele>
        <time>2008-10-19T12:11:45Z</time>
      </trkpt>
      <trkpt lat="48.76700000" lon="8.245162000">
        <ele>234.00000</ele>
        <time>2008-10-19T12:11:45Z</time>
      </trkpt>
      <trkpt lat="48.76698000" lon="8.245193000">
        <ele>234.00000</ele>
        <time>2008-10-19T12:11:45Z</time>
      </trkpt>
      <trkpt lat="48.76694000" lon="8.245230000">
        <ele>234.00000</ele>
        <time>2008-10-19T12:11:45Z</time>
      </trkpt>
      <trkpt lat="48.76692000" lon="8.245269000">
        <ele>234.00000</ele>
        <time>2008-10-19T12:11:45Z</time>
      </trkpt>
      <trkpt lat="48.76689000" lon="8.245296000">
        <ele>234.00000</ele>
        <time>2008-10-19T12:11:45Z</time>
      </trkpt>
      <trkpt lat="48.76686000" lon="8.245321000">
        <ele>234.00000</ele>
        <time>2008-10-19T12:11:45Z</time>
      </trkpt>
      <trkpt lat="48.76684000" lon="8.245349000">
        <ele>234.00000</ele>
        <time>2008-10-19T12:11:45Z</time>
      </trkpt>
      <trkpt lat="48.76681000" lon="8.245379000">
        <ele>234.00000</ele>
        <time>2008-10-19T12:11:45Z</time>
      </trkpt>
      <trkpt lat="48.76678000" lon="8.245405000">
        <ele>234.00000</ele>
        <time>2008-10-19T12:11:45Z</time>
      </trkpt>
      <trkpt lat="48.76675000" lon="8.245426000">
        <ele>240.00000</ele>
        <time>2008-10-19T12:11:45Z</time>
      </trkpt>
      <trkpt lat="48.76672000" lon="8.245452000">
        <ele>240.00000</ele>
        <time>2008-10-19T12:11:45Z</time>
      </trkpt>
      <trkpt lat="48.76669000" lon="8.245475000">
        <ele>240.00000</ele>
        <time>2008-10-19T12:11:45Z</time>
      </trkpt>
      <trkpt lat="48.76666000" lon="8.245489000">
        <ele>240.00000</ele>
        <time>2008-10-19T12:11:45Z</time>
      </trkpt>
      <trkpt lat="48.76663000" lon="8.245504000">
        <ele>240.00000</ele>
        <time>2008-10-19T12:11:45Z</time>
      </trkpt>
      <trkpt lat="48.76660000" lon="8.245518000">
        <ele>240.00000</ele>
        <time>2008-10-19T12:11:45Z</time>
      </trkpt>
      <trkpt lat="48.76657000" lon="8.245526000">
        <ele>240.00000</ele>
        <time>2008-10-19T12:11:45Z</time>
      </trkpt>
      <trkpt lat="48.76653000" lon="8.245541000">
        <ele>240.00000</ele>
        <time>2008-10-19T12:11:45Z</time>
      </trkpt>
      <trkpt lat="48.76650000" lon="8.245554000">
        <ele>240.00000</ele>
        <time>2008-10-19T12:11:45Z</time>
      </trkpt>
      <trkpt lat="48.76648000" lon="8.245566000">
        <ele>240.00000</ele>
        <time>2008-10-19T12:11:45Z</time>
      </trkpt>
      <trkpt lat="48.76645000" lon="8.245578000">
        <ele>240.00000</ele>
        <time>2008-10-19T12:11:45Z</time>
      </trkpt>
      <trkpt lat="48.76641000" lon="8.245581000">
        <ele>240.00000</ele>
        <time>2008-10-19T12:11:45Z</time>
      </trkpt>
      <trkpt lat="48.76638000" lon="8.245586000">
        <ele>240.00000</ele>
        <time>2008-10-19T12:11:45Z</time>
      </trkpt>
      <trkpt lat="48.76635000" lon="8.245594000">
        <ele>240.00000</ele>
        <time>2008-10-19T12:11:45Z</time>
      </trkpt>
      <trkpt lat="48.76632000" lon="8.245598000">
        <ele>240.00000</ele>
        <time>2008-10-19T12:11:45Z</time>
      </trkpt>
      <trkpt lat="48.76629000" lon="8.245601000">
        <ele>240.00000</ele>
        <time>2008-10-19T12:11:45Z</time>
      </trkpt>
      <trkpt lat="48.76626000" lon="8.245601000">
        <ele>240.00000</ele>
        <time>2008-10-19T12:11:45Z</time>
      </trkpt>
      <trkpt lat="48.76623000" lon="8.245602000">
        <ele>226.00000</ele>
        <time>2008-10-19T12:11:45Z</time>
      </trkpt>
      <trkpt lat="48.76620000" lon="8.245605000">
        <ele>226.00000</ele>
        <time>2008-10-19T12:11:45Z</time>
      </trkpt>
      <trkpt lat="48.76617000" lon="8.245607000">
        <ele>226.00000</ele>
        <time>2008-10-19T12:11:45Z</time>
      </trkpt>
      <trkpt lat="48.76614000" lon="8.245608000">
        <ele>226.00000</ele>
        <time>2008-10-19T12:11:45Z</time>
      </trkpt>
      <trkpt lat="48.76611000" lon="8.245605000">
        <ele>226.00000</ele>
        <time>2008-10-19T12:11:45Z</time>
      </trkpt>
      <trkpt lat="48.76608000" lon="8.245592000">
        <ele>226.00000</ele>
        <time>2008-10-19T12:11:45Z</time>
      </trkpt>
      <trkpt lat="48.76604000" lon="8.245583000">
        <ele>226.00000</ele>
        <time>2008-10-19T12:11:45Z</time>
      </trkpt>
      <trkpt lat="48.76601000" lon="8.245567000">
        <ele>226.00000</ele>
        <time>2008-10-19T12:11:45Z</time>
      </trkpt>
      <trkpt lat="48.76598000" lon="8.245543000">
        <ele>226.00000</ele>
        <time>2008-10-19T12:11:45Z</time>
      </trkpt>
      <trkpt lat="48.76595000" lon="8.245519000">
        <ele>226.00000</ele>
        <time>2008-10-19T12:11:45Z</time>
      </trkpt>
      <trkpt lat="48.76593000" lon="8.245487000">
        <ele>226.00000</ele>
        <time>2008-10-19T12:11:45Z</time>
      </trkpt>
      <trkpt lat="48.76590000" lon="8.245464000">
        <ele>226.00000</ele>
        <time>2008-10-19T12:11:45Z</time>
      </trkpt>
      <trkpt lat="48.76587000" lon="8.245462000">
        <ele>226.00000</ele>
        <time>2008-10-19T12:11:45Z</time>
      </trkpt>
      <trkpt lat="48.76583000" lon="8.245478000">
        <ele>226.00000</ele>
        <time>2008-10-19T12:11:45Z</time>
      </trkpt>
      <trkpt lat="48.76580000" lon="8.245496000">
        <ele>226.00000</ele>
        <time>2008-10-19T12:11:45Z</time>
      </trkpt>
      <trkpt lat="48.76577000" lon="8.245512000">
        <ele>226.00000</ele>
        <time>2008-10-19T12:11:45Z</time>
      </trkpt>
      <trkpt lat="48.76574000" lon="8.245520000">
        <ele>226.00000</ele>
        <time>2008-10-19T12:11:45Z</time>
      </trkpt>
      <trkpt lat="48.76571000" lon="8.245522000">
        <ele>226.00000</ele>
        <time>2008-10-19T12:11:45Z</time>
      </trkpt>
      <trkpt lat="48.76568000" lon="8.245521000">
        <ele>226.00000</ele>
        <time>2008-10-19T12:11:45Z</time>
      </trkpt>
      <trkpt lat="48.76565000" lon="8.245518000">
        <ele>226.00000</ele>
        <time>2008-10-19T12:11:45Z</time>
      </trkpt>
      <trkpt lat="48.76561000" lon="8.245522000">
        <ele>226.00000</ele>
        <time>2008-10-19T12:11:45Z</time>
      </trkpt>
      <trkpt lat="48.76559000" lon="8.245542000">
        <ele>226.00000</ele>
        <time>2008-10-19T12:11:45Z</time>
      </trkpt>
      <trkpt lat="48.76556000" lon="8.245567000">
        <ele>226.00000</ele>
        <time>2008-10-19T12:11:45Z</time>
      </trkpt>
      <trkpt lat="48.76554000" lon="8.245596000">
        <ele>226.00000</ele>
        <time>2008-10-19T12:11:45Z</time>
      </trkpt>
      <trkpt lat="48.76554000" lon="8.245618000">
        <ele>226.00000</ele>
        <time>2008-10-19T12:11:45Z</time>
      </trkpt>
      <trkpt lat="48.76554000" lon="8.245630000">
        <ele>226.00000</ele>
        <time>2008-10-19T12:11:45Z</time>
      </trkpt>
      <trkpt lat="48.76555000" lon="8.245644000">
        <ele>226.00000</ele>
        <time>2008-10-19T12:11:45Z</time>
      </trkpt>
      <trkpt lat="48.76556000" lon="8.245657000">
        <ele>226.00000</ele>
        <time>2008-10-19T12:11:45Z</time>
      </trkpt>
      <trkpt lat="48.76557000" lon="8.245670000">
        <ele>226.00000</ele>
        <time>2008-10-19T12:11:45Z</time>
      </trkpt>
      <trkpt lat="48.76558000" lon="8.245683000">
        <ele>226.00000</ele>
        <time>2008-10-19T12:11:45Z</time>
      </trkpt>
      <trkpt lat="48.76559000" lon="8.245694000">
        <ele>226.00000</ele>
        <time>2008-10-19T12:11:45Z</time>
      </trkpt>
      <trkpt lat="48.76559000" lon="8.245710000">
        <ele>226.00000</ele>
        <time>2008-10-19T12:11:45Z</time>
      </trkpt>
      <trkpt lat="48.76559000" lon="8.245729000">
        <ele>226.00000</ele>
        <time>2008-10-19T12:11:45Z</time>
      </trkpt>
      <trkpt lat="48.76559000" lon="8.245762000">
        <ele>226.00000</ele>
        <time>2008-10-19T12:11:45Z</time>
      </trkpt>
      <trkpt lat="48.76558000" lon="8.245793000">
        <ele>226.00000</ele>
        <time>2008-10-19T12:11:45Z</time>
      </trkpt>
      <trkpt lat="48.76558000" lon="8.245827000">
        <ele>226.00000</ele>
        <time>2008-10-19T12:11:45Z</time>
      </trkpt>
      <trkpt lat="48.76557000" lon="8.245867000">
        <ele>226.00000</ele>
        <time>2008-10-19T12:11:45Z</time>
      </trkpt>
      <trkpt lat="48.76557000" lon="8.245906000">
        <ele>226.00000</ele>
        <time>2008-10-19T12:11:45Z</time>
      </trkpt>
      <trkpt lat="48.76556000" lon="8.245944000">
        <ele>226.00000</ele>
        <time>2008-10-19T12:11:45Z</time>
      </trkpt>
      <trkpt lat="48.76557000" lon="8.245996000">
        <ele>226.00000</ele>
        <time>2008-10-19T12:11:45Z</time>
      </trkpt>
      <trkpt lat="48.76557000" lon="8.246045000">
        <ele>226.00000</ele>
        <time>2008-10-19T12:11:45Z</time>
      </trkpt>
      <trkpt lat="48.76558000" lon="8.246089000">
        <ele>226.00000</ele>
        <time>2008-10-19T12:11:45Z</time>
      </trkpt>
      <trkpt lat="48.76559000" lon="8.246130000">
        <ele>226.00000</ele>
        <time>2008-10-19T12:11:45Z</time>
      </trkpt>
      <trkpt lat="48.76560000" lon="8.246174000">
        <ele>226.00000</ele>
        <time>2008-10-19T12:11:45Z</time>
      </trkpt>
      <trkpt lat="48.76560000" lon="8.246226000">
        <ele>226.00000</ele>
        <time>2008-10-19T12:11:45Z</time>
      </trkpt>
      <trkpt lat="48.76560000" lon="8.246274000">
        <ele>222.00000</ele>
        <time>2008-10-19T12:11:45Z</time>
      </trkpt>
      <trkpt lat="48.76561000" lon="8.246315000">
        <ele>222.00000</ele>
        <time>2008-10-19T12:11:45Z</time>
      </trkpt>
      <trkpt lat="48.76563000" lon="8.246364000">
        <ele>222.00000</ele>
        <time>2008-10-19T12:11:45Z</time>
      </trkpt>
      <trkpt lat="48.76564000" lon="8.246411000">
        <ele>222.00000</ele>
        <time>2008-10-19T12:11:45Z</time>
      </trkpt>
      <trkpt lat="48.76564000" lon="8.246455000">
        <ele>222.00000</ele>
        <time>2008-10-19T12:11:45Z</time>
      </trkpt>
      <trkpt lat="48.76565000" lon="8.246497000">
        <ele>222.00000</ele>
        <time>2008-10-19T12:11:45Z</time>
      </trkpt>
      <trkpt lat="48.76565000" lon="8.246540000">
        <ele>222.00000</ele>
        <time>2008-10-19T12:11:45Z</time>
      </trkpt>
      <trkpt lat="48.76565000" lon="8.246584000">
        <ele>222.00000</ele>
        <time>2008-10-19T12:11:45Z</time>
      </trkpt>
      <trkpt lat="48.76566000" lon="8.246629000">
        <ele>222.00000</ele>
        <time>2008-10-19T12:11:45Z</time>
      </trkpt>
      <trkpt lat="48.76566000" lon="8.246678000">
        <ele>222.00000</ele>
        <time>2008-10-19T12:11:45Z</time>
      </trkpt>
      <trkpt lat="48.76566000" lon="8.246728000">
        <ele>222.00000</ele>
        <time>2008-10-19T12:11:45Z</time>
      </trkpt>
      <trkpt lat="48.76566000" lon="8.246776000">
        <ele>222.00000</ele>
        <time>2008-10-19T12:11:45Z</time>
      </trkpt>
      <trkpt lat="48.76567000" lon="8.246816000">
        <ele>222.00000</ele>
        <time>2008-10-19T12:11:45Z</time>
      </trkpt>
      <trkpt lat="48.76569000" lon="8.246864000">
        <ele>222.00000</ele>
        <time>2008-10-19T12:11:45Z</time>
      </trkpt>
      <trkpt lat="48.76571000" lon="8.246922000">
        <ele>222.00000</ele>
        <time>2008-10-19T12:11:45Z</time>
      </trkpt>
      <trkpt lat="48.76572000" lon="8.246971000">
        <ele>222.00000</ele>
        <time>2008-10-19T12:11:45Z</time>
      </trkpt>
      <trkpt lat="48.76573000" lon="8.247012000">
        <ele>222.00000</ele>
        <time>2008-10-19T12:11:45Z</time>
      </trkpt>
      <trkpt lat="48.76574000" lon="8.247053000">
        <ele>222.00000</ele>
        <time>2008-10-19T12:11:45Z</time>
      </trkpt>
      <trkpt lat="48.76574000" lon="8.247099000">
        <ele>216.00000</ele>
        <time>2008-10-19T12:11:45Z</time>
      </trkpt>
      <trkpt lat="48.76574000" lon="8.247149000">
        <ele>216.00000</ele>
        <time>2008-10-19T12:11:45Z</time>
      </trkpt>
      <trkpt lat="48.76573000" lon="8.247198000">
        <ele>216.00000</ele>
        <time>2008-10-19T12:11:45Z</time>
      </trkpt>
      <trkpt lat="48.76574000" lon="8.247243000">
        <ele>216.00000</ele>
        <time>2008-10-19T12:11:45Z</time>
      </trkpt>
      <trkpt lat="48.76575000" lon="8.247285000">
        <ele>216.00000</ele>
        <time>2008-10-19T12:11:45Z</time>
      </trkpt>
      <trkpt lat="48.76576000" lon="8.247328000">
        <ele>216.00000</ele>
        <time>2008-10-19T12:11:45Z</time>
      </trkpt>
      <trkpt lat="48.76576000" lon="8.247374000">
        <ele>216.00000</ele>
        <time>2008-10-19T12:11:45Z</time>
      </trkpt>
      <trkpt lat="48.76577000" lon="8.247419000">
        <ele>216.00000</ele>
        <time>2008-10-19T12:11:45Z</time>
      </trkpt>
      <trkpt lat="48.76577000" lon="8.247471000">
        <ele>216.00000</ele>
        <time>2008-10-19T12:11:45Z</time>
      </trkpt>
      <trkpt lat="48.76576000" lon="8.247521000">
        <ele>216.00000</ele>
        <time>2008-10-19T12:11:45Z</time>
      </trkpt>
      <trkpt lat="48.76578000" lon="8.247559000">
        <ele>216.00000</ele>
        <time>2008-10-19T12:11:45Z</time>
      </trkpt>
      <trkpt lat="48.76579000" lon="8.247609000">
        <ele>216.00000</ele>
        <time>2008-10-19T12:11:45Z</time>
      </trkpt>
      <trkpt lat="48.76580000" lon="8.247656000">
        <ele>216.00000</ele>
        <time>2008-10-19T12:11:45Z</time>
      </trkpt>
      <trkpt lat="48.76580000" lon="8.247705000">
        <ele>216.00000</ele>
        <time>2008-10-19T12:11:45Z</time>
      </trkpt>
      <trkpt lat="48.76580000" lon="8.247750000">
        <ele>216.00000</ele>
        <time>2008-10-19T12:11:45Z</time>
      </trkpt>
      <trkpt lat="48.76581000" lon="8.247792000">
        <ele>216.00000</ele>
        <time>2008-10-19T12:11:45Z</time>
      </trkpt>
      <trkpt lat="48.76582000" lon="8.247838000">
        <ele>216.00000</ele>
        <time>2008-10-19T12:11:45Z</time>
      </trkpt>
      <trkpt lat="48.76583000" lon="8.247878000">
        <ele>216.00000</ele>
        <time>2008-10-19T12:11:45Z</time>
      </trkpt>
      <trkpt lat="48.76585000" lon="8.247919000">
        <ele>208.00000</ele>
        <time>2008-10-19T12:11:45Z</time>
      </trkpt>
      <trkpt lat="48.76587000" lon="8.247964000">
        <ele>208.00000</ele>
        <time>2008-10-19T12:11:45Z</time>
      </trkpt>
      <trkpt lat="48.76588000" lon="8.248008000">
        <ele>208.00000</ele>
        <time>2008-10-19T12:11:45Z</time>
      </trkpt>
      <trkpt lat="48.76588000" lon="8.248055000">
        <ele>208.00000</ele>
        <time>2008-10-19T12:11:45Z</time>
      </trkpt>
      <trkpt lat="48.76588000" lon="8.248108000">
        <ele>208.00000</ele>
        <time>2008-10-19T12:11:45Z</time>
      </trkpt>
      <trkpt lat="48.76588000" lon="8.248159000">
        <ele>208.00000</ele>
        <time>2008-10-19T12:11:45Z</time>
      </trkpt>
      <trkpt lat="48.76590000" lon="8.248203000">
        <ele>208.00000</ele>
        <time>2008-10-19T12:11:45Z</time>
      </trkpt>
      <trkpt lat="48.76591000" lon="8.248248000">
        <ele>208.00000</ele>
        <time>2008-10-19T12:11:45Z</time>
      </trkpt>
      <trkpt lat="48.76593000" lon="8.248302000">
        <ele>208.00000</ele>
        <time>2008-10-19T12:11:45Z</time>
      </trkpt>
      <trkpt lat="48.76594000" lon="8.248364000">
        <ele>208.00000</ele>
        <time>2008-10-19T12:11:45Z</time>
      </trkpt>
      <trkpt lat="48.76596000" lon="8.248415000">
        <ele>208.00000</ele>
        <time>2008-10-19T12:11:45Z</time>
      </trkpt>
      <trkpt lat="48.76597000" lon="8.248466000">
        <ele>208.00000</ele>
        <time>2008-10-19T12:11:45Z</time>
      </trkpt>
      <trkpt lat="48.76598000" lon="8.248517000">
        <ele>208.00000</ele>
        <time>2008-10-19T12:11:45Z</time>
      </trkpt>
      <trkpt lat="48.76598000" lon="8.248576000">
        <ele>208.00000</ele>
        <time>2008-10-19T12:11:45Z</time>
      </trkpt>
      <trkpt lat="48.76598000" lon="8.248625000">
        <ele>208.00000</ele>
        <time>2008-10-19T12:11:45Z</time>
      </trkpt>
      <trkpt lat="48.76600000" lon="8.248675000">
        <ele>208.00000</ele>
        <time>2008-10-19T12:11:45Z</time>
      </trkpt>
      <trkpt lat="48.76601000" lon="8.248724000">
        <ele>208.00000</ele>
        <time>2008-10-19T12:11:45Z</time>
      </trkpt>
      <trkpt lat="48.76601000" lon="8.248765000">
        <ele>199.00000</ele>
        <time>2008-10-19T12:11:45Z</time>
      </trkpt>
      <trkpt lat="48.76600000" lon="8.248798000">
        <ele>199.00000</ele>
        <time>2008-10-19T12:11:45Z</time>
      </trkpt>
      <trkpt lat="48.76598000" lon="8.248825000">
        <ele>199.00000</ele>
        <time>2008-10-19T12:11:45Z</time>
      </trkpt>
      <trkpt lat="48.76595000" lon="8.248825000">
        <ele>199.00000</ele>
        <time>2008-10-19T12:11:45Z</time>
      </trkpt>
      <trkpt lat="48.76594000" lon="8.248795000">
        <ele>199.00000</ele>
        <time>2008-10-19T12:11:45Z</time>
      </trkpt>
      <trkpt lat="48.76593000" lon="8.248754000">
        <ele>199.00000</ele>
        <time>2008-10-19T12:11:45Z</time>
      </trkpt>
      <trkpt lat="48.76593000" lon="8.248715000">
        <ele>208.00000</ele>
        <time>2008-10-19T12:11:45Z</time>
      </trkpt>
      <trkpt lat="48.76592000" lon="8.248679000">
        <ele>208.00000</ele>
        <time>2008-10-19T12:11:45Z</time>
      </trkpt>
      <trkpt lat="48.76591000" lon="8.248640000">
        <ele>208.00000</ele>
        <time>2008-10-19T12:11:45Z</time>
      </trkpt>
      <trkpt lat="48.76589000" lon="8.248604000">
        <ele>208.00000</ele>
        <time>2008-10-19T12:11:45Z</time>
      </trkpt>
      <trkpt lat="48.76588000" lon="8.248570000">
        <ele>208.00000</ele>
        <time>2008-10-19T12:11:45Z</time>
      </trkpt>
      <trkpt lat="48.76586000" lon="8.248536000">
        <ele>208.00000</ele>
        <time>2008-10-19T12:11:45Z</time>
      </trkpt>
      <trkpt lat="48.76585000" lon="8.248497000">
        <ele>208.00000</ele>
        <time>2008-10-19T12:11:45Z</time>
      </trkpt>
      <trkpt lat="48.76583000" lon="8.248462000">
        <ele>208.00000</ele>
        <time>2008-10-19T12:11:45Z</time>
      </trkpt>
      <trkpt lat="48.76582000" lon="8.248424000">
        <ele>208.00000</ele>
        <time>2008-10-19T12:11:45Z</time>
      </trkpt>
      <trkpt lat="48.76581000" lon="8.248388000">
        <ele>208.00000</ele>
        <time>2008-10-19T12:11:45Z</time>
      </trkpt>
      <trkpt lat="48.76579000" lon="8.248350000">
        <ele>208.00000</ele>
        <time>2008-10-19T12:11:45Z</time>
      </trkpt>
      <trkpt lat="48.76577000" lon="8.248312000">
        <ele>208.00000</ele>
        <time>2008-10-19T12:11:45Z</time>
      </trkpt>
      <trkpt lat="48.76575000" lon="8.248274000">
        <ele>208.00000</ele>
        <time>2008-10-19T12:11:45Z</time>
      </trkpt>
      <trkpt lat="48.76574000" lon="8.248237000">
        <ele>208.00000</ele>
        <time>2008-10-19T12:11:45Z</time>
      </trkpt>
      <trkpt lat="48.76572000" lon="8.248203000">
        <ele>208.00000</ele>
        <time>2008-10-19T12:11:45Z</time>
      </trkpt>
      <trkpt lat="48.76569000" lon="8.248159000">
        <ele>208.00000</ele>
        <time>2008-10-19T12:11:45Z</time>
      </trkpt>
      <trkpt lat="48.76567000" lon="8.248112000">
        <ele>208.00000</ele>
        <time>2008-10-19T12:11:45Z</time>
      </trkpt>
      <trkpt lat="48.76566000" lon="8.248070000">
        <ele>208.00000</ele>
        <time>2008-10-19T12:11:45Z</time>
      </trkpt>
      <trkpt lat="48.76564000" lon="8.248029000">
        <ele>208.00000</ele>
        <time>2008-10-19T12:11:45Z</time>
      </trkpt>
      <trkpt lat="48.76563000" lon="8.247985000">
        <ele>208.00000</ele>
        <time>2008-10-19T12:11:45Z</time>
      </trkpt>
      <trkpt lat="48.76562000" lon="8.247947000">
        <ele>208.00000</ele>
        <time>2008-10-19T12:11:45Z</time>
      </trkpt>
      <trkpt lat="48.76560000" lon="8.247913000">
        <ele>216.00000</ele>
        <time>2008-10-19T12:11:45Z</time>
      </trkpt>
      <trkpt lat="48.76559000" lon="8.247878000">
        <ele>216.00000</ele>
        <time>2008-10-19T12:11:45Z</time>
      </trkpt>
      <trkpt lat="48.76558000" lon="8.247845000">
        <ele>216.00000</ele>
        <time>2008-10-19T12:11:45Z</time>
      </trkpt>
      <trkpt lat="48.76556000" lon="8.247813000">
        <ele>216.00000</ele>
        <time>2008-10-19T12:11:45Z</time>
      </trkpt>
      <trkpt lat="48.76554000" lon="8.247781000">
        <ele>216.00000</ele>
        <time>2008-10-19T12:11:45Z</time>
      </trkpt>
      <trkpt lat="48.76551000" lon="8.247752000">
        <ele>216.00000</ele>
        <time>2008-10-19T12:11:45Z</time>
      </trkpt>
      <trkpt lat="48.76549000" lon="8.247716000">
        <ele>216.00000</ele>
        <time>2008-10-19T12:11:45Z</time>
      </trkpt>
      <trkpt lat="48.76547000" lon="8.247674000">
        <ele>216.00000</ele>
        <time>2008-10-19T12:11:45Z</time>
      </trkpt>
      <trkpt lat="48.76545000" lon="8.247632000">
        <ele>216.00000</ele>
        <time>2008-10-19T12:11:45Z</time>
      </trkpt>
      <trkpt lat="48.76543000" lon="8.247596000">
        <ele>216.00000</ele>
        <time>2008-10-19T12:11:45Z</time>
      </trkpt>
      <trkpt lat="48.76541000" lon="8.247564000">
        <ele>194.00000</ele>
        <time>2008-10-19T12:11:45Z</time>
      </trkpt>
      <trkpt lat="48.76538000" lon="8.247539000">
        <ele>194.00000</ele>
        <time>2008-10-19T12:11:45Z</time>
      </trkpt>
      <trkpt lat="48.76535000" lon="8.247507000">
        <ele>194.00000</ele>
        <time>2008-10-19T12:11:45Z</time>
      </trkpt>
      <trkpt lat="48.76533000" lon="8.247476000">
        <ele>194.00000</ele>
        <time>2008-10-19T12:11:45Z</time>
      </trkpt>
      <trkpt lat="48.76531000" lon="8.247441000">
        <ele>194.00000</ele>
        <time>2008-10-19T12:11:45Z</time>
      </trkpt>
      <trkpt lat="48.76529000" lon="8.247407000">
        <ele>194.00000</ele>
        <time>2008-10-19T12:11:45Z</time>
      </trkpt>
      <trkpt lat="48.76526000" lon="8.247382000">
        <ele>194.00000</ele>
        <time>2008-10-19T12:11:45Z</time>
      </trkpt>
      <trkpt lat="48.76523000" lon="8.247361000">
        <ele>194.00000</ele>
        <time>2008-10-19T12:11:45Z</time>
      </trkpt>
      <trkpt lat="48.76521000" lon="8.247337000">
        <ele>194.00000</ele>
        <time>2008-10-19T12:11:45Z</time>
      </trkpt>
      <trkpt lat="48.76518000" lon="8.247313000">
        <ele>194.00000</ele>
        <time>2008-10-19T12:11:45Z</time>
      </trkpt>
      <trkpt lat="48.76515000" lon="8.247290000">
        <ele>194.00000</ele>
        <time>2008-10-19T12:11:45Z</time>
      </trkpt>
      <trkpt lat="48.76512000" lon="8.247270000">
        <ele>194.00000</ele>
        <time>2008-10-19T12:11:45Z</time>
      </trkpt>
      <trkpt lat="48.76509000" lon="8.247250000">
        <ele>194.00000</ele>
        <time>2008-10-19T12:11:45Z</time>
      </trkpt>
      <trkpt lat="48.76506000" lon="8.247232000">
        <ele>194.00000</ele>
        <time>2008-10-19T12:11:45Z</time>
      </trkpt>
      <trkpt lat="48.76504000" lon="8.247209000">
        <ele>194.00000</ele>
        <time>2008-10-19T12:11:45Z</time>
      </trkpt>
      <trkpt lat="48.76501000" lon="8.247182000">
        <ele>194.00000</ele>
        <time>2008-10-19T12:11:45Z</time>
      </trkpt>
      <trkpt lat="48.76498000" lon="8.247163000">
        <ele>194.00000</ele>
        <time>2008-10-19T12:11:45Z</time>
      </trkpt>
      <trkpt lat="48.76495000" lon="8.247145000">
        <ele>194.00000</ele>
        <time>2008-10-19T12:11:45Z</time>
      </trkpt>
      <trkpt lat="48.76492000" lon="8.247119000">
        <ele>194.00000</ele>
        <time>2008-10-19T12:11:45Z</time>
      </trkpt>
      <trkpt lat="48.76488000" lon="8.247095000">
        <ele>194.00000</ele>
        <time>2008-10-19T12:11:45Z</time>
      </trkpt>
      <trkpt lat="48.76486000" lon="8.247066000">
        <ele>206.00000</ele>
        <time>2008-10-19T12:11:45Z</time>
      </trkpt>
      <trkpt lat="48.76484000" lon="8.247044000">
        <ele>206.00000</ele>
        <time>2008-10-19T12:11:45Z</time>
      </trkpt>
      <trkpt lat="48.76482000" lon="8.247016000">
        <ele>206.00000</ele>
        <time>2008-10-19T12:11:45Z</time>
      </trkpt>
      <trkpt lat="48.76480000" lon="8.246984000">
        <ele>206.00000</ele>
        <time>2008-10-19T12:11:45Z</time>
      </trkpt>
      <trkpt lat="48.76477000" lon="8.246955000">
        <ele>206.00000</ele>
        <time>2008-10-19T12:11:45Z</time>
      </trkpt>
      <trkpt lat="48.76474000" lon="8.246933000">
        <ele>206.00000</ele>
        <time>2008-10-19T12:11:45Z</time>
      </trkpt>
      <trkpt lat="48.76470000" lon="8.246911000">
        <ele>206.00000</ele>
        <time>2008-10-19T12:11:45Z</time>
      </trkpt>
      <trkpt lat="48.76466000" lon="8.246887000">
        <ele>206.00000</ele>
        <time>2008-10-19T12:11:45Z</time>
      </trkpt>
      <trkpt lat="48.76464000" lon="8.246856000">
        <ele>206.00000</ele>
        <time>2008-10-19T12:11:45Z</time>
      </trkpt>
      <trkpt lat="48.76461000" lon="8.246825000">
        <ele>206.00000</ele>
        <time>2008-10-19T12:11:45Z</time>
      </trkpt>
      <trkpt lat="48.76459000" lon="8.246792000">
        <ele>206.00000</ele>
        <time>2008-10-19T12:11:45Z</time>
      </trkpt>
      <trkpt lat="48.76457000" lon="8.246752000">
        <ele>187.00000</ele>
        <time>2008-10-19T12:11:45Z</time>
      </trkpt>
      <trkpt lat="48.76455000" lon="8.246707000">
        <ele>187.00000</ele>
        <time>2008-10-19T12:11:45Z</time>
      </trkpt>
      <trkpt lat="48.76454000" lon="8.246666000">
        <ele>187.00000</ele>
        <time>2008-10-19T12:11:45Z</time>
      </trkpt>
      <trkpt lat="48.76452000" lon="8.246632000">
        <ele>187.00000</ele>
        <time>2008-10-19T12:11:45Z</time>
      </trkpt>
      <trkpt lat="48.76450000" lon="8.246595000">
        <ele>187.00000</ele>
        <time>2008-10-19T12:11:45Z</time>
      </trkpt>
      <trkpt lat="48.76449000" lon="8.246556000">
        <ele>187.00000</ele>
        <time>2008-10-19T12:11:45Z</time>
      </trkpt>
      <trkpt lat="48.76447000" lon="8.246514000">
        <ele>187.00000</ele>
        <time>2008-10-19T12:11:45Z</time>
      </trkpt>
      <trkpt lat="48.76445000" lon="8.246467000">
        <ele>187.00000</ele>
        <time>2008-10-19T12:11:45Z</time>
      </trkpt>
      <trkpt lat="48.76443000" lon="8.246420000">
        <ele>187.00000</ele>
        <time>2008-10-19T12:11:45Z</time>
      </trkpt>
      <trkpt lat="48.76441000" lon="8.246379000">
        <ele>187.00000</ele>
        <time>2008-10-19T12:11:45Z</time>
      </trkpt>
      <trkpt lat="48.76440000" lon="8.246344000">
        <ele>187.00000</ele>
        <time>2008-10-19T12:11:45Z</time>
      </trkpt>
      <trkpt lat="48.76439000" lon="8.246304000">
        <ele>187.00000</ele>
        <time>2008-10-19T12:11:45Z</time>
      </trkpt>
      <trkpt lat="48.76439000" lon="8.246260000">
        <ele>187.00000</ele>
        <time>2008-10-19T12:11:45Z</time>
      </trkpt>
      <trkpt lat="48.76438000" lon="8.246214000">
        <ele>187.00000</ele>
        <time>2008-10-19T12:11:45Z</time>
      </trkpt>
      <trkpt lat="48.76437000" lon="8.246172000">
        <ele>187.00000</ele>
        <time>2008-10-19T12:11:45Z</time>
      </trkpt>
      <trkpt lat="48.76436000" lon="8.246125000">
        <ele>187.00000</ele>
        <time>2008-10-19T12:11:45Z</time>
      </trkpt>
      <trkpt lat="48.76436000" lon="8.246070000">
        <ele>187.00000</ele>
        <time>2008-10-19T12:11:45Z</time>
      </trkpt>
      <trkpt lat="48.76436000" lon="8.246016000">
        <ele>187.00000</ele>
        <time>2008-10-19T12:11:45Z</time>
      </trkpt>
      <trkpt lat="48.76436000" lon="8.245963000">
        <ele>187.00000</ele>
        <time>2008-10-19T12:11:45Z</time>
      </trkpt>
      <trkpt lat="48.76435000" lon="8.245910000">
        <ele>187.00000</ele>
        <time>2008-10-19T12:11:45Z</time>
      </trkpt>
      <trkpt lat="48.76435000" lon="8.245853000">
        <ele>187.00000</ele>
        <time>2008-10-19T12:11:45Z</time>
      </trkpt>
      <trkpt lat="48.76435000" lon="8.245801000">
        <ele>187.00000</ele>
        <time>2008-10-19T12:11:45Z</time>
      </trkpt>
      <trkpt lat="48.76434000" lon="8.245750000">
        <ele>187.00000</ele>
        <time>2008-10-19T12:11:45Z</time>
      </trkpt>
      <trkpt lat="48.76433000" lon="8.245704000">
        <ele>187.00000</ele>
        <time>2008-10-19T12:11:45Z</time>
      </trkpt>
      <trkpt lat="48.76431000" lon="8.245661000">
        <ele>187.00000</ele>
        <time>2008-10-19T12:11:45Z</time>
      </trkpt>
      <trkpt lat="48.76430000" lon="8.245615000">
        <ele>187.00000</ele>
        <time>2008-10-19T12:11:45Z</time>
      </trkpt>
      <trkpt lat="48.76428000" lon="8.245572000">
        <ele>187.00000</ele>
        <time>2008-10-19T12:11:45Z</time>
      </trkpt>
      <trkpt lat="48.76427000" lon="8.245531000">
        <ele>187.00000</ele>
        <time>2008-10-19T12:11:45Z</time>
      </trkpt>
      <trkpt lat="48.76425000" lon="8.245482000">
        <ele>187.00000</ele>
        <time>2008-10-19T12:11:45Z</time>
      </trkpt>
      <trkpt lat="48.76424000" lon="8.245436000">
        <ele>187.00000</ele>
        <time>2008-10-19T12:11:45Z</time>
      </trkpt>
      <trkpt lat="48.76422000" lon="8.245394000">
        <ele>185.00000</ele>
        <time>2008-10-19T12:11:45Z</time>
      </trkpt>
      <trkpt lat="48.76420000" lon="8.245352000">
        <ele>185.00000</ele>
        <time>2008-10-19T12:11:45Z</time>
      </trkpt>
      <trkpt lat="48.76418000" lon="8.245316000">
        <ele>185.00000</ele>
        <time>2008-10-19T12:11:45Z</time>
      </trkpt>
      <trkpt lat="48.76416000" lon="8.245277000">
        <ele>185.00000</ele>
        <time>2008-10-19T12:11:45Z</time>
      </trkpt>
      <trkpt lat="48.76413000" lon="8.245235000">
        <ele>185.00000</ele>
        <time>2008-10-19T12:11:45Z</time>
      </trkpt>
      <trkpt lat="48.76411000" lon="8.245196000">
        <ele>185.00000</ele>
        <time>2008-10-19T12:11:45Z</time>
      </trkpt>
      <trkpt lat="48.76409000" lon="8.245158000">
        <ele>185.00000</ele>
        <time>2008-10-19T12:11:45Z</time>
      </trkpt>
      <trkpt lat="48.76406000" lon="8.245121000">
        <ele>185.00000</ele>
        <time>2008-10-19T12:11:45Z</time>
      </trkpt>
      <trkpt lat="48.76404000" lon="8.245085000">
        <ele>185.00000</ele>
        <time>2008-10-19T12:11:45Z</time>
      </trkpt>
      <trkpt lat="48.76402000" lon="8.245045000">
        <ele>185.00000</ele>
        <time>2008-10-19T12:11:45Z</time>
      </trkpt>
      <trkpt lat="48.76401000" lon="8.245001000">
        <ele>185.00000</ele>
        <time>2008-10-19T12:11:45Z</time>
      </trkpt>
      <trkpt lat="48.76400000" lon="8.244946000">
        <ele>185.00000</ele>
        <time>2008-10-19T12:11:45Z</time>
      </trkpt>
      <trkpt lat="48.76399000" lon="8.244898000">
        <ele>185.00000</ele>
        <time>2008-10-19T12:11:45Z</time>
      </trkpt>
      <trkpt lat="48.76398000" lon="8.244854000">
        <ele>185.00000</ele>
        <time>2008-10-19T12:11:45Z</time>
      </trkpt>
      <trkpt lat="48.76397000" lon="8.244802000">
        <ele>185.00000</ele>
        <time>2008-10-19T12:11:45Z</time>
      </trkpt>
      <trkpt lat="48.76395000" lon="8.244755000">
        <ele>185.00000</ele>
        <time>2008-10-19T12:11:45Z</time>
      </trkpt>
      <trkpt lat="48.76393000" lon="8.244702000">
        <ele>185.00000</ele>
        <time>2008-10-19T12:11:45Z</time>
      </trkpt>
      <trkpt lat="48.76392000" lon="8.244658000">
        <ele>185.00000</ele>
        <time>2008-10-19T12:11:45Z</time>
      </trkpt>
      <trkpt lat="48.76392000" lon="8.244615000">
        <ele>185.00000</ele>
        <time>2008-10-19T12:11:45Z</time>
      </trkpt>
      <trkpt lat="48.76391000" lon="8.244575000">
        <ele>189.00000</ele>
        <time>2008-10-19T12:11:45Z</time>
      </trkpt>
      <trkpt lat="48.76391000" lon="8.244531000">
        <ele>189.00000</ele>
        <time>2008-10-19T12:11:45Z</time>
      </trkpt>
      <trkpt lat="48.76394000" lon="8.244488000">
        <ele>189.00000</ele>
        <time>2008-10-19T12:11:45Z</time>
      </trkpt>
      <trkpt lat="48.76397000" lon="8.244440000">
        <ele>189.00000</ele>
        <time>2008-10-19T12:11:45Z</time>
      </trkpt>
      <trkpt lat="48.76398000" lon="8.244395000">
        <ele>189.00000</ele>
        <time>2008-10-19T12:11:45Z</time>
      </trkpt>
      <trkpt lat="48.76396000" lon="8.244349000">
        <ele>189.00000</ele>
        <time>2008-10-19T12:11:45Z</time>
      </trkpt>
      <trkpt lat="48.76395000" lon="8.244301000">
        <ele>189.00000</ele>
        <time>2008-10-19T12:11:45Z</time>
      </trkpt>
      <trkpt lat="48.76394000" lon="8.244254000">
        <ele>189.00000</ele>
        <time>2008-10-19T12:11:45Z</time>
      </trkpt>
      <trkpt lat="48.76392000" lon="8.244206000">
        <ele>189.00000</ele>
        <time>2008-10-19T12:11:45Z</time>
      </trkpt>
      <trkpt lat="48.76390000" lon="8.244160000">
        <ele>189.00000</ele>
        <time>2008-10-19T12:11:45Z</time>
      </trkpt>
      <trkpt lat="48.76389000" lon="8.244123000">
        <ele>189.00000</ele>
        <time>2008-10-19T12:11:45Z</time>
      </trkpt>
      <trkpt lat="48.76389000" lon="8.244086000">
        <ele>189.00000</ele>
        <time>2008-10-19T12:11:45Z</time>
      </trkpt>
      <trkpt lat="48.76387000" lon="8.244057000">
        <ele>189.00000</ele>
        <time>2008-10-19T12:11:45Z</time>
      </trkpt>
      <trkpt lat="48.76385000" lon="8.244030000">
        <ele>189.00000</ele>
        <time>2008-10-19T12:11:45Z</time>
      </trkpt>
      <trkpt lat="48.76382000" lon="8.244006000">
        <ele>189.00000</ele>
        <time>2008-10-19T12:11:45Z</time>
      </trkpt>
      <trkpt lat="48.76379000" lon="8.243980000">
        <ele>189.00000</ele>
        <time>2008-10-19T12:11:45Z</time>
      </trkpt>
      <trkpt lat="48.76376000" lon="8.243959000">
        <ele>189.00000</ele>
        <time>2008-10-19T12:11:45Z</time>
      </trkpt>
      <trkpt lat="48.76373000" lon="8.243938000">
        <ele>176.00000</ele>
        <time>2008-10-19T12:11:45Z</time>
      </trkpt>
      <trkpt lat="48.76370000" lon="8.243922000">
        <ele>176.00000</ele>
        <time>2008-10-19T12:11:45Z</time>
      </trkpt>
      <trkpt lat="48.76366000" lon="8.243915000">
        <ele>176.00000</ele>
        <time>2008-10-19T12:11:45Z</time>
      </trkpt>
      <trkpt lat="48.76363000" lon="8.243913000">
        <ele>176.00000</ele>
        <time>2008-10-19T12:11:45Z</time>
      </trkpt>
      <trkpt lat="48.76360000" lon="8.243901000">
        <ele>176.00000</ele>
        <time>2008-10-19T12:11:45Z</time>
      </trkpt>
      <trkpt lat="48.76357000" lon="8.243893000">
        <ele>176.00000</ele>
        <time>2008-10-19T12:11:45Z</time>
      </trkpt>
      <trkpt lat="48.76353000" lon="8.243884000">
        <ele>176.00000</ele>
        <time>2008-10-19T12:11:45Z</time>
      </trkpt>
      <trkpt lat="48.76350000" lon="8.243877000">
        <ele>176.00000</ele>
        <time>2008-10-19T12:11:45Z</time>
      </trkpt>
      <trkpt lat="48.76347000" lon="8.243871000">
        <ele>176.00000</ele>
        <time>2008-10-19T12:11:45Z</time>
      </trkpt>
      <trkpt lat="48.76344000" lon="8.243859000">
        <ele>176.00000</ele>
        <time>2008-10-19T12:11:45Z</time>
      </trkpt>
      <trkpt lat="48.76340000" lon="8.243849000">
        <ele>176.00000</ele>
        <time>2008-10-19T12:11:45Z</time>
      </trkpt>
      <trkpt lat="48.76337000" lon="8.243838000">
        <ele>176.00000</ele>
        <time>2008-10-19T12:11:45Z</time>
      </trkpt>
      <trkpt lat="48.76333000" lon="8.243826000">
        <ele>176.00000</ele>
        <time>2008-10-19T12:11:45Z</time>
      </trkpt>
      <trkpt lat="48.76330000" lon="8.243818000">
        <ele>176.00000</ele>
        <time>2008-10-19T12:11:45Z</time>
      </trkpt>
      <trkpt lat="48.76327000" lon="8.243808000">
        <ele>176.00000</ele>
        <time>2008-10-19T12:11:45Z</time>
      </trkpt>
      <trkpt lat="48.76323000" lon="8.243802000">
        <ele>176.00000</ele>
        <time>2008-10-19T12:11:45Z</time>
      </trkpt>
      <trkpt lat="48.76321000" lon="8.243794000">
        <ele>176.00000</ele>
        <time>2008-10-19T12:11:45Z</time>
      </trkpt>
      <trkpt lat="48.76318000" lon="8.243789000">
        <ele>176.00000</ele>
        <time>2008-10-19T12:11:45Z</time>
      </trkpt>
      <trkpt lat="48.76315000" lon="8.243784000">
        <ele>176.00000</ele>
        <time>2008-10-19T12:11:45Z</time>
      </trkpt>
      <trkpt lat="48.76312000" lon="8.243781000">
        <ele>176.00000</ele>
        <time>2008-10-19T12:11:45Z</time>
      </trkpt>
      <trkpt lat="48.76309000" lon="8.243776000">
        <ele>176.00000</ele>
        <time>2008-10-19T12:11:45Z</time>
      </trkpt>
      <trkpt lat="48.76305000" lon="8.243773000">
        <ele>176.00000</ele>
        <time>2008-10-19T12:11:45Z</time>
      </trkpt>
      <trkpt lat="48.76302000" lon="8.243774000">
        <ele>176.00000</ele>
        <time>2008-10-19T12:11:45Z</time>
      </trkpt>
      <trkpt lat="48.76299000" lon="8.243771000">
        <ele>176.00000</ele>
        <time>2008-10-19T12:11:45Z</time>
      </trkpt>
      <trkpt lat="48.76297000" lon="8.243759000">
        <ele>176.00000</ele>
        <time>2008-10-19T12:11:45Z</time>
      </trkpt>
      <trkpt lat="48.76294000" lon="8.243741000">
        <ele>177.00000</ele>
        <time>2008-10-19T12:11:45Z</time>
      </trkpt>
      <trkpt lat="48.76292000" lon="8.243731000">
        <ele>177.00000</ele>
        <time>2008-10-19T12:11:45Z</time>
      </trkpt>
      <trkpt lat="48.76289000" lon="8.243735000">
        <ele>175.00000</ele>
        <time>2008-10-19T12:11:45Z</time>
      </trkpt>
      <trkpt lat="48.76286000" lon="8.243739000">
        <ele>175.00000</ele>
        <time>2008-10-19T12:11:45Z</time>
      </trkpt>
      <trkpt lat="48.76283000" lon="8.243739000">
        <ele>175.00000</ele>
        <time>2008-10-19T12:11:45Z</time>
      </trkpt>
      <trkpt lat="48.76281000" lon="8.243752000">
        <ele>181.00000</ele>
        <time>2008-10-19T12:11:45Z</time>
      </trkpt>
      <trkpt lat="48.76278000" lon="8.243767000">
        <ele>181.00000</ele>
        <time>2008-10-19T12:11:45Z</time>
      </trkpt>
      <trkpt lat="48.76276000" lon="8.243788000">
        <ele>181.00000</ele>
        <time>2008-10-19T12:11:45Z</time>
      </trkpt>
      <trkpt lat="48.76272000" lon="8.243806000">
        <ele>181.00000</ele>
        <time>2008-10-19T12:11:45Z</time>
      </trkpt>
      <trkpt lat="48.76269000" lon="8.243818000">
        <ele>181.00000</ele>
        <time>2008-10-19T12:11:45Z</time>
      </trkpt>
      <trkpt lat="48.76266000" lon="8.243831000">
        <ele>181.00000</ele>
        <time>2008-10-19T12:11:45Z</time>
      </trkpt>
      <trkpt lat="48.76263000" lon="8.243848000">
        <ele>181.00000</ele>
        <time>2008-10-19T12:11:45Z</time>
      </trkpt>
      <trkpt lat="48.76260000" lon="8.243863000">
        <ele>181.00000</ele>
        <time>2008-10-19T12:11:45Z</time>
      </trkpt>
      <trkpt lat="48.76256000" lon="8.243887000">
        <ele>181.00000</ele>
        <time>2008-10-19T12:11:45Z</time>
      </trkpt>
      <trkpt lat="48.76253000" lon="8.243898000">
        <ele>181.00000</ele>
        <time>2008-10-19T12:11:45Z</time>
      </trkpt>
      <trkpt lat="48.76249000" lon="8.243916000">
        <ele>181.00000</ele>
        <time>2008-10-19T12:11:45Z</time>
      </trkpt>
      <trkpt lat="48.76246000" lon="8.243915000">
        <ele>181.00000</ele>
        <time>2008-10-19T12:11:45Z</time>
      </trkpt>
      <trkpt lat="48.76243000" lon="8.243914000">
        <ele>181.00000</ele>
        <time>2008-10-19T12:11:45Z</time>
      </trkpt>
      <trkpt lat="48.76241000" lon="8.243900000">
        <ele>181.00000</ele>
        <time>2008-10-19T12:11:45Z</time>
      </trkpt>
      <trkpt lat="48.76238000" lon="8.243876000">
        <ele>181.00000</ele>
        <time>2008-10-19T12:11:45Z</time>
      </trkpt>
      <trkpt lat="48.76236000" lon="8.243838000">
        <ele>181.00000</ele>
        <time>2008-10-19T12:11:45Z</time>
      </trkpt>
      <trkpt lat="48.76235000" lon="8.243787000">
        <ele>181.00000</ele>
        <time>2008-10-19T12:11:45Z</time>
      </trkpt>
      <trkpt lat="48.76234000" lon="8.243735000">
        <ele>175.00000</ele>
        <time>2008-10-19T12:11:45Z</time>
      </trkpt>
      <trkpt lat="48.76233000" lon="8.243693000">
        <ele>175.00000</ele>
        <time>2008-10-19T12:11:45Z</time>
      </trkpt>
      <trkpt lat="48.76233000" lon="8.243649000">
        <ele>175.00000</ele>
        <time>2008-10-19T12:11:45Z</time>
      </trkpt>
      <trkpt lat="48.76231000" lon="8.243612000">
        <ele>175.00000</ele>
        <time>2008-10-19T12:11:45Z</time>
      </trkpt>
      <trkpt lat="48.76230000" lon="8.243573000">
        <ele>175.00000</ele>
        <time>2008-10-19T12:11:45Z</time>
      </trkpt>
      <trkpt lat="48.76229000" lon="8.243530000">
        <ele>175.00000</ele>
        <time>2008-10-19T12:11:45Z</time>
      </trkpt>
      <trkpt lat="48.76228000" lon="8.243485000">
        <ele>175.00000</ele>
        <time>2008-10-19T12:11:45Z</time>
      </trkpt>
      <trkpt lat="48.76227000" lon="8.243444000">
        <ele>175.00000</ele>
        <time>2008-10-19T12:11:45Z</time>
      </trkpt>
      <trkpt lat="48.76226000" lon="8.243408000">
        <ele>175.00000</ele>
        <time>2008-10-19T12:11:45Z</time>
      </trkpt>
      <trkpt lat="48.76224000" lon="8.243372000">
        <ele>175.00000</ele>
        <time>2008-10-19T12:11:45Z</time>
      </trkpt>
      <trkpt lat="48.76223000" lon="8.243340000">
        <ele>175.00000</ele>
        <time>2008-10-19T12:11:45Z</time>
      </trkpt>
      <trkpt lat="48.76221000" lon="8.243306000">
        <ele>175.00000</ele>
        <time>2008-10-19T12:11:45Z</time>
      </trkpt>
      <trkpt lat="48.76221000" lon="8.243281000">
        <ele>175.00000</ele>
        <time>2008-10-19T12:11:45Z</time>
      </trkpt>
      <trkpt lat="48.76219000" lon="8.243254000">
        <ele>175.00000</ele>
        <time>2008-10-19T12:11:45Z</time>
      </trkpt>
      <trkpt lat="48.76218000" lon="8.243218000">
        <ele>175.00000</ele>
        <time>2008-10-19T12:11:45Z</time>
      </trkpt>
      <trkpt lat="48.76217000" lon="8.243181000">
        <ele>175.00000</ele>
        <time>2008-10-19T12:11:45Z</time>
      </trkpt>
      <trkpt lat="48.76215000" lon="8.243145000">
        <ele>175.00000</ele>
        <time>2008-10-19T12:11:45Z</time>
      </trkpt>
      <trkpt lat="48.76215000" lon="8.243107000">
        <ele>175.00000</ele>
        <time>2008-10-19T12:11:45Z</time>
      </trkpt>
      <trkpt lat="48.76213000" lon="8.243072000">
        <ele>175.00000</ele>
        <time>2008-10-19T12:11:45Z</time>
      </trkpt>
      <trkpt lat="48.76212000" lon="8.243032000">
        <ele>175.00000</ele>
        <time>2008-10-19T12:11:45Z</time>
      </trkpt>
      <trkpt lat="48.76210000" lon="8.242992000">
        <ele>175.00000</ele>
        <time>2008-10-19T12:11:45Z</time>
      </trkpt>
      <trkpt lat="48.76208000" lon="8.242964000">
        <ele>179.00000</ele>
        <time>2008-10-19T12:11:45Z</time>
      </trkpt>
      <trkpt lat="48.76207000" lon="8.242933000">
        <ele>179.00000</ele>
        <time>2008-10-19T12:11:45Z</time>
      </trkpt>
      <trkpt lat="48.76205000" lon="8.242897000">
        <ele>176.00000</ele>
        <time>2008-10-19T12:11:45Z</time>
      </trkpt>
      <trkpt lat="48.76205000" lon="8.242856000">
        <ele>176.00000</ele>
        <time>2008-10-19T12:11:45Z</time>
      </trkpt>
      <trkpt lat="48.76204000" lon="8.242821000">
        <ele>176.00000</ele>
        <time>2008-10-19T12:11:45Z</time>
      </trkpt>
      <trkpt lat="48.76202000" lon="8.242789000">
        <ele>176.00000</ele>
        <time>2008-10-19T12:11:45Z</time>
      </trkpt>
      <trkpt lat="48.76201000" lon="8.242735000">
        <ele>176.00000</ele>
        <time>2008-10-19T12:11:45Z</time>
      </trkpt>
      <trkpt lat="48.76200000" lon="8.242687000">
        <ele>176.00000</ele>
        <time>2008-10-19T12:11:45Z</time>
      </trkpt>
      <trkpt lat="48.76198000" lon="8.242653000">
        <ele>176.00000</ele>
        <time>2008-10-19T12:11:45Z</time>
      </trkpt>
      <trkpt lat="48.76196000" lon="8.242630000">
        <ele>176.00000</ele>
        <time>2008-10-19T12:11:45Z</time>
      </trkpt>
      <trkpt lat="48.76194000" lon="8.242610000">
        <ele>176.00000</ele>
        <time>2008-10-19T12:11:45Z</time>
      </trkpt>
      <trkpt lat="48.76191000" lon="8.242573000">
        <ele>176.00000</ele>
        <time>2008-10-19T12:11:45Z</time>
      </trkpt>
      <trkpt lat="48.76190000" lon="8.242534000">
        <ele>176.00000</ele>
        <time>2008-10-19T12:11:45Z</time>
      </trkpt>
      <trkpt lat="48.76189000" lon="8.242495000">
        <ele>176.00000</ele>
        <time>2008-10-19T12:11:45Z</time>
      </trkpt>
      <trkpt lat="48.76188000" lon="8.242459000">
        <ele>176.00000</ele>
        <time>2008-10-19T12:11:45Z</time>
      </trkpt>
      <trkpt lat="48.76187000" lon="8.242426000">
        <ele>176.00000</ele>
        <time>2008-10-19T12:11:45Z</time>
      </trkpt>
      <trkpt lat="48.76186000" lon="8.242391000">
        <ele>176.00000</ele>
        <time>2008-10-19T12:11:45Z</time>
      </trkpt>
      <trkpt lat="48.76186000" lon="8.242351000">
        <ele>176.00000</ele>
        <time>2008-10-19T12:11:45Z</time>
      </trkpt>
      <trkpt lat="48.76185000" lon="8.242312000">
        <ele>176.00000</ele>
        <time>2008-10-19T12:11:45Z</time>
      </trkpt>
      <trkpt lat="48.76184000" lon="8.242265000">
        <ele>176.00000</ele>
        <time>2008-10-19T12:11:45Z</time>
      </trkpt>
      <trkpt lat="48.76183000" lon="8.242226000">
        <ele>176.00000</ele>
        <time>2008-10-19T12:11:45Z</time>
      </trkpt>
      <trkpt lat="48.76182000" lon="8.242175000">
        <ele>176.00000</ele>
        <time>2008-10-19T12:11:45Z</time>
      </trkpt>
      <trkpt lat="48.76180000" lon="8.242126000">
        <ele>176.00000</ele>
        <time>2008-10-19T12:11:45Z</time>
      </trkpt>
      <trkpt lat="48.76179000" lon="8.242084000">
        <ele>176.00000</ele>
        <time>2008-10-19T12:11:45Z</time>
      </trkpt>
      <trkpt lat="48.76178000" lon="8.242043000">
        <ele>175.00000</ele>
        <time>2008-10-19T12:11:45Z</time>
      </trkpt>
      <trkpt lat="48.76176000" lon="8.242007000">
        <ele>175.00000</ele>
        <time>2008-10-19T12:11:45Z</time>
      </trkpt>
      <trkpt lat="48.76175000" lon="8.241983000">
        <ele>175.00000</ele>
        <time>2008-10-19T12:11:45Z</time>
      </trkpt>
      <trkpt lat="48.76174000" lon="8.241951000">
        <ele>175.00000</ele>
        <time>2008-10-19T12:11:45Z</time>
      </trkpt>
      <trkpt lat="48.76173000" lon="8.241911000">
        <ele>175.00000</ele>
        <time>2008-10-19T12:11:45Z</time>
      </trkpt>
      <trkpt lat="48.76173000" lon="8.241869000">
        <ele>175.00000</ele>
        <time>2008-10-19T12:11:45Z</time>
      </trkpt>
      <trkpt lat="48.76172000" lon="8.241831000">
        <ele>175.00000</ele>
        <time>2008-10-19T12:11:45Z</time>
      </trkpt>
      <trkpt lat="48.76172000" lon="8.241800000">
        <ele>175.00000</ele>
        <time>2008-10-19T12:11:45Z</time>
      </trkpt>
      <trkpt lat="48.76173000" lon="8.241757000">
        <ele>175.00000</ele>
        <time>2008-10-19T12:11:45Z</time>
      </trkpt>
      <trkpt lat="48.76173000" lon="8.241723000">
        <ele>175.00000</ele>
        <time>2008-10-19T12:11:45Z</time>
      </trkpt>
      <trkpt lat="48.76173000" lon="8.241690000">
        <ele>175.00000</ele>
        <time>2008-10-19T12:11:45Z</time>
      </trkpt>
      <trkpt lat="48.76171000" lon="8.241650000">
        <ele>175.00000</ele>
        <time>2008-10-19T12:11:45Z</time>
      </trkpt>
      <trkpt lat="48.76170000" lon="8.241601000">
        <ele>175.00000</ele>
        <time>2008-10-19T12:11:45Z</time>
      </trkpt>
      <trkpt lat="48.76168000" lon="8.241551000">
        <ele>175.00000</ele>
        <time>2008-10-19T12:11:45Z</time>
      </trkpt>
      <trkpt lat="48.76167000" lon="8.241503000">
        <ele>175.00000</ele>
        <time>2008-10-19T12:11:45Z</time>
      </trkpt>
      <trkpt lat="48.76166000" lon="8.241467000">
        <ele>175.00000</ele>
        <time>2008-10-19T12:11:45Z</time>
      </trkpt>
      <trkpt lat="48.76165000" lon="8.241430000">
        <ele>175.00000</ele>
        <time>2008-10-19T12:11:45Z</time>
      </trkpt>
      <trkpt lat="48.76163000" lon="8.241385000">
        <ele>175.00000</ele>
        <time>2008-10-19T12:11:45Z</time>
      </trkpt>
      <trkpt lat="48.76161000" lon="8.241351000">
        <ele>175.00000</ele>
        <time>2008-10-19T12:11:45Z</time>
      </trkpt>
      <trkpt lat="48.76160000" lon="8.241321000">
        <ele>175.00000</ele>
        <time>2008-10-19T12:11:45Z</time>
      </trkpt>
      <trkpt lat="48.76158000" lon="8.241286000">
        <ele>175.00000</ele>
        <time>2008-10-19T12:11:45Z</time>
      </trkpt>
      <trkpt lat="48.76155000" lon="8.241258000">
        <ele>175.00000</ele>
        <time>2008-10-19T12:11:45Z</time>
      </trkpt>
      <trkpt lat="48.76153000" lon="8.241225000">
        <ele>173.00000</ele>
        <time>2008-10-19T12:11:45Z</time>
      </trkpt>
      <trkpt lat="48.76151000" lon="8.241186000">
        <ele>173.00000</ele>
        <time>2008-10-19T12:11:45Z</time>
      </trkpt>
      <trkpt lat="48.76149000" lon="8.241150000">
        <ele>173.00000</ele>
        <time>2008-10-19T12:11:45Z</time>
      </trkpt>
      <trkpt lat="48.76147000" lon="8.241114000">
        <ele>173.00000</ele>
        <time>2008-10-19T12:11:45Z</time>
      </trkpt>
      <trkpt lat="48.76147000" lon="8.241077000">
        <ele>173.00000</ele>
        <time>2008-10-19T12:11:45Z</time>
      </trkpt>
      <trkpt lat="48.76147000" lon="8.241041000">
        <ele>173.00000</ele>
        <time>2008-10-19T12:11:45Z</time>
      </trkpt>
      <trkpt lat="48.76147000" lon="8.241003000">
        <ele>173.00000</ele>
        <time>2008-10-19T12:11:45Z</time>
      </trkpt>
      <trkpt lat="48.76147000" lon="8.240956000">
        <ele>173.00000</ele>
        <time>2008-10-19T12:11:45Z</time>
      </trkpt>
      <trkpt lat="48.76145000" lon="8.240908000">
        <ele>173.00000</ele>
        <time>2008-10-19T12:11:45Z</time>
      </trkpt>
      <trkpt lat="48.76143000" lon="8.240864000">
        <ele>173.00000</ele>
        <time>2008-10-19T12:11:45Z</time>
      </trkpt>
      <trkpt lat="48.76141000" lon="8.240831000">
        <ele>173.00000</ele>
        <time>2008-10-19T12:11:45Z</time>
      </trkpt>
      <trkpt lat="48.76139000" lon="8.240799000">
        <ele>173.00000</ele>
        <time>2008-10-19T12:11:45Z</time>
      </trkpt>
      <trkpt lat="48.76137000" lon="8.240767000">
        <ele>173.00000</ele>
        <time>2008-10-19T12:11:45Z</time>
      </trkpt>
      <trkpt lat="48.76134000" lon="8.240743000">
        <ele>173.00000</ele>
        <time>2008-10-19T12:11:45Z</time>
      </trkpt>
      <trkpt lat="48.76132000" lon="8.240711000">
        <ele>173.00000</ele>
        <time>2008-10-19T12:11:45Z</time>
      </trkpt>
      <trkpt lat="48.76130000" lon="8.240676000">
        <ele>173.00000</ele>
        <time>2008-10-19T12:11:45Z</time>
      </trkpt>
      <trkpt lat="48.76128000" lon="8.240646000">
        <ele>173.00000</ele>
        <time>2008-10-19T12:11:45Z</time>
      </trkpt>
      <trkpt lat="48.76126000" lon="8.240615000">
        <ele>173.00000</ele>
        <time>2008-10-19T12:11:45Z</time>
      </trkpt>
      <trkpt lat="48.76125000" lon="8.240586000">
        <ele>173.00000</ele>
        <time>2008-10-19T12:11:45Z</time>
      </trkpt>
      <trkpt lat="48.76123000" lon="8.240554000">
        <ele>173.00000</ele>
        <time>2008-10-19T12:11:45Z</time>
      </trkpt>
      <trkpt lat="48.76122000" lon="8.240517000">
        <ele>173.00000</ele>
        <time>2008-10-19T12:11:45Z</time>
      </trkpt>
      <trkpt lat="48.76120000" lon="8.240478000">
        <ele>173.00000</ele>
        <time>2008-10-19T12:11:45Z</time>
      </trkpt>
      <trkpt lat="48.76119000" lon="8.240443000">
        <ele>173.00000</ele>
        <time>2008-10-19T12:11:45Z</time>
      </trkpt>
      <trkpt lat="48.76119000" lon="8.240402000">
        <ele>169.00000</ele>
        <time>2008-10-19T12:11:45Z</time>
      </trkpt>
      <trkpt lat="48.76118000" lon="8.240352000">
        <ele>169.00000</ele>
        <time>2008-10-19T12:11:45Z</time>
      </trkpt>
      <trkpt lat="48.76117000" lon="8.240288000">
        <ele>169.00000</ele>
        <time>2008-10-19T12:11:45Z</time>
      </trkpt>
      <trkpt lat="48.76115000" lon="8.240229000">
        <ele>169.00000</ele>
        <time>2008-10-19T12:11:45Z</time>
      </trkpt>
      <trkpt lat="48.76114000" lon="8.240169000">
        <ele>169.00000</ele>
        <time>2008-10-19T12:11:45Z</time>
      </trkpt>
      <trkpt lat="48.76113000" lon="8.240108000">
        <ele>169.00000</ele>
        <time>2008-10-19T12:11:45Z</time>
      </trkpt>
      <trkpt lat="48.76112000" lon="8.240055000">
        <ele>169.00000</ele>
        <time>2008-10-19T12:11:45Z</time>
      </trkpt>
      <trkpt lat="48.76111000" lon="8.239999000">
        <ele>169.00000</ele>
        <time>2008-10-19T12:11:45Z</time>
      </trkpt>
      <trkpt lat="48.76110000" lon="8.239947000">
        <ele>169.00000</ele>
        <time>2008-10-19T12:11:45Z</time>
      </trkpt>
      <trkpt lat="48.76109000" lon="8.239888000">
        <ele>169.00000</ele>
        <time>2008-10-19T12:11:45Z</time>
      </trkpt>
      <trkpt lat="48.76108000" lon="8.239829000">
        <ele>169.00000</ele>
        <time>2008-10-19T12:11:45Z</time>
      </trkpt>
      <trkpt lat="48.76106000" lon="8.239779000">
        <ele>169.00000</ele>
        <time>2008-10-19T12:11:45Z</time>
      </trkpt>
      <trkpt lat="48.76104000" lon="8.239746000">
        <ele>169.00000</ele>
        <time>2008-10-19T12:11:45Z</time>
      </trkpt>
      <trkpt lat="48.76102000" lon="8.239717000">
        <ele>169.00000</ele>
        <time>2008-10-19T12:11:45Z</time>
      </trkpt>
      <trkpt lat="48.76101000" lon="8.239682000">
        <ele>169.00000</ele>
        <time>2008-10-19T12:11:45Z</time>
      </trkpt>
      <trkpt lat="48.76101000" lon="8.239648000">
        <ele>169.00000</ele>
        <time>2008-10-19T12:11:45Z</time>
      </trkpt>
      <trkpt lat="48.76100000" lon="8.239619000">
        <ele>169.00000</ele>
        <time>2008-10-19T12:11:45Z</time>
      </trkpt>
      <trkpt lat="48.76102000" lon="8.239569000">
        <ele>165.00000</ele>
        <time>2008-10-19T12:11:45Z</time>
      </trkpt>
      <trkpt lat="48.76104000" lon="8.239512000">
        <ele>165.00000</ele>
        <time>2008-10-19T12:11:45Z</time>
      </trkpt>
      <trkpt lat="48.76105000" lon="8.239466000">
        <ele>165.00000</ele>
        <time>2008-10-19T12:11:45Z</time>
      </trkpt>
      <trkpt lat="48.76106000" lon="8.239420000">
        <ele>165.00000</ele>
        <time>2008-10-19T12:11:45Z</time>
      </trkpt>
      <trkpt lat="48.76107000" lon="8.239377000">
        <ele>165.00000</ele>
        <time>2008-10-19T12:11:45Z</time>
      </trkpt>
      <trkpt lat="48.76108000" lon="8.239352000">
        <ele>165.00000</ele>
        <time>2008-10-19T12:11:45Z</time>
      </trkpt>
      <trkpt lat="48.76110000" lon="8.239306000">
        <ele>165.00000</ele>
        <time>2008-10-19T12:11:45Z</time>
      </trkpt>
      <trkpt lat="48.76113000" lon="8.239248000">
        <ele>165.00000</ele>
        <time>2008-10-19T12:11:45Z</time>
      </trkpt>
      <trkpt lat="48.76115000" lon="8.239208000">
        <ele>165.00000</ele>
        <time>2008-10-19T12:11:45Z</time>
      </trkpt>
      <trkpt lat="48.76117000" lon="8.239168000">
        <ele>165.00000</ele>
        <time>2008-10-19T12:11:45Z</time>
      </trkpt>
      <trkpt lat="48.76122000" lon="8.239120000">
        <ele>165.00000</ele>
        <time>2008-10-19T12:11:45Z</time>
      </trkpt>
      <trkpt lat="48.76126000" lon="8.239065000">
        <ele>170.00000</ele>
        <time>2008-10-19T12:11:45Z</time>
      </trkpt>
      <trkpt lat="48.76131000" lon="8.239010000">
        <ele>170.00000</ele>
        <time>2008-10-19T12:11:45Z</time>
      </trkpt>
      <trkpt lat="48.76135000" lon="8.238959000">
        <ele>170.00000</ele>
        <time>2008-10-19T12:11:45Z</time>
      </trkpt>
      <trkpt lat="48.76138000" lon="8.238917000">
        <ele>170.00000</ele>
        <time>2008-10-19T12:11:45Z</time>
      </trkpt>
      <trkpt lat="48.76139000" lon="8.238868000">
        <ele>170.00000</ele>
        <time>2008-10-19T12:11:45Z</time>
      </trkpt>
      <trkpt lat="48.76141000" lon="8.238812000">
        <ele>170.00000</ele>
        <time>2008-10-19T12:11:45Z</time>
      </trkpt>
      <trkpt lat="48.76140000" lon="8.238756000">
        <ele>170.00000</ele>
        <time>2008-10-19T12:11:45Z</time>
      </trkpt>
      <trkpt lat="48.76141000" lon="8.238706000">
        <ele>166.00000</ele>
        <time>2008-10-19T12:11:45Z</time>
      </trkpt>
      <trkpt lat="48.76140000" lon="8.238662000">
        <ele>166.00000</ele>
        <time>2008-10-19T12:11:45Z</time>
      </trkpt>
      <trkpt lat="48.76137000" lon="8.238615000">
        <ele>166.00000</ele>
        <time>2008-10-19T12:11:45Z</time>
      </trkpt>
      <trkpt lat="48.76133000" lon="8.238577000">
        <ele>166.00000</ele>
        <time>2008-10-19T12:11:45Z</time>
      </trkpt>
      <trkpt lat="48.76131000" lon="8.238553000">
        <ele>166.00000</ele>
        <time>2008-10-19T12:11:45Z</time>
      </trkpt>
      <trkpt lat="48.76131000" lon="8.238527000">
        <ele>166.00000</ele>
        <time>2008-10-19T12:11:45Z</time>
      </trkpt>
      <trkpt lat="48.76128000" lon="8.238512000">
        <ele>166.00000</ele>
        <time>2008-10-19T12:11:45Z</time>
      </trkpt>
      <trkpt lat="48.76123000" lon="8.238504000">
        <ele>163.00000</ele>
        <time>2008-10-19T12:11:45Z</time>
      </trkpt>
      <trkpt lat="48.76117000" lon="8.238508000">
        <ele>163.00000</ele>
        <time>2008-10-19T12:11:45Z</time>
      </trkpt>
      <trkpt lat="48.76110000" lon="8.238487000">
        <ele>163.00000</ele>
        <time>2008-10-19T12:11:45Z</time>
      </trkpt>
      <trkpt lat="48.76105000" lon="8.238487000">
        <ele>163.00000</ele>
        <time>2008-10-19T12:11:45Z</time>
      </trkpt>
      <trkpt lat="48.76100000" lon="8.238488000">
        <ele>163.00000</ele>
        <time>2008-10-19T12:11:45Z</time>
      </trkpt>
      <trkpt lat="48.76095000" lon="8.238503000">
        <ele>163.00000</ele>
        <time>2008-10-19T12:11:45Z</time>
      </trkpt>
      <trkpt lat="48.76092000" lon="8.238523000">
        <ele>163.00000</ele>
        <time>2008-10-19T12:11:45Z</time>
      </trkpt>
      <trkpt lat="48.76090000" lon="8.238546000">
        <ele>163.00000</ele>
        <time>2008-10-19T12:11:45Z</time>
      </trkpt>
      <trkpt lat="48.76088000" lon="8.238578000">
        <ele>163.00000</ele>
        <time>2008-10-19T12:11:45Z</time>
      </trkpt>
      <trkpt lat="48.76085000" lon="8.238610000">
        <ele>163.00000</ele>
        <time>2008-10-19T12:11:45Z</time>
      </trkpt>
      <trkpt lat="48.76080000" lon="8.238647000">
        <ele>163.00000</ele>
        <time>2008-10-19T12:11:45Z</time>
      </trkpt>
      <trkpt lat="48.76077000" lon="8.238677000">
        <ele>163.00000</ele>
        <time>2008-10-19T12:11:45Z</time>
      </trkpt>
      <trkpt lat="48.76073000" lon="8.238721000">
        <ele>163.00000</ele>
        <time>2008-10-19T12:11:45Z</time>
      </trkpt>
      <trkpt lat="48.76071000" lon="8.238744000">
        <ele>163.00000</ele>
        <time>2008-10-19T12:11:45Z</time>
      </trkpt>
      <trkpt lat="48.76067000" lon="8.238763000">
        <ele>165.00000</ele>
        <time>2008-10-19T12:11:45Z</time>
      </trkpt>
      <trkpt lat="48.76063000" lon="8.238791000">
        <ele>165.00000</ele>
        <time>2008-10-19T12:11:45Z</time>
      </trkpt>
      <trkpt lat="48.76060000" lon="8.238804000">
        <ele>165.00000</ele>
        <time>2008-10-19T12:11:45Z</time>
      </trkpt>
      <trkpt lat="48.76056000" lon="8.238813000">
        <ele>165.00000</ele>
        <time>2008-10-19T12:11:45Z</time>
      </trkpt>
      <trkpt lat="48.76052000" lon="8.238787000">
        <ele>165.00000</ele>
        <time>2008-10-19T12:11:45Z</time>
      </trkpt>
      <trkpt lat="48.76048000" lon="8.238760000">
        <ele>165.00000</ele>
        <time>2008-10-19T12:11:45Z</time>
      </trkpt>
      <trkpt lat="48.76045000" lon="8.238724000">
        <ele>163.00000</ele>
        <time>2008-10-19T12:11:45Z</time>
      </trkpt>
      <trkpt lat="48.76043000" lon="8.238688000">
        <ele>163.00000</ele>
        <time>2008-10-19T12:11:45Z</time>
      </trkpt>
      <trkpt lat="48.76040000" lon="8.238654000">
        <ele>161.00000</ele>
        <time>2008-10-19T12:11:45Z</time>
      </trkpt>
      <trkpt lat="48.76038000" lon="8.238620000">
        <ele>161.00000</ele>
        <time>2008-10-19T12:11:45Z</time>
      </trkpt>
      <trkpt lat="48.76034000" lon="8.238604000">
        <ele>161.00000</ele>
        <time>2008-10-19T12:11:45Z</time>
      </trkpt>
      <trkpt lat="48.76030000" lon="8.238604000">
        <ele>161.00000</ele>
        <time>2008-10-19T12:11:45Z</time>
      </trkpt>
      <trkpt lat="48.76027000" lon="8.238608000">
        <ele>161.00000</ele>
        <time>2008-10-19T12:11:45Z</time>
      </trkpt>
      <trkpt lat="48.76024000" lon="8.238617000">
        <ele>161.00000</ele>
        <time>2008-10-19T12:11:45Z</time>
      </trkpt>
      <trkpt lat="48.76020000" lon="8.238627000">
        <ele>161.00000</ele>
        <time>2008-10-19T12:11:45Z</time>
      </trkpt>
      <trkpt lat="48.76017000" lon="8.238644000">
        <ele>161.00000</ele>
        <time>2008-10-19T12:11:45Z</time>
      </trkpt>
      <trkpt lat="48.76013000" lon="8.238659000">
        <ele>161.00000</ele>
        <time>2008-10-19T12:11:45Z</time>
      </trkpt>
      <trkpt lat="48.76009000" lon="8.238667000">
        <ele>161.00000</ele>
        <time>2008-10-19T12:11:45Z</time>
      </trkpt>
      <trkpt lat="48.76006000" lon="8.238680000">
        <ele>161.00000</ele>
        <time>2008-10-19T12:11:45Z</time>
      </trkpt>
      <trkpt lat="48.76002000" lon="8.238690000">
        <ele>161.00000</ele>
        <time>2008-10-19T12:11:45Z</time>
      </trkpt>
      <trkpt lat="48.75998000" lon="8.238698000">
        <ele>161.00000</ele>
        <time>2008-10-19T12:11:45Z</time>
      </trkpt>
      <trkpt lat="48.75994000" lon="8.238693000">
        <ele>161.00000</ele>
        <time>2008-10-19T12:11:45Z</time>
      </trkpt>
      <trkpt lat="48.75991000" lon="8.238680000">
        <ele>161.00000</ele>
        <time>2008-10-19T12:11:45Z</time>
      </trkpt>
      <trkpt lat="48.75987000" lon="8.238670000">
        <ele>161.00000</ele>
        <time>2008-10-19T12:11:45Z</time>
      </trkpt>
      <trkpt lat="48.75984000" lon="8.238674000">
        <ele>161.00000</ele>
        <time>2008-10-19T12:11:45Z</time>
      </trkpt>
    </trkseg>
  </trk>
</gpx>

